<?xml version="1.0" encoding="UTF-8"?>
<gpx version="1.1" creator="https://www.youtrack.es" xsi:schemaLocation="http://www.topografix.com/GPX/1/1 http://www.topografix.com/GPX/1/1/gpx.xsd http://www.garmin.com/xmlschemas/GpxExtensions/v3 http://www.garmin.com/xmlschemas/GpxExtensionsv3.xsd http://www.garmin.com/xmlschemas/TrackPointExtension/v1 http://www.garmin.com/xmlschemas/TrackPointExtensionv1.xsd" xmlns:gpxtpx="http://www.garmin.com/xmlschemas/TrackPointExtension/v1" xmlns:gpxx="http://www.garmin.com/xmlschemas/GpxExtensions/v3" xmlns:xsi="http://www.w3.org/2001/XMLSchema-instance">
  <metadata>
    <link href="https://www.youtrack.es">
      <text>YouTrack.es</text>
    </link>
    <time>2026-05-10T12:02:15Z</time>
  </metadata>
  <trk>
    <src>https://www.youtrack.es</src>
    <link href="https://www.youtrack.es/ruta/9749-caminio-de-los-descubridores">
      <text>YouTrack.es</text>
    </link>
    <trkseg>
      <trkpt lat="" lon=""/>
      <trkpt lat="39.404483" lon="-5.976958">
        <ele>420.714111</ele>
        <time>2011-04-27T17:15:07Z</time>
      </trkpt>
      <trkpt lat="39.437556" lon="-6.025437">
        <ele>424.078735</ele>
        <time>2011-04-27T17:13:25Z</time>
      </trkpt>
      <trkpt lat="39.435480" lon="-6.090634">
        <ele>429.846558</ele>
        <time>2011-04-27T17:13:06Z</time>
      </trkpt>
      <trkpt lat="39.438003" lon="-6.273943">
        <ele>429.846558</ele>
        <time>2011-04-27T17:12:17Z</time>
      </trkpt>
      <trkpt lat="39.438710" lon="-6.270210">
        <ele>431.288574</ele>
        <time>2010-05-21T07:34:25Z</time>
      </trkpt>
      <trkpt lat="39.438190" lon="-6.270480">
        <ele>431.288574</ele>
        <time>2010-05-21T07:34:26Z</time>
      </trkpt>
      <trkpt lat="39.437820" lon="-6.271460">
        <ele>432.730713</ele>
        <time>2010-05-21T07:34:27Z</time>
      </trkpt>
      <trkpt lat="39.437790" lon="-6.271510">
        <ele>435.133911</ele>
        <time>2010-05-21T07:34:28Z</time>
      </trkpt>
      <trkpt lat="39.437670" lon="-6.271440">
        <ele>431.288574</ele>
        <time>2010-05-21T07:34:29Z</time>
      </trkpt>
      <trkpt lat="39.437580" lon="-6.271220">
        <ele>427.923950</ele>
        <time>2010-05-21T07:34:30Z</time>
      </trkpt>
      <trkpt lat="39.437480" lon="-6.271020">
        <ele>424.078735</ele>
        <time>2010-05-21T07:34:31Z</time>
      </trkpt>
      <trkpt lat="39.437190" lon="-6.270700">
        <ele>423.598022</ele>
        <time>2010-05-21T07:34:32Z</time>
      </trkpt>
      <trkpt lat="39.437090" lon="-6.270550">
        <ele>423.117432</ele>
        <time>2010-05-21T07:34:33Z</time>
      </trkpt>
      <trkpt lat="39.436610" lon="-6.270030">
        <ele>423.117432</ele>
        <time>2010-05-21T07:34:34Z</time>
      </trkpt>
      <trkpt lat="39.436380" lon="-6.269820">
        <ele>420.714111</ele>
        <time>2010-05-21T07:34:35Z</time>
      </trkpt>
      <trkpt lat="39.436380" lon="-6.269840">
        <ele>418.310791</ele>
        <time>2010-05-21T07:34:36Z</time>
      </trkpt>
      <trkpt lat="39.436250" lon="-6.269720">
        <ele>423.117432</ele>
        <time>2010-05-21T07:34:37Z</time>
      </trkpt>
      <trkpt lat="39.435590" lon="-6.268940">
        <ele>431.769165</ele>
        <time>2010-05-21T07:34:38Z</time>
      </trkpt>
      <trkpt lat="39.434940" lon="-6.268150">
        <ele>428.885376</ele>
        <time>2010-05-21T07:34:39Z</time>
      </trkpt>
      <trkpt lat="39.434320" lon="-6.267370">
        <ele>426.001343</ele>
        <time>2010-05-21T07:34:40Z</time>
      </trkpt>
      <trkpt lat="39.433670" lon="-6.266580">
        <ele>417.830200</ele>
        <time>2010-05-21T07:34:41Z</time>
      </trkpt>
      <trkpt lat="39.432830" lon="-6.265590">
        <ele>411.100922</ele>
        <time>2010-05-21T07:34:42Z</time>
      </trkpt>
      <trkpt lat="39.432440" lon="-6.265040">
        <ele>410.620270</ele>
        <time>2010-05-21T07:34:43Z</time>
      </trkpt>
      <trkpt lat="39.431740" lon="-6.263940">
        <ele>410.139648</ele>
        <time>2010-05-21T07:34:44Z</time>
      </trkpt>
      <trkpt lat="39.431040" lon="-6.262880">
        <ele>408.217041</ele>
        <time>2010-05-21T07:34:45Z</time>
      </trkpt>
      <trkpt lat="39.430500" lon="-6.262020">
        <ele>407.255615</ele>
        <time>2010-05-21T07:34:46Z</time>
      </trkpt>
      <trkpt lat="39.429830" lon="-6.261110">
        <ele>409.178345</ele>
        <time>2010-05-21T07:34:47Z</time>
      </trkpt>
      <trkpt lat="39.428920" lon="-6.260140">
        <ele>411.581635</ele>
        <time>2010-05-21T07:34:48Z</time>
      </trkpt>
      <trkpt lat="39.428020" lon="-6.259190">
        <ele>411.100922</ele>
        <time>2010-05-21T07:34:49Z</time>
      </trkpt>
      <trkpt lat="39.427470" lon="-6.258520">
        <ele>412.542847</ele>
        <time>2010-05-21T07:34:50Z</time>
      </trkpt>
      <trkpt lat="39.427110" lon="-6.257840">
        <ele>413.984863</ele>
        <time>2010-05-21T07:34:51Z</time>
      </trkpt>
      <trkpt lat="39.427090" lon="-6.257820">
        <ele>411.581635</ele>
        <time>2010-05-21T07:34:52Z</time>
      </trkpt>
      <trkpt lat="39.427060" lon="-6.257780">
        <ele>412.542847</ele>
        <time>2010-05-21T07:34:53Z</time>
      </trkpt>
      <trkpt lat="39.426910" lon="-6.257500">
        <ele>413.504272</ele>
        <time>2010-05-21T07:34:54Z</time>
      </trkpt>
      <trkpt lat="39.426320" lon="-6.256390">
        <ele>414.465454</ele>
        <time>2010-05-21T07:34:55Z</time>
      </trkpt>
      <trkpt lat="39.425630" lon="-6.255290">
        <ele>414.946167</ele>
        <time>2010-05-21T07:34:56Z</time>
      </trkpt>
      <trkpt lat="39.425210" lon="-6.254750">
        <ele>415.426880</ele>
        <time>2010-05-21T07:34:57Z</time>
      </trkpt>
      <trkpt lat="39.425070" lon="-6.254520">
        <ele>415.907501</ele>
        <time>2010-05-21T07:34:58Z</time>
      </trkpt>
      <trkpt lat="39.425140" lon="-6.254280">
        <ele>416.868866</ele>
        <time>2010-05-21T07:34:59Z</time>
      </trkpt>
      <trkpt lat="39.425140" lon="-6.254210">
        <ele>417.349609</ele>
        <time>2010-05-21T07:35:00Z</time>
      </trkpt>
      <trkpt lat="39.425110" lon="-6.254260">
        <ele>416.868866</ele>
        <time>2010-05-21T07:35:01Z</time>
      </trkpt>
      <trkpt lat="39.425080" lon="-6.254530">
        <ele>419.272217</ele>
        <time>2010-05-21T07:35:02Z</time>
      </trkpt>
      <trkpt lat="39.425120" lon="-6.254620">
        <ele>420.233398</ele>
        <time>2010-05-21T07:35:03Z</time>
      </trkpt>
      <trkpt lat="39.425120" lon="-6.254610">
        <ele>421.194824</ele>
        <time>2010-05-21T07:35:04Z</time>
      </trkpt>
      <trkpt lat="39.425090" lon="-6.254370">
        <ele>418.791504</ele>
        <time>2010-05-21T07:35:05Z</time>
      </trkpt>
      <trkpt lat="39.425230" lon="-6.253850">
        <ele>419.272217</ele>
        <time>2010-05-21T07:35:06Z</time>
      </trkpt>
      <trkpt lat="39.425260" lon="-6.253360">
        <ele>417.830200</ele>
        <time>2010-05-21T07:35:07Z</time>
      </trkpt>
      <trkpt lat="39.425220" lon="-6.253280">
        <ele>420.714111</ele>
        <time>2010-05-21T07:35:08Z</time>
      </trkpt>
      <trkpt lat="39.425290" lon="-6.253490">
        <ele>419.752808</ele>
        <time>2010-05-21T07:35:09Z</time>
      </trkpt>
      <trkpt lat="39.425290" lon="-6.253500">
        <ele>416.388153</ele>
        <time>2010-05-21T07:35:10Z</time>
      </trkpt>
      <trkpt lat="39.425150" lon="-6.253020">
        <ele>414.946167</ele>
        <time>2010-05-21T07:35:11Z</time>
      </trkpt>
      <trkpt lat="39.425020" lon="-6.252280">
        <ele>415.907501</ele>
        <time>2010-05-21T07:35:12Z</time>
      </trkpt>
      <trkpt lat="39.425010" lon="-6.252000">
        <ele>416.868866</ele>
        <time>2010-05-21T07:35:13Z</time>
      </trkpt>
      <trkpt lat="39.424980" lon="-6.251740">
        <ele>419.272217</ele>
        <time>2010-05-21T07:35:14Z</time>
      </trkpt>
      <trkpt lat="39.424910" lon="-6.251460">
        <ele>421.675446</ele>
        <time>2010-05-21T07:35:15Z</time>
      </trkpt>
      <trkpt lat="39.424780" lon="-6.251160">
        <ele>424.078735</ele>
        <time>2010-05-21T07:35:16Z</time>
      </trkpt>
      <trkpt lat="39.424780" lon="-6.251150">
        <ele>425.040192</ele>
        <time>2010-05-21T07:35:17Z</time>
      </trkpt>
      <trkpt lat="39.424550" lon="-6.250720">
        <ele>425.040192</ele>
        <time>2010-05-21T07:35:18Z</time>
      </trkpt>
      <trkpt lat="39.424190" lon="-6.250110">
        <ele>422.156006</ele>
        <time>2010-05-21T07:35:19Z</time>
      </trkpt>
      <trkpt lat="39.424110" lon="-6.249630">
        <ele>421.675446</ele>
        <time>2010-05-21T07:35:20Z</time>
      </trkpt>
      <trkpt lat="39.424120" lon="-6.249430">
        <ele>421.675446</ele>
        <time>2010-05-21T07:35:21Z</time>
      </trkpt>
      <trkpt lat="39.424020" lon="-6.249070">
        <ele>420.233398</ele>
        <time>2010-05-21T07:35:22Z</time>
      </trkpt>
      <trkpt lat="39.423880" lon="-6.248390">
        <ele>418.310791</ele>
        <time>2010-05-21T07:35:23Z</time>
      </trkpt>
      <trkpt lat="39.423860" lon="-6.248060">
        <ele>419.752808</ele>
        <time>2010-05-21T07:35:24Z</time>
      </trkpt>
      <trkpt lat="39.423880" lon="-6.247940">
        <ele>422.636719</ele>
        <time>2010-05-21T07:35:25Z</time>
      </trkpt>
      <trkpt lat="39.423870" lon="-6.247810">
        <ele>429.846558</ele>
        <time>2010-05-21T07:35:26Z</time>
      </trkpt>
      <trkpt lat="39.423820" lon="-6.247430">
        <ele>428.404663</ele>
        <time>2010-05-21T07:35:27Z</time>
      </trkpt>
      <trkpt lat="39.423550" lon="-6.246600">
        <ele>426.482056</ele>
        <time>2010-05-21T07:35:28Z</time>
      </trkpt>
      <trkpt lat="39.423360" lon="-6.245950">
        <ele>426.962769</ele>
        <time>2010-05-21T07:35:29Z</time>
      </trkpt>
      <trkpt lat="39.422840" lon="-6.244640">
        <ele>426.482056</ele>
        <time>2010-05-21T07:35:30Z</time>
      </trkpt>
      <trkpt lat="39.422590" lon="-6.244120">
        <ele>426.482056</ele>
        <time>2010-05-21T07:35:31Z</time>
      </trkpt>
      <trkpt lat="39.422480" lon="-6.243820">
        <ele>427.443329</ele>
        <time>2010-05-21T07:35:32Z</time>
      </trkpt>
      <trkpt lat="39.422410" lon="-6.243690">
        <ele>428.404663</ele>
        <time>2010-05-21T07:35:33Z</time>
      </trkpt>
      <trkpt lat="39.422260" lon="-6.243370">
        <ele>426.482056</ele>
        <time>2010-05-21T07:35:34Z</time>
      </trkpt>
      <trkpt lat="39.422220" lon="-6.243280">
        <ele>432.250000</ele>
        <time>2010-05-21T07:35:35Z</time>
      </trkpt>
      <trkpt lat="39.421730" lon="-6.242360">
        <ele>435.614502</ele>
        <time>2010-05-21T07:35:36Z</time>
      </trkpt>
      <trkpt lat="39.421190" lon="-6.241620">
        <ele>436.095215</ele>
        <time>2010-05-21T07:35:37Z</time>
      </trkpt>
      <trkpt lat="39.420980" lon="-6.241240">
        <ele>437.537140</ele>
        <time>2010-05-21T07:35:38Z</time>
      </trkpt>
      <trkpt lat="39.420320" lon="-6.240390">
        <ele>435.614502</ele>
        <time>2010-05-21T07:35:39Z</time>
      </trkpt>
      <trkpt lat="39.420070" lon="-6.240180">
        <ele>435.614502</ele>
        <time>2010-05-21T07:35:40Z</time>
      </trkpt>
      <trkpt lat="39.419410" lon="-6.239260">
        <ele>435.133911</ele>
        <time>2010-05-21T07:35:41Z</time>
      </trkpt>
      <trkpt lat="39.419270" lon="-6.239080">
        <ele>435.133911</ele>
        <time>2010-05-21T07:35:42Z</time>
      </trkpt>
      <trkpt lat="39.419200" lon="-6.238950">
        <ele>434.172607</ele>
        <time>2010-05-21T07:35:43Z</time>
      </trkpt>
      <trkpt lat="39.419200" lon="-6.238940">
        <ele>434.172607</ele>
        <time>2010-05-21T07:35:44Z</time>
      </trkpt>
      <trkpt lat="39.419220" lon="-6.238940">
        <ele>435.133911</ele>
        <time>2010-05-21T07:35:45Z</time>
      </trkpt>
      <trkpt lat="39.419210" lon="-6.238940">
        <ele>435.133911</ele>
        <time>2010-05-21T07:35:46Z</time>
      </trkpt>
      <trkpt lat="39.419010" lon="-6.238850">
        <ele>436.575928</ele>
        <time>2010-05-21T07:35:47Z</time>
      </trkpt>
      <trkpt lat="39.418950" lon="-6.238790">
        <ele>437.056519</ele>
        <time>2010-05-21T07:35:48Z</time>
      </trkpt>
      <trkpt lat="39.418720" lon="-6.238750">
        <ele>441.382446</ele>
        <time>2010-05-21T07:35:49Z</time>
      </trkpt>
      <trkpt lat="39.418550" lon="-6.238770">
        <ele>438.017853</ele>
        <time>2010-05-21T07:35:50Z</time>
      </trkpt>
      <trkpt lat="39.417800" lon="-6.238960">
        <ele>435.133911</ele>
        <time>2010-05-21T07:35:51Z</time>
      </trkpt>
      <trkpt lat="39.417670" lon="-6.238940">
        <ele>430.807983</ele>
        <time>2010-05-21T07:35:52Z</time>
      </trkpt>
      <trkpt lat="39.417390" lon="-6.238760">
        <ele>426.962769</ele>
        <time>2010-05-21T07:35:53Z</time>
      </trkpt>
      <trkpt lat="39.417370" lon="-6.238690">
        <ele>429.365967</ele>
        <time>2010-05-21T07:35:54Z</time>
      </trkpt>
      <trkpt lat="39.417300" lon="-6.237790">
        <ele>429.846558</ele>
        <time>2010-05-21T07:35:55Z</time>
      </trkpt>
      <trkpt lat="39.417270" lon="-6.236850">
        <ele>429.365967</ele>
        <time>2010-05-21T07:35:56Z</time>
      </trkpt>
      <trkpt lat="39.417220" lon="-6.235830">
        <ele>427.443329</ele>
        <time>2010-05-21T07:35:57Z</time>
      </trkpt>
      <trkpt lat="39.417150" lon="-6.235000">
        <ele>426.962769</ele>
        <time>2010-05-21T07:35:58Z</time>
      </trkpt>
      <trkpt lat="39.417160" lon="-6.234630">
        <ele>427.443329</ele>
        <time>2010-05-21T07:35:59Z</time>
      </trkpt>
      <trkpt lat="39.416960" lon="-6.233520">
        <ele>425.520752</ele>
        <time>2010-05-21T07:36:00Z</time>
      </trkpt>
      <trkpt lat="39.416860" lon="-6.232950">
        <ele>423.598022</ele>
        <time>2010-05-21T07:36:01Z</time>
      </trkpt>
      <trkpt lat="39.416830" lon="-6.232800">
        <ele>423.117432</ele>
        <time>2010-05-21T07:36:02Z</time>
      </trkpt>
      <trkpt lat="39.416830" lon="-6.232800">
        <ele>419.752808</ele>
        <time>2010-05-21T07:36:03Z</time>
      </trkpt>
      <trkpt lat="39.416770" lon="-6.232330">
        <ele>419.272217</ele>
        <time>2010-05-21T07:36:04Z</time>
      </trkpt>
      <trkpt lat="39.416700" lon="-6.231900">
        <ele>418.310791</ele>
        <time>2010-05-21T07:36:05Z</time>
      </trkpt>
      <trkpt lat="39.416490" lon="-6.231190">
        <ele>417.830200</ele>
        <time>2010-05-21T07:36:06Z</time>
      </trkpt>
      <trkpt lat="39.416360" lon="-6.230430">
        <ele>417.830200</ele>
        <time>2010-05-21T07:36:07Z</time>
      </trkpt>
      <trkpt lat="39.416360" lon="-6.230420">
        <ele>417.349609</ele>
        <time>2010-05-21T07:36:08Z</time>
      </trkpt>
      <trkpt lat="39.416340" lon="-6.230270">
        <ele>412.542847</ele>
        <time>2010-05-21T07:36:09Z</time>
      </trkpt>
      <trkpt lat="39.416320" lon="-6.230220">
        <ele>413.504272</ele>
        <time>2010-05-21T07:36:10Z</time>
      </trkpt>
      <trkpt lat="39.416320" lon="-6.230160">
        <ele>413.023560</ele>
        <time>2010-05-21T07:36:11Z</time>
      </trkpt>
      <trkpt lat="39.416290" lon="-6.229950">
        <ele>412.542847</ele>
        <time>2010-05-21T07:36:12Z</time>
      </trkpt>
      <trkpt lat="39.416050" lon="-6.228950">
        <ele>412.062256</ele>
        <time>2010-05-21T07:36:13Z</time>
      </trkpt>
      <trkpt lat="39.415910" lon="-6.228660">
        <ele>410.139648</ele>
        <time>2010-05-21T07:36:14Z</time>
      </trkpt>
      <trkpt lat="39.415790" lon="-6.228510">
        <ele>408.697632</ele>
        <time>2010-05-21T07:36:15Z</time>
      </trkpt>
      <trkpt lat="39.415830" lon="-6.228190">
        <ele>406.774902</ele>
        <time>2010-05-21T07:36:16Z</time>
      </trkpt>
      <trkpt lat="39.416020" lon="-6.227880">
        <ele>406.774902</ele>
        <time>2010-05-21T07:36:17Z</time>
      </trkpt>
      <trkpt lat="39.416050" lon="-6.227510">
        <ele>407.736328</ele>
        <time>2010-05-21T07:36:18Z</time>
      </trkpt>
      <trkpt lat="39.416260" lon="-6.226800">
        <ele>409.178345</ele>
        <time>2010-05-21T07:36:19Z</time>
      </trkpt>
      <trkpt lat="39.416660" lon="-6.225210">
        <ele>411.100922</ele>
        <time>2010-05-21T07:36:20Z</time>
      </trkpt>
      <trkpt lat="39.416900" lon="-6.223930">
        <ele>409.178345</ele>
        <time>2010-05-21T07:36:21Z</time>
      </trkpt>
      <trkpt lat="39.417080" lon="-6.223190">
        <ele>408.217041</ele>
        <time>2010-05-21T07:36:22Z</time>
      </trkpt>
      <trkpt lat="39.417240" lon="-6.222760">
        <ele>411.581635</ele>
        <time>2010-05-21T07:36:23Z</time>
      </trkpt>
      <trkpt lat="39.417570" lon="-6.221450">
        <ele>406.774902</ele>
        <time>2010-05-21T07:36:24Z</time>
      </trkpt>
      <trkpt lat="39.417880" lon="-6.220170">
        <ele>409.178345</ele>
        <time>2010-05-21T07:36:25Z</time>
      </trkpt>
      <trkpt lat="39.418010" lon="-6.219680">
        <ele>410.620270</ele>
        <time>2010-05-21T07:36:26Z</time>
      </trkpt>
      <trkpt lat="39.418060" lon="-6.219250">
        <ele>409.659058</ele>
        <time>2010-05-21T07:36:27Z</time>
      </trkpt>
      <trkpt lat="39.418170" lon="-6.218760">
        <ele>411.581635</ele>
        <time>2010-05-21T07:36:28Z</time>
      </trkpt>
      <trkpt lat="39.418280" lon="-6.218530">
        <ele>409.178345</ele>
        <time>2010-05-21T07:36:29Z</time>
      </trkpt>
      <trkpt lat="39.418310" lon="-6.218250">
        <ele>410.139648</ele>
        <time>2010-05-21T07:36:30Z</time>
      </trkpt>
      <trkpt lat="39.418540" lon="-6.217230">
        <ele>413.023560</ele>
        <time>2010-05-21T07:36:31Z</time>
      </trkpt>
      <trkpt lat="39.418680" lon="-6.216560">
        <ele>413.984863</ele>
        <time>2010-05-21T07:36:32Z</time>
      </trkpt>
      <trkpt lat="39.418890" lon="-6.215490">
        <ele>409.178345</ele>
        <time>2010-05-21T07:36:33Z</time>
      </trkpt>
      <trkpt lat="39.418920" lon="-6.214760">
        <ele>404.852325</ele>
        <time>2010-05-21T07:36:34Z</time>
      </trkpt>
      <trkpt lat="39.419010" lon="-6.214440">
        <ele>403.891113</ele>
        <time>2010-05-21T07:36:35Z</time>
      </trkpt>
      <trkpt lat="39.418950" lon="-6.213940">
        <ele>404.371704</ele>
        <time>2010-05-21T07:36:36Z</time>
      </trkpt>
      <trkpt lat="39.418850" lon="-6.213080">
        <ele>403.410400</ele>
        <time>2010-05-21T07:36:37Z</time>
      </trkpt>
      <trkpt lat="39.418510" lon="-6.211650">
        <ele>404.852325</ele>
        <time>2010-05-21T07:36:38Z</time>
      </trkpt>
      <trkpt lat="39.418400" lon="-6.211290">
        <ele>403.891113</ele>
        <time>2010-05-21T07:36:39Z</time>
      </trkpt>
      <trkpt lat="39.418400" lon="-6.211030">
        <ele>400.526459</ele>
        <time>2010-05-21T07:36:40Z</time>
      </trkpt>
      <trkpt lat="39.418580" lon="-6.210170">
        <ele>400.045898</ele>
        <time>2010-05-21T07:36:41Z</time>
      </trkpt>
      <trkpt lat="39.418730" lon="-6.209340">
        <ele>400.526459</ele>
        <time>2010-05-21T07:36:42Z</time>
      </trkpt>
      <trkpt lat="39.418680" lon="-6.208870">
        <ele>402.449097</ele>
        <time>2010-05-21T07:36:43Z</time>
      </trkpt>
      <trkpt lat="39.418780" lon="-6.208510">
        <ele>405.813690</ele>
        <time>2010-05-21T07:36:44Z</time>
      </trkpt>
      <trkpt lat="39.418850" lon="-6.208470">
        <ele>405.333038</ele>
        <time>2010-05-21T07:36:45Z</time>
      </trkpt>
      <trkpt lat="39.418920" lon="-6.208430">
        <ele>405.813690</ele>
        <time>2010-05-21T07:36:46Z</time>
      </trkpt>
      <trkpt lat="39.419100" lon="-6.208380">
        <ele>405.813690</ele>
        <time>2010-05-21T07:36:47Z</time>
      </trkpt>
      <trkpt lat="39.419210" lon="-6.208250">
        <ele>407.255615</ele>
        <time>2010-05-21T07:36:48Z</time>
      </trkpt>
      <trkpt lat="39.419220" lon="-6.207640">
        <ele>406.774902</ele>
        <time>2010-05-21T07:36:49Z</time>
      </trkpt>
      <trkpt lat="39.419220" lon="-6.207570">
        <ele>405.333038</ele>
        <time>2010-05-21T07:36:50Z</time>
      </trkpt>
      <trkpt lat="39.419220" lon="-6.207560">
        <ele>403.410400</ele>
        <time>2010-05-21T07:36:51Z</time>
      </trkpt>
      <trkpt lat="39.419240" lon="-6.207280">
        <ele>403.891113</ele>
        <time>2010-05-21T07:36:52Z</time>
      </trkpt>
      <trkpt lat="39.419230" lon="-6.206900">
        <ele>406.774902</ele>
        <time>2010-05-21T07:36:53Z</time>
      </trkpt>
      <trkpt lat="39.419220" lon="-6.206650">
        <ele>409.178345</ele>
        <time>2010-05-21T07:36:54Z</time>
      </trkpt>
      <trkpt lat="39.419200" lon="-6.206330">
        <ele>409.178345</ele>
        <time>2010-05-21T07:36:55Z</time>
      </trkpt>
      <trkpt lat="39.419200" lon="-6.206070">
        <ele>405.813690</ele>
        <time>2010-05-21T07:36:56Z</time>
      </trkpt>
      <trkpt lat="39.419260" lon="-6.205140">
        <ele>404.852325</ele>
        <time>2010-05-21T07:36:57Z</time>
      </trkpt>
      <trkpt lat="39.419390" lon="-6.204270">
        <ele>405.333038</ele>
        <time>2010-05-21T07:36:58Z</time>
      </trkpt>
      <trkpt lat="39.419430" lon="-6.204090">
        <ele>407.255615</ele>
        <time>2010-05-21T07:36:59Z</time>
      </trkpt>
      <trkpt lat="39.419460" lon="-6.203730">
        <ele>407.255615</ele>
        <time>2010-05-21T07:37:00Z</time>
      </trkpt>
      <trkpt lat="39.419490" lon="-6.203530">
        <ele>407.736328</ele>
        <time>2010-05-21T07:37:01Z</time>
      </trkpt>
      <trkpt lat="39.419490" lon="-6.203530">
        <ele>409.178345</ele>
        <time>2010-05-21T07:37:02Z</time>
      </trkpt>
      <trkpt lat="39.419510" lon="-6.203330">
        <ele>411.581635</ele>
        <time>2010-05-21T07:37:03Z</time>
      </trkpt>
      <trkpt lat="39.419520" lon="-6.203190">
        <ele>412.542847</ele>
        <time>2010-05-21T07:37:04Z</time>
      </trkpt>
      <trkpt lat="39.419520" lon="-6.202930">
        <ele>418.310791</ele>
        <time>2010-05-21T07:37:05Z</time>
      </trkpt>
      <trkpt lat="39.419640" lon="-6.202070">
        <ele>424.078735</ele>
        <time>2010-05-21T07:37:06Z</time>
      </trkpt>
      <trkpt lat="39.419630" lon="-6.201760">
        <ele>424.078735</ele>
        <time>2010-05-21T07:37:07Z</time>
      </trkpt>
      <trkpt lat="39.419750" lon="-6.201330">
        <ele>424.559448</ele>
        <time>2010-05-21T07:37:08Z</time>
      </trkpt>
      <trkpt lat="39.419980" lon="-6.200760">
        <ele>429.365967</ele>
        <time>2010-05-21T07:37:09Z</time>
      </trkpt>
      <trkpt lat="39.420140" lon="-6.200230">
        <ele>432.250000</ele>
        <time>2010-05-21T07:37:10Z</time>
      </trkpt>
      <trkpt lat="39.420150" lon="-6.200140">
        <ele>428.404663</ele>
        <time>2010-05-21T07:37:11Z</time>
      </trkpt>
      <trkpt lat="39.420210" lon="-6.199960">
        <ele>430.327271</ele>
        <time>2010-05-21T07:37:12Z</time>
      </trkpt>
      <trkpt lat="39.420280" lon="-6.199680">
        <ele>430.327271</ele>
        <time>2010-05-21T07:37:13Z</time>
      </trkpt>
      <trkpt lat="39.420470" lon="-6.199350">
        <ele>429.846558</ele>
        <time>2010-05-21T07:37:14Z</time>
      </trkpt>
      <trkpt lat="39.420670" lon="-6.198810">
        <ele>430.807983</ele>
        <time>2010-05-21T07:37:15Z</time>
      </trkpt>
      <trkpt lat="39.420870" lon="-6.198380">
        <ele>430.807983</ele>
        <time>2010-05-21T07:37:16Z</time>
      </trkpt>
      <trkpt lat="39.421000" lon="-6.198180">
        <ele>431.288574</ele>
        <time>2010-05-21T07:37:17Z</time>
      </trkpt>
      <trkpt lat="39.421210" lon="-6.197830">
        <ele>433.691895</ele>
        <time>2010-05-21T07:37:18Z</time>
      </trkpt>
      <trkpt lat="39.421330" lon="-6.197670">
        <ele>434.172607</ele>
        <time>2010-05-21T07:37:19Z</time>
      </trkpt>
      <trkpt lat="39.421520" lon="-6.197490">
        <ele>434.653320</ele>
        <time>2010-05-21T07:37:20Z</time>
      </trkpt>
      <trkpt lat="39.421610" lon="-6.197380">
        <ele>435.614502</ele>
        <time>2010-05-21T07:37:21Z</time>
      </trkpt>
      <trkpt lat="39.422130" lon="-6.196420">
        <ele>435.133911</ele>
        <time>2010-05-21T07:37:22Z</time>
      </trkpt>
      <trkpt lat="39.422220" lon="-6.196250">
        <ele>436.575928</ele>
        <time>2010-05-21T07:37:23Z</time>
      </trkpt>
      <trkpt lat="39.422240" lon="-6.196200">
        <ele>436.575928</ele>
        <time>2010-05-21T07:37:24Z</time>
      </trkpt>
      <trkpt lat="39.422260" lon="-6.196090">
        <ele>436.575928</ele>
        <time>2010-05-21T07:37:25Z</time>
      </trkpt>
      <trkpt lat="39.422380" lon="-6.195260">
        <ele>437.056519</ele>
        <time>2010-05-21T07:37:26Z</time>
      </trkpt>
      <trkpt lat="39.422500" lon="-6.194120">
        <ele>438.979126</ele>
        <time>2010-05-21T07:37:27Z</time>
      </trkpt>
      <trkpt lat="39.422520" lon="-6.193950">
        <ele>438.017853</ele>
        <time>2010-05-21T07:37:28Z</time>
      </trkpt>
      <trkpt lat="39.422530" lon="-6.193610">
        <ele>437.537140</ele>
        <time>2010-05-21T07:37:29Z</time>
      </trkpt>
      <trkpt lat="39.422540" lon="-6.193400">
        <ele>437.537140</ele>
        <time>2010-05-21T07:37:30Z</time>
      </trkpt>
      <trkpt lat="39.422680" lon="-6.192920">
        <ele>437.056519</ele>
        <time>2010-05-21T07:37:31Z</time>
      </trkpt>
      <trkpt lat="39.422710" lon="-6.192480">
        <ele>436.575928</ele>
        <time>2010-05-21T07:37:32Z</time>
      </trkpt>
      <trkpt lat="39.422670" lon="-6.192090">
        <ele>439.940430</ele>
        <time>2010-05-21T07:37:33Z</time>
      </trkpt>
      <trkpt lat="39.422680" lon="-6.191670">
        <ele>444.747070</ele>
        <time>2010-05-21T07:37:34Z</time>
      </trkpt>
      <trkpt lat="39.422750" lon="-6.191340">
        <ele>449.072968</ele>
        <time>2010-05-21T07:37:35Z</time>
      </trkpt>
      <trkpt lat="39.422810" lon="-6.191110">
        <ele>450.995605</ele>
        <time>2010-05-21T07:37:36Z</time>
      </trkpt>
      <trkpt lat="39.422960" lon="-6.190700">
        <ele>451.957031</ele>
        <time>2010-05-21T07:37:37Z</time>
      </trkpt>
      <trkpt lat="39.423170" lon="-6.190000">
        <ele>454.360260</ele>
        <time>2010-05-21T07:37:38Z</time>
      </trkpt>
      <trkpt lat="39.423210" lon="-6.189320">
        <ele>455.802246</ele>
        <time>2010-05-21T07:37:39Z</time>
      </trkpt>
      <trkpt lat="39.423240" lon="-6.188960">
        <ele>457.244263</ele>
        <time>2010-05-21T07:37:40Z</time>
      </trkpt>
      <trkpt lat="39.423260" lon="-6.188700">
        <ele>456.282959</ele>
        <time>2010-05-21T07:37:41Z</time>
      </trkpt>
      <trkpt lat="39.423300" lon="-6.187700">
        <ele>450.515015</ele>
        <time>2010-05-21T07:37:42Z</time>
      </trkpt>
      <trkpt lat="39.423250" lon="-6.186400">
        <ele>445.227661</ele>
        <time>2010-05-21T07:37:43Z</time>
      </trkpt>
      <trkpt lat="39.423240" lon="-6.186250">
        <ele>434.172607</ele>
        <time>2010-05-21T07:37:44Z</time>
      </trkpt>
      <trkpt lat="39.423270" lon="-6.186000">
        <ele>430.807983</ele>
        <time>2010-05-21T07:37:45Z</time>
      </trkpt>
      <trkpt lat="39.423290" lon="-6.185310">
        <ele>424.078735</ele>
        <time>2010-05-21T07:37:46Z</time>
      </trkpt>
      <trkpt lat="39.423290" lon="-6.185240">
        <ele>423.117432</ele>
        <time>2010-05-21T07:37:47Z</time>
      </trkpt>
      <trkpt lat="39.423290" lon="-6.184730">
        <ele>424.559448</ele>
        <time>2010-05-21T07:37:48Z</time>
      </trkpt>
      <trkpt lat="39.423230" lon="-6.184420">
        <ele>429.846558</ele>
        <time>2010-05-21T07:37:49Z</time>
      </trkpt>
      <trkpt lat="39.423380" lon="-6.183820">
        <ele>429.846558</ele>
        <time>2010-05-21T07:37:50Z</time>
      </trkpt>
      <trkpt lat="39.423430" lon="-6.183760">
        <ele>431.769165</ele>
        <time>2010-05-21T07:37:51Z</time>
      </trkpt>
      <trkpt lat="39.423700" lon="-6.182650">
        <ele>432.730713</ele>
        <time>2010-05-21T07:37:52Z</time>
      </trkpt>
      <trkpt lat="39.423740" lon="-6.182210">
        <ele>430.807983</ele>
        <time>2010-05-21T07:37:53Z</time>
      </trkpt>
      <trkpt lat="39.423940" lon="-6.181360">
        <ele>430.807983</ele>
        <time>2010-05-21T07:37:54Z</time>
      </trkpt>
      <trkpt lat="39.424140" lon="-6.180330">
        <ele>428.404663</ele>
        <time>2010-05-21T07:37:55Z</time>
      </trkpt>
      <trkpt lat="39.424130" lon="-6.180140">
        <ele>430.807983</ele>
        <time>2010-05-21T07:37:56Z</time>
      </trkpt>
      <trkpt lat="39.424160" lon="-6.179770">
        <ele>434.172607</ele>
        <time>2010-05-21T07:37:57Z</time>
      </trkpt>
      <trkpt lat="39.424230" lon="-6.179480">
        <ele>434.653320</ele>
        <time>2010-05-21T07:37:58Z</time>
      </trkpt>
      <trkpt lat="39.424330" lon="-6.178590">
        <ele>433.691895</ele>
        <time>2010-05-21T07:37:59Z</time>
      </trkpt>
      <trkpt lat="39.424540" lon="-6.177890">
        <ele>433.691895</ele>
        <time>2010-05-21T07:38:00Z</time>
      </trkpt>
      <trkpt lat="39.424680" lon="-6.177610">
        <ele>434.653320</ele>
        <time>2010-05-21T07:38:01Z</time>
      </trkpt>
      <trkpt lat="39.424670" lon="-6.177630">
        <ele>435.133911</ele>
        <time>2010-05-21T07:38:02Z</time>
      </trkpt>
      <trkpt lat="39.424780" lon="-6.177310">
        <ele>436.095215</ele>
        <time>2010-05-21T07:38:03Z</time>
      </trkpt>
      <trkpt lat="39.424800" lon="-6.177260">
        <ele>436.575928</ele>
        <time>2010-05-21T07:38:04Z</time>
      </trkpt>
      <trkpt lat="39.424930" lon="-6.177050">
        <ele>435.133911</ele>
        <time>2010-05-21T07:38:05Z</time>
      </trkpt>
      <trkpt lat="39.425030" lon="-6.176960">
        <ele>432.730713</ele>
        <time>2010-05-21T07:38:06Z</time>
      </trkpt>
      <trkpt lat="39.425190" lon="-6.176660">
        <ele>431.288574</ele>
        <time>2010-05-21T07:38:07Z</time>
      </trkpt>
      <trkpt lat="39.425310" lon="-6.176160">
        <ele>428.885376</ele>
        <time>2010-05-21T07:38:08Z</time>
      </trkpt>
      <trkpt lat="39.425730" lon="-6.175180">
        <ele>428.404663</ele>
        <time>2010-05-21T07:38:09Z</time>
      </trkpt>
      <trkpt lat="39.426280" lon="-6.173780">
        <ele>428.885376</ele>
        <time>2010-05-21T07:38:10Z</time>
      </trkpt>
      <trkpt lat="39.426680" lon="-6.172750">
        <ele>431.769165</ele>
        <time>2010-05-21T07:38:11Z</time>
      </trkpt>
      <trkpt lat="39.426810" lon="-6.172160">
        <ele>433.691895</ele>
        <time>2010-05-21T07:38:12Z</time>
      </trkpt>
      <trkpt lat="39.426820" lon="-6.171710">
        <ele>438.017853</ele>
        <time>2010-05-21T07:38:13Z</time>
      </trkpt>
      <trkpt lat="39.426900" lon="-6.171250">
        <ele>439.459717</ele>
        <time>2010-05-21T07:38:14Z</time>
      </trkpt>
      <trkpt lat="39.426950" lon="-6.170920">
        <ele>438.498505</ele>
        <time>2010-05-21T07:38:15Z</time>
      </trkpt>
      <trkpt lat="39.426900" lon="-6.170800">
        <ele>439.940430</ele>
        <time>2010-05-21T07:38:16Z</time>
      </trkpt>
      <trkpt lat="39.426720" lon="-6.169850">
        <ele>444.747070</ele>
        <time>2010-05-21T07:38:17Z</time>
      </trkpt>
      <trkpt lat="39.426610" lon="-6.169250">
        <ele>445.227661</ele>
        <time>2010-05-21T07:38:18Z</time>
      </trkpt>
      <trkpt lat="39.426530" lon="-6.168860">
        <ele>445.227661</ele>
        <time>2010-05-21T07:38:19Z</time>
      </trkpt>
      <trkpt lat="39.426550" lon="-6.168540">
        <ele>443.785736</ele>
        <time>2010-05-21T07:38:20Z</time>
      </trkpt>
      <trkpt lat="39.426570" lon="-6.167630">
        <ele>437.537140</ele>
        <time>2010-05-21T07:38:21Z</time>
      </trkpt>
      <trkpt lat="39.426620" lon="-6.167050">
        <ele>435.133911</ele>
        <time>2010-05-21T07:38:22Z</time>
      </trkpt>
      <trkpt lat="39.426560" lon="-6.166690">
        <ele>435.133911</ele>
        <time>2010-05-21T07:38:23Z</time>
      </trkpt>
      <trkpt lat="39.426490" lon="-6.166220">
        <ele>436.095215</ele>
        <time>2010-05-21T07:38:24Z</time>
      </trkpt>
      <trkpt lat="39.426480" lon="-6.165830">
        <ele>436.575928</ele>
        <time>2010-05-21T07:38:25Z</time>
      </trkpt>
      <trkpt lat="39.426580" lon="-6.165540">
        <ele>437.537140</ele>
        <time>2010-05-21T07:38:26Z</time>
      </trkpt>
      <trkpt lat="39.426630" lon="-6.165420">
        <ele>439.459717</ele>
        <time>2010-05-21T07:38:27Z</time>
      </trkpt>
      <trkpt lat="39.426740" lon="-6.164310">
        <ele>441.863159</ele>
        <time>2010-05-21T07:38:28Z</time>
      </trkpt>
      <trkpt lat="39.426680" lon="-6.163060">
        <ele>442.343872</ele>
        <time>2010-05-21T07:38:29Z</time>
      </trkpt>
      <trkpt lat="39.426660" lon="-6.162680">
        <ele>446.669678</ele>
        <time>2010-05-21T07:38:30Z</time>
      </trkpt>
      <trkpt lat="39.426570" lon="-6.162400">
        <ele>447.630981</ele>
        <time>2010-05-21T07:38:31Z</time>
      </trkpt>
      <trkpt lat="39.426460" lon="-6.161890">
        <ele>450.034424</ele>
        <time>2010-05-21T07:38:32Z</time>
      </trkpt>
      <trkpt lat="39.426380" lon="-6.161660">
        <ele>450.034424</ele>
        <time>2010-05-21T07:38:33Z</time>
      </trkpt>
      <trkpt lat="39.426370" lon="-6.161230">
        <ele>452.437622</ele>
        <time>2010-05-21T07:38:34Z</time>
      </trkpt>
      <trkpt lat="39.426450" lon="-6.160940">
        <ele>448.592407</ele>
        <time>2010-05-21T07:38:35Z</time>
      </trkpt>
      <trkpt lat="39.426470" lon="-6.160780">
        <ele>448.111816</ele>
        <time>2010-05-21T07:38:36Z</time>
      </trkpt>
      <trkpt lat="39.426690" lon="-6.160450">
        <ele>444.266449</ele>
        <time>2010-05-21T07:38:37Z</time>
      </trkpt>
      <trkpt lat="39.426850" lon="-6.160310">
        <ele>445.708374</ele>
        <time>2010-05-21T07:38:38Z</time>
      </trkpt>
      <trkpt lat="39.426980" lon="-6.160020">
        <ele>444.266449</ele>
        <time>2010-05-21T07:38:39Z</time>
      </trkpt>
      <trkpt lat="39.426980" lon="-6.159680">
        <ele>442.824463</ele>
        <time>2010-05-21T07:38:40Z</time>
      </trkpt>
      <trkpt lat="39.426860" lon="-6.159230">
        <ele>442.343872</ele>
        <time>2010-05-21T07:38:41Z</time>
      </trkpt>
      <trkpt lat="39.426850" lon="-6.159090">
        <ele>441.863159</ele>
        <time>2010-05-21T07:38:42Z</time>
      </trkpt>
      <trkpt lat="39.426830" lon="-6.158970">
        <ele>442.343872</ele>
        <time>2010-05-21T07:38:43Z</time>
      </trkpt>
      <trkpt lat="39.426990" lon="-6.158100">
        <ele>442.343872</ele>
        <time>2010-05-21T07:38:44Z</time>
      </trkpt>
      <trkpt lat="39.427190" lon="-6.157290">
        <ele>454.360260</ele>
        <time>2010-05-21T07:38:45Z</time>
      </trkpt>
      <trkpt lat="39.427470" lon="-6.156450">
        <ele>460.608765</ele>
        <time>2010-05-21T07:38:46Z</time>
      </trkpt>
      <trkpt lat="39.427590" lon="-6.156080">
        <ele>460.128143</ele>
        <time>2010-05-21T07:38:47Z</time>
      </trkpt>
      <trkpt lat="39.427780" lon="-6.155510">
        <ele>458.686157</ele>
        <time>2010-05-21T07:38:48Z</time>
      </trkpt>
      <trkpt lat="39.428220" lon="-6.153940">
        <ele>453.879639</ele>
        <time>2010-05-21T07:38:49Z</time>
      </trkpt>
      <trkpt lat="39.428440" lon="-6.152360">
        <ele>451.476318</ele>
        <time>2010-05-21T07:38:50Z</time>
      </trkpt>
      <trkpt lat="39.428570" lon="-6.151800">
        <ele>447.150269</ele>
        <time>2010-05-21T07:38:51Z</time>
      </trkpt>
      <trkpt lat="39.428660" lon="-6.151200">
        <ele>442.343872</ele>
        <time>2010-05-21T07:38:52Z</time>
      </trkpt>
      <trkpt lat="39.428710" lon="-6.149900">
        <ele>438.498505</ele>
        <time>2010-05-21T07:38:53Z</time>
      </trkpt>
      <trkpt lat="39.428610" lon="-6.149340">
        <ele>440.421265</ele>
        <time>2010-05-21T07:38:54Z</time>
      </trkpt>
      <trkpt lat="39.428450" lon="-6.148770">
        <ele>440.421265</ele>
        <time>2010-05-21T07:38:55Z</time>
      </trkpt>
      <trkpt lat="39.428372" lon="-6.148649">
        <ele>428.885376</ele>
        <time>2010-05-21T07:38:56Z</time>
      </trkpt>
      <trkpt lat="39.428363" lon="-6.148474">
        <ele>431.288574</ele>
        <time>2010-05-21T07:38:57Z</time>
      </trkpt>
      <trkpt lat="39.428352" lon="-6.148369">
        <ele>439.459717</ele>
        <time>2010-05-21T07:38:58Z</time>
      </trkpt>
      <trkpt lat="39.428341" lon="-6.148282">
        <ele>441.382446</ele>
        <time>2010-05-21T07:38:59Z</time>
      </trkpt>
      <trkpt lat="39.428317" lon="-6.148194">
        <ele>442.343872</ele>
        <time>2010-05-21T07:39:00Z</time>
      </trkpt>
      <trkpt lat="39.428330" lon="-6.148140">
        <ele>441.863159</ele>
        <time>2010-05-21T07:39:01Z</time>
      </trkpt>
      <trkpt lat="39.428330" lon="-6.148030">
        <ele>442.343872</ele>
        <time>2010-05-21T07:39:02Z</time>
      </trkpt>
      <trkpt lat="39.428290" lon="-6.147730">
        <ele>442.343872</ele>
        <time>2010-05-21T07:39:03Z</time>
      </trkpt>
      <trkpt lat="39.428270" lon="-6.147080">
        <ele>442.343872</ele>
        <time>2010-05-21T07:39:04Z</time>
      </trkpt>
      <trkpt lat="39.428280" lon="-6.147080">
        <ele>444.747070</ele>
        <time>2010-05-21T07:39:05Z</time>
      </trkpt>
      <trkpt lat="39.428280" lon="-6.147070">
        <ele>445.227661</ele>
        <time>2010-05-21T07:39:06Z</time>
      </trkpt>
      <trkpt lat="39.428270" lon="-6.147150">
        <ele>445.708374</ele>
        <time>2010-05-21T07:39:07Z</time>
      </trkpt>
      <trkpt lat="39.428270" lon="-6.147110">
        <ele>442.824463</ele>
        <time>2010-05-21T07:39:08Z</time>
      </trkpt>
      <trkpt lat="39.428210" lon="-6.146720">
        <ele>440.421265</ele>
        <time>2010-05-21T07:39:09Z</time>
      </trkpt>
      <trkpt lat="39.428080" lon="-6.146500">
        <ele>438.498505</ele>
        <time>2010-05-21T07:39:10Z</time>
      </trkpt>
      <trkpt lat="39.428010" lon="-6.146290">
        <ele>438.979126</ele>
        <time>2010-05-21T07:39:11Z</time>
      </trkpt>
      <trkpt lat="39.427980" lon="-6.145800">
        <ele>438.498505</ele>
        <time>2010-05-21T07:39:12Z</time>
      </trkpt>
      <trkpt lat="39.427990" lon="-6.145700">
        <ele>437.537140</ele>
        <time>2010-05-21T07:39:13Z</time>
      </trkpt>
      <trkpt lat="39.427960" lon="-6.145350">
        <ele>437.537140</ele>
        <time>2010-05-21T07:39:14Z</time>
      </trkpt>
      <trkpt lat="39.428000" lon="-6.145040">
        <ele>437.537140</ele>
        <time>2010-05-21T07:39:15Z</time>
      </trkpt>
      <trkpt lat="39.428040" lon="-6.144930">
        <ele>435.614502</ele>
        <time>2010-05-21T07:39:16Z</time>
      </trkpt>
      <trkpt lat="39.428040" lon="-6.144640">
        <ele>434.653320</ele>
        <time>2010-05-21T07:39:17Z</time>
      </trkpt>
      <trkpt lat="39.428000" lon="-6.144510">
        <ele>431.769165</ele>
        <time>2010-05-21T07:39:18Z</time>
      </trkpt>
      <trkpt lat="39.427930" lon="-6.144270">
        <ele>432.250000</ele>
        <time>2010-05-21T07:39:19Z</time>
      </trkpt>
      <trkpt lat="39.427880" lon="-6.144040">
        <ele>430.807983</ele>
        <time>2010-05-21T07:39:20Z</time>
      </trkpt>
      <trkpt lat="39.427900" lon="-6.143840">
        <ele>432.250000</ele>
        <time>2010-05-21T07:39:21Z</time>
      </trkpt>
      <trkpt lat="39.427880" lon="-6.143010">
        <ele>432.730713</ele>
        <time>2010-05-21T07:39:22Z</time>
      </trkpt>
      <trkpt lat="39.427930" lon="-6.142630">
        <ele>431.769165</ele>
        <time>2010-05-21T07:39:23Z</time>
      </trkpt>
      <trkpt lat="39.428140" lon="-6.142330">
        <ele>431.769165</ele>
        <time>2010-05-21T07:39:24Z</time>
      </trkpt>
      <trkpt lat="39.428120" lon="-6.142340">
        <ele>431.769165</ele>
        <time>2010-05-21T07:39:25Z</time>
      </trkpt>
      <trkpt lat="39.428110" lon="-6.142360">
        <ele>431.769165</ele>
        <time>2010-05-21T07:39:26Z</time>
      </trkpt>
      <trkpt lat="39.428050" lon="-6.141780">
        <ele>431.288574</ele>
        <time>2010-05-21T07:39:27Z</time>
      </trkpt>
      <trkpt lat="39.428040" lon="-6.141620">
        <ele>431.288574</ele>
        <time>2010-05-21T07:39:28Z</time>
      </trkpt>
      <trkpt lat="39.428100" lon="-6.141380">
        <ele>432.250000</ele>
        <time>2010-05-21T07:39:29Z</time>
      </trkpt>
      <trkpt lat="39.428160" lon="-6.141100">
        <ele>432.730713</ele>
        <time>2010-05-21T07:39:30Z</time>
      </trkpt>
      <trkpt lat="39.428190" lon="-6.140870">
        <ele>432.250000</ele>
        <time>2010-05-21T07:39:31Z</time>
      </trkpt>
      <trkpt lat="39.428130" lon="-6.140360">
        <ele>430.807983</ele>
        <time>2010-05-21T07:39:32Z</time>
      </trkpt>
      <trkpt lat="39.428190" lon="-6.139790">
        <ele>425.520752</ele>
        <time>2010-05-21T07:39:33Z</time>
      </trkpt>
      <trkpt lat="39.428310" lon="-6.139380">
        <ele>417.830200</ele>
        <time>2010-05-21T07:39:34Z</time>
      </trkpt>
      <trkpt lat="39.428320" lon="-6.139240">
        <ele>417.830200</ele>
        <time>2010-05-21T07:39:35Z</time>
      </trkpt>
      <trkpt lat="39.428370" lon="-6.138270">
        <ele>417.349609</ele>
        <time>2010-05-21T07:39:36Z</time>
      </trkpt>
      <trkpt lat="39.428650" lon="-6.137290">
        <ele>417.830200</ele>
        <time>2010-05-21T07:39:37Z</time>
      </trkpt>
      <trkpt lat="39.428790" lon="-6.136280">
        <ele>418.310791</ele>
        <time>2010-05-21T07:39:38Z</time>
      </trkpt>
      <trkpt lat="39.428800" lon="-6.135890">
        <ele>423.598022</ele>
        <time>2010-05-21T07:39:39Z</time>
      </trkpt>
      <trkpt lat="39.428910" lon="-6.135720">
        <ele>425.520752</ele>
        <time>2010-05-21T07:39:40Z</time>
      </trkpt>
      <trkpt lat="39.428940" lon="-6.135620">
        <ele>426.482056</ele>
        <time>2010-05-21T07:39:41Z</time>
      </trkpt>
      <trkpt lat="39.428950" lon="-6.135240">
        <ele>426.482056</ele>
        <time>2010-05-21T07:39:42Z</time>
      </trkpt>
      <trkpt lat="39.428920" lon="-6.135200">
        <ele>422.636719</ele>
        <time>2010-05-21T07:39:43Z</time>
      </trkpt>
      <trkpt lat="39.428890" lon="-6.135100">
        <ele>421.194824</ele>
        <time>2010-05-21T07:39:44Z</time>
      </trkpt>
      <trkpt lat="39.428830" lon="-6.134980">
        <ele>420.233398</ele>
        <time>2010-05-21T07:39:45Z</time>
      </trkpt>
      <trkpt lat="39.428830" lon="-6.134940">
        <ele>419.752808</ele>
        <time>2010-05-21T07:39:46Z</time>
      </trkpt>
      <trkpt lat="39.428880" lon="-6.134540">
        <ele>419.752808</ele>
        <time>2010-05-21T07:39:47Z</time>
      </trkpt>
      <trkpt lat="39.428910" lon="-6.134400">
        <ele>420.714111</ele>
        <time>2010-05-21T07:39:48Z</time>
      </trkpt>
      <trkpt lat="39.428860" lon="-6.134280">
        <ele>417.830200</ele>
        <time>2010-05-21T07:39:49Z</time>
      </trkpt>
      <trkpt lat="39.428760" lon="-6.134120">
        <ele>414.946167</ele>
        <time>2010-05-21T07:39:50Z</time>
      </trkpt>
      <trkpt lat="39.428670" lon="-6.134060">
        <ele>410.139648</ele>
        <time>2010-05-21T07:39:51Z</time>
      </trkpt>
      <trkpt lat="39.428620" lon="-6.133830">
        <ele>404.371704</ele>
        <time>2010-05-21T07:39:52Z</time>
      </trkpt>
      <trkpt lat="39.428600" lon="-6.133600">
        <ele>400.526459</ele>
        <time>2010-05-21T07:39:53Z</time>
      </trkpt>
      <trkpt lat="39.428690" lon="-6.133430">
        <ele>393.797241</ele>
        <time>2010-05-21T07:39:54Z</time>
      </trkpt>
      <trkpt lat="39.428720" lon="-6.133170">
        <ele>391.874512</ele>
        <time>2010-05-21T07:39:55Z</time>
      </trkpt>
      <trkpt lat="39.428700" lon="-6.132400">
        <ele>391.393799</ele>
        <time>2010-05-21T07:39:56Z</time>
      </trkpt>
      <trkpt lat="39.428720" lon="-6.131910">
        <ele>393.797241</ele>
        <time>2010-05-21T07:39:57Z</time>
      </trkpt>
      <trkpt lat="39.428630" lon="-6.131390">
        <ele>398.123169</ele>
        <time>2010-05-21T07:39:58Z</time>
      </trkpt>
      <trkpt lat="39.428610" lon="-6.131380">
        <ele>401.487793</ele>
        <time>2010-05-21T07:39:59Z</time>
      </trkpt>
      <trkpt lat="39.428610" lon="-6.131380">
        <ele>404.371704</ele>
        <time>2010-05-21T07:40:00Z</time>
      </trkpt>
      <trkpt lat="39.428600" lon="-6.131230">
        <ele>405.333038</ele>
        <time>2010-05-21T07:40:01Z</time>
      </trkpt>
      <trkpt lat="39.428600" lon="-6.130960">
        <ele>405.333038</ele>
        <time>2010-05-21T07:40:02Z</time>
      </trkpt>
      <trkpt lat="39.428580" lon="-6.130660">
        <ele>402.929688</ele>
        <time>2010-05-21T07:40:03Z</time>
      </trkpt>
      <trkpt lat="39.428600" lon="-6.130420">
        <ele>403.410400</ele>
        <time>2010-05-21T07:40:04Z</time>
      </trkpt>
      <trkpt lat="39.428690" lon="-6.130150">
        <ele>404.371704</ele>
        <time>2010-05-21T07:40:05Z</time>
      </trkpt>
      <trkpt lat="39.428750" lon="-6.130040">
        <ele>405.813690</ele>
        <time>2010-05-21T07:40:06Z</time>
      </trkpt>
      <trkpt lat="39.429130" lon="-6.129310">
        <ele>405.813690</ele>
        <time>2010-05-21T07:40:07Z</time>
      </trkpt>
      <trkpt lat="39.429530" lon="-6.128400">
        <ele>408.217041</ele>
        <time>2010-05-21T07:40:08Z</time>
      </trkpt>
      <trkpt lat="39.429820" lon="-6.127670">
        <ele>412.542847</ele>
        <time>2010-05-21T07:40:09Z</time>
      </trkpt>
      <trkpt lat="39.429960" lon="-6.126940">
        <ele>416.388153</ele>
        <time>2010-05-21T07:40:10Z</time>
      </trkpt>
      <trkpt lat="39.429950" lon="-6.126890">
        <ele>422.156006</ele>
        <time>2010-05-21T07:40:11Z</time>
      </trkpt>
      <trkpt lat="39.429970" lon="-6.126570">
        <ele>423.117432</ele>
        <time>2010-05-21T07:40:12Z</time>
      </trkpt>
      <trkpt lat="39.430020" lon="-6.126140">
        <ele>425.520752</ele>
        <time>2010-05-21T07:40:13Z</time>
      </trkpt>
      <trkpt lat="39.430110" lon="-6.125940">
        <ele>426.482056</ele>
        <time>2010-05-21T07:40:14Z</time>
      </trkpt>
      <trkpt lat="39.430090" lon="-6.125370">
        <ele>423.598022</ele>
        <time>2010-05-21T07:40:15Z</time>
      </trkpt>
      <trkpt lat="39.430120" lon="-6.125150">
        <ele>418.310791</ele>
        <time>2010-05-21T07:40:16Z</time>
      </trkpt>
      <trkpt lat="39.430070" lon="-6.124790">
        <ele>409.659058</ele>
        <time>2010-05-21T07:40:17Z</time>
      </trkpt>
      <trkpt lat="39.430060" lon="-6.124420">
        <ele>409.178345</ele>
        <time>2010-05-21T07:40:18Z</time>
      </trkpt>
      <trkpt lat="39.430190" lon="-6.124140">
        <ele>408.217041</ele>
        <time>2010-05-21T07:40:19Z</time>
      </trkpt>
      <trkpt lat="39.430280" lon="-6.123890">
        <ele>405.333038</ele>
        <time>2010-05-21T07:40:20Z</time>
      </trkpt>
      <trkpt lat="39.430460" lon="-6.123410">
        <ele>403.891113</ele>
        <time>2010-05-21T07:40:21Z</time>
      </trkpt>
      <trkpt lat="39.430470" lon="-6.123360">
        <ele>402.929688</ele>
        <time>2010-05-21T07:40:22Z</time>
      </trkpt>
      <trkpt lat="39.430480" lon="-6.123190">
        <ele>401.968506</ele>
        <time>2010-05-21T07:40:23Z</time>
      </trkpt>
      <trkpt lat="39.430530" lon="-6.122900">
        <ele>398.123169</ele>
        <time>2010-05-21T07:40:24Z</time>
      </trkpt>
      <trkpt lat="39.430560" lon="-6.122740">
        <ele>395.719849</ele>
        <time>2010-05-21T07:40:25Z</time>
      </trkpt>
      <trkpt lat="39.430600" lon="-6.122620">
        <ele>395.239136</ele>
        <time>2010-05-21T07:40:26Z</time>
      </trkpt>
      <trkpt lat="39.430640" lon="-6.122490">
        <ele>394.758514</ele>
        <time>2010-05-21T07:40:27Z</time>
      </trkpt>
      <trkpt lat="39.430920" lon="-6.122060">
        <ele>391.874512</ele>
        <time>2010-05-21T07:40:28Z</time>
      </trkpt>
      <trkpt lat="39.430850" lon="-6.121720">
        <ele>391.393799</ele>
        <time>2010-05-21T07:40:29Z</time>
      </trkpt>
      <trkpt lat="39.430800" lon="-6.121600">
        <ele>389.471191</ele>
        <time>2010-05-21T07:40:30Z</time>
      </trkpt>
      <trkpt lat="39.430730" lon="-6.121350">
        <ele>390.432617</ele>
        <time>2010-05-21T07:40:31Z</time>
      </trkpt>
      <trkpt lat="39.430830" lon="-6.121070">
        <ele>391.874512</ele>
        <time>2010-05-21T07:40:32Z</time>
      </trkpt>
      <trkpt lat="39.430840" lon="-6.121040">
        <ele>392.355377</ele>
        <time>2010-05-21T07:40:33Z</time>
      </trkpt>
      <trkpt lat="39.430810" lon="-6.120870">
        <ele>395.239136</ele>
        <time>2010-05-21T07:40:34Z</time>
      </trkpt>
      <trkpt lat="39.430820" lon="-6.120630">
        <ele>396.200562</ele>
        <time>2010-05-21T07:40:35Z</time>
      </trkpt>
      <trkpt lat="39.430840" lon="-6.120320">
        <ele>396.200562</ele>
        <time>2010-05-21T07:40:36Z</time>
      </trkpt>
      <trkpt lat="39.430770" lon="-6.120040">
        <ele>397.161743</ele>
        <time>2010-05-21T07:40:37Z</time>
      </trkpt>
      <trkpt lat="39.430310" lon="-6.119520">
        <ele>397.161743</ele>
        <time>2010-05-21T07:40:38Z</time>
      </trkpt>
      <trkpt lat="39.429990" lon="-6.119360">
        <ele>397.642456</ele>
        <time>2010-05-21T07:40:39Z</time>
      </trkpt>
      <trkpt lat="39.429820" lon="-6.119320">
        <ele>395.719849</ele>
        <time>2010-05-21T07:40:40Z</time>
      </trkpt>
      <trkpt lat="39.429570" lon="-6.119250">
        <ele>394.277954</ele>
        <time>2010-05-21T07:40:41Z</time>
      </trkpt>
      <trkpt lat="39.429410" lon="-6.119220">
        <ele>393.316528</ele>
        <time>2010-05-21T07:40:42Z</time>
      </trkpt>
      <trkpt lat="39.429040" lon="-6.119220">
        <ele>390.913208</ele>
        <time>2010-05-21T07:40:43Z</time>
      </trkpt>
      <trkpt lat="39.428750" lon="-6.119080">
        <ele>390.432617</ele>
        <time>2010-05-21T07:40:44Z</time>
      </trkpt>
      <trkpt lat="39.428360" lon="-6.119030">
        <ele>389.951904</ele>
        <time>2010-05-21T07:40:45Z</time>
      </trkpt>
      <trkpt lat="39.428190" lon="-6.118780">
        <ele>389.951904</ele>
        <time>2010-05-21T07:40:46Z</time>
      </trkpt>
      <trkpt lat="39.428200" lon="-6.118750">
        <ele>387.067993</ele>
        <time>2010-05-21T07:40:47Z</time>
      </trkpt>
      <trkpt lat="39.428190" lon="-6.118750">
        <ele>387.548584</ele>
        <time>2010-05-21T07:40:48Z</time>
      </trkpt>
      <trkpt lat="39.428310" lon="-6.118650">
        <ele>389.471191</ele>
        <time>2010-05-21T07:40:49Z</time>
      </trkpt>
      <trkpt lat="39.428400" lon="-6.118640">
        <ele>391.393799</ele>
        <time>2010-05-21T07:40:50Z</time>
      </trkpt>
      <trkpt lat="39.428640" lon="-6.118630">
        <ele>395.719849</ele>
        <time>2010-05-21T07:40:51Z</time>
      </trkpt>
      <trkpt lat="39.428630" lon="-6.118630">
        <ele>393.797241</ele>
        <time>2010-05-21T07:40:52Z</time>
      </trkpt>
      <trkpt lat="39.428880" lon="-6.118660">
        <ele>389.471191</ele>
        <time>2010-05-21T07:40:53Z</time>
      </trkpt>
      <trkpt lat="39.428940" lon="-6.118650">
        <ele>391.393799</ele>
        <time>2010-05-21T07:40:54Z</time>
      </trkpt>
      <trkpt lat="39.429100" lon="-6.118670">
        <ele>391.874512</ele>
        <time>2010-05-21T07:40:55Z</time>
      </trkpt>
      <trkpt lat="39.429290" lon="-6.118730">
        <ele>388.990570</ele>
        <time>2010-05-21T07:40:56Z</time>
      </trkpt>
      <trkpt lat="39.429880" lon="-6.118820">
        <ele>385.145386</ele>
        <time>2010-05-21T07:40:57Z</time>
      </trkpt>
      <trkpt lat="39.430110" lon="-6.118910">
        <ele>384.664795</ele>
        <time>2010-05-21T07:40:58Z</time>
      </trkpt>
      <trkpt lat="39.430550" lon="-6.119120">
        <ele>384.664795</ele>
        <time>2010-05-21T07:40:59Z</time>
      </trkpt>
      <trkpt lat="39.430900" lon="-6.119290">
        <ele>384.664795</ele>
        <time>2010-05-21T07:41:00Z</time>
      </trkpt>
      <trkpt lat="39.431330" lon="-6.119200">
        <ele>382.742065</ele>
        <time>2010-05-21T07:41:01Z</time>
      </trkpt>
      <trkpt lat="39.431440" lon="-6.118870">
        <ele>378.896851</ele>
        <time>2010-05-21T07:41:02Z</time>
      </trkpt>
      <trkpt lat="39.431460" lon="-6.118800">
        <ele>378.896851</ele>
        <time>2010-05-21T07:41:03Z</time>
      </trkpt>
      <trkpt lat="39.431640" lon="-6.118000">
        <ele>377.454834</ele>
        <time>2010-05-21T07:41:04Z</time>
      </trkpt>
      <trkpt lat="39.431710" lon="-6.117760">
        <ele>376.012817</ele>
        <time>2010-05-21T07:41:05Z</time>
      </trkpt>
      <trkpt lat="39.431910" lon="-6.117360">
        <ele>376.493530</ele>
        <time>2010-05-21T07:41:06Z</time>
      </trkpt>
      <trkpt lat="39.431900" lon="-6.117390">
        <ele>375.532104</ele>
        <time>2010-05-21T07:41:07Z</time>
      </trkpt>
      <trkpt lat="39.431980" lon="-6.117090">
        <ele>375.051514</ele>
        <time>2010-05-21T07:41:08Z</time>
      </trkpt>
      <trkpt lat="39.431960" lon="-6.116840">
        <ele>374.090088</ele>
        <time>2010-05-21T07:41:09Z</time>
      </trkpt>
      <trkpt lat="39.431980" lon="-6.116520">
        <ele>374.090088</ele>
        <time>2010-05-21T07:41:10Z</time>
      </trkpt>
      <trkpt lat="39.431970" lon="-6.115980">
        <ele>373.128876</ele>
        <time>2010-05-21T07:41:11Z</time>
      </trkpt>
      <trkpt lat="39.431860" lon="-6.115730">
        <ele>370.244873</ele>
        <time>2010-05-21T07:41:12Z</time>
      </trkpt>
      <trkpt lat="39.431800" lon="-6.115390">
        <ele>368.322266</ele>
        <time>2010-05-21T07:41:13Z</time>
      </trkpt>
      <trkpt lat="39.431790" lon="-6.115350">
        <ele>368.322266</ele>
        <time>2010-05-21T07:41:14Z</time>
      </trkpt>
      <trkpt lat="39.431700" lon="-6.115280">
        <ele>369.283691</ele>
        <time>2010-05-21T07:41:15Z</time>
      </trkpt>
      <trkpt lat="39.431470" lon="-6.115020">
        <ele>368.802979</ele>
        <time>2010-05-21T07:41:16Z</time>
      </trkpt>
      <trkpt lat="39.431450" lon="-6.114900">
        <ele>369.283691</ele>
        <time>2010-05-21T07:41:17Z</time>
      </trkpt>
      <trkpt lat="39.431450" lon="-6.114890">
        <ele>369.283691</ele>
        <time>2010-05-21T07:41:18Z</time>
      </trkpt>
      <trkpt lat="39.431430" lon="-6.114710">
        <ele>367.360931</ele>
        <time>2010-05-21T07:41:19Z</time>
      </trkpt>
      <trkpt lat="39.431400" lon="-6.114580">
        <ele>369.764282</ele>
        <time>2010-05-21T07:41:20Z</time>
      </trkpt>
      <trkpt lat="39.431070" lon="-6.114250">
        <ele>369.764282</ele>
        <time>2010-05-21T07:41:21Z</time>
      </trkpt>
      <trkpt lat="39.430970" lon="-6.114240">
        <ele>368.322266</ele>
        <time>2010-05-21T07:41:22Z</time>
      </trkpt>
      <trkpt lat="39.430780" lon="-6.113900">
        <ele>370.244873</ele>
        <time>2010-05-21T07:41:23Z</time>
      </trkpt>
      <trkpt lat="39.430740" lon="-6.112950">
        <ele>369.764282</ele>
        <time>2010-05-21T07:41:24Z</time>
      </trkpt>
      <trkpt lat="39.430700" lon="-6.112810">
        <ele>369.764282</ele>
        <time>2010-05-21T07:41:25Z</time>
      </trkpt>
      <trkpt lat="39.430490" lon="-6.112500">
        <ele>369.283691</ele>
        <time>2010-05-21T07:41:26Z</time>
      </trkpt>
      <trkpt lat="39.430040" lon="-6.112210">
        <ele>368.802979</ele>
        <time>2010-05-21T07:41:27Z</time>
      </trkpt>
      <trkpt lat="39.429890" lon="-6.112120">
        <ele>367.841553</ele>
        <time>2010-05-21T07:41:28Z</time>
      </trkpt>
      <trkpt lat="39.429740" lon="-6.112080">
        <ele>362.554321</ele>
        <time>2010-05-21T07:41:29Z</time>
      </trkpt>
      <trkpt lat="39.429600" lon="-6.111990">
        <ele>360.151123</ele>
        <time>2010-05-21T07:41:30Z</time>
      </trkpt>
      <trkpt lat="39.429480" lon="-6.111860">
        <ele>358.708984</ele>
        <time>2010-05-21T07:41:31Z</time>
      </trkpt>
      <trkpt lat="39.429290" lon="-6.111760">
        <ele>357.267090</ele>
        <time>2010-05-21T07:41:32Z</time>
      </trkpt>
      <trkpt lat="39.428770" lon="-6.111680">
        <ele>356.786377</ele>
        <time>2010-05-21T07:41:33Z</time>
      </trkpt>
      <trkpt lat="39.428550" lon="-6.111690">
        <ele>355.344482</ele>
        <time>2010-05-21T07:41:34Z</time>
      </trkpt>
      <trkpt lat="39.428370" lon="-6.111430">
        <ele>353.421875</ele>
        <time>2010-05-21T07:41:35Z</time>
      </trkpt>
      <trkpt lat="39.428360" lon="-6.111260">
        <ele>348.615234</ele>
        <time>2010-05-21T07:41:36Z</time>
      </trkpt>
      <trkpt lat="39.428350" lon="-6.111140">
        <ele>342.366699</ele>
        <time>2010-05-21T07:41:37Z</time>
      </trkpt>
      <trkpt lat="39.428270" lon="-6.110770">
        <ele>339.002075</ele>
        <time>2010-05-21T07:41:38Z</time>
      </trkpt>
      <trkpt lat="39.428140" lon="-6.110610">
        <ele>339.482697</ele>
        <time>2010-05-21T07:41:39Z</time>
      </trkpt>
      <trkpt lat="39.427920" lon="-6.110280">
        <ele>339.482697</ele>
        <time>2010-05-21T07:41:40Z</time>
      </trkpt>
      <trkpt lat="39.427770" lon="-6.109830">
        <ele>338.040771</ele>
        <time>2010-05-21T07:41:41Z</time>
      </trkpt>
      <trkpt lat="39.427730" lon="-6.109070">
        <ele>338.521484</ele>
        <time>2010-05-21T07:41:42Z</time>
      </trkpt>
      <trkpt lat="39.427760" lon="-6.108750">
        <ele>337.560059</ele>
        <time>2010-05-21T07:41:43Z</time>
      </trkpt>
      <trkpt lat="39.427850" lon="-6.108580">
        <ele>337.079468</ele>
        <time>2010-05-21T07:41:44Z</time>
      </trkpt>
      <trkpt lat="39.428010" lon="-6.108440">
        <ele>336.118164</ele>
        <time>2010-05-21T07:41:45Z</time>
      </trkpt>
      <trkpt lat="39.428310" lon="-6.108240">
        <ele>336.118164</ele>
        <time>2010-05-21T07:41:46Z</time>
      </trkpt>
      <trkpt lat="39.428540" lon="-6.107980">
        <ele>334.676117</ele>
        <time>2010-05-21T07:41:47Z</time>
      </trkpt>
      <trkpt lat="39.428670" lon="-6.107460">
        <ele>335.637329</ele>
        <time>2010-05-21T07:41:48Z</time>
      </trkpt>
      <trkpt lat="39.428660" lon="-6.107180">
        <ele>335.156738</ele>
        <time>2010-05-21T07:41:49Z</time>
      </trkpt>
      <trkpt lat="39.428670" lon="-6.107010">
        <ele>335.637329</ele>
        <time>2010-05-21T07:41:50Z</time>
      </trkpt>
      <trkpt lat="39.428610" lon="-6.106720">
        <ele>334.676117</ele>
        <time>2010-05-21T07:41:51Z</time>
      </trkpt>
      <trkpt lat="39.428580" lon="-6.106500">
        <ele>330.830933</ele>
        <time>2010-05-21T07:41:52Z</time>
      </trkpt>
      <trkpt lat="39.428580" lon="-6.106100">
        <ele>330.350220</ele>
        <time>2010-05-21T07:41:53Z</time>
      </trkpt>
      <trkpt lat="39.428470" lon="-6.105440">
        <ele>328.427612</ele>
        <time>2010-05-21T07:41:54Z</time>
      </trkpt>
      <trkpt lat="39.428480" lon="-6.105200">
        <ele>328.427612</ele>
        <time>2010-05-21T07:41:55Z</time>
      </trkpt>
      <trkpt lat="39.428620" lon="-6.104580">
        <ele>324.101563</ele>
        <time>2010-05-21T07:41:56Z</time>
      </trkpt>
      <trkpt lat="39.428990" lon="-6.104320">
        <ele>330.830933</ele>
        <time>2010-05-21T07:41:57Z</time>
      </trkpt>
      <trkpt lat="39.429040" lon="-6.104330">
        <ele>334.676117</ele>
        <time>2010-05-21T07:41:58Z</time>
      </trkpt>
      <trkpt lat="39.429040" lon="-6.104330">
        <ele>335.637329</ele>
        <time>2010-05-21T07:41:59Z</time>
      </trkpt>
      <trkpt lat="39.429030" lon="-6.104340">
        <ele>335.156738</ele>
        <time>2010-05-21T07:42:00Z</time>
      </trkpt>
      <trkpt lat="39.429090" lon="-6.104350">
        <ele>335.637329</ele>
        <time>2010-05-21T07:42:01Z</time>
      </trkpt>
      <trkpt lat="39.429090" lon="-6.104330">
        <ele>336.118164</ele>
        <time>2010-05-21T07:42:02Z</time>
      </trkpt>
      <trkpt lat="39.429220" lon="-6.104680">
        <ele>335.156738</ele>
        <time>2010-05-21T07:42:03Z</time>
      </trkpt>
      <trkpt lat="39.429250" lon="-6.104710">
        <ele>334.676117</ele>
        <time>2010-05-21T07:42:04Z</time>
      </trkpt>
      <trkpt lat="39.429670" lon="-6.104620">
        <ele>334.676117</ele>
        <time>2010-05-21T07:42:05Z</time>
      </trkpt>
      <trkpt lat="39.429790" lon="-6.104470">
        <ele>334.676117</ele>
        <time>2010-05-21T07:42:06Z</time>
      </trkpt>
      <trkpt lat="39.429860" lon="-6.104360">
        <ele>334.676117</ele>
        <time>2010-05-21T07:42:07Z</time>
      </trkpt>
      <trkpt lat="39.430170" lon="-6.104060">
        <ele>334.195465</ele>
        <time>2010-05-21T07:42:08Z</time>
      </trkpt>
      <trkpt lat="39.430650" lon="-6.103670">
        <ele>331.792114</ele>
        <time>2010-05-21T07:42:09Z</time>
      </trkpt>
      <trkpt lat="39.430770" lon="-6.103410">
        <ele>330.350220</ele>
        <time>2010-05-21T07:42:10Z</time>
      </trkpt>
      <trkpt lat="39.430920" lon="-6.103230">
        <ele>329.388885</ele>
        <time>2010-05-21T07:42:11Z</time>
      </trkpt>
      <trkpt lat="39.431070" lon="-6.102730">
        <ele>331.311523</ele>
        <time>2010-05-21T07:42:12Z</time>
      </trkpt>
      <trkpt lat="39.430990" lon="-6.102090">
        <ele>333.234131</ele>
        <time>2010-05-21T07:42:13Z</time>
      </trkpt>
      <trkpt lat="39.431000" lon="-6.101570">
        <ele>334.195465</ele>
        <time>2010-05-21T07:42:14Z</time>
      </trkpt>
      <trkpt lat="39.431030" lon="-6.101240">
        <ele>332.753540</ele>
        <time>2010-05-21T07:42:15Z</time>
      </trkpt>
      <trkpt lat="39.431310" lon="-6.100590">
        <ele>332.272827</ele>
        <time>2010-05-21T07:42:16Z</time>
      </trkpt>
      <trkpt lat="39.431490" lon="-6.100360">
        <ele>331.792114</ele>
        <time>2010-05-21T07:42:17Z</time>
      </trkpt>
      <trkpt lat="39.431490" lon="-6.100370">
        <ele>330.350220</ele>
        <time>2010-05-21T07:42:18Z</time>
      </trkpt>
      <trkpt lat="39.431690" lon="-6.099980">
        <ele>330.350220</ele>
        <time>2010-05-21T07:42:19Z</time>
      </trkpt>
      <trkpt lat="39.431840" lon="-6.099770">
        <ele>329.388885</ele>
        <time>2010-05-21T07:42:20Z</time>
      </trkpt>
      <trkpt lat="39.431930" lon="-6.099610">
        <ele>326.504883</ele>
        <time>2010-05-21T07:42:21Z</time>
      </trkpt>
      <trkpt lat="39.432340" lon="-6.098480">
        <ele>326.504883</ele>
        <time>2010-05-21T07:42:22Z</time>
      </trkpt>
      <trkpt lat="39.432610" lon="-6.098070">
        <ele>325.543579</ele>
        <time>2010-05-21T07:42:23Z</time>
      </trkpt>
      <trkpt lat="39.433090" lon="-6.097370">
        <ele>323.140381</ele>
        <time>2010-05-21T07:42:24Z</time>
      </trkpt>
      <trkpt lat="39.433360" lon="-6.096760">
        <ele>324.101563</ele>
        <time>2010-05-21T07:42:25Z</time>
      </trkpt>
      <trkpt lat="39.433460" lon="-6.096310">
        <ele>323.620941</ele>
        <time>2010-05-21T07:42:26Z</time>
      </trkpt>
      <trkpt lat="39.433630" lon="-6.095960">
        <ele>323.140381</ele>
        <time>2010-05-21T07:42:27Z</time>
      </trkpt>
      <trkpt lat="39.434040" lon="-6.095280">
        <ele>320.737061</ele>
        <time>2010-05-21T07:42:28Z</time>
      </trkpt>
      <trkpt lat="39.434430" lon="-6.094560">
        <ele>319.295044</ele>
        <time>2010-05-21T07:42:29Z</time>
      </trkpt>
      <trkpt lat="39.434460" lon="-6.094440">
        <ele>320.256348</ele>
        <time>2010-05-21T07:42:30Z</time>
      </trkpt>
      <trkpt lat="39.434600" lon="-6.093730">
        <ele>320.256348</ele>
        <time>2010-05-21T07:42:31Z</time>
      </trkpt>
      <trkpt lat="39.434440" lon="-6.092870">
        <ele>321.217773</ele>
        <time>2010-05-21T07:42:32Z</time>
      </trkpt>
      <trkpt lat="39.434410" lon="-6.092500">
        <ele>322.659668</ele>
        <time>2010-05-21T07:42:33Z</time>
      </trkpt>
      <trkpt lat="39.434450" lon="-6.092280">
        <ele>319.775635</ele>
        <time>2010-05-21T07:42:34Z</time>
      </trkpt>
      <trkpt lat="39.434540" lon="-6.091950">
        <ele>317.853058</ele>
        <time>2010-05-21T07:42:35Z</time>
      </trkpt>
      <trkpt lat="39.434640" lon="-6.091670">
        <ele>324.582275</ele>
        <time>2010-05-21T07:42:36Z</time>
      </trkpt>
      <trkpt lat="39.434830" lon="-6.091570">
        <ele>325.062988</ele>
        <time>2010-05-21T07:42:37Z</time>
      </trkpt>
      <trkpt lat="39.435450" lon="-6.091540">
        <ele>317.853058</ele>
        <time>2010-05-21T07:42:38Z</time>
      </trkpt>
      <trkpt lat="39.435570" lon="-6.091490">
        <ele>313.527222</ele>
        <time>2010-05-21T07:42:39Z</time>
      </trkpt>
      <trkpt lat="39.435660" lon="-6.091490">
        <ele>313.527222</ele>
        <time>2010-05-21T07:42:40Z</time>
      </trkpt>
      <trkpt lat="39.435660" lon="-6.091330">
        <ele>319.775635</ele>
        <time>2010-05-21T07:42:41Z</time>
      </trkpt>
      <trkpt lat="39.435620" lon="-6.089890">
        <ele>325.543579</ele>
        <time>2010-05-21T07:42:42Z</time>
      </trkpt>
      <trkpt lat="39.435950" lon="-6.088340">
        <ele>335.156738</ele>
        <time>2010-05-21T07:42:43Z</time>
      </trkpt>
      <trkpt lat="39.436580" lon="-6.086800">
        <ele>338.521484</ele>
        <time>2010-05-21T07:42:44Z</time>
      </trkpt>
      <trkpt lat="39.437280" lon="-6.085080">
        <ele>339.002075</ele>
        <time>2010-05-21T07:42:45Z</time>
      </trkpt>
      <trkpt lat="39.437960" lon="-6.083270">
        <ele>336.598877</ele>
        <time>2010-05-21T07:42:46Z</time>
      </trkpt>
      <trkpt lat="39.438820" lon="-6.080930">
        <ele>343.327881</ele>
        <time>2010-05-21T07:42:47Z</time>
      </trkpt>
      <trkpt lat="39.438990" lon="-6.080560">
        <ele>346.692627</ele>
        <time>2010-05-21T07:42:48Z</time>
      </trkpt>
      <trkpt lat="39.439050" lon="-6.080430">
        <ele>350.057251</ele>
        <time>2010-05-21T07:42:49Z</time>
      </trkpt>
      <trkpt lat="39.439060" lon="-6.080430">
        <ele>361.112427</ele>
        <time>2010-05-21T07:42:50Z</time>
      </trkpt>
      <trkpt lat="39.439540" lon="-6.079820">
        <ele>367.841553</ele>
        <time>2010-05-21T07:42:51Z</time>
      </trkpt>
      <trkpt lat="39.440290" lon="-6.078670">
        <ele>378.416107</ele>
        <time>2010-05-21T07:42:52Z</time>
      </trkpt>
      <trkpt lat="39.441520" lon="-6.076770">
        <ele>385.625977</ele>
        <time>2010-05-21T07:42:53Z</time>
      </trkpt>
      <trkpt lat="39.442740" lon="-6.074870">
        <ele>387.067993</ele>
        <time>2010-05-21T07:42:54Z</time>
      </trkpt>
      <trkpt lat="39.443360" lon="-6.073540">
        <ele>386.587402</ele>
        <time>2010-05-21T07:42:55Z</time>
      </trkpt>
      <trkpt lat="39.444040" lon="-6.071300">
        <ele>386.587402</ele>
        <time>2010-05-21T07:42:56Z</time>
      </trkpt>
      <trkpt lat="39.445030" lon="-6.069620">
        <ele>388.029297</ele>
        <time>2010-05-21T07:42:57Z</time>
      </trkpt>
      <trkpt lat="39.445840" lon="-6.068050">
        <ele>383.703247</ele>
        <time>2010-05-21T07:42:58Z</time>
      </trkpt>
      <trkpt lat="39.445930" lon="-6.067580">
        <ele>380.338745</ele>
        <time>2010-05-21T07:42:59Z</time>
      </trkpt>
      <trkpt lat="39.445880" lon="-6.066900">
        <ele>380.819458</ele>
        <time>2010-05-21T07:43:00Z</time>
      </trkpt>
      <trkpt lat="39.445330" lon="-6.064930">
        <ele>377.454834</ele>
        <time>2010-05-21T07:43:01Z</time>
      </trkpt>
      <trkpt lat="39.445110" lon="-6.064140">
        <ele>373.609497</ele>
        <time>2010-05-21T07:43:02Z</time>
      </trkpt>
      <trkpt lat="39.444920" lon="-6.063620">
        <ele>361.112427</ele>
        <time>2010-05-21T07:43:03Z</time>
      </trkpt>
      <trkpt lat="39.444920" lon="-6.063510">
        <ele>348.134644</ele>
        <time>2010-05-21T07:43:04Z</time>
      </trkpt>
      <trkpt lat="39.444830" lon="-6.063390">
        <ele>336.118164</ele>
        <time>2010-05-21T07:43:05Z</time>
      </trkpt>
      <trkpt lat="39.444580" lon="-6.062480">
        <ele>328.908325</ele>
        <time>2010-05-21T07:43:06Z</time>
      </trkpt>
      <trkpt lat="39.444030" lon="-6.060500">
        <ele>326.024170</ele>
        <time>2010-05-21T07:43:07Z</time>
      </trkpt>
      <trkpt lat="39.443600" lon="-6.058980">
        <ele>322.659668</ele>
        <time>2010-05-21T07:43:08Z</time>
      </trkpt>
      <trkpt lat="39.443150" lon="-6.057640">
        <ele>317.853058</ele>
        <time>2010-05-21T07:43:09Z</time>
      </trkpt>
      <trkpt lat="39.442650" lon="-6.057160">
        <ele>314.969116</ele>
        <time>2010-05-21T07:43:10Z</time>
      </trkpt>
      <trkpt lat="39.442410" lon="-6.057130">
        <ele>313.527222</ele>
        <time>2010-05-21T07:43:11Z</time>
      </trkpt>
      <trkpt lat="39.442160" lon="-6.057210">
        <ele>314.488403</ele>
        <time>2010-05-21T07:43:12Z</time>
      </trkpt>
      <trkpt lat="39.441930" lon="-6.057590">
        <ele>313.527222</ele>
        <time>2010-05-21T07:43:13Z</time>
      </trkpt>
      <trkpt lat="39.441900" lon="-6.057680">
        <ele>313.046478</ele>
        <time>2010-05-21T07:43:14Z</time>
      </trkpt>
      <trkpt lat="39.441850" lon="-6.057740">
        <ele>313.046478</ele>
        <time>2010-05-21T07:43:15Z</time>
      </trkpt>
      <trkpt lat="39.441530" lon="-6.057710">
        <ele>312.565826</ele>
        <time>2010-05-21T07:43:16Z</time>
      </trkpt>
      <trkpt lat="39.441170" lon="-6.057560">
        <ele>314.488403</ele>
        <time>2010-05-21T07:43:17Z</time>
      </trkpt>
      <trkpt lat="39.440750" lon="-6.057570">
        <ele>314.969116</ele>
        <time>2010-05-21T07:43:18Z</time>
      </trkpt>
      <trkpt lat="39.440500" lon="-6.057770">
        <ele>315.449829</ele>
        <time>2010-05-21T07:43:19Z</time>
      </trkpt>
      <trkpt lat="39.440080" lon="-6.057850">
        <ele>319.295044</ele>
        <time>2010-05-21T07:43:20Z</time>
      </trkpt>
      <trkpt lat="39.440090" lon="-6.057570">
        <ele>323.140381</ele>
        <time>2010-05-21T07:43:21Z</time>
      </trkpt>
      <trkpt lat="39.440120" lon="-6.057430">
        <ele>325.062988</ele>
        <time>2010-05-21T07:43:22Z</time>
      </trkpt>
      <trkpt lat="39.440120" lon="-6.057150">
        <ele>327.946777</ele>
        <time>2010-05-21T07:43:23Z</time>
      </trkpt>
      <trkpt lat="39.440200" lon="-6.056920">
        <ele>334.676117</ele>
        <time>2010-05-21T07:43:24Z</time>
      </trkpt>
      <trkpt lat="39.440270" lon="-6.056830">
        <ele>339.482697</ele>
        <time>2010-05-21T07:43:25Z</time>
      </trkpt>
      <trkpt lat="39.440560" lon="-6.056680">
        <ele>345.731293</ele>
        <time>2010-05-21T07:43:26Z</time>
      </trkpt>
      <trkpt lat="39.440800" lon="-6.056300">
        <ele>349.576538</ele>
        <time>2010-05-21T07:43:27Z</time>
      </trkpt>
      <trkpt lat="39.441080" lon="-6.054930">
        <ele>353.902588</ele>
        <time>2010-05-21T07:43:28Z</time>
      </trkpt>
      <trkpt lat="39.441340" lon="-6.053920">
        <ele>353.421875</ele>
        <time>2010-05-21T07:43:29Z</time>
      </trkpt>
      <trkpt lat="39.441610" lon="-6.052860">
        <ele>350.057251</ele>
        <time>2010-05-21T07:43:30Z</time>
      </trkpt>
      <trkpt lat="39.441360" lon="-6.052350">
        <ele>349.576538</ele>
        <time>2010-05-21T07:43:31Z</time>
      </trkpt>
      <trkpt lat="39.441130" lon="-6.052310">
        <ele>347.653931</ele>
        <time>2010-05-21T07:43:32Z</time>
      </trkpt>
      <trkpt lat="39.440860" lon="-6.052230">
        <ele>347.653931</ele>
        <time>2010-05-21T07:43:33Z</time>
      </trkpt>
      <trkpt lat="39.440080" lon="-6.052000">
        <ele>345.250641</ele>
        <time>2010-05-21T07:43:34Z</time>
      </trkpt>
      <trkpt lat="39.439720" lon="-6.051980">
        <ele>341.405273</ele>
        <time>2010-05-21T07:43:35Z</time>
      </trkpt>
      <trkpt lat="39.439390" lon="-6.051790">
        <ele>341.405273</ele>
        <time>2010-05-21T07:43:36Z</time>
      </trkpt>
      <trkpt lat="39.438830" lon="-6.050980">
        <ele>339.002075</ele>
        <time>2010-05-21T07:43:37Z</time>
      </trkpt>
      <trkpt lat="39.438530" lon="-6.050460">
        <ele>333.714752</ele>
        <time>2010-05-21T07:43:38Z</time>
      </trkpt>
      <trkpt lat="39.438340" lon="-6.050030">
        <ele>336.118164</ele>
        <time>2010-05-21T07:43:39Z</time>
      </trkpt>
      <trkpt lat="39.438300" lon="-6.049930">
        <ele>338.040771</ele>
        <time>2010-05-21T07:43:40Z</time>
      </trkpt>
      <trkpt lat="39.438270" lon="-6.049750">
        <ele>339.963348</ele>
        <time>2010-05-21T07:43:41Z</time>
      </trkpt>
      <trkpt lat="39.438280" lon="-6.049720">
        <ele>340.924683</ele>
        <time>2010-05-21T07:43:42Z</time>
      </trkpt>
      <trkpt lat="39.438380" lon="-6.049340">
        <ele>343.327881</ele>
        <time>2010-05-21T07:43:43Z</time>
      </trkpt>
      <trkpt lat="39.438470" lon="-6.048550">
        <ele>343.808594</ele>
        <time>2010-05-21T07:43:44Z</time>
      </trkpt>
      <trkpt lat="39.438650" lon="-6.048130">
        <ele>344.770020</ele>
        <time>2010-05-21T07:43:45Z</time>
      </trkpt>
      <trkpt lat="39.438740" lon="-6.047760">
        <ele>346.692627</ele>
        <time>2010-05-21T07:43:46Z</time>
      </trkpt>
      <trkpt lat="39.439060" lon="-6.047150">
        <ele>352.460571</ele>
        <time>2010-05-21T07:43:47Z</time>
      </trkpt>
      <trkpt lat="39.439070" lon="-6.047050">
        <ele>355.344482</ele>
        <time>2010-05-21T07:43:48Z</time>
      </trkpt>
      <trkpt lat="39.439140" lon="-6.046240">
        <ele>356.305756</ele>
        <time>2010-05-21T07:43:49Z</time>
      </trkpt>
      <trkpt lat="39.439100" lon="-6.045600">
        <ele>357.267090</ele>
        <time>2010-05-21T07:43:50Z</time>
      </trkpt>
      <trkpt lat="39.439230" lon="-6.045030">
        <ele>357.747803</ele>
        <time>2010-05-21T07:43:51Z</time>
      </trkpt>
      <trkpt lat="39.439330" lon="-6.044000">
        <ele>359.189697</ele>
        <time>2010-05-21T07:43:52Z</time>
      </trkpt>
      <trkpt lat="39.439420" lon="-6.043700">
        <ele>361.112427</ele>
        <time>2010-05-21T07:43:53Z</time>
      </trkpt>
      <trkpt lat="39.439470" lon="-6.043380">
        <ele>364.476929</ele>
        <time>2010-05-21T07:43:54Z</time>
      </trkpt>
      <trkpt lat="39.439520" lon="-6.043140">
        <ele>367.360931</ele>
        <time>2010-05-21T07:43:55Z</time>
      </trkpt>
      <trkpt lat="39.439440" lon="-6.042800">
        <ele>371.206299</ele>
        <time>2010-05-21T07:43:56Z</time>
      </trkpt>
      <trkpt lat="39.439420" lon="-6.042210">
        <ele>378.416107</ele>
        <time>2010-05-21T07:43:57Z</time>
      </trkpt>
      <trkpt lat="39.439680" lon="-6.041610">
        <ele>384.184052</ele>
        <time>2010-05-21T07:43:58Z</time>
      </trkpt>
      <trkpt lat="39.439830" lon="-6.041350">
        <ele>377.454834</ele>
        <time>2010-05-21T07:43:59Z</time>
      </trkpt>
      <trkpt lat="39.439930" lon="-6.040900">
        <ele>376.974243</ele>
        <time>2010-05-21T07:44:00Z</time>
      </trkpt>
      <trkpt lat="39.439810" lon="-6.040390">
        <ele>374.090088</ele>
        <time>2010-05-21T07:44:01Z</time>
      </trkpt>
      <trkpt lat="39.439830" lon="-6.040400">
        <ele>375.051514</ele>
        <time>2010-05-21T07:44:02Z</time>
      </trkpt>
      <trkpt lat="39.439800" lon="-6.040470">
        <ele>376.974243</ele>
        <time>2010-05-21T07:44:03Z</time>
      </trkpt>
      <trkpt lat="39.439810" lon="-6.040530">
        <ele>379.858032</ele>
        <time>2010-05-21T07:44:04Z</time>
      </trkpt>
      <trkpt lat="39.439820" lon="-6.040360">
        <ele>378.896851</ele>
        <time>2010-05-21T07:44:05Z</time>
      </trkpt>
      <trkpt lat="39.439810" lon="-6.040260">
        <ele>378.896851</ele>
        <time>2010-05-21T07:44:06Z</time>
      </trkpt>
      <trkpt lat="39.439850" lon="-6.039960">
        <ele>378.896851</ele>
        <time>2010-05-21T07:44:07Z</time>
      </trkpt>
      <trkpt lat="39.439920" lon="-6.039540">
        <ele>377.454834</ele>
        <time>2010-05-21T07:44:08Z</time>
      </trkpt>
      <trkpt lat="39.439930" lon="-6.039460">
        <ele>377.454834</ele>
        <time>2010-05-21T07:44:09Z</time>
      </trkpt>
      <trkpt lat="39.439930" lon="-6.039460">
        <ele>377.454834</ele>
        <time>2010-05-21T07:44:10Z</time>
      </trkpt>
      <trkpt lat="39.439950" lon="-6.039340">
        <ele>376.493530</ele>
        <time>2010-05-21T07:44:11Z</time>
      </trkpt>
      <trkpt lat="39.439980" lon="-6.038600">
        <ele>376.012817</ele>
        <time>2010-05-21T07:44:12Z</time>
      </trkpt>
      <trkpt lat="39.439960" lon="-6.038550">
        <ele>375.532104</ele>
        <time>2010-05-21T07:44:13Z</time>
      </trkpt>
      <trkpt lat="39.439980" lon="-6.038480">
        <ele>374.090088</ele>
        <time>2010-05-21T07:44:14Z</time>
      </trkpt>
      <trkpt lat="39.440000" lon="-6.038220">
        <ele>375.532104</ele>
        <time>2010-05-21T07:44:15Z</time>
      </trkpt>
      <trkpt lat="39.439920" lon="-6.037780">
        <ele>379.377441</ele>
        <time>2010-05-21T07:44:16Z</time>
      </trkpt>
      <trkpt lat="39.439710" lon="-6.037420">
        <ele>379.377441</ele>
        <time>2010-05-21T07:44:17Z</time>
      </trkpt>
      <trkpt lat="39.439690" lon="-6.037360">
        <ele>380.338745</ele>
        <time>2010-05-21T07:44:18Z</time>
      </trkpt>
      <trkpt lat="39.439680" lon="-6.037250">
        <ele>380.819458</ele>
        <time>2010-05-21T07:44:19Z</time>
      </trkpt>
      <trkpt lat="39.439610" lon="-6.036980">
        <ele>382.261353</ele>
        <time>2010-05-21T07:44:20Z</time>
      </trkpt>
      <trkpt lat="39.439480" lon="-6.036700">
        <ele>383.222687</ele>
        <time>2010-05-21T07:44:21Z</time>
      </trkpt>
      <trkpt lat="39.439150" lon="-6.036020">
        <ele>384.184052</ele>
        <time>2010-05-21T07:44:22Z</time>
      </trkpt>
      <trkpt lat="39.439010" lon="-6.035720">
        <ele>388.990570</ele>
        <time>2010-05-21T07:44:23Z</time>
      </trkpt>
      <trkpt lat="39.438930" lon="-6.035420">
        <ele>389.951904</ele>
        <time>2010-05-21T07:44:24Z</time>
      </trkpt>
      <trkpt lat="39.438910" lon="-6.035280">
        <ele>388.990570</ele>
        <time>2010-05-21T07:44:25Z</time>
      </trkpt>
      <trkpt lat="39.438870" lon="-6.035120">
        <ele>388.990570</ele>
        <time>2010-05-21T07:44:26Z</time>
      </trkpt>
      <trkpt lat="39.438830" lon="-6.035050">
        <ele>388.510010</ele>
        <time>2010-05-21T07:44:27Z</time>
      </trkpt>
      <trkpt lat="39.438840" lon="-6.034920">
        <ele>387.548584</ele>
        <time>2010-05-21T07:44:28Z</time>
      </trkpt>
      <trkpt lat="39.438820" lon="-6.034870">
        <ele>391.393799</ele>
        <time>2010-05-21T07:44:29Z</time>
      </trkpt>
      <trkpt lat="39.438580" lon="-6.033950">
        <ele>392.835938</ele>
        <time>2010-05-21T07:44:30Z</time>
      </trkpt>
      <trkpt lat="39.438490" lon="-6.033510">
        <ele>398.603760</ele>
        <time>2010-05-21T07:44:31Z</time>
      </trkpt>
      <trkpt lat="39.438070" lon="-6.031710">
        <ele>403.410400</ele>
        <time>2010-05-21T07:44:32Z</time>
      </trkpt>
      <trkpt lat="39.437800" lon="-6.030710">
        <ele>401.968506</ele>
        <time>2010-05-21T07:44:33Z</time>
      </trkpt>
      <trkpt lat="39.437760" lon="-6.030590">
        <ele>400.045898</ele>
        <time>2010-05-21T07:44:34Z</time>
      </trkpt>
      <trkpt lat="39.437600" lon="-6.030240">
        <ele>394.758514</ele>
        <time>2010-05-21T07:44:35Z</time>
      </trkpt>
      <trkpt lat="39.437600" lon="-6.030290">
        <ele>392.355377</ele>
        <time>2010-05-21T07:44:36Z</time>
      </trkpt>
      <trkpt lat="39.437510" lon="-6.030160">
        <ele>390.432617</ele>
        <time>2010-05-21T07:44:37Z</time>
      </trkpt>
      <trkpt lat="39.437520" lon="-6.029980">
        <ele>381.780640</ele>
        <time>2010-05-21T07:44:38Z</time>
      </trkpt>
      <trkpt lat="39.437460" lon="-6.029600">
        <ele>380.338745</ele>
        <time>2010-05-21T07:44:39Z</time>
      </trkpt>
      <trkpt lat="39.437320" lon="-6.029140">
        <ele>379.377441</ele>
        <time>2010-05-21T07:44:40Z</time>
      </trkpt>
      <trkpt lat="39.437310" lon="-6.029070">
        <ele>379.858032</ele>
        <time>2010-05-21T07:44:41Z</time>
      </trkpt>
      <trkpt lat="39.437230" lon="-6.028800">
        <ele>379.858032</ele>
        <time>2010-05-21T07:44:42Z</time>
      </trkpt>
      <trkpt lat="39.437040" lon="-6.028490">
        <ele>380.338745</ele>
        <time>2010-05-21T07:44:43Z</time>
      </trkpt>
      <trkpt lat="39.436810" lon="-6.028120">
        <ele>380.338745</ele>
        <time>2010-05-21T07:44:44Z</time>
      </trkpt>
      <trkpt lat="39.436690" lon="-6.027560">
        <ele>381.300049</ele>
        <time>2010-05-21T07:44:45Z</time>
      </trkpt>
      <trkpt lat="39.436680" lon="-6.027340">
        <ele>386.587402</ele>
        <time>2010-05-21T07:44:46Z</time>
      </trkpt>
      <trkpt lat="39.436640" lon="-6.027030">
        <ele>393.797241</ele>
        <time>2010-05-21T07:44:47Z</time>
      </trkpt>
      <trkpt lat="39.436680" lon="-6.026890">
        <ele>393.316528</ele>
        <time>2010-05-21T07:44:48Z</time>
      </trkpt>
      <trkpt lat="39.436720" lon="-6.026690">
        <ele>392.355377</ele>
        <time>2010-05-21T07:44:49Z</time>
      </trkpt>
      <trkpt lat="39.436670" lon="-6.026570">
        <ele>391.393799</ele>
        <time>2010-05-21T07:44:50Z</time>
      </trkpt>
      <trkpt lat="39.436620" lon="-6.026550">
        <ele>389.951904</ele>
        <time>2010-05-21T07:44:51Z</time>
      </trkpt>
      <trkpt lat="39.436660" lon="-6.026470">
        <ele>380.819458</ele>
        <time>2010-05-21T07:44:52Z</time>
      </trkpt>
      <trkpt lat="39.436810" lon="-6.026180">
        <ele>380.819458</ele>
        <time>2010-05-21T07:44:53Z</time>
      </trkpt>
      <trkpt lat="39.436860" lon="-6.025780">
        <ele>380.819458</ele>
        <time>2010-05-21T07:44:54Z</time>
      </trkpt>
      <trkpt lat="39.436850" lon="-6.025330">
        <ele>380.819458</ele>
        <time>2010-05-21T07:44:55Z</time>
      </trkpt>
      <trkpt lat="39.436850" lon="-6.024890">
        <ele>381.300049</ele>
        <time>2010-05-21T07:44:56Z</time>
      </trkpt>
      <trkpt lat="39.437030" lon="-6.024550">
        <ele>382.742065</ele>
        <time>2010-05-21T07:44:57Z</time>
      </trkpt>
      <trkpt lat="39.437130" lon="-6.024490">
        <ele>382.742065</ele>
        <time>2010-05-21T07:44:58Z</time>
      </trkpt>
      <trkpt lat="39.437220" lon="-6.024600">
        <ele>382.261353</ele>
        <time>2010-05-21T07:44:59Z</time>
      </trkpt>
      <trkpt lat="39.437300" lon="-6.024880">
        <ele>381.780640</ele>
        <time>2010-05-21T07:45:00Z</time>
      </trkpt>
      <trkpt lat="39.437490" lon="-6.025400">
        <ele>376.012817</ele>
        <time>2010-05-21T07:45:01Z</time>
      </trkpt>
      <trkpt lat="39.437780" lon="-6.025480">
        <ele>375.532104</ele>
        <time>2010-05-21T07:45:02Z</time>
      </trkpt>
      <trkpt lat="39.437790" lon="-6.025460">
        <ele>374.570801</ele>
        <time>2010-05-21T07:45:03Z</time>
      </trkpt>
      <trkpt lat="39.437780" lon="-6.025460">
        <ele>370.725586</ele>
        <time>2010-05-21T07:45:04Z</time>
      </trkpt>
      <trkpt lat="39.437760" lon="-6.025450">
        <ele>370.244873</ele>
        <time>2010-05-21T07:45:05Z</time>
      </trkpt>
      <trkpt lat="39.437740" lon="-6.025440">
        <ele>370.244873</ele>
        <time>2010-05-21T07:45:06Z</time>
      </trkpt>
      <trkpt lat="39.437780" lon="-6.025340">
        <ele>368.802979</ele>
        <time>2010-05-21T07:45:07Z</time>
      </trkpt>
      <trkpt lat="39.437790" lon="-6.024880">
        <ele>365.438354</ele>
        <time>2010-05-21T07:45:08Z</time>
      </trkpt>
      <trkpt lat="39.437860" lon="-6.024690">
        <ele>363.996338</ele>
        <time>2010-05-21T07:45:09Z</time>
      </trkpt>
      <trkpt lat="39.437990" lon="-6.024380">
        <ele>359.189697</ele>
        <time>2010-05-21T07:45:10Z</time>
      </trkpt>
      <trkpt lat="39.438080" lon="-6.024100">
        <ele>358.708984</ele>
        <time>2010-05-21T07:45:11Z</time>
      </trkpt>
      <trkpt lat="39.438030" lon="-6.023910">
        <ele>354.863770</ele>
        <time>2010-05-21T07:45:12Z</time>
      </trkpt>
      <trkpt lat="39.438020" lon="-6.023830">
        <ele>355.825195</ele>
        <time>2010-05-21T07:45:13Z</time>
      </trkpt>
      <trkpt lat="39.437950" lon="-6.023520">
        <ele>356.305756</ele>
        <time>2010-05-21T07:45:14Z</time>
      </trkpt>
      <trkpt lat="39.437900" lon="-6.023370">
        <ele>361.593140</ele>
        <time>2010-05-21T07:45:15Z</time>
      </trkpt>
      <trkpt lat="39.438010" lon="-6.023020">
        <ele>362.554321</ele>
        <time>2010-05-21T07:45:16Z</time>
      </trkpt>
      <trkpt lat="39.438000" lon="-6.022990">
        <ele>363.035034</ele>
        <time>2010-05-21T07:45:17Z</time>
      </trkpt>
      <trkpt lat="39.438040" lon="-6.023030">
        <ele>368.802979</ele>
        <time>2010-05-21T07:45:18Z</time>
      </trkpt>
      <trkpt lat="39.438340" lon="-6.023200">
        <ele>374.570801</ele>
        <time>2010-05-21T07:45:19Z</time>
      </trkpt>
      <trkpt lat="39.438520" lon="-6.023120">
        <ele>377.454834</ele>
        <time>2010-05-21T07:45:20Z</time>
      </trkpt>
      <trkpt lat="39.438830" lon="-6.022820">
        <ele>379.858032</ele>
        <time>2010-05-21T07:45:21Z</time>
      </trkpt>
      <trkpt lat="39.438920" lon="-6.022780">
        <ele>378.896851</ele>
        <time>2010-05-21T07:45:22Z</time>
      </trkpt>
      <trkpt lat="39.438990" lon="-6.022740">
        <ele>383.703247</ele>
        <time>2010-05-21T07:45:23Z</time>
      </trkpt>
      <trkpt lat="39.439190" lon="-6.022830">
        <ele>388.510010</ele>
        <time>2010-05-21T07:45:24Z</time>
      </trkpt>
      <trkpt lat="39.439300" lon="-6.022820">
        <ele>394.277954</ele>
        <time>2010-05-21T07:45:25Z</time>
      </trkpt>
      <trkpt lat="39.439360" lon="-6.022800">
        <ele>394.277954</ele>
        <time>2010-05-21T07:45:26Z</time>
      </trkpt>
      <trkpt lat="39.439640" lon="-6.022650">
        <ele>392.835938</ele>
        <time>2010-05-21T07:45:27Z</time>
      </trkpt>
      <trkpt lat="39.439830" lon="-6.022030">
        <ele>396.681152</ele>
        <time>2010-05-21T07:45:28Z</time>
      </trkpt>
      <trkpt lat="39.439880" lon="-6.021690">
        <ele>399.565094</ele>
        <time>2010-05-21T07:45:29Z</time>
      </trkpt>
      <trkpt lat="39.439870" lon="-6.021520">
        <ele>400.526459</ele>
        <time>2010-05-21T07:45:30Z</time>
      </trkpt>
      <trkpt lat="39.439950" lon="-6.020330">
        <ele>405.333038</ele>
        <time>2010-05-21T07:45:31Z</time>
      </trkpt>
      <trkpt lat="39.440060" lon="-6.018940">
        <ele>404.371704</ele>
        <time>2010-05-21T07:45:32Z</time>
      </trkpt>
      <trkpt lat="39.440080" lon="-6.018390">
        <ele>404.371704</ele>
        <time>2010-05-21T07:45:33Z</time>
      </trkpt>
      <trkpt lat="39.440080" lon="-6.018350">
        <ele>404.371704</ele>
        <time>2010-05-21T07:45:34Z</time>
      </trkpt>
      <trkpt lat="39.440060" lon="-6.018360">
        <ele>403.410400</ele>
        <time>2010-05-21T07:45:35Z</time>
      </trkpt>
      <trkpt lat="39.440060" lon="-6.018390">
        <ele>402.929688</ele>
        <time>2010-05-21T07:45:36Z</time>
      </trkpt>
      <trkpt lat="39.439960" lon="-6.018340">
        <ele>402.929688</ele>
        <time>2010-05-21T07:45:37Z</time>
      </trkpt>
      <trkpt lat="39.439830" lon="-6.018320">
        <ele>400.526459</ele>
        <time>2010-05-21T07:45:38Z</time>
      </trkpt>
      <trkpt lat="39.439570" lon="-6.018220">
        <ele>403.410400</ele>
        <time>2010-05-21T07:45:39Z</time>
      </trkpt>
      <trkpt lat="39.439340" lon="-6.018060">
        <ele>404.371704</ele>
        <time>2010-05-21T07:45:40Z</time>
      </trkpt>
      <trkpt lat="39.439330" lon="-6.018060">
        <ele>405.333038</ele>
        <time>2010-05-21T07:45:41Z</time>
      </trkpt>
      <trkpt lat="39.439320" lon="-6.018010">
        <ele>403.410400</ele>
        <time>2010-05-21T07:45:42Z</time>
      </trkpt>
      <trkpt lat="39.439090" lon="-6.017900">
        <ele>403.410400</ele>
        <time>2010-05-21T07:45:43Z</time>
      </trkpt>
      <trkpt lat="39.438750" lon="-6.017660">
        <ele>401.968506</ele>
        <time>2010-05-21T07:45:44Z</time>
      </trkpt>
      <trkpt lat="39.438450" lon="-6.017310">
        <ele>401.487793</ele>
        <time>2010-05-21T07:45:45Z</time>
      </trkpt>
      <trkpt lat="39.438110" lon="-6.016960">
        <ele>401.487793</ele>
        <time>2010-05-21T07:45:46Z</time>
      </trkpt>
      <trkpt lat="39.438070" lon="-6.016930">
        <ele>400.526459</ele>
        <time>2010-05-21T07:45:47Z</time>
      </trkpt>
      <trkpt lat="39.437820" lon="-6.016650">
        <ele>399.565094</ele>
        <time>2010-05-21T07:45:48Z</time>
      </trkpt>
      <trkpt lat="39.437700" lon="-6.016520">
        <ele>399.565094</ele>
        <time>2010-05-21T07:45:49Z</time>
      </trkpt>
      <trkpt lat="39.437630" lon="-6.016440">
        <ele>399.084381</ele>
        <time>2010-05-21T07:45:50Z</time>
      </trkpt>
      <trkpt lat="39.437440" lon="-6.016320">
        <ele>399.565094</ele>
        <time>2010-05-21T07:45:51Z</time>
      </trkpt>
      <trkpt lat="39.437050" lon="-6.016170">
        <ele>402.449097</ele>
        <time>2010-05-21T07:45:52Z</time>
      </trkpt>
      <trkpt lat="39.436580" lon="-6.015910">
        <ele>403.410400</ele>
        <time>2010-05-21T07:45:53Z</time>
      </trkpt>
      <trkpt lat="39.436440" lon="-6.015840">
        <ele>405.813690</ele>
        <time>2010-05-21T07:45:54Z</time>
      </trkpt>
      <trkpt lat="39.436250" lon="-6.015710">
        <ele>405.813690</ele>
        <time>2010-05-21T07:45:55Z</time>
      </trkpt>
      <trkpt lat="39.436080" lon="-6.015640">
        <ele>404.371704</ele>
        <time>2010-05-21T07:45:56Z</time>
      </trkpt>
      <trkpt lat="39.435990" lon="-6.015580">
        <ele>404.371704</ele>
        <time>2010-05-21T07:45:57Z</time>
      </trkpt>
      <trkpt lat="39.435860" lon="-6.015240">
        <ele>403.410400</ele>
        <time>2010-05-21T07:45:58Z</time>
      </trkpt>
      <trkpt lat="39.435720" lon="-6.015080">
        <ele>404.852325</ele>
        <time>2010-05-21T07:45:59Z</time>
      </trkpt>
      <trkpt lat="39.435230" lon="-6.014520">
        <ele>405.813690</ele>
        <time>2010-05-21T07:46:00Z</time>
      </trkpt>
      <trkpt lat="39.435030" lon="-6.014250">
        <ele>407.255615</ele>
        <time>2010-05-21T07:46:01Z</time>
      </trkpt>
      <trkpt lat="39.434940" lon="-6.014170">
        <ele>408.217041</ele>
        <time>2010-05-21T07:46:02Z</time>
      </trkpt>
      <trkpt lat="39.434730" lon="-6.013950">
        <ele>409.178345</ele>
        <time>2010-05-21T07:46:03Z</time>
      </trkpt>
      <trkpt lat="39.434390" lon="-6.013570">
        <ele>414.946167</ele>
        <time>2010-05-21T07:46:04Z</time>
      </trkpt>
      <trkpt lat="39.434210" lon="-6.013430">
        <ele>416.388153</ele>
        <time>2010-05-21T07:46:05Z</time>
      </trkpt>
      <trkpt lat="39.433990" lon="-6.013140">
        <ele>417.830200</ele>
        <time>2010-05-21T07:46:06Z</time>
      </trkpt>
      <trkpt lat="39.433910" lon="-6.013040">
        <ele>418.791504</ele>
        <time>2010-05-21T07:46:07Z</time>
      </trkpt>
      <trkpt lat="39.433410" lon="-6.012540">
        <ele>420.233398</ele>
        <time>2010-05-21T07:46:08Z</time>
      </trkpt>
      <trkpt lat="39.433180" lon="-6.012310">
        <ele>417.830200</ele>
        <time>2010-05-21T07:46:09Z</time>
      </trkpt>
      <trkpt lat="39.433030" lon="-6.012180">
        <ele>416.388153</ele>
        <time>2010-05-21T07:46:10Z</time>
      </trkpt>
      <trkpt lat="39.432900" lon="-6.011940">
        <ele>416.868866</ele>
        <time>2010-05-21T07:46:11Z</time>
      </trkpt>
      <trkpt lat="39.432740" lon="-6.011500">
        <ele>416.388153</ele>
        <time>2010-05-21T07:46:12Z</time>
      </trkpt>
      <trkpt lat="39.432610" lon="-6.011280">
        <ele>415.907501</ele>
        <time>2010-05-21T07:46:13Z</time>
      </trkpt>
      <trkpt lat="39.432410" lon="-6.011060">
        <ele>413.023560</ele>
        <time>2010-05-21T07:46:14Z</time>
      </trkpt>
      <trkpt lat="39.432420" lon="-6.011040">
        <ele>410.620270</ele>
        <time>2010-05-21T07:46:15Z</time>
      </trkpt>
      <trkpt lat="39.432380" lon="-6.011060">
        <ele>409.659058</ele>
        <time>2010-05-21T07:46:16Z</time>
      </trkpt>
      <trkpt lat="39.432320" lon="-6.010980">
        <ele>414.465454</ele>
        <time>2010-05-21T07:46:17Z</time>
      </trkpt>
      <trkpt lat="39.432220" lon="-6.010830">
        <ele>414.946167</ele>
        <time>2010-05-21T07:46:18Z</time>
      </trkpt>
      <trkpt lat="39.432030" lon="-6.010620">
        <ele>414.946167</ele>
        <time>2010-05-21T07:46:19Z</time>
      </trkpt>
      <trkpt lat="39.431660" lon="-6.010270">
        <ele>413.504272</ele>
        <time>2010-05-21T07:46:20Z</time>
      </trkpt>
      <trkpt lat="39.431040" lon="-6.009820">
        <ele>414.465454</ele>
        <time>2010-05-21T07:46:21Z</time>
      </trkpt>
      <trkpt lat="39.430480" lon="-6.009270">
        <ele>415.907501</ele>
        <time>2010-05-21T07:46:22Z</time>
      </trkpt>
      <trkpt lat="39.430250" lon="-6.009100">
        <ele>415.907501</ele>
        <time>2010-05-21T07:46:23Z</time>
      </trkpt>
      <trkpt lat="39.429430" lon="-6.008540">
        <ele>416.388153</ele>
        <time>2010-05-21T07:46:24Z</time>
      </trkpt>
      <trkpt lat="39.429080" lon="-6.008330">
        <ele>417.349609</ele>
        <time>2010-05-21T07:46:25Z</time>
      </trkpt>
      <trkpt lat="39.428830" lon="-6.008140">
        <ele>415.426880</ele>
        <time>2010-05-21T07:46:26Z</time>
      </trkpt>
      <trkpt lat="39.428520" lon="-6.007820">
        <ele>417.349609</ele>
        <time>2010-05-21T07:46:27Z</time>
      </trkpt>
      <trkpt lat="39.428480" lon="-6.007790">
        <ele>416.868866</ele>
        <time>2010-05-21T07:46:28Z</time>
      </trkpt>
      <trkpt lat="39.428290" lon="-6.007520">
        <ele>423.598022</ele>
        <time>2010-05-21T07:46:29Z</time>
      </trkpt>
      <trkpt lat="39.427690" lon="-6.006870">
        <ele>427.923950</ele>
        <time>2010-05-21T07:46:30Z</time>
      </trkpt>
      <trkpt lat="39.426960" lon="-6.006060">
        <ele>428.885376</ele>
        <time>2010-05-21T07:46:31Z</time>
      </trkpt>
      <trkpt lat="39.426020" lon="-6.004950">
        <ele>428.885376</ele>
        <time>2010-05-21T07:46:32Z</time>
      </trkpt>
      <trkpt lat="39.424910" lon="-6.004240">
        <ele>432.250000</ele>
        <time>2010-05-21T07:46:33Z</time>
      </trkpt>
      <trkpt lat="39.423760" lon="-6.003730">
        <ele>434.653320</ele>
        <time>2010-05-21T07:46:34Z</time>
      </trkpt>
      <trkpt lat="39.423340" lon="-6.003600">
        <ele>436.095215</ele>
        <time>2010-05-21T07:46:35Z</time>
      </trkpt>
      <trkpt lat="39.423060" lon="-6.003370">
        <ele>436.575928</ele>
        <time>2010-05-21T07:46:36Z</time>
      </trkpt>
      <trkpt lat="39.422300" lon="-6.002630">
        <ele>435.614502</ele>
        <time>2010-05-21T07:46:37Z</time>
      </trkpt>
      <trkpt lat="39.421670" lon="-6.002320">
        <ele>435.133911</ele>
        <time>2010-05-21T07:46:38Z</time>
      </trkpt>
      <trkpt lat="39.421070" lon="-6.001950">
        <ele>437.056519</ele>
        <time>2010-05-21T07:46:39Z</time>
      </trkpt>
      <trkpt lat="39.420720" lon="-6.001750">
        <ele>439.459717</ele>
        <time>2010-05-21T07:46:40Z</time>
      </trkpt>
      <trkpt lat="39.420290" lon="-6.001510">
        <ele>440.421265</ele>
        <time>2010-05-21T07:46:41Z</time>
      </trkpt>
      <trkpt lat="39.419840" lon="-6.001170">
        <ele>442.343872</ele>
        <time>2010-05-21T07:46:42Z</time>
      </trkpt>
      <trkpt lat="39.419050" lon="-6.000550">
        <ele>443.785736</ele>
        <time>2010-05-21T07:46:43Z</time>
      </trkpt>
      <trkpt lat="39.418580" lon="-6.000130">
        <ele>447.630981</ele>
        <time>2010-05-21T07:46:44Z</time>
      </trkpt>
      <trkpt lat="39.418090" lon="-5.999920">
        <ele>451.476318</ele>
        <time>2010-05-21T07:46:45Z</time>
      </trkpt>
      <trkpt lat="39.417760" lon="-5.999780">
        <ele>452.437622</ele>
        <time>2010-05-21T07:46:46Z</time>
      </trkpt>
      <trkpt lat="39.417440" lon="-5.999300">
        <ele>455.321533</ele>
        <time>2010-05-21T07:46:47Z</time>
      </trkpt>
      <trkpt lat="39.416960" lon="-5.998440">
        <ele>458.205566</ele>
        <time>2010-05-21T07:46:48Z</time>
      </trkpt>
      <trkpt lat="39.416390" lon="-5.997270">
        <ele>458.205566</ele>
        <time>2010-05-21T07:46:49Z</time>
      </trkpt>
      <trkpt lat="39.415990" lon="-5.996160">
        <ele>458.205566</ele>
        <time>2010-05-21T07:46:50Z</time>
      </trkpt>
      <trkpt lat="39.415840" lon="-5.995740">
        <ele>458.686157</ele>
        <time>2010-05-21T07:46:51Z</time>
      </trkpt>
      <trkpt lat="39.415680" lon="-5.995120">
        <ele>458.205566</ele>
        <time>2010-05-21T07:46:52Z</time>
      </trkpt>
      <trkpt lat="39.415700" lon="-5.994760">
        <ele>458.686157</ele>
        <time>2010-05-21T07:46:53Z</time>
      </trkpt>
      <trkpt lat="39.415670" lon="-5.994570">
        <ele>461.570190</ele>
        <time>2010-05-21T07:46:54Z</time>
      </trkpt>
      <trkpt lat="39.415670" lon="-5.994530">
        <ele>462.050781</ele>
        <time>2010-05-21T07:46:55Z</time>
      </trkpt>
      <trkpt lat="39.415550" lon="-5.993970">
        <ele>461.570190</ele>
        <time>2010-05-21T07:46:56Z</time>
      </trkpt>
      <trkpt lat="39.415420" lon="-5.993560">
        <ele>463.012085</ele>
        <time>2010-05-21T07:46:57Z</time>
      </trkpt>
      <trkpt lat="39.415340" lon="-5.993350">
        <ele>467.818726</ele>
        <time>2010-05-21T07:46:58Z</time>
      </trkpt>
      <trkpt lat="39.415230" lon="-5.993160">
        <ele>468.780029</ele>
        <time>2010-05-21T07:46:59Z</time>
      </trkpt>
      <trkpt lat="39.415160" lon="-5.992900">
        <ele>468.299316</ele>
        <time>2010-05-21T07:47:00Z</time>
      </trkpt>
      <trkpt lat="39.415000" lon="-5.991940">
        <ele>468.299316</ele>
        <time>2010-05-21T07:47:01Z</time>
      </trkpt>
      <trkpt lat="39.414820" lon="-5.990980">
        <ele>469.741333</ele>
        <time>2010-05-21T07:47:02Z</time>
      </trkpt>
      <trkpt lat="39.414740" lon="-5.990110">
        <ele>469.741333</ele>
        <time>2010-05-21T07:47:03Z</time>
      </trkpt>
      <trkpt lat="39.414530" lon="-5.988970">
        <ele>467.818726</ele>
        <time>2010-05-21T07:47:04Z</time>
      </trkpt>
      <trkpt lat="39.414350" lon="-5.988180">
        <ele>467.818726</ele>
        <time>2010-05-21T07:47:05Z</time>
      </trkpt>
      <trkpt lat="39.414180" lon="-5.987520">
        <ele>468.299316</ele>
        <time>2010-05-21T07:47:06Z</time>
      </trkpt>
      <trkpt lat="39.413800" lon="-5.986700">
        <ele>468.780029</ele>
        <time>2010-05-21T07:47:07Z</time>
      </trkpt>
      <trkpt lat="39.413570" lon="-5.986070">
        <ele>468.299316</ele>
        <time>2010-05-21T07:47:08Z</time>
      </trkpt>
      <trkpt lat="39.413510" lon="-5.985870">
        <ele>469.741333</ele>
        <time>2010-05-21T07:47:09Z</time>
      </trkpt>
      <trkpt lat="39.413480" lon="-5.985440">
        <ele>470.702667</ele>
        <time>2010-05-21T07:47:10Z</time>
      </trkpt>
      <trkpt lat="39.413390" lon="-5.984930">
        <ele>470.702667</ele>
        <time>2010-05-21T07:47:11Z</time>
      </trkpt>
      <trkpt lat="39.413170" lon="-5.983930">
        <ele>471.183319</ele>
        <time>2010-05-21T07:47:12Z</time>
      </trkpt>
      <trkpt lat="39.413130" lon="-5.983730">
        <ele>472.144653</ele>
        <time>2010-05-21T07:47:13Z</time>
      </trkpt>
      <trkpt lat="39.413140" lon="-5.983760">
        <ele>472.144653</ele>
        <time>2010-05-21T07:47:14Z</time>
      </trkpt>
      <trkpt lat="39.413140" lon="-5.983760">
        <ele>472.144653</ele>
        <time>2010-05-21T07:47:15Z</time>
      </trkpt>
      <trkpt lat="39.413020" lon="-5.983630">
        <ele>471.663940</ele>
        <time>2010-05-21T07:47:16Z</time>
      </trkpt>
      <trkpt lat="39.412840" lon="-5.983460">
        <ele>471.663940</ele>
        <time>2010-05-21T07:47:17Z</time>
      </trkpt>
      <trkpt lat="39.412180" lon="-5.982720">
        <ele>471.663940</ele>
        <time>2010-05-21T07:47:18Z</time>
      </trkpt>
      <trkpt lat="39.412110" lon="-5.982630">
        <ele>470.702667</ele>
        <time>2010-05-21T07:47:19Z</time>
      </trkpt>
      <trkpt lat="39.411950" lon="-5.982160">
        <ele>471.183319</ele>
        <time>2010-05-21T07:47:20Z</time>
      </trkpt>
      <trkpt lat="39.411860" lon="-5.982010">
        <ele>473.106079</ele>
        <time>2010-05-21T07:47:21Z</time>
      </trkpt>
      <trkpt lat="39.411870" lon="-5.982020">
        <ele>472.144653</ele>
        <time>2010-05-21T07:47:22Z</time>
      </trkpt>
      <trkpt lat="39.411890" lon="-5.982070">
        <ele>471.663940</ele>
        <time>2010-05-21T07:47:23Z</time>
      </trkpt>
      <trkpt lat="39.411890" lon="-5.982070">
        <ele>471.183319</ele>
        <time>2010-05-21T07:47:24Z</time>
      </trkpt>
      <trkpt lat="39.411740" lon="-5.982020">
        <ele>473.106079</ele>
        <time>2010-05-21T07:47:25Z</time>
      </trkpt>
      <trkpt lat="39.410920" lon="-5.981590">
        <ele>474.547974</ele>
        <time>2010-05-21T07:47:26Z</time>
      </trkpt>
      <trkpt lat="39.410730" lon="-5.981440">
        <ele>476.470551</ele>
        <time>2010-05-21T07:47:27Z</time>
      </trkpt>
      <trkpt lat="39.410220" lon="-5.980660">
        <ele>475.989899</ele>
        <time>2010-05-21T07:47:28Z</time>
      </trkpt>
      <trkpt lat="39.409690" lon="-5.980170">
        <ele>477.431885</ele>
        <time>2010-05-21T07:47:29Z</time>
      </trkpt>
      <trkpt lat="39.409440" lon="-5.980060">
        <ele>477.431885</ele>
        <time>2010-05-21T07:47:30Z</time>
      </trkpt>
      <trkpt lat="39.408870" lon="-5.979620">
        <ele>477.431885</ele>
        <time>2010-05-21T07:47:31Z</time>
      </trkpt>
      <trkpt lat="39.408680" lon="-5.979480">
        <ele>477.431885</ele>
        <time>2010-05-21T07:47:32Z</time>
      </trkpt>
      <trkpt lat="39.408400" lon="-5.979330">
        <ele>476.951263</ele>
        <time>2010-05-21T07:47:33Z</time>
      </trkpt>
      <trkpt lat="39.407780" lon="-5.979150">
        <ele>473.586670</ele>
        <time>2010-05-21T07:47:34Z</time>
      </trkpt>
      <trkpt lat="39.407780" lon="-5.979140">
        <ele>474.067261</ele>
        <time>2010-05-21T07:47:35Z</time>
      </trkpt>
      <trkpt lat="39.407770" lon="-5.979140">
        <ele>475.028687</ele>
        <time>2010-05-21T07:47:36Z</time>
      </trkpt>
      <trkpt lat="39.407700" lon="-5.979100">
        <ele>475.989899</ele>
        <time>2010-05-21T07:47:37Z</time>
      </trkpt>
      <trkpt lat="39.406970" lon="-5.978850">
        <ele>477.431885</ele>
        <time>2010-05-21T07:47:38Z</time>
      </trkpt>
      <trkpt lat="39.406650" lon="-5.978670">
        <ele>479.354492</ele>
        <time>2010-05-21T07:47:39Z</time>
      </trkpt>
      <trkpt lat="39.406450" lon="-5.978480">
        <ele>480.315918</ele>
        <time>2010-05-21T07:47:40Z</time>
      </trkpt>
      <trkpt lat="39.406280" lon="-5.978370">
        <ele>481.277222</ele>
        <time>2010-05-21T07:47:41Z</time>
      </trkpt>
      <trkpt lat="39.406100" lon="-5.978290">
        <ele>485.122437</ele>
        <time>2010-05-21T07:47:42Z</time>
      </trkpt>
      <trkpt lat="39.405790" lon="-5.978070">
        <ele>488.487183</ele>
        <time>2010-05-21T07:47:43Z</time>
      </trkpt>
      <trkpt lat="39.405750" lon="-5.978050">
        <ele>488.487183</ele>
        <time>2010-05-21T07:47:44Z</time>
      </trkpt>
      <trkpt lat="39.405550" lon="-5.977850">
        <ele>491.851685</ele>
        <time>2010-05-21T07:47:45Z</time>
      </trkpt>
      <trkpt lat="39.405230" lon="-5.977710">
        <ele>491.851685</ele>
        <time>2010-05-21T07:47:46Z</time>
      </trkpt>
      <trkpt lat="39.405260" lon="-5.977640">
        <ele>492.332397</ele>
        <time>2010-05-21T07:47:47Z</time>
      </trkpt>
      <trkpt lat="39.405020" lon="-5.977630">
        <ele>490.890381</ele>
        <time>2010-05-21T07:47:48Z</time>
      </trkpt>
      <trkpt lat="39.404960" lon="-5.977550">
        <time>2010-05-21T07:47:49Z</time>
      </trkpt>
      <trkpt lat="39.404980" lon="-5.977570">
        <time>2010-05-21T07:47:50Z</time>
      </trkpt>
      <trkpt lat="39.405020" lon="-5.977420">
        <time>2010-05-21T07:47:51Z</time>
      </trkpt>
      <trkpt lat="39.404896" lon="-5.977076">
        <time>2010-05-21T07:47:52Z</time>
      </trkpt>
      <trkpt lat="39.462636" lon="-5.883147">
        <ele>490.890381</ele>
        <time>2011-04-27T17:14:38Z</time>
      </trkpt>
      <trkpt lat="39.404483" lon="-5.976958">
        <ele>490.890381</ele>
        <time>2011-04-27T17:15:07Z</time>
      </trkpt>
      <trkpt lat="39.426189" lon="-5.755091">
        <ele>491.851685</ele>
        <time>2011-04-27T17:17:28Z</time>
      </trkpt>
      <trkpt lat="39.460670" lon="-5.884344">
        <ele>460.608765</ele>
        <time>2011-04-27T17:16:40Z</time>
      </trkpt>
      <trkpt lat="39.460251" lon="-5.881247">
        <ele>471.183319</ele>
        <time>2011-04-27T17:14:23Z</time>
      </trkpt>
      <trkpt lat="39.404896" lon="-5.977076">
        <ele>475.509277</ele>
        <time>2010-05-21T07:47:52Z</time>
      </trkpt>
      <trkpt lat="39.404494" lon="-5.977129">
        <ele>480.796631</ele>
        <time>2010-05-21T07:47:53Z</time>
      </trkpt>
      <trkpt lat="39.404479" lon="-5.977012">
        <ele>481.277222</ele>
        <time>2010-05-21T07:47:54Z</time>
      </trkpt>
      <trkpt lat="39.404479" lon="-5.977012">
        <ele>479.354492</ele>
        <time>2010-05-21T07:47:55Z</time>
      </trkpt>
      <trkpt lat="39.404405" lon="-5.976568">
        <ele>474.067261</ele>
        <time>2010-05-21T07:47:56Z</time>
      </trkpt>
      <trkpt lat="39.404244" lon="-5.975986">
        <ele>470.221954</ele>
        <time>2010-05-21T07:47:57Z</time>
      </trkpt>
      <trkpt lat="39.404025" lon="-5.975396">
        <ele>465.415527</ele>
        <time>2010-05-21T07:47:58Z</time>
      </trkpt>
      <trkpt lat="39.403830" lon="-5.975109">
        <ele>460.128143</ele>
        <time>2010-05-21T07:47:59Z</time>
      </trkpt>
      <trkpt lat="39.403704" lon="-5.974935">
        <ele>456.763550</ele>
        <time>2010-05-21T07:48:00Z</time>
      </trkpt>
      <trkpt lat="39.403536" lon="-5.974609">
        <ele>456.763550</ele>
        <time>2010-05-21T07:48:01Z</time>
      </trkpt>
      <trkpt lat="39.403870" lon="-5.973940">
        <ele>456.282959</ele>
        <time>2010-05-21T07:48:02Z</time>
      </trkpt>
      <trkpt lat="39.404300" lon="-5.973010">
        <ele>461.089478</ele>
        <time>2010-05-21T07:48:03Z</time>
      </trkpt>
      <trkpt lat="39.404780" lon="-5.972000">
        <ele>462.050781</ele>
        <time>2010-05-21T07:48:04Z</time>
      </trkpt>
      <trkpt lat="39.405170" lon="-5.971160">
        <ele>462.050781</ele>
        <time>2010-05-21T07:48:05Z</time>
      </trkpt>
      <trkpt lat="39.405510" lon="-5.970410">
        <ele>458.686157</ele>
        <time>2010-05-21T07:48:06Z</time>
      </trkpt>
      <trkpt lat="39.405500" lon="-5.970160">
        <ele>454.840820</ele>
        <time>2010-05-21T07:48:07Z</time>
      </trkpt>
      <trkpt lat="39.405470" lon="-5.970120">
        <ele>452.918213</ele>
        <time>2010-05-21T07:48:08Z</time>
      </trkpt>
      <trkpt lat="39.405460" lon="-5.970110">
        <ele>455.321533</ele>
        <time>2010-05-21T07:48:09Z</time>
      </trkpt>
      <trkpt lat="39.405270" lon="-5.969620">
        <ele>464.934814</ele>
        <time>2010-05-21T07:48:10Z</time>
      </trkpt>
      <trkpt lat="39.404910" lon="-5.968880">
        <ele>466.376709</ele>
        <time>2010-05-21T07:48:11Z</time>
      </trkpt>
      <trkpt lat="39.404780" lon="-5.968690">
        <ele>466.376709</ele>
        <time>2010-05-21T07:48:12Z</time>
      </trkpt>
      <trkpt lat="39.404670" lon="-5.968570">
        <ele>465.415527</ele>
        <time>2010-05-21T07:48:13Z</time>
      </trkpt>
      <trkpt lat="39.404390" lon="-5.968250">
        <ele>465.896088</ele>
        <time>2010-05-21T07:48:14Z</time>
      </trkpt>
      <trkpt lat="39.403690" lon="-5.967070">
        <ele>468.299316</ele>
        <time>2010-05-21T07:48:15Z</time>
      </trkpt>
      <trkpt lat="39.403050" lon="-5.966090">
        <ele>470.221954</ele>
        <time>2010-05-21T07:48:16Z</time>
      </trkpt>
      <trkpt lat="39.403030" lon="-5.966050">
        <ele>474.067261</ele>
        <time>2010-05-21T07:48:17Z</time>
      </trkpt>
      <trkpt lat="39.403020" lon="-5.965950">
        <ele>477.912476</ele>
        <time>2010-05-21T07:48:18Z</time>
      </trkpt>
      <trkpt lat="39.403040" lon="-5.965900">
        <ele>473.106079</ele>
        <time>2010-05-21T07:48:19Z</time>
      </trkpt>
      <trkpt lat="39.403190" lon="-5.964920">
        <ele>467.818726</ele>
        <time>2010-05-21T07:48:20Z</time>
      </trkpt>
      <trkpt lat="39.403390" lon="-5.963150">
        <ele>469.741333</ele>
        <time>2010-05-21T07:48:21Z</time>
      </trkpt>
      <trkpt lat="39.403660" lon="-5.960490">
        <ele>467.338135</ele>
        <time>2010-05-21T07:48:22Z</time>
      </trkpt>
      <trkpt lat="39.403860" lon="-5.958530">
        <ele>467.338135</ele>
        <time>2010-05-21T07:48:23Z</time>
      </trkpt>
      <trkpt lat="39.404140" lon="-5.956030">
        <ele>466.376709</ele>
        <time>2010-05-21T07:48:24Z</time>
      </trkpt>
      <trkpt lat="39.404290" lon="-5.954180">
        <ele>465.415527</ele>
        <time>2010-05-21T07:48:25Z</time>
      </trkpt>
      <trkpt lat="39.404310" lon="-5.954070">
        <ele>466.857422</ele>
        <time>2010-05-21T07:48:26Z</time>
      </trkpt>
      <trkpt lat="39.404320" lon="-5.954070">
        <ele>464.454102</ele>
        <time>2010-05-21T07:48:27Z</time>
      </trkpt>
      <trkpt lat="39.404340" lon="-5.954040">
        <ele>463.012085</ele>
        <time>2010-05-21T07:48:28Z</time>
      </trkpt>
      <trkpt lat="39.404450" lon="-5.954000">
        <ele>453.398926</ele>
        <time>2010-05-21T07:48:29Z</time>
      </trkpt>
      <trkpt lat="39.404860" lon="-5.953960">
        <ele>451.476318</ele>
        <time>2010-05-21T07:48:30Z</time>
      </trkpt>
      <trkpt lat="39.405020" lon="-5.953670">
        <ele>449.072968</ele>
        <time>2010-05-21T07:48:31Z</time>
      </trkpt>
      <trkpt lat="39.404890" lon="-5.951950">
        <ele>448.592407</ele>
        <time>2010-05-21T07:48:32Z</time>
      </trkpt>
      <trkpt lat="39.404730" lon="-5.949630">
        <ele>447.630981</ele>
        <time>2010-05-21T07:48:33Z</time>
      </trkpt>
      <trkpt lat="39.404680" lon="-5.947820">
        <ele>448.111816</ele>
        <time>2010-05-21T07:48:34Z</time>
      </trkpt>
      <trkpt lat="39.404900" lon="-5.947190">
        <ele>448.592407</ele>
        <time>2010-05-21T07:48:35Z</time>
      </trkpt>
      <trkpt lat="39.404950" lon="-5.946820">
        <ele>457.244263</ele>
        <time>2010-05-21T07:48:36Z</time>
      </trkpt>
      <trkpt lat="39.404930" lon="-5.946630">
        <ele>466.376709</ele>
        <time>2010-05-21T07:48:37Z</time>
      </trkpt>
      <trkpt lat="39.404990" lon="-5.946370">
        <ele>463.973389</ele>
        <time>2010-05-21T07:48:38Z</time>
      </trkpt>
      <trkpt lat="39.404980" lon="-5.946350">
        <ele>464.934814</ele>
        <time>2010-05-21T07:48:39Z</time>
      </trkpt>
      <trkpt lat="39.405160" lon="-5.946050">
        <ele>464.934814</ele>
        <time>2010-05-21T07:48:40Z</time>
      </trkpt>
      <trkpt lat="39.405630" lon="-5.945230">
        <ele>464.454102</ele>
        <time>2010-05-21T07:48:41Z</time>
      </trkpt>
      <trkpt lat="39.406330" lon="-5.943900">
        <ele>466.376709</ele>
        <time>2010-05-21T07:48:42Z</time>
      </trkpt>
      <trkpt lat="39.406820" lon="-5.943000">
        <ele>466.376709</ele>
        <time>2010-05-21T07:48:43Z</time>
      </trkpt>
      <trkpt lat="39.406820" lon="-5.943020">
        <ele>461.570190</ele>
        <time>2010-05-21T07:48:44Z</time>
      </trkpt>
      <trkpt lat="39.406850" lon="-5.943020">
        <ele>460.608765</ele>
        <time>2010-05-21T07:48:45Z</time>
      </trkpt>
      <trkpt lat="39.406830" lon="-5.943060">
        <ele>461.089478</ele>
        <time>2010-05-21T07:48:46Z</time>
      </trkpt>
      <trkpt lat="39.406800" lon="-5.943070">
        <ele>462.531372</ele>
        <time>2010-05-21T07:48:47Z</time>
      </trkpt>
      <trkpt lat="39.406800" lon="-5.943080">
        <ele>462.531372</ele>
        <time>2010-05-21T07:48:48Z</time>
      </trkpt>
      <trkpt lat="39.406710" lon="-5.943200">
        <ele>464.454102</ele>
        <time>2010-05-21T07:48:49Z</time>
      </trkpt>
      <trkpt lat="39.406700" lon="-5.943200">
        <ele>463.973389</ele>
        <time>2010-05-21T07:48:50Z</time>
      </trkpt>
      <trkpt lat="39.406770" lon="-5.943010">
        <ele>463.012085</ele>
        <time>2010-05-21T07:48:51Z</time>
      </trkpt>
      <trkpt lat="39.406430" lon="-5.942800">
        <ele>461.089478</ele>
        <time>2010-05-21T07:48:52Z</time>
      </trkpt>
      <trkpt lat="39.406400" lon="-5.942780">
        <ele>458.205566</ele>
        <time>2010-05-21T07:48:53Z</time>
      </trkpt>
      <trkpt lat="39.406350" lon="-5.942710">
        <ele>457.244263</ele>
        <time>2010-05-21T07:48:54Z</time>
      </trkpt>
      <trkpt lat="39.406380" lon="-5.942750">
        <ele>458.686157</ele>
        <time>2010-05-21T07:48:55Z</time>
      </trkpt>
      <trkpt lat="39.406440" lon="-5.942660">
        <ele>465.415527</ele>
        <time>2010-05-21T07:48:56Z</time>
      </trkpt>
      <trkpt lat="39.407070" lon="-5.942050">
        <ele>465.896088</ele>
        <time>2010-05-21T07:48:57Z</time>
      </trkpt>
      <trkpt lat="39.407350" lon="-5.941620">
        <ele>458.205566</ele>
        <time>2010-05-21T07:48:58Z</time>
      </trkpt>
      <trkpt lat="39.407790" lon="-5.941270">
        <ele>458.205566</ele>
        <time>2010-05-21T07:48:59Z</time>
      </trkpt>
      <trkpt lat="39.408510" lon="-5.940830">
        <ele>458.205566</ele>
        <time>2010-05-21T07:49:00Z</time>
      </trkpt>
      <trkpt lat="39.408850" lon="-5.940510">
        <ele>459.647583</ele>
        <time>2010-05-21T07:49:01Z</time>
      </trkpt>
      <trkpt lat="39.409120" lon="-5.940200">
        <ele>461.089478</ele>
        <time>2010-05-21T07:49:02Z</time>
      </trkpt>
      <trkpt lat="39.409590" lon="-5.939460">
        <ele>462.050781</ele>
        <time>2010-05-21T07:49:03Z</time>
      </trkpt>
      <trkpt lat="39.409640" lon="-5.939390">
        <ele>461.089478</ele>
        <time>2010-05-21T07:49:04Z</time>
      </trkpt>
      <trkpt lat="39.410260" lon="-5.938820">
        <ele>470.702667</ele>
        <time>2010-05-21T07:49:05Z</time>
      </trkpt>
      <trkpt lat="39.410400" lon="-5.938720">
        <ele>470.702667</ele>
        <time>2010-05-21T07:49:06Z</time>
      </trkpt>
      <trkpt lat="39.410590" lon="-5.938490">
        <ele>471.663940</ele>
        <time>2010-05-21T07:49:07Z</time>
      </trkpt>
      <trkpt lat="39.411080" lon="-5.937820">
        <ele>471.183319</ele>
        <time>2010-05-21T07:49:08Z</time>
      </trkpt>
      <trkpt lat="39.411240" lon="-5.937580">
        <ele>471.663940</ele>
        <time>2010-05-21T07:49:09Z</time>
      </trkpt>
      <trkpt lat="39.411850" lon="-5.936870">
        <ele>472.144653</ele>
        <time>2010-05-21T07:49:10Z</time>
      </trkpt>
      <trkpt lat="39.411910" lon="-5.936790">
        <ele>470.702667</ele>
        <time>2010-05-21T07:49:11Z</time>
      </trkpt>
      <trkpt lat="39.411910" lon="-5.936780">
        <ele>469.741333</ele>
        <time>2010-05-21T07:49:12Z</time>
      </trkpt>
      <trkpt lat="39.412110" lon="-5.936610">
        <ele>467.338135</ele>
        <time>2010-05-21T07:49:13Z</time>
      </trkpt>
      <trkpt lat="39.412160" lon="-5.936570">
        <ele>469.260742</ele>
        <time>2010-05-21T07:49:14Z</time>
      </trkpt>
      <trkpt lat="39.412250" lon="-5.936480">
        <ele>469.741333</ele>
        <time>2010-05-21T07:49:15Z</time>
      </trkpt>
      <trkpt lat="39.412790" lon="-5.935700">
        <ele>472.144653</ele>
        <time>2010-05-21T07:49:16Z</time>
      </trkpt>
      <trkpt lat="39.413160" lon="-5.935180">
        <ele>474.067261</ele>
        <time>2010-05-21T07:49:17Z</time>
      </trkpt>
      <trkpt lat="39.413840" lon="-5.934180">
        <ele>466.857422</ele>
        <time>2010-05-21T07:49:18Z</time>
      </trkpt>
      <trkpt lat="39.414410" lon="-5.933300">
        <ele>468.780029</ele>
        <time>2010-05-21T07:49:19Z</time>
      </trkpt>
      <trkpt lat="39.414610" lon="-5.933020">
        <ele>466.857422</ele>
        <time>2010-05-21T07:49:20Z</time>
      </trkpt>
      <trkpt lat="39.414870" lon="-5.932080">
        <ele>462.531372</ele>
        <time>2010-05-21T07:49:21Z</time>
      </trkpt>
      <trkpt lat="39.415020" lon="-5.931600">
        <ele>462.050781</ele>
        <time>2010-05-21T07:49:22Z</time>
      </trkpt>
      <trkpt lat="39.415270" lon="-5.930920">
        <ele>460.608765</ele>
        <time>2010-05-21T07:49:23Z</time>
      </trkpt>
      <trkpt lat="39.415440" lon="-5.930460">
        <ele>459.166870</ele>
        <time>2010-05-21T07:49:24Z</time>
      </trkpt>
      <trkpt lat="39.415570" lon="-5.930000">
        <ele>458.686157</ele>
        <time>2010-05-21T07:49:25Z</time>
      </trkpt>
      <trkpt lat="39.416020" lon="-5.928860">
        <ele>454.840820</ele>
        <time>2010-05-21T07:49:26Z</time>
      </trkpt>
      <trkpt lat="39.416050" lon="-5.928760">
        <ele>452.918213</ele>
        <time>2010-05-21T07:49:27Z</time>
      </trkpt>
      <trkpt lat="39.416540" lon="-5.927810">
        <ele>451.476318</ele>
        <time>2010-05-21T07:49:28Z</time>
      </trkpt>
      <trkpt lat="39.416780" lon="-5.927490">
        <ele>450.995605</ele>
        <time>2010-05-21T07:49:29Z</time>
      </trkpt>
      <trkpt lat="39.416890" lon="-5.927240">
        <ele>453.879639</ele>
        <time>2010-05-21T07:49:30Z</time>
      </trkpt>
      <trkpt lat="39.417170" lon="-5.926790">
        <ele>452.918213</ele>
        <time>2010-05-21T07:49:31Z</time>
      </trkpt>
      <trkpt lat="39.417530" lon="-5.926060">
        <ele>451.957031</ele>
        <time>2010-05-21T07:49:32Z</time>
      </trkpt>
      <trkpt lat="39.417850" lon="-5.925410">
        <ele>449.072968</ele>
        <time>2010-05-21T07:49:33Z</time>
      </trkpt>
      <trkpt lat="39.417900" lon="-5.925230">
        <ele>450.034424</ele>
        <time>2010-05-21T07:49:34Z</time>
      </trkpt>
      <trkpt lat="39.418240" lon="-5.924720">
        <ele>449.553680</ele>
        <time>2010-05-21T07:49:35Z</time>
      </trkpt>
      <trkpt lat="39.418290" lon="-5.924630">
        <ele>448.592407</ele>
        <time>2010-05-21T07:49:36Z</time>
      </trkpt>
      <trkpt lat="39.418710" lon="-5.924020">
        <ele>447.630981</ele>
        <time>2010-05-21T07:49:37Z</time>
      </trkpt>
      <trkpt lat="39.419310" lon="-5.922970">
        <ele>446.189087</ele>
        <time>2010-05-21T07:49:38Z</time>
      </trkpt>
      <trkpt lat="39.419370" lon="-5.922910">
        <ele>441.382446</ele>
        <time>2010-05-21T07:49:39Z</time>
      </trkpt>
      <trkpt lat="39.419520" lon="-5.922780">
        <ele>440.421265</ele>
        <time>2010-05-21T07:49:40Z</time>
      </trkpt>
      <trkpt lat="39.419650" lon="-5.922490">
        <ele>438.498505</ele>
        <time>2010-05-21T07:49:41Z</time>
      </trkpt>
      <trkpt lat="39.419680" lon="-5.922390">
        <ele>435.133911</ele>
        <time>2010-05-21T07:49:42Z</time>
      </trkpt>
      <trkpt lat="39.419900" lon="-5.922050">
        <ele>433.211273</ele>
        <time>2010-05-21T07:49:43Z</time>
      </trkpt>
      <trkpt lat="39.420280" lon="-5.921410">
        <ele>434.172607</ele>
        <time>2010-05-21T07:49:44Z</time>
      </trkpt>
      <trkpt lat="39.420410" lon="-5.921210">
        <ele>435.133911</ele>
        <time>2010-05-21T07:49:45Z</time>
      </trkpt>
      <trkpt lat="39.420620" lon="-5.920930">
        <ele>435.133911</ele>
        <time>2010-05-21T07:49:46Z</time>
      </trkpt>
      <trkpt lat="39.420910" lon="-5.920520">
        <ele>435.614502</ele>
        <time>2010-05-21T07:49:47Z</time>
      </trkpt>
      <trkpt lat="39.421100" lon="-5.920200">
        <ele>430.807983</ele>
        <time>2010-05-21T07:49:48Z</time>
      </trkpt>
      <trkpt lat="39.421520" lon="-5.919700">
        <ele>427.923950</ele>
        <time>2010-05-21T07:49:49Z</time>
      </trkpt>
      <trkpt lat="39.421900" lon="-5.919260">
        <ele>428.404663</ele>
        <time>2010-05-21T07:49:50Z</time>
      </trkpt>
      <trkpt lat="39.422030" lon="-5.919070">
        <ele>427.923950</ele>
        <time>2010-05-21T07:49:51Z</time>
      </trkpt>
      <trkpt lat="39.422100" lon="-5.918990">
        <ele>422.156006</ele>
        <time>2010-05-21T07:49:52Z</time>
      </trkpt>
      <trkpt lat="39.422930" lon="-5.918530">
        <ele>420.714111</ele>
        <time>2010-05-21T07:49:53Z</time>
      </trkpt>
      <trkpt lat="39.423850" lon="-5.918030">
        <ele>419.272217</ele>
        <time>2010-05-21T07:49:54Z</time>
      </trkpt>
      <trkpt lat="39.424760" lon="-5.917580">
        <ele>420.714111</ele>
        <time>2010-05-21T07:49:55Z</time>
      </trkpt>
      <trkpt lat="39.424980" lon="-5.917490">
        <ele>422.156006</ele>
        <time>2010-05-21T07:49:56Z</time>
      </trkpt>
      <trkpt lat="39.425690" lon="-5.917080">
        <ele>415.426880</ele>
        <time>2010-05-21T07:49:57Z</time>
      </trkpt>
      <trkpt lat="39.426210" lon="-5.916870">
        <ele>414.946167</ele>
        <time>2010-05-21T07:49:58Z</time>
      </trkpt>
      <trkpt lat="39.426370" lon="-5.916800">
        <ele>418.791504</ele>
        <time>2010-05-21T07:49:59Z</time>
      </trkpt>
      <trkpt lat="39.426770" lon="-5.916530">
        <ele>416.868866</ele>
        <time>2010-05-21T07:50:00Z</time>
      </trkpt>
      <trkpt lat="39.427460" lon="-5.916240">
        <ele>414.465454</ele>
        <time>2010-05-21T07:50:01Z</time>
      </trkpt>
      <trkpt lat="39.428050" lon="-5.915880">
        <ele>406.774902</ele>
        <time>2010-05-21T07:50:02Z</time>
      </trkpt>
      <trkpt lat="39.428550" lon="-5.915760">
        <ele>404.371704</ele>
        <time>2010-05-21T07:50:03Z</time>
      </trkpt>
      <trkpt lat="39.428450" lon="-5.915760">
        <ele>405.333038</ele>
        <time>2010-05-21T07:50:04Z</time>
      </trkpt>
      <trkpt lat="39.428490" lon="-5.915760">
        <ele>408.217041</ele>
        <time>2010-05-21T07:50:05Z</time>
      </trkpt>
      <trkpt lat="39.428770" lon="-5.915620">
        <ele>408.217041</ele>
        <time>2010-05-21T07:50:06Z</time>
      </trkpt>
      <trkpt lat="39.429000" lon="-5.915150">
        <ele>414.465454</ele>
        <time>2010-05-21T07:50:07Z</time>
      </trkpt>
      <trkpt lat="39.429190" lon="-5.914800">
        <ele>415.907501</ele>
        <time>2010-05-21T07:50:08Z</time>
      </trkpt>
      <trkpt lat="39.429230" lon="-5.914550">
        <ele>417.830200</ele>
        <time>2010-05-21T07:50:09Z</time>
      </trkpt>
      <trkpt lat="39.429270" lon="-5.914240">
        <ele>417.349609</ele>
        <time>2010-05-21T07:50:10Z</time>
      </trkpt>
      <trkpt lat="39.429370" lon="-5.914140">
        <ele>408.697632</ele>
        <time>2010-05-21T07:50:11Z</time>
      </trkpt>
      <trkpt lat="39.429670" lon="-5.914030">
        <ele>407.255615</ele>
        <time>2010-05-21T07:50:12Z</time>
      </trkpt>
      <trkpt lat="39.429920" lon="-5.913870">
        <ele>401.968506</ele>
        <time>2010-05-21T07:50:13Z</time>
      </trkpt>
      <trkpt lat="39.430320" lon="-5.913420">
        <ele>401.487793</ele>
        <time>2010-05-21T07:50:14Z</time>
      </trkpt>
      <trkpt lat="39.430620" lon="-5.912940">
        <ele>396.200562</ele>
        <time>2010-05-21T07:50:15Z</time>
      </trkpt>
      <trkpt lat="39.431210" lon="-5.912270">
        <ele>393.797241</ele>
        <time>2010-05-21T07:50:16Z</time>
      </trkpt>
      <trkpt lat="39.431360" lon="-5.912100">
        <ele>398.603760</ele>
        <time>2010-05-21T07:50:17Z</time>
      </trkpt>
      <trkpt lat="39.431800" lon="-5.911340">
        <ele>401.968506</ele>
        <time>2010-05-21T07:50:18Z</time>
      </trkpt>
      <trkpt lat="39.431840" lon="-5.911290">
        <ele>402.449097</ele>
        <time>2010-05-21T07:50:19Z</time>
      </trkpt>
      <trkpt lat="39.432420" lon="-5.910850">
        <ele>403.410400</ele>
        <time>2010-05-21T07:50:20Z</time>
      </trkpt>
      <trkpt lat="39.433100" lon="-5.910390">
        <ele>409.178345</ele>
        <time>2010-05-21T07:50:21Z</time>
      </trkpt>
      <trkpt lat="39.433700" lon="-5.910060">
        <ele>420.714111</ele>
        <time>2010-05-21T07:50:22Z</time>
      </trkpt>
      <trkpt lat="39.433990" lon="-5.909980">
        <ele>425.040192</ele>
        <time>2010-05-21T07:50:23Z</time>
      </trkpt>
      <trkpt lat="39.434200" lon="-5.909810">
        <ele>426.962769</ele>
        <time>2010-05-21T07:50:24Z</time>
      </trkpt>
      <trkpt lat="39.434550" lon="-5.909270">
        <ele>430.327271</ele>
        <time>2010-05-21T07:50:25Z</time>
      </trkpt>
      <trkpt lat="39.434710" lon="-5.908970">
        <ele>429.846558</ele>
        <time>2010-05-21T07:50:26Z</time>
      </trkpt>
      <trkpt lat="39.434950" lon="-5.908340">
        <ele>431.288574</ele>
        <time>2010-05-21T07:50:27Z</time>
      </trkpt>
      <trkpt lat="39.435060" lon="-5.907750">
        <ele>431.769165</ele>
        <time>2010-05-21T07:50:28Z</time>
      </trkpt>
      <trkpt lat="39.435130" lon="-5.907380">
        <ele>433.211273</ele>
        <time>2010-05-21T07:50:29Z</time>
      </trkpt>
      <trkpt lat="39.435210" lon="-5.906950">
        <ele>436.575928</ele>
        <time>2010-05-21T07:50:30Z</time>
      </trkpt>
      <trkpt lat="39.435280" lon="-5.906740">
        <ele>438.498505</ele>
        <time>2010-05-21T07:50:31Z</time>
      </trkpt>
      <trkpt lat="39.435510" lon="-5.906170">
        <ele>442.343872</ele>
        <time>2010-05-21T07:50:32Z</time>
      </trkpt>
      <trkpt lat="39.435570" lon="-5.906040">
        <ele>448.592407</ele>
        <time>2010-05-21T07:50:33Z</time>
      </trkpt>
      <trkpt lat="39.435640" lon="-5.905760">
        <ele>449.072968</ele>
        <time>2010-05-21T07:50:34Z</time>
      </trkpt>
      <trkpt lat="39.435640" lon="-5.905720">
        <ele>447.630981</ele>
        <time>2010-05-21T07:50:35Z</time>
      </trkpt>
      <trkpt lat="39.435670" lon="-5.905490">
        <ele>448.592407</ele>
        <time>2010-05-21T07:50:36Z</time>
      </trkpt>
      <trkpt lat="39.435690" lon="-5.905040">
        <ele>448.592407</ele>
        <time>2010-05-21T07:50:37Z</time>
      </trkpt>
      <trkpt lat="39.435860" lon="-5.904830">
        <ele>447.150269</ele>
        <time>2010-05-21T07:50:38Z</time>
      </trkpt>
      <trkpt lat="39.435850" lon="-5.904810">
        <ele>446.189087</ele>
        <time>2010-05-21T07:50:39Z</time>
      </trkpt>
      <trkpt lat="39.435930" lon="-5.904720">
        <ele>444.266449</ele>
        <time>2010-05-21T07:50:40Z</time>
      </trkpt>
      <trkpt lat="39.436000" lon="-5.904720">
        <ele>446.189087</ele>
        <time>2010-05-21T07:50:41Z</time>
      </trkpt>
      <trkpt lat="39.436060" lon="-5.904650">
        <ele>447.630981</ele>
        <time>2010-05-21T07:50:42Z</time>
      </trkpt>
      <trkpt lat="39.436120" lon="-5.904500">
        <ele>450.515015</ele>
        <time>2010-05-21T07:50:43Z</time>
      </trkpt>
      <trkpt lat="39.436170" lon="-5.904440">
        <ele>449.072968</ele>
        <time>2010-05-21T07:50:44Z</time>
      </trkpt>
      <trkpt lat="39.436210" lon="-5.904370">
        <ele>450.995605</ele>
        <time>2010-05-21T07:50:45Z</time>
      </trkpt>
      <trkpt lat="39.436310" lon="-5.904270">
        <ele>450.515015</ele>
        <time>2010-05-21T07:50:46Z</time>
      </trkpt>
      <trkpt lat="39.436520" lon="-5.904060">
        <ele>452.437622</ele>
        <time>2010-05-21T07:50:47Z</time>
      </trkpt>
      <trkpt lat="39.436740" lon="-5.903620">
        <ele>454.840820</ele>
        <time>2010-05-21T07:50:48Z</time>
      </trkpt>
      <trkpt lat="39.436830" lon="-5.903540">
        <ele>452.437622</ele>
        <time>2010-05-21T07:50:49Z</time>
      </trkpt>
      <trkpt lat="39.436880" lon="-5.903480">
        <ele>450.515015</ele>
        <time>2010-05-21T07:50:50Z</time>
      </trkpt>
      <trkpt lat="39.436940" lon="-5.903420">
        <ele>450.995605</ele>
        <time>2010-05-21T07:50:51Z</time>
      </trkpt>
      <trkpt lat="39.436970" lon="-5.903370">
        <ele>452.918213</ele>
        <time>2010-05-21T07:50:52Z</time>
      </trkpt>
      <trkpt lat="39.437010" lon="-5.903390">
        <ele>454.840820</ele>
        <time>2010-05-21T07:50:53Z</time>
      </trkpt>
      <trkpt lat="39.437200" lon="-5.903340">
        <ele>454.840820</ele>
        <time>2010-05-21T07:50:54Z</time>
      </trkpt>
      <trkpt lat="39.437250" lon="-5.903330">
        <ele>454.360260</ele>
        <time>2010-05-21T07:50:55Z</time>
      </trkpt>
      <trkpt lat="39.437260" lon="-5.903330">
        <ele>453.879639</ele>
        <time>2010-05-21T07:50:56Z</time>
      </trkpt>
      <trkpt lat="39.437310" lon="-5.903330">
        <ele>451.476318</ele>
        <time>2010-05-21T07:50:57Z</time>
      </trkpt>
      <trkpt lat="39.437600" lon="-5.903350">
        <ele>448.592407</ele>
        <time>2010-05-21T07:50:58Z</time>
      </trkpt>
      <trkpt lat="39.438050" lon="-5.903280">
        <ele>446.669678</ele>
        <time>2010-05-21T07:50:59Z</time>
      </trkpt>
      <trkpt lat="39.438260" lon="-5.903100">
        <ele>447.150269</ele>
        <time>2010-05-21T07:51:00Z</time>
      </trkpt>
      <trkpt lat="39.438360" lon="-5.903030">
        <ele>448.111816</ele>
        <time>2010-05-21T07:51:01Z</time>
      </trkpt>
      <trkpt lat="39.438580" lon="-5.902940">
        <ele>448.592407</ele>
        <time>2010-05-21T07:51:02Z</time>
      </trkpt>
      <trkpt lat="39.439040" lon="-5.902860">
        <ele>451.957031</ele>
        <time>2010-05-21T07:51:03Z</time>
      </trkpt>
      <trkpt lat="39.439860" lon="-5.902670">
        <ele>451.476318</ele>
        <time>2010-05-21T07:51:04Z</time>
      </trkpt>
      <trkpt lat="39.440290" lon="-5.902340">
        <ele>455.802246</ele>
        <time>2010-05-21T07:51:05Z</time>
      </trkpt>
      <trkpt lat="39.440420" lon="-5.902190">
        <ele>457.244263</ele>
        <time>2010-05-21T07:51:06Z</time>
      </trkpt>
      <trkpt lat="39.440540" lon="-5.901980">
        <ele>458.205566</ele>
        <time>2010-05-21T07:51:07Z</time>
      </trkpt>
      <trkpt lat="39.440850" lon="-5.901820">
        <ele>461.570190</ele>
        <time>2010-05-21T07:51:08Z</time>
      </trkpt>
      <trkpt lat="39.441150" lon="-5.901720">
        <ele>463.492798</ele>
        <time>2010-05-21T07:51:09Z</time>
      </trkpt>
      <trkpt lat="39.441990" lon="-5.900980">
        <ele>466.376709</ele>
        <time>2010-05-21T07:51:10Z</time>
      </trkpt>
      <trkpt lat="39.442300" lon="-5.900750">
        <ele>469.260742</ele>
        <time>2010-05-21T07:51:11Z</time>
      </trkpt>
      <trkpt lat="39.442480" lon="-5.900560">
        <ele>471.183319</ele>
        <time>2010-05-21T07:51:12Z</time>
      </trkpt>
      <trkpt lat="39.442990" lon="-5.900020">
        <ele>470.702667</ele>
        <time>2010-05-21T07:51:13Z</time>
      </trkpt>
      <trkpt lat="39.443230" lon="-5.899370">
        <ele>470.702667</ele>
        <time>2010-05-21T07:51:14Z</time>
      </trkpt>
      <trkpt lat="39.443390" lon="-5.898930">
        <ele>471.663940</ele>
        <time>2010-05-21T07:51:15Z</time>
      </trkpt>
      <trkpt lat="39.443830" lon="-5.898240">
        <ele>472.625366</ele>
        <time>2010-05-21T07:51:16Z</time>
      </trkpt>
      <trkpt lat="39.444410" lon="-5.897650">
        <ele>475.509277</ele>
        <time>2010-05-21T07:51:17Z</time>
      </trkpt>
      <trkpt lat="39.444530" lon="-5.897450">
        <ele>477.912476</ele>
        <time>2010-05-21T07:51:18Z</time>
      </trkpt>
      <trkpt lat="39.444650" lon="-5.897310">
        <ele>479.835083</ele>
        <time>2010-05-21T07:51:19Z</time>
      </trkpt>
      <trkpt lat="39.444920" lon="-5.897050">
        <ele>480.315918</ele>
        <time>2010-05-21T07:51:20Z</time>
      </trkpt>
      <trkpt lat="39.444930" lon="-5.897050">
        <ele>481.277222</ele>
        <time>2010-05-21T07:51:21Z</time>
      </trkpt>
      <trkpt lat="39.445150" lon="-5.896590">
        <ele>481.757782</ele>
        <time>2010-05-21T07:51:22Z</time>
      </trkpt>
      <trkpt lat="39.445290" lon="-5.895440">
        <ele>483.199829</ele>
        <time>2010-05-21T07:51:23Z</time>
      </trkpt>
      <trkpt lat="39.445450" lon="-5.894980">
        <ele>484.641846</ele>
        <time>2010-05-21T07:51:24Z</time>
      </trkpt>
      <trkpt lat="39.445620" lon="-5.894730">
        <ele>484.161133</ele>
        <time>2010-05-21T07:51:25Z</time>
      </trkpt>
      <trkpt lat="39.445890" lon="-5.894540">
        <ele>486.083740</ele>
        <time>2010-05-21T07:51:26Z</time>
      </trkpt>
      <trkpt lat="39.446090" lon="-5.894470">
        <ele>488.006470</ele>
        <time>2010-05-21T07:51:27Z</time>
      </trkpt>
      <trkpt lat="39.446380" lon="-5.894160">
        <ele>488.006470</ele>
        <time>2010-05-21T07:51:28Z</time>
      </trkpt>
      <trkpt lat="39.446610" lon="-5.893670">
        <ele>487.525635</ele>
        <time>2010-05-21T07:51:29Z</time>
      </trkpt>
      <trkpt lat="39.446910" lon="-5.893020">
        <ele>487.045074</ele>
        <time>2010-05-21T07:51:30Z</time>
      </trkpt>
      <trkpt lat="39.447820" lon="-5.891820">
        <ele>486.564453</ele>
        <time>2010-05-21T07:51:31Z</time>
      </trkpt>
      <trkpt lat="39.449350" lon="-5.890500">
        <ele>487.045074</ele>
        <time>2010-05-21T07:51:32Z</time>
      </trkpt>
      <trkpt lat="39.449620" lon="-5.890200">
        <ele>486.564453</ele>
        <time>2010-05-21T07:51:33Z</time>
      </trkpt>
      <trkpt lat="39.449660" lon="-5.890120">
        <ele>486.564453</ele>
        <time>2010-05-21T07:51:34Z</time>
      </trkpt>
      <trkpt lat="39.449670" lon="-5.890090">
        <ele>485.603027</ele>
        <time>2010-05-21T07:51:35Z</time>
      </trkpt>
      <trkpt lat="39.449670" lon="-5.890080">
        <ele>483.680420</ele>
        <time>2010-05-21T07:51:36Z</time>
      </trkpt>
      <trkpt lat="39.449810" lon="-5.889980">
        <ele>483.680420</ele>
        <time>2010-05-21T07:51:37Z</time>
      </trkpt>
      <trkpt lat="39.450510" lon="-5.889170">
        <ele>488.006470</ele>
        <time>2010-05-21T07:51:38Z</time>
      </trkpt>
      <trkpt lat="39.450600" lon="-5.889070">
        <ele>494.255005</ele>
        <time>2010-05-21T07:51:39Z</time>
      </trkpt>
      <trkpt lat="39.450755" lon="-5.888834">
        <ele>501.464844</ele>
        <time>2010-05-21T07:51:40Z</time>
      </trkpt>
      <trkpt lat="39.450881" lon="-5.888647">
        <ele>504.829468</ele>
        <time>2010-05-21T07:51:41Z</time>
      </trkpt>
      <trkpt lat="39.450990" lon="-5.888600">
        <ele>506.752075</ele>
        <time>2010-05-21T07:51:42Z</time>
      </trkpt>
      <trkpt lat="39.451190" lon="-5.888390">
        <ele>511.078003</ele>
        <time>2010-05-21T07:51:43Z</time>
      </trkpt>
      <trkpt lat="39.451920" lon="-5.887520">
        <ele>509.155365</ele>
        <time>2010-05-21T07:51:44Z</time>
      </trkpt>
      <trkpt lat="39.452460" lon="-5.886880">
        <ele>510.597290</ele>
        <time>2010-05-21T07:51:45Z</time>
      </trkpt>
      <trkpt lat="39.452770" lon="-5.886580">
        <ele>512.520020</ele>
        <time>2010-05-21T07:51:46Z</time>
      </trkpt>
      <trkpt lat="39.453650" lon="-5.886150">
        <ele>513.000732</ele>
        <time>2010-05-21T07:51:47Z</time>
      </trkpt>
      <trkpt lat="39.455270" lon="-5.885300">
        <ele>513.000732</ele>
        <time>2010-05-21T07:51:48Z</time>
      </trkpt>
      <trkpt lat="39.455740" lon="-5.885070">
        <ele>513.000732</ele>
        <time>2010-05-21T07:51:49Z</time>
      </trkpt>
      <trkpt lat="39.455830" lon="-5.885020">
        <ele>513.481445</ele>
        <time>2010-05-21T07:51:50Z</time>
      </trkpt>
      <trkpt lat="39.456170" lon="-5.884830">
        <ele>512.520020</ele>
        <time>2010-05-21T07:51:51Z</time>
      </trkpt>
      <trkpt lat="39.456180" lon="-5.884820">
        <ele>513.962036</ele>
        <time>2010-05-21T07:51:52Z</time>
      </trkpt>
      <trkpt lat="39.456290" lon="-5.884590">
        <ele>514.442627</ele>
        <time>2010-05-21T07:51:53Z</time>
      </trkpt>
      <trkpt lat="39.456650" lon="-5.883610">
        <ele>514.442627</ele>
        <time>2010-05-21T07:51:54Z</time>
      </trkpt>
      <trkpt lat="39.456774" lon="-5.883139">
        <ele>513.481445</ele>
        <time>2010-05-21T07:51:55Z</time>
      </trkpt>
      <trkpt lat="39.458451" lon="-5.881988">
        <ele>513.000732</ele>
        <time>2010-05-21T07:51:56Z</time>
      </trkpt>
      <trkpt lat="39.458720" lon="-5.881511">
        <ele>514.442627</ele>
        <time>2010-05-21T07:51:57Z</time>
      </trkpt>
      <trkpt lat="39.458998" lon="-5.881732">
        <ele>514.923340</ele>
        <time>2010-05-21T07:51:58Z</time>
      </trkpt>
      <trkpt lat="39.460323" lon="-5.881682">
        <ele>515.884644</ele>
        <time>2010-05-21T07:51:59Z</time>
      </trkpt>
      <trkpt lat="39.460164" lon="-5.881030">
        <ele>518.768555</ele>
        <time>2010-05-21T07:52:00Z</time>
      </trkpt>
      <trkpt lat="39.460155" lon="-5.880315">
        <ele>520.210571</ele>
        <time>2010-05-21T07:52:01Z</time>
      </trkpt>
      <trkpt lat="39.459801" lon="-5.879847">
        <ele>520.210571</ele>
        <time>2010-05-21T07:52:02Z</time>
      </trkpt>
      <trkpt lat="39.459274" lon="-5.879303">
        <ele>525.497803</ele>
        <time>2010-05-21T07:52:03Z</time>
      </trkpt>
      <trkpt lat="39.458675" lon="-5.877883">
        <ele>534.630371</ele>
        <time>2010-05-21T07:52:04Z</time>
      </trkpt>
      <trkpt lat="39.458497" lon="-5.877405">
        <ele>536.553101</ele>
        <time>2010-05-21T07:52:05Z</time>
      </trkpt>
      <trkpt lat="39.458386" lon="-5.876965">
        <ele>540.878906</ele>
        <time>2010-05-21T07:52:06Z</time>
      </trkpt>
      <trkpt lat="39.458351" lon="-5.876754">
        <ele>544.243652</ele>
        <time>2010-05-21T07:52:07Z</time>
      </trkpt>
      <trkpt lat="39.458270" lon="-5.876700">
        <ele>544.724243</ele>
        <time>2010-05-21T07:52:08Z</time>
      </trkpt>
      <trkpt lat="39.458160" lon="-5.875480">
        <ele>536.553101</ele>
        <time>2010-05-21T07:52:09Z</time>
      </trkpt>
      <trkpt lat="39.458130" lon="-5.875290">
        <ele>528.862549</ele>
        <time>2010-05-21T07:52:10Z</time>
      </trkpt>
      <trkpt lat="39.457860" lon="-5.874950">
        <ele>526.459106</ele>
        <time>2010-05-21T07:52:11Z</time>
      </trkpt>
      <trkpt lat="39.457810" lon="-5.874590">
        <ele>523.094604</ele>
        <time>2010-05-21T07:52:12Z</time>
      </trkpt>
      <trkpt lat="39.457860" lon="-5.874450">
        <ele>519.249268</ele>
        <time>2010-05-21T07:52:13Z</time>
      </trkpt>
      <trkpt lat="39.457890" lon="-5.873370">
        <ele>513.481445</ele>
        <time>2010-05-21T07:52:14Z</time>
      </trkpt>
      <trkpt lat="39.457792" lon="-5.872600">
        <ele>511.558716</ele>
        <time>2010-05-21T07:52:15Z</time>
      </trkpt>
      <trkpt lat="39.458293" lon="-5.871470">
        <ele>510.116699</ele>
        <time>2010-05-21T07:52:16Z</time>
      </trkpt>
      <trkpt lat="39.458689" lon="-5.870197">
        <ele>509.155365</ele>
        <time>2010-05-21T07:52:17Z</time>
      </trkpt>
      <trkpt lat="39.458875" lon="-5.869228">
        <ele>509.636078</ele>
        <time>2010-05-21T07:52:18Z</time>
      </trkpt>
      <trkpt lat="39.458877" lon="-5.868043">
        <ele>509.636078</ele>
        <time>2010-05-21T07:52:19Z</time>
      </trkpt>
      <trkpt lat="39.458914" lon="-5.867103">
        <ele>507.713501</ele>
        <time>2010-05-21T07:52:20Z</time>
      </trkpt>
      <trkpt lat="39.458870" lon="-5.866683">
        <ele>509.155365</ele>
        <time>2010-05-21T07:52:21Z</time>
      </trkpt>
      <trkpt lat="39.458933" lon="-5.866337">
        <ele>510.116699</ele>
        <time>2010-05-21T07:52:22Z</time>
      </trkpt>
      <trkpt lat="39.459210" lon="-5.865512">
        <ele>513.481445</ele>
        <time>2010-05-21T07:52:23Z</time>
      </trkpt>
      <trkpt lat="39.459311" lon="-5.864679">
        <ele>515.404053</ele>
        <time>2010-05-21T07:52:24Z</time>
      </trkpt>
      <trkpt lat="39.459279" lon="-5.863806">
        <ele>517.807251</ele>
        <time>2010-05-21T07:52:25Z</time>
      </trkpt>
      <trkpt lat="39.459203" lon="-5.863036">
        <ele>517.807251</ele>
        <time>2010-05-21T07:52:26Z</time>
      </trkpt>
      <trkpt lat="39.459217" lon="-5.862496">
        <ele>518.768555</ele>
        <time>2010-05-21T07:52:27Z</time>
      </trkpt>
      <trkpt lat="39.459224" lon="-5.862218">
        <ele>518.768555</ele>
        <time>2010-05-21T07:52:28Z</time>
      </trkpt>
      <trkpt lat="39.459280" lon="-5.861940">
        <ele>519.249268</ele>
        <time>2010-05-21T07:52:29Z</time>
      </trkpt>
      <trkpt lat="39.459270" lon="-5.861940">
        <ele>522.133179</ele>
        <time>2010-05-21T07:52:30Z</time>
      </trkpt>
      <trkpt lat="39.459290" lon="-5.861910">
        <ele>522.133179</ele>
        <time>2010-05-21T07:52:31Z</time>
      </trkpt>
      <trkpt lat="39.459360" lon="-5.861600">
        <ele>523.094604</ele>
        <time>2010-05-21T07:52:32Z</time>
      </trkpt>
      <trkpt lat="39.459570" lon="-5.861350">
        <ele>522.133179</ele>
        <time>2010-05-21T07:52:33Z</time>
      </trkpt>
      <trkpt lat="39.459740" lon="-5.861270">
        <ele>519.729858</ele>
        <time>2010-05-21T07:52:34Z</time>
      </trkpt>
      <trkpt lat="39.459640" lon="-5.860740">
        <ele>522.133179</ele>
        <time>2010-05-21T07:52:35Z</time>
      </trkpt>
      <trkpt lat="39.459560" lon="-5.860580">
        <ele>525.497803</ele>
        <time>2010-05-21T07:52:36Z</time>
      </trkpt>
      <trkpt lat="39.459560" lon="-5.860580">
        <ele>532.227051</ele>
        <time>2010-05-21T07:52:37Z</time>
      </trkpt>
      <trkpt lat="39.459170" lon="-5.860640">
        <ele>534.149658</ele>
        <time>2010-05-21T07:52:38Z</time>
      </trkpt>
      <trkpt lat="39.458950" lon="-5.860520">
        <ele>531.265747</ele>
        <time>2010-05-21T07:52:39Z</time>
      </trkpt>
      <trkpt lat="39.458910" lon="-5.860100">
        <ele>529.823730</ele>
        <time>2010-05-21T07:52:40Z</time>
      </trkpt>
      <trkpt lat="39.458760" lon="-5.859080">
        <ele>529.343140</ele>
        <time>2010-05-21T07:52:41Z</time>
      </trkpt>
      <trkpt lat="39.458530" lon="-5.857520">
        <ele>531.746338</ele>
        <time>2010-05-21T07:52:42Z</time>
      </trkpt>
      <trkpt lat="39.458340" lon="-5.856720">
        <ele>533.668945</ele>
        <time>2010-05-21T07:52:43Z</time>
      </trkpt>
      <trkpt lat="39.457910" lon="-5.855820">
        <ele>534.149658</ele>
        <time>2010-05-21T07:52:44Z</time>
      </trkpt>
      <trkpt lat="39.457770" lon="-5.855590">
        <ele>534.630371</ele>
        <time>2010-05-21T07:52:45Z</time>
      </trkpt>
      <trkpt lat="39.457760" lon="-5.855560">
        <ele>533.668945</ele>
        <time>2010-05-21T07:52:46Z</time>
      </trkpt>
      <trkpt lat="39.457700" lon="-5.855470">
        <ele>533.188354</ele>
        <time>2010-05-21T07:52:47Z</time>
      </trkpt>
      <trkpt lat="39.457640" lon="-5.855380">
        <ele>533.668945</ele>
        <time>2010-05-21T07:52:48Z</time>
      </trkpt>
      <trkpt lat="39.457640" lon="-5.855360">
        <ele>540.398315</ele>
        <time>2010-05-21T07:52:49Z</time>
      </trkpt>
      <trkpt lat="39.457610" lon="-5.855290">
        <ele>551.453369</ele>
        <time>2010-05-21T07:52:50Z</time>
      </trkpt>
      <trkpt lat="39.457570" lon="-5.855260">
        <ele>558.182861</ele>
        <time>2010-05-21T07:52:51Z</time>
      </trkpt>
      <trkpt lat="39.457430" lon="-5.855040">
        <ele>552.895264</ele>
        <time>2010-05-21T07:52:52Z</time>
      </trkpt>
      <trkpt lat="39.456930" lon="-5.853820">
        <ele>553.375977</ele>
        <time>2010-05-21T07:52:53Z</time>
      </trkpt>
      <trkpt lat="39.456640" lon="-5.852360">
        <ele>551.453369</ele>
        <time>2010-05-21T07:52:54Z</time>
      </trkpt>
      <trkpt lat="39.456410" lon="-5.850030">
        <ele>551.453369</ele>
        <time>2010-05-21T07:52:55Z</time>
      </trkpt>
      <trkpt lat="39.456310" lon="-5.847770">
        <ele>550.972656</ele>
        <time>2010-05-21T07:52:56Z</time>
      </trkpt>
      <trkpt lat="39.456610" lon="-5.846370">
        <ele>549.050049</ele>
        <time>2010-05-21T07:52:57Z</time>
      </trkpt>
      <trkpt lat="39.456690" lon="-5.846240">
        <ele>546.646851</ele>
        <time>2010-05-21T07:52:58Z</time>
      </trkpt>
      <trkpt lat="39.456760" lon="-5.846010">
        <ele>542.801514</ele>
        <time>2010-05-21T07:52:59Z</time>
      </trkpt>
      <trkpt lat="39.456760" lon="-5.846010">
        <ele>542.320923</ele>
        <time>2010-05-21T07:53:00Z</time>
      </trkpt>
      <trkpt lat="39.456850" lon="-5.845630">
        <ele>537.033691</ele>
        <time>2010-05-21T07:53:01Z</time>
      </trkpt>
      <trkpt lat="39.456930" lon="-5.845190">
        <ele>537.033691</ele>
        <time>2010-05-21T07:53:02Z</time>
      </trkpt>
      <trkpt lat="39.456810" lon="-5.844720">
        <ele>537.514282</ele>
        <time>2010-05-21T07:53:03Z</time>
      </trkpt>
      <trkpt lat="39.456320" lon="-5.844220">
        <ele>534.630371</ele>
        <time>2010-05-21T07:53:04Z</time>
      </trkpt>
      <trkpt lat="39.456320" lon="-5.844210">
        <ele>536.553101</ele>
        <time>2010-05-21T07:53:05Z</time>
      </trkpt>
      <trkpt lat="39.456290" lon="-5.844240">
        <ele>538.475708</ele>
        <time>2010-05-21T07:53:06Z</time>
      </trkpt>
      <trkpt lat="39.456300" lon="-5.844240">
        <ele>536.072388</ele>
        <time>2010-05-21T07:53:07Z</time>
      </trkpt>
      <trkpt lat="39.456266" lon="-5.843968">
        <ele>540.878906</ele>
        <time>2010-05-21T07:53:08Z</time>
      </trkpt>
      <trkpt lat="39.456263" lon="-5.843567">
        <ele>540.000000</ele>
        <time>2010-05-21T07:53:09Z</time>
      </trkpt>
      <trkpt lat="39.456332" lon="-5.842943">
        <ele>540.000000</ele>
        <time>2010-05-21T07:53:10Z</time>
      </trkpt>
      <trkpt lat="39.456285" lon="-5.842121">
        <ele>535.000000</ele>
        <time>2010-05-21T07:53:11Z</time>
      </trkpt>
      <trkpt lat="39.456221" lon="-5.841404">
        <ele>530.000000</ele>
        <time>2010-05-21T07:53:12Z</time>
      </trkpt>
      <trkpt lat="39.456215" lon="-5.840550">
        <ele>523.000000</ele>
        <time>2010-05-21T07:53:13Z</time>
      </trkpt>
      <trkpt lat="39.456286" lon="-5.839315">
        <ele>519.000000</ele>
        <time>2010-05-21T07:53:14Z</time>
      </trkpt>
      <trkpt lat="39.456054" lon="-5.838295">
        <ele>514.442627</ele>
        <time>2010-05-21T07:53:15Z</time>
      </trkpt>
      <trkpt lat="39.455904" lon="-5.837801">
        <ele>507.713501</ele>
        <time>2010-05-21T07:53:16Z</time>
      </trkpt>
      <trkpt lat="39.455599" lon="-5.837021">
        <ele>505.790894</ele>
        <time>2010-05-21T07:53:17Z</time>
      </trkpt>
      <trkpt lat="39.455422" lon="-5.836509">
        <ele>503.868134</ele>
        <time>2010-05-21T07:53:18Z</time>
      </trkpt>
      <trkpt lat="39.455301" lon="-5.835911">
        <ele>503.868134</ele>
        <time>2010-05-21T07:53:19Z</time>
      </trkpt>
      <trkpt lat="39.455180" lon="-5.835348">
        <ele>500.503540</ele>
        <time>2010-05-21T07:53:20Z</time>
      </trkpt>
      <trkpt lat="39.455141" lon="-5.834737">
        <ele>501.999969</ele>
        <time>2010-05-21T07:53:21Z</time>
      </trkpt>
      <trkpt lat="39.455163" lon="-5.833814">
        <ele>500.503540</ele>
        <time>2010-05-21T07:53:22Z</time>
      </trkpt>
      <trkpt lat="39.455235" lon="-5.833102">
        <ele>500.984131</ele>
        <time>2010-05-21T07:53:23Z</time>
      </trkpt>
      <trkpt lat="39.455230" lon="-5.832178">
        <ele>501.464844</ele>
        <time>2010-05-21T07:53:24Z</time>
      </trkpt>
      <trkpt lat="39.455242" lon="-5.831150">
        <ele>501.999969</ele>
        <time>2010-05-21T07:53:25Z</time>
      </trkpt>
      <trkpt lat="39.455240" lon="-5.830679">
        <ele>501.999969</ele>
        <time>2010-05-21T07:53:26Z</time>
      </trkpt>
      <trkpt lat="39.455060" lon="-5.830306">
        <ele>503.000000</ele>
        <time>2010-05-21T07:53:27Z</time>
      </trkpt>
      <trkpt lat="39.454476" lon="-5.829289">
        <ele>504.000000</ele>
        <time>2010-05-21T07:53:28Z</time>
      </trkpt>
      <trkpt lat="39.453717" lon="-5.827933">
        <ele>504.999969</ele>
        <time>2010-05-21T07:53:29Z</time>
      </trkpt>
      <trkpt lat="39.453334" lon="-5.827360">
        <ele>507.232788</ele>
        <time>2010-05-21T07:53:30Z</time>
      </trkpt>
      <trkpt lat="39.452916" lon="-5.826762">
        <ele>506.271484</ele>
        <time>2010-05-21T07:53:31Z</time>
      </trkpt>
      <trkpt lat="39.452592" lon="-5.826005">
        <ele>501.464844</ele>
        <time>2010-05-21T07:53:32Z</time>
      </trkpt>
      <trkpt lat="39.452444" lon="-5.825441">
        <ele>499.061523</ele>
        <time>2010-05-21T07:53:33Z</time>
      </trkpt>
      <trkpt lat="39.452347" lon="-5.824996">
        <ele>498.100342</ele>
        <time>2010-05-21T07:53:34Z</time>
      </trkpt>
      <trkpt lat="39.452130" lon="-5.824320">
        <ele>498.100342</ele>
        <time>2010-05-21T07:54:01Z</time>
      </trkpt>
      <trkpt lat="39.452020" lon="-5.823830">
        <ele>500.984131</ele>
        <time>2010-05-21T07:54:02Z</time>
      </trkpt>
      <trkpt lat="39.451940" lon="-5.823340">
        <ele>498.100342</ele>
        <time>2010-05-21T07:54:03Z</time>
      </trkpt>
      <trkpt lat="39.451910" lon="-5.823030">
        <ele>500.503540</ele>
        <time>2010-05-21T07:54:04Z</time>
      </trkpt>
      <trkpt lat="39.451860" lon="-5.822740">
        <ele>506.271484</ele>
        <time>2010-05-21T07:54:05Z</time>
      </trkpt>
      <trkpt lat="39.451770" lon="-5.822320">
        <ele>503.868134</ele>
        <time>2010-05-21T07:54:06Z</time>
      </trkpt>
      <trkpt lat="39.451670" lon="-5.821880">
        <ele>501.945557</ele>
        <time>2010-05-21T07:54:07Z</time>
      </trkpt>
      <trkpt lat="39.451620" lon="-5.821150">
        <ele>500.503540</ele>
        <time>2010-05-21T07:54:08Z</time>
      </trkpt>
      <trkpt lat="39.451620" lon="-5.820920">
        <ele>500.503540</ele>
        <time>2010-05-21T07:54:09Z</time>
      </trkpt>
      <trkpt lat="39.451560" lon="-5.820520">
        <ele>507.713501</ele>
        <time>2010-05-21T07:54:10Z</time>
      </trkpt>
      <trkpt lat="39.451380" lon="-5.819490">
        <ele>512.520020</ele>
        <time>2010-05-21T07:54:11Z</time>
      </trkpt>
      <trkpt lat="39.451160" lon="-5.818460">
        <ele>509.636078</ele>
        <time>2010-05-21T07:54:12Z</time>
      </trkpt>
      <trkpt lat="39.450890" lon="-5.817320">
        <ele>508.674713</ele>
        <time>2010-05-21T07:54:13Z</time>
      </trkpt>
      <trkpt lat="39.450860" lon="-5.817240">
        <ele>508.194092</ele>
        <time>2010-05-21T07:54:14Z</time>
      </trkpt>
      <trkpt lat="39.450610" lon="-5.816570">
        <ele>516.365234</ele>
        <time>2010-05-21T07:54:15Z</time>
      </trkpt>
      <trkpt lat="39.450300" lon="-5.815460">
        <ele>518.287842</ele>
        <time>2010-05-21T07:54:16Z</time>
      </trkpt>
      <trkpt lat="39.450150" lon="-5.814970">
        <ele>521.171997</ele>
        <time>2010-05-21T07:54:17Z</time>
      </trkpt>
      <trkpt lat="39.450090" lon="-5.814660">
        <ele>527.420410</ele>
        <time>2010-05-21T07:54:18Z</time>
      </trkpt>
      <trkpt lat="39.449930" lon="-5.814060">
        <ele>528.862549</ele>
        <time>2010-05-21T07:54:19Z</time>
      </trkpt>
      <trkpt lat="39.449530" lon="-5.813090">
        <ele>526.459106</ele>
        <time>2010-05-21T07:54:20Z</time>
      </trkpt>
      <trkpt lat="39.448980" lon="-5.812100">
        <ele>523.094604</ele>
        <time>2010-05-21T07:54:21Z</time>
      </trkpt>
      <trkpt lat="39.448830" lon="-5.811830">
        <ele>524.055786</ele>
        <time>2010-05-21T07:54:22Z</time>
      </trkpt>
      <trkpt lat="39.448650" lon="-5.811390">
        <ele>521.652588</ele>
        <time>2010-05-21T07:54:23Z</time>
      </trkpt>
      <trkpt lat="39.448480" lon="-5.811020">
        <ele>522.133179</ele>
        <time>2010-05-21T07:54:24Z</time>
      </trkpt>
      <trkpt lat="39.447980" lon="-5.810320">
        <ele>526.459106</ele>
        <time>2010-05-21T07:54:25Z</time>
      </trkpt>
      <trkpt lat="39.447750" lon="-5.809930">
        <ele>525.978394</ele>
        <time>2010-05-21T07:54:26Z</time>
      </trkpt>
      <trkpt lat="39.447150" lon="-5.809120">
        <ele>525.978394</ele>
        <time>2010-05-21T07:54:27Z</time>
      </trkpt>
      <trkpt lat="39.446910" lon="-5.808840">
        <ele>525.978394</ele>
        <time>2010-05-21T07:54:28Z</time>
      </trkpt>
      <trkpt lat="39.446860" lon="-5.808740">
        <ele>525.978394</ele>
        <time>2010-05-21T07:54:29Z</time>
      </trkpt>
      <trkpt lat="39.446360" lon="-5.807890">
        <ele>527.901001</ele>
        <time>2010-05-21T07:54:30Z</time>
      </trkpt>
      <trkpt lat="39.446290" lon="-5.807790">
        <ele>530.304443</ele>
        <time>2010-05-21T07:54:31Z</time>
      </trkpt>
      <trkpt lat="39.445780" lon="-5.806950">
        <ele>531.746338</ele>
        <time>2010-05-21T07:54:32Z</time>
      </trkpt>
      <trkpt lat="39.445140" lon="-5.805900">
        <ele>540.398315</ele>
        <time>2010-05-21T07:54:33Z</time>
      </trkpt>
      <trkpt lat="39.445000" lon="-5.805660">
        <ele>541.359497</ele>
        <time>2010-05-21T07:54:34Z</time>
      </trkpt>
      <trkpt lat="39.444820" lon="-5.805300">
        <ele>546.646851</ele>
        <time>2010-05-21T07:54:35Z</time>
      </trkpt>
      <trkpt lat="39.444630" lon="-5.804990">
        <ele>546.166260</ele>
        <time>2010-05-21T07:54:36Z</time>
      </trkpt>
      <trkpt lat="39.444480" lon="-5.804790">
        <ele>540.878906</ele>
        <time>2010-05-21T07:54:37Z</time>
      </trkpt>
      <trkpt lat="39.444020" lon="-5.804040">
        <ele>541.359497</ele>
        <time>2010-05-21T07:54:38Z</time>
      </trkpt>
      <trkpt lat="39.443910" lon="-5.803790">
        <ele>541.359497</ele>
        <time>2010-05-21T07:54:39Z</time>
      </trkpt>
      <trkpt lat="39.443660" lon="-5.803300">
        <ele>541.840210</ele>
        <time>2010-05-21T07:54:40Z</time>
      </trkpt>
      <trkpt lat="39.443350" lon="-5.802370">
        <ele>542.320923</ele>
        <time>2010-05-21T07:54:41Z</time>
      </trkpt>
      <trkpt lat="39.443290" lon="-5.801960">
        <ele>543.762817</ele>
        <time>2010-05-21T07:54:42Z</time>
      </trkpt>
      <trkpt lat="39.443290" lon="-5.801970">
        <ele>545.204834</ele>
        <time>2010-05-21T07:54:43Z</time>
      </trkpt>
      <trkpt lat="39.443160" lon="-5.801670">
        <ele>544.243652</ele>
        <time>2010-05-21T07:54:44Z</time>
      </trkpt>
      <trkpt lat="39.442810" lon="-5.800620">
        <ele>543.282104</ele>
        <time>2010-05-21T07:54:45Z</time>
      </trkpt>
      <trkpt lat="39.442450" lon="-5.799480">
        <ele>544.243652</ele>
        <time>2010-05-21T07:54:46Z</time>
      </trkpt>
      <trkpt lat="39.441970" lon="-5.798000">
        <ele>543.762817</ele>
        <time>2010-05-21T07:54:47Z</time>
      </trkpt>
      <trkpt lat="39.441950" lon="-5.796920">
        <ele>536.553101</ele>
        <time>2010-05-21T07:54:48Z</time>
      </trkpt>
      <trkpt lat="39.442130" lon="-5.795260">
        <ele>526.459106</ele>
        <time>2010-05-21T07:54:49Z</time>
      </trkpt>
      <trkpt lat="39.442460" lon="-5.793530">
        <ele>522.613892</ele>
        <time>2010-05-21T07:54:50Z</time>
      </trkpt>
      <trkpt lat="39.442730" lon="-5.791960">
        <ele>513.481445</ele>
        <time>2010-05-21T07:54:51Z</time>
      </trkpt>
      <trkpt lat="39.442810" lon="-5.790430">
        <ele>511.558716</ele>
        <time>2010-05-21T07:54:52Z</time>
      </trkpt>
      <trkpt lat="39.442690" lon="-5.789220">
        <ele>511.078003</ele>
        <time>2010-05-21T07:54:53Z</time>
      </trkpt>
      <trkpt lat="39.442230" lon="-5.788080">
        <ele>504.829468</ele>
        <time>2010-05-21T07:54:54Z</time>
      </trkpt>
      <trkpt lat="39.441580" lon="-5.787270">
        <ele>505.790894</ele>
        <time>2010-05-21T07:54:55Z</time>
      </trkpt>
      <trkpt lat="39.440480" lon="-5.786470">
        <ele>508.194092</ele>
        <time>2010-05-21T07:54:56Z</time>
      </trkpt>
      <trkpt lat="39.440430" lon="-5.786440">
        <ele>516.845947</ele>
        <time>2010-05-21T07:54:57Z</time>
      </trkpt>
      <trkpt lat="39.440200" lon="-5.786300">
        <ele>520.691284</ele>
        <time>2010-05-21T07:54:58Z</time>
      </trkpt>
      <trkpt lat="39.439500" lon="-5.785650">
        <ele>519.729858</ele>
        <time>2010-05-21T07:54:59Z</time>
      </trkpt>
      <trkpt lat="39.438970" lon="-5.785090">
        <ele>521.171997</ele>
        <time>2010-05-21T07:55:00Z</time>
      </trkpt>
      <trkpt lat="39.438770" lon="-5.784910">
        <ele>525.017212</ele>
        <time>2010-05-21T07:55:01Z</time>
      </trkpt>
      <trkpt lat="39.438170" lon="-5.784230">
        <ele>526.459106</ele>
        <time>2010-05-21T07:55:02Z</time>
      </trkpt>
      <trkpt lat="39.437950" lon="-5.783970">
        <ele>526.459106</ele>
        <time>2010-05-21T07:55:03Z</time>
      </trkpt>
      <trkpt lat="39.437320" lon="-5.783020">
        <ele>526.459106</ele>
        <time>2010-05-21T07:55:04Z</time>
      </trkpt>
      <trkpt lat="39.436690" lon="-5.781820">
        <ele>525.017212</ele>
        <time>2010-05-21T07:55:05Z</time>
      </trkpt>
      <trkpt lat="39.436300" lon="-5.780470">
        <ele>527.420410</ele>
        <time>2010-05-21T07:55:06Z</time>
      </trkpt>
      <trkpt lat="39.436280" lon="-5.780210">
        <ele>528.862549</ele>
        <time>2010-05-21T07:55:07Z</time>
      </trkpt>
      <trkpt lat="39.436330" lon="-5.780040">
        <ele>530.785156</ele>
        <time>2010-05-21T07:55:08Z</time>
      </trkpt>
      <trkpt lat="39.436330" lon="-5.780060">
        <ele>530.304443</ele>
        <time>2010-05-21T07:55:09Z</time>
      </trkpt>
      <trkpt lat="39.436230" lon="-5.779750">
        <ele>526.459106</ele>
        <time>2010-05-21T07:55:10Z</time>
      </trkpt>
      <trkpt lat="39.436100" lon="-5.778520">
        <ele>526.939819</ele>
        <time>2010-05-21T07:55:11Z</time>
      </trkpt>
      <trkpt lat="39.435960" lon="-5.778110">
        <ele>528.381836</ele>
        <time>2010-05-21T07:55:12Z</time>
      </trkpt>
      <trkpt lat="39.435010" lon="-5.776540">
        <ele>534.630371</ele>
        <time>2010-05-21T07:55:13Z</time>
      </trkpt>
      <trkpt lat="39.434660" lon="-5.775980">
        <ele>529.343140</ele>
        <time>2010-05-21T07:55:14Z</time>
      </trkpt>
      <trkpt lat="39.434650" lon="-5.775940">
        <ele>525.017212</ele>
        <time>2010-05-21T07:55:15Z</time>
      </trkpt>
      <trkpt lat="39.434500" lon="-5.775650">
        <ele>523.575195</ele>
        <time>2010-05-21T07:55:16Z</time>
      </trkpt>
      <trkpt lat="39.434030" lon="-5.774750">
        <ele>525.497803</ele>
        <time>2010-05-21T07:55:17Z</time>
      </trkpt>
      <trkpt lat="39.433750" lon="-5.773930">
        <ele>527.901001</ele>
        <time>2010-05-21T07:55:18Z</time>
      </trkpt>
      <trkpt lat="39.433460" lon="-5.772860">
        <ele>533.188354</ele>
        <time>2010-05-21T07:55:19Z</time>
      </trkpt>
      <trkpt lat="39.432920" lon="-5.772020">
        <ele>535.110962</ele>
        <time>2010-05-21T07:55:20Z</time>
      </trkpt>
      <trkpt lat="39.432500" lon="-5.771660">
        <ele>537.033691</ele>
        <time>2010-05-21T07:55:21Z</time>
      </trkpt>
      <trkpt lat="39.432320" lon="-5.771360">
        <ele>539.436890</ele>
        <time>2010-05-21T07:55:22Z</time>
      </trkpt>
      <trkpt lat="39.432160" lon="-5.770940">
        <ele>541.359497</ele>
        <time>2010-05-21T07:55:23Z</time>
      </trkpt>
      <trkpt lat="39.431800" lon="-5.769820">
        <ele>545.204834</ele>
        <time>2010-05-21T07:55:24Z</time>
      </trkpt>
      <trkpt lat="39.431690" lon="-5.769400">
        <ele>550.011475</ele>
        <time>2010-05-21T07:55:25Z</time>
      </trkpt>
      <trkpt lat="39.431310" lon="-5.768920">
        <ele>557.221436</ele>
        <time>2010-05-21T07:55:26Z</time>
      </trkpt>
      <trkpt lat="39.430750" lon="-5.767710">
        <ele>560.585938</ele>
        <time>2010-05-21T07:55:27Z</time>
      </trkpt>
      <trkpt lat="39.430420" lon="-5.766310">
        <ele>564.431152</ele>
        <time>2010-05-21T07:55:28Z</time>
      </trkpt>
      <trkpt lat="39.430270" lon="-5.764700">
        <ele>568.276367</ele>
        <time>2010-05-21T07:55:29Z</time>
      </trkpt>
      <trkpt lat="39.429840" lon="-5.763360">
        <ele>572.121826</ele>
        <time>2010-05-21T07:55:30Z</time>
      </trkpt>
      <trkpt lat="39.429460" lon="-5.762090">
        <ele>574.044434</ele>
        <time>2010-05-21T07:55:31Z</time>
      </trkpt>
      <trkpt lat="39.429330" lon="-5.761580">
        <ele>571.160400</ele>
        <time>2010-05-21T07:55:32Z</time>
      </trkpt>
      <trkpt lat="39.429080" lon="-5.761270">
        <ele>572.602539</ele>
        <time>2010-05-21T07:55:33Z</time>
      </trkpt>
      <trkpt lat="39.428890" lon="-5.760900">
        <ele>580.292969</ele>
        <time>2010-05-21T07:55:34Z</time>
      </trkpt>
      <trkpt lat="39.428630" lon="-5.760010">
        <ele>578.851074</ele>
        <time>2010-05-21T07:55:35Z</time>
      </trkpt>
      <trkpt lat="39.428400" lon="-5.759440">
        <ele>578.370361</ele>
        <time>2010-05-21T07:55:36Z</time>
      </trkpt>
      <trkpt lat="39.428250" lon="-5.758960">
        <ele>577.889648</ele>
        <time>2010-05-21T07:55:37Z</time>
      </trkpt>
      <trkpt lat="39.428160" lon="-5.758690">
        <ele>578.370361</ele>
        <time>2010-05-21T07:55:38Z</time>
      </trkpt>
      <trkpt lat="39.428030" lon="-5.758240">
        <ele>576.928467</ele>
        <time>2010-05-21T07:55:39Z</time>
      </trkpt>
      <trkpt lat="39.427960" lon="-5.758000">
        <ele>575.967041</ele>
        <time>2010-05-21T07:55:40Z</time>
      </trkpt>
      <trkpt lat="39.427880" lon="-5.757830">
        <ele>575.486328</ele>
        <time>2010-05-21T07:55:41Z</time>
      </trkpt>
      <trkpt lat="39.427780" lon="-5.757650">
        <ele>574.525146</ele>
        <time>2010-05-21T07:55:42Z</time>
      </trkpt>
      <trkpt lat="39.427730" lon="-5.757450">
        <ele>572.121826</ele>
        <time>2010-05-21T07:55:43Z</time>
      </trkpt>
      <trkpt lat="39.427700" lon="-5.757110">
        <ele>572.121826</ele>
        <time>2010-05-21T07:55:44Z</time>
      </trkpt>
      <trkpt lat="39.427640" lon="-5.756830">
        <ele>571.160400</ele>
        <time>2010-05-21T07:55:45Z</time>
      </trkpt>
      <trkpt lat="39.427610" lon="-5.756670">
        <ele>574.525146</ele>
        <time>2010-05-21T07:55:46Z</time>
      </trkpt>
      <trkpt lat="39.427560" lon="-5.756440">
        <ele>577.409180</ele>
        <time>2010-05-21T07:55:47Z</time>
      </trkpt>
      <trkpt lat="39.427680" lon="-5.755640">
        <time>2010-05-21T07:55:48Z</time>
      </trkpt>
      <trkpt lat="39.427414" lon="-5.755626">
        <time>2010-05-21T07:55:49Z</time>
      </trkpt>
      <trkpt lat="39.426430" lon="-5.755354">
        <time>2010-05-21T07:55:50Z</time>
      </trkpt>
      <trkpt lat="39.426301" lon="-5.755082">
        <time>2010-05-21T07:55:51Z</time>
      </trkpt>
      <trkpt lat="39.426098" lon="-5.754912">
        <time>2010-05-21T07:55:52Z</time>
      </trkpt>
      <trkpt lat="39.413460" lon="-5.628121">
        <ele>577.409180</ele>
        <time>2011-04-27T17:18:38Z</time>
      </trkpt>
      <trkpt lat="39.426189" lon="-5.755091">
        <ele>578.851074</ele>
        <time>2011-04-27T17:17:28Z</time>
      </trkpt>
      <trkpt lat="39.423878" lon="-5.649329">
        <ele>600.480713</ele>
        <time>2011-04-27T17:18:20Z</time>
      </trkpt>
      <trkpt lat="39.426098" lon="-5.754912">
        <ele>600.000000</ele>
        <time>2010-05-21T07:55:52Z</time>
      </trkpt>
      <trkpt lat="39.426130" lon="-5.754704">
        <ele>591.828857</ele>
        <time>2010-05-21T07:55:53Z</time>
      </trkpt>
      <trkpt lat="39.426141" lon="-5.754600">
        <ele>590.867432</ele>
        <time>2010-05-21T07:55:54Z</time>
      </trkpt>
      <trkpt lat="39.426213" lon="-5.754208">
        <ele>589.425537</ele>
        <time>2010-05-21T07:55:55Z</time>
      </trkpt>
      <trkpt lat="39.426220" lon="-5.754020">
        <ele>588.945068</ele>
        <time>2010-05-21T07:55:56Z</time>
      </trkpt>
      <trkpt lat="39.426220" lon="-5.753940">
        <ele>590.867432</ele>
        <time>2010-05-21T07:55:57Z</time>
      </trkpt>
      <trkpt lat="39.426390" lon="-5.753920">
        <ele>591.348145</ele>
        <time>2010-05-21T07:55:58Z</time>
      </trkpt>
      <trkpt lat="39.426420" lon="-5.753860">
        <ele>593.270752</ele>
        <time>2010-05-21T07:55:59Z</time>
      </trkpt>
      <trkpt lat="39.426690" lon="-5.753630">
        <ele>591.828857</ele>
        <time>2010-05-21T07:56:00Z</time>
      </trkpt>
      <trkpt lat="39.426934" lon="-5.753649">
        <ele>589.425537</ele>
        <time>2010-05-21T07:56:01Z</time>
      </trkpt>
      <trkpt lat="39.427186" lon="-5.753636">
        <ele>587.502686</ele>
        <time>2010-05-21T07:56:02Z</time>
      </trkpt>
      <trkpt lat="39.427257" lon="-5.753523">
        <ele>586.541504</ele>
        <time>2010-05-21T07:56:03Z</time>
      </trkpt>
      <trkpt lat="39.427338" lon="-5.753137">
        <ele>591.830139</ele>
        <time>2010-05-21T07:56:04Z</time>
      </trkpt>
      <trkpt lat="39.427359" lon="-5.752830">
        <ele>590.397583</ele>
        <time>2010-05-21T07:56:05Z</time>
      </trkpt>
      <trkpt lat="39.427322" lon="-5.752480">
        <ele>589.422241</ele>
        <time>2010-05-21T07:56:06Z</time>
      </trkpt>
      <trkpt lat="39.427359" lon="-5.752408">
        <ele>591.342468</ele>
        <time>2010-05-21T07:56:07Z</time>
      </trkpt>
      <trkpt lat="39.427381" lon="-5.752299">
        <ele>590.854797</ele>
        <time>2010-05-21T07:56:08Z</time>
      </trkpt>
      <trkpt lat="39.427491" lon="-5.752176">
        <ele>589.909912</ele>
        <time>2010-05-21T07:56:09Z</time>
      </trkpt>
      <trkpt lat="39.427433" lon="-5.752200">
        <ele>587.502014</ele>
        <time>2010-05-21T07:56:10Z</time>
      </trkpt>
      <trkpt lat="39.427485" lon="-5.752194">
        <ele>581.253601</ele>
        <time>2010-05-21T07:56:11Z</time>
      </trkpt>
      <trkpt lat="39.427538" lon="-5.752104">
        <ele>579.333374</ele>
        <time>2010-05-21T07:56:12Z</time>
      </trkpt>
      <trkpt lat="39.427595" lon="-5.752074">
        <ele>578.845642</ele>
        <time>2010-05-21T07:56:13Z</time>
      </trkpt>
      <trkpt lat="39.427522" lon="-5.752062">
        <ele>578.845642</ele>
        <time>2010-05-21T07:56:14Z</time>
      </trkpt>
      <trkpt lat="39.427728" lon="-5.751689">
        <ele>579.333374</ele>
        <time>2010-05-21T07:56:15Z</time>
      </trkpt>
      <trkpt lat="39.427740" lon="-5.751612">
        <ele>580.278259</ele>
        <time>2010-05-21T07:56:16Z</time>
      </trkpt>
      <trkpt lat="39.427788" lon="-5.751517">
        <ele>581.741272</ele>
        <time>2010-05-21T07:56:17Z</time>
      </trkpt>
      <trkpt lat="39.427806" lon="-5.751424">
        <ele>582.228943</ele>
        <time>2010-05-21T07:56:18Z</time>
      </trkpt>
      <trkpt lat="39.427785" lon="-5.751390">
        <ele>582.686157</ele>
        <time>2010-05-21T07:56:19Z</time>
      </trkpt>
      <trkpt lat="39.427828" lon="-5.751273">
        <ele>579.333374</ele>
        <time>2010-05-21T07:56:20Z</time>
      </trkpt>
      <trkpt lat="39.428136" lon="-5.751315">
        <ele>582.228943</ele>
        <time>2010-05-21T07:56:21Z</time>
      </trkpt>
      <trkpt lat="39.428187" lon="-5.751299">
        <ele>584.606384</ele>
        <time>2010-05-21T07:56:22Z</time>
      </trkpt>
      <trkpt lat="39.428346" lon="-5.750889">
        <ele>589.909912</ele>
        <time>2010-05-21T07:56:23Z</time>
      </trkpt>
      <trkpt lat="39.428366" lon="-5.750651">
        <ele>596.158325</ele>
        <time>2010-05-21T07:56:24Z</time>
      </trkpt>
      <trkpt lat="39.428285" lon="-5.749936">
        <ele>597.103210</ele>
        <time>2010-05-21T07:56:25Z</time>
      </trkpt>
      <trkpt lat="39.428279" lon="-5.749426">
        <ele>599.023438</ele>
        <time>2010-05-21T07:56:26Z</time>
      </trkpt>
      <trkpt lat="39.428039" lon="-5.748642">
        <ele>602.406738</ele>
        <time>2010-05-21T07:56:27Z</time>
      </trkpt>
      <trkpt lat="39.427983" lon="-5.748380">
        <ele>602.406738</ele>
        <time>2010-05-21T07:56:28Z</time>
      </trkpt>
      <trkpt lat="39.427883" lon="-5.748190">
        <ele>603.351624</ele>
        <time>2010-05-21T07:56:29Z</time>
      </trkpt>
      <trkpt lat="39.427774" lon="-5.748048">
        <ele>604.814636</ele>
        <time>2010-05-21T07:56:30Z</time>
      </trkpt>
      <trkpt lat="39.427769" lon="-5.748003">
        <ele>604.814636</ele>
        <time>2010-05-21T07:56:31Z</time>
      </trkpt>
      <trkpt lat="39.427707" lon="-5.747946">
        <ele>613.470947</ele>
        <time>2010-05-21T07:56:32Z</time>
      </trkpt>
      <trkpt lat="39.427681" lon="-5.747860">
        <ele>618.256348</ele>
        <time>2010-05-21T07:56:33Z</time>
      </trkpt>
      <trkpt lat="39.427610" lon="-5.747771">
        <ele>623.072144</ele>
        <time>2010-05-21T07:56:34Z</time>
      </trkpt>
      <trkpt lat="39.427571" lon="-5.747041">
        <ele>624.047546</ele>
        <time>2010-05-21T07:56:35Z</time>
      </trkpt>
      <trkpt lat="39.427488" lon="-5.746759">
        <ele>624.504700</ele>
        <time>2010-05-21T07:56:36Z</time>
      </trkpt>
      <trkpt lat="39.427219" lon="-5.746422">
        <ele>629.320557</ele>
        <time>2010-05-21T07:56:37Z</time>
      </trkpt>
      <trkpt lat="39.427049" lon="-5.746261">
        <ele>637.489197</ele>
        <time>2010-05-21T07:56:38Z</time>
      </trkpt>
      <trkpt lat="39.427065" lon="-5.746074">
        <ele>646.145508</ele>
        <time>2010-05-21T07:56:39Z</time>
      </trkpt>
      <trkpt lat="39.427122" lon="-5.745828">
        <ele>643.737610</ele>
        <time>2010-05-21T07:56:40Z</time>
      </trkpt>
      <trkpt lat="39.427247" lon="-5.744928">
        <ele>642.792664</ele>
        <time>2010-05-21T07:56:41Z</time>
      </trkpt>
      <trkpt lat="39.427496" lon="-5.744124">
        <ele>641.817322</ele>
        <time>2010-05-21T07:56:42Z</time>
      </trkpt>
      <trkpt lat="39.427615" lon="-5.743803">
        <ele>642.792664</ele>
        <time>2010-05-21T07:56:43Z</time>
      </trkpt>
      <trkpt lat="39.427647" lon="-5.743645">
        <ele>644.225281</ele>
        <time>2010-05-21T07:56:44Z</time>
      </trkpt>
      <trkpt lat="39.427615" lon="-5.743284">
        <ele>647.578125</ele>
        <time>2010-05-21T07:56:45Z</time>
      </trkpt>
      <trkpt lat="39.427646" lon="-5.743274">
        <ele>652.393860</ele>
        <time>2010-05-21T07:56:46Z</time>
      </trkpt>
      <trkpt lat="39.427622" lon="-5.743236">
        <ele>653.338806</ele>
        <time>2010-05-21T07:56:47Z</time>
      </trkpt>
      <trkpt lat="39.427644" lon="-5.743095">
        <ele>655.289490</ele>
        <time>2010-05-21T07:56:48Z</time>
      </trkpt>
      <trkpt lat="39.427775" lon="-5.742831">
        <ele>658.154663</ele>
        <time>2010-05-21T07:56:49Z</time>
      </trkpt>
      <trkpt lat="39.427981" lon="-5.742681">
        <ele>668.731201</ele>
        <time>2010-05-21T07:56:50Z</time>
      </trkpt>
      <trkpt lat="39.428040" lon="-5.742584">
        <ele>673.547058</ele>
        <time>2010-05-21T07:56:51Z</time>
      </trkpt>
      <trkpt lat="39.428239" lon="-5.742345">
        <ele>676.899841</ele>
        <time>2010-05-21T07:56:52Z</time>
      </trkpt>
      <trkpt lat="39.428553" lon="-5.741793">
        <ele>677.387512</ele>
        <time>2010-05-21T07:56:53Z</time>
      </trkpt>
      <trkpt lat="39.428869" lon="-5.741426">
        <ele>680.283081</ele>
        <time>2010-05-21T07:56:54Z</time>
      </trkpt>
      <trkpt lat="39.429008" lon="-5.741133">
        <ele>683.635864</ele>
        <time>2010-05-21T07:56:55Z</time>
      </trkpt>
      <trkpt lat="39.429098" lon="-5.740996">
        <ele>689.884277</ele>
        <time>2010-05-21T07:56:56Z</time>
      </trkpt>
      <trkpt lat="39.429234" lon="-5.740694">
        <ele>690.372009</ele>
        <time>2010-05-21T07:56:57Z</time>
      </trkpt>
      <trkpt lat="39.429372" lon="-5.740467">
        <ele>692.292236</ele>
        <time>2010-05-21T07:56:58Z</time>
      </trkpt>
      <trkpt lat="39.429690" lon="-5.740158">
        <ele>692.292236</ele>
        <time>2010-05-21T07:56:59Z</time>
      </trkpt>
      <trkpt lat="39.429779" lon="-5.740002">
        <ele>695.645081</ele>
        <time>2010-05-21T07:57:00Z</time>
      </trkpt>
      <trkpt lat="39.429778" lon="-5.740018">
        <ele>701.405762</ele>
        <time>2010-05-21T07:57:01Z</time>
      </trkpt>
      <trkpt lat="39.429807" lon="-5.739993">
        <ele>704.301331</ele>
        <time>2010-05-21T07:57:02Z</time>
      </trkpt>
      <trkpt lat="39.429933" lon="-5.739792">
        <ele>706.221619</ele>
        <time>2010-05-21T07:57:03Z</time>
      </trkpt>
      <trkpt lat="39.430061" lon="-5.739676">
        <ele>709.604919</ele>
        <time>2010-05-21T07:57:04Z</time>
      </trkpt>
      <trkpt lat="39.430230" lon="-5.739348">
        <ele>713.902527</ele>
        <time>2010-05-21T07:57:05Z</time>
      </trkpt>
      <trkpt lat="39.430369" lon="-5.739154">
        <ele>714.877869</ele>
        <time>2010-05-21T07:57:06Z</time>
      </trkpt>
      <trkpt lat="39.430641" lon="-5.739193">
        <ele>715.365601</ele>
        <time>2010-05-21T07:57:07Z</time>
      </trkpt>
      <trkpt lat="39.430855" lon="-5.739125">
        <ele>718.230713</ele>
        <time>2010-05-21T07:57:08Z</time>
      </trkpt>
      <trkpt lat="39.430947" lon="-5.739053">
        <ele>719.206116</ele>
        <time>2010-05-21T07:57:09Z</time>
      </trkpt>
      <trkpt lat="39.431053" lon="-5.739007">
        <ele>721.126282</ele>
        <time>2010-05-21T07:57:10Z</time>
      </trkpt>
      <trkpt lat="39.431316" lon="-5.738833">
        <ele>720.150940</ele>
        <time>2010-05-21T07:57:11Z</time>
      </trkpt>
      <trkpt lat="39.431382" lon="-5.738737">
        <ele>719.206116</ele>
        <time>2010-05-21T07:57:12Z</time>
      </trkpt>
      <trkpt lat="39.431432" lon="-5.738629">
        <ele>718.718384</ele>
        <time>2010-05-21T07:57:13Z</time>
      </trkpt>
      <trkpt lat="39.431507" lon="-5.738638">
        <ele>717.773499</ele>
        <time>2010-05-21T07:57:14Z</time>
      </trkpt>
      <trkpt lat="39.431493" lon="-5.738582">
        <ele>723.046570</ele>
        <time>2010-05-21T07:57:15Z</time>
      </trkpt>
      <trkpt lat="39.431522" lon="-5.738466">
        <ele>726.887085</ele>
        <time>2010-05-21T07:57:16Z</time>
      </trkpt>
      <trkpt lat="39.431691" lon="-5.738011">
        <ele>727.374695</ele>
        <time>2010-05-21T07:57:17Z</time>
      </trkpt>
      <trkpt lat="39.432012" lon="-5.736528">
        <ele>726.399353</ele>
        <time>2010-05-21T07:57:18Z</time>
      </trkpt>
      <trkpt lat="39.432141" lon="-5.736210">
        <ele>727.374695</ele>
        <time>2010-05-21T07:57:19Z</time>
      </trkpt>
      <trkpt lat="39.432150" lon="-5.736120">
        <ele>728.350098</ele>
        <time>2010-05-21T07:57:20Z</time>
      </trkpt>
      <trkpt lat="39.432187" lon="-5.736144">
        <ele>726.887085</ele>
        <time>2010-05-21T07:57:21Z</time>
      </trkpt>
      <trkpt lat="39.432184" lon="-5.736029">
        <ele>727.374695</ele>
        <time>2010-05-21T07:57:22Z</time>
      </trkpt>
      <trkpt lat="39.432239" lon="-5.735997">
        <ele>727.862427</ele>
        <time>2010-05-21T07:57:23Z</time>
      </trkpt>
      <trkpt lat="39.432215" lon="-5.735965">
        <ele>727.374695</ele>
        <time>2010-05-21T07:57:24Z</time>
      </trkpt>
      <trkpt lat="39.432142" lon="-5.735986">
        <ele>725.942139</ele>
        <time>2010-05-21T07:57:25Z</time>
      </trkpt>
      <trkpt lat="39.432178" lon="-5.735984">
        <ele>722.558899</ele>
        <time>2010-05-21T07:57:26Z</time>
      </trkpt>
      <trkpt lat="39.432223" lon="-5.735921">
        <ele>725.454529</ele>
        <time>2010-05-21T07:57:27Z</time>
      </trkpt>
      <trkpt lat="39.432389" lon="-5.735524">
        <ele>729.782654</ele>
        <time>2010-05-21T07:57:28Z</time>
      </trkpt>
      <trkpt lat="39.432748" lon="-5.734853">
        <ele>731.702881</ele>
        <time>2010-05-21T07:57:29Z</time>
      </trkpt>
      <trkpt lat="39.432878" lon="-5.734490">
        <ele>733.623108</ele>
        <time>2010-05-21T07:57:30Z</time>
      </trkpt>
      <trkpt lat="39.432988" lon="-5.734313">
        <ele>733.623108</ele>
        <time>2010-05-21T07:57:31Z</time>
      </trkpt>
      <trkpt lat="39.433088" lon="-5.734192">
        <ele>732.647766</ele>
        <time>2010-05-21T07:57:32Z</time>
      </trkpt>
      <trkpt lat="39.433137" lon="-5.734195">
        <ele>733.623108</ele>
        <time>2010-05-21T07:57:33Z</time>
      </trkpt>
      <trkpt lat="39.433169" lon="-5.734233">
        <ele>733.135437</ele>
        <time>2010-05-21T07:57:34Z</time>
      </trkpt>
      <trkpt lat="39.433217" lon="-5.734206">
        <ele>733.623108</ele>
        <time>2010-05-21T07:57:35Z</time>
      </trkpt>
      <trkpt lat="39.433254" lon="-5.734150">
        <ele>735.543335</ele>
        <time>2010-05-21T07:57:36Z</time>
      </trkpt>
      <trkpt lat="39.433319" lon="-5.734125">
        <ele>736.031067</ele>
        <time>2010-05-21T07:57:37Z</time>
      </trkpt>
      <trkpt lat="39.433313" lon="-5.734074">
        <ele>739.871460</ele>
        <time>2010-05-21T07:57:38Z</time>
      </trkpt>
      <trkpt lat="39.433355" lon="-5.734046">
        <ele>739.871460</ele>
        <time>2010-05-21T07:57:39Z</time>
      </trkpt>
      <trkpt lat="39.433391" lon="-5.733969">
        <ele>742.767090</ele>
        <time>2010-05-21T07:57:40Z</time>
      </trkpt>
      <trkpt lat="39.433689" lon="-5.733632">
        <ele>745.144531</ele>
        <time>2010-05-21T07:57:41Z</time>
      </trkpt>
      <trkpt lat="39.433784" lon="-5.733475">
        <ele>744.199707</ele>
        <time>2010-05-21T07:57:42Z</time>
      </trkpt>
      <trkpt lat="39.433845" lon="-5.733258">
        <ele>748.527832</ele>
        <time>2010-05-21T07:57:43Z</time>
      </trkpt>
      <trkpt lat="39.433974" lon="-5.733026">
        <ele>751.392944</ele>
        <time>2010-05-21T07:57:44Z</time>
      </trkpt>
      <trkpt lat="39.434004" lon="-5.732914">
        <ele>752.368286</ele>
        <time>2010-05-21T07:57:45Z</time>
      </trkpt>
      <trkpt lat="39.434269" lon="-5.732479">
        <ele>753.800903</ele>
        <time>2010-05-21T07:57:46Z</time>
      </trkpt>
      <trkpt lat="39.434559" lon="-5.732109">
        <ele>752.856018</ele>
        <time>2010-05-21T07:57:47Z</time>
      </trkpt>
      <trkpt lat="39.434650" lon="-5.732040">
        <ele>753.800903</ele>
        <time>2010-05-21T07:57:48Z</time>
      </trkpt>
      <trkpt lat="39.434865" lon="-5.731925">
        <ele>753.800903</ele>
        <time>2010-05-21T07:57:49Z</time>
      </trkpt>
      <trkpt lat="39.434942" lon="-5.731786">
        <ele>753.343689</ele>
        <time>2010-05-21T07:57:50Z</time>
      </trkpt>
      <trkpt lat="39.434858" lon="-5.731954">
        <ele>754.776245</ele>
        <time>2010-05-21T07:57:51Z</time>
      </trkpt>
      <trkpt lat="39.434858" lon="-5.731906">
        <ele>752.368286</ele>
        <time>2010-05-21T07:57:52Z</time>
      </trkpt>
      <trkpt lat="39.434832" lon="-5.731909">
        <ele>750.935730</ele>
        <time>2010-05-21T07:57:53Z</time>
      </trkpt>
      <trkpt lat="39.434959" lon="-5.731751">
        <ele>751.880676</ele>
        <time>2010-05-21T07:57:54Z</time>
      </trkpt>
      <trkpt lat="39.435042" lon="-5.731589">
        <ele>752.368286</ele>
        <time>2010-05-21T07:57:55Z</time>
      </trkpt>
      <trkpt lat="39.435048" lon="-5.731542">
        <ele>753.800903</ele>
        <time>2010-05-21T07:57:56Z</time>
      </trkpt>
      <trkpt lat="39.435063" lon="-5.731570">
        <ele>756.208801</ele>
        <time>2010-05-21T07:57:57Z</time>
      </trkpt>
      <trkpt lat="39.435092" lon="-5.731460">
        <ele>757.641357</ele>
        <time>2010-05-21T07:57:58Z</time>
      </trkpt>
      <trkpt lat="39.435089" lon="-5.731391">
        <ele>762.457214</ele>
        <time>2010-05-21T07:57:59Z</time>
      </trkpt>
      <trkpt lat="39.435382" lon="-5.731158">
        <ele>766.297729</ele>
        <time>2010-05-21T07:58:00Z</time>
      </trkpt>
      <trkpt lat="39.435499" lon="-5.731029">
        <ele>768.217896</ele>
        <time>2010-05-21T07:58:01Z</time>
      </trkpt>
      <trkpt lat="39.435912" lon="-5.730128">
        <ele>770.138123</ele>
        <time>2010-05-21T07:58:02Z</time>
      </trkpt>
      <trkpt lat="39.436230" lon="-5.729575">
        <ele>769.680969</ele>
        <time>2010-05-21T07:58:03Z</time>
      </trkpt>
      <trkpt lat="39.436375" lon="-5.729233">
        <ele>773.033752</ele>
        <time>2010-05-21T07:58:04Z</time>
      </trkpt>
      <trkpt lat="39.436400" lon="-5.729131">
        <ele>778.794495</ele>
        <time>2010-05-21T07:58:05Z</time>
      </trkpt>
      <trkpt lat="39.436575" lon="-5.728705">
        <ele>780.257507</ele>
        <time>2010-05-21T07:58:06Z</time>
      </trkpt>
      <trkpt lat="39.436819" lon="-5.728030">
        <ele>780.257507</ele>
        <time>2010-05-21T07:58:07Z</time>
      </trkpt>
      <trkpt lat="39.437023" lon="-5.727527">
        <ele>779.769836</ele>
        <time>2010-05-21T07:58:08Z</time>
      </trkpt>
      <trkpt lat="39.437157" lon="-5.727279">
        <ele>780.714661</ele>
        <time>2010-05-21T07:58:09Z</time>
      </trkpt>
      <trkpt lat="39.437149" lon="-5.727258">
        <ele>782.177734</ele>
        <time>2010-05-21T07:58:10Z</time>
      </trkpt>
      <trkpt lat="39.437160" lon="-5.727227">
        <ele>781.202393</ele>
        <time>2010-05-21T07:58:11Z</time>
      </trkpt>
      <trkpt lat="39.437171" lon="-5.727164">
        <ele>779.769836</ele>
        <time>2010-05-21T07:58:12Z</time>
      </trkpt>
      <trkpt lat="39.437199" lon="-5.727095">
        <ele>782.177734</ele>
        <time>2010-05-21T07:58:13Z</time>
      </trkpt>
      <trkpt lat="39.437232" lon="-5.727026">
        <ele>782.665466</ele>
        <time>2010-05-21T07:58:14Z</time>
      </trkpt>
      <trkpt lat="39.437374" lon="-5.726479">
        <ele>784.585693</ele>
        <time>2010-05-21T07:58:15Z</time>
      </trkpt>
      <trkpt lat="39.437581" lon="-5.725970">
        <ele>784.098022</ele>
        <time>2010-05-21T07:58:16Z</time>
      </trkpt>
      <trkpt lat="39.437681" lon="-5.725766">
        <ele>789.371033</ele>
        <time>2010-05-21T07:58:17Z</time>
      </trkpt>
      <trkpt lat="39.437815" lon="-5.725401">
        <ele>786.963074</ele>
        <time>2010-05-21T07:58:18Z</time>
      </trkpt>
      <trkpt lat="39.438119" lon="-5.724253">
        <ele>788.913879</ele>
        <time>2010-05-21T07:58:19Z</time>
      </trkpt>
      <trkpt lat="39.438375" lon="-5.723464">
        <ele>789.858704</ele>
        <time>2010-05-21T07:58:20Z</time>
      </trkpt>
      <trkpt lat="39.438400" lon="-5.723343">
        <ele>791.778931</ele>
        <time>2010-05-21T07:58:21Z</time>
      </trkpt>
      <trkpt lat="39.438409" lon="-5.723229">
        <ele>791.778931</ele>
        <time>2010-05-21T07:58:22Z</time>
      </trkpt>
      <trkpt lat="39.438395" lon="-5.723217">
        <ele>790.346375</ele>
        <time>2010-05-21T07:58:23Z</time>
      </trkpt>
      <trkpt lat="39.438402" lon="-5.722868">
        <ele>790.834106</ele>
        <time>2010-05-21T07:58:24Z</time>
      </trkpt>
      <trkpt lat="39.438342" lon="-5.722487">
        <ele>790.346375</ele>
        <time>2010-05-21T07:58:25Z</time>
      </trkpt>
      <trkpt lat="39.438304" lon="-5.721866">
        <ele>789.371033</ele>
        <time>2010-05-21T07:58:26Z</time>
      </trkpt>
      <trkpt lat="39.438436" lon="-5.720843">
        <ele>793.699219</ele>
        <time>2010-05-21T07:58:27Z</time>
      </trkpt>
      <trkpt lat="39.438441" lon="-5.720634">
        <ele>796.107117</ele>
        <time>2010-05-21T07:58:28Z</time>
      </trkpt>
      <trkpt lat="39.438410" lon="-5.720449">
        <ele>796.594788</ele>
        <time>2010-05-21T07:58:29Z</time>
      </trkpt>
      <trkpt lat="39.438018" lon="-5.719450">
        <ele>801.319214</ele>
        <time>2010-05-21T07:58:30Z</time>
      </trkpt>
      <trkpt lat="39.437830" lon="-5.718830">
        <ele>801.014404</ele>
        <time>2010-05-21T07:58:31Z</time>
      </trkpt>
      <trkpt lat="39.437809" lon="-5.718385">
        <ele>803.757629</ele>
        <time>2010-05-21T07:58:32Z</time>
      </trkpt>
      <trkpt lat="39.437820" lon="-5.718400">
        <ele>803.757629</ele>
        <time>2010-05-21T07:58:33Z</time>
      </trkpt>
      <trkpt lat="39.437870" lon="-5.718030">
        <ele>805.281616</ele>
        <time>2010-05-21T07:58:34Z</time>
      </trkpt>
      <trkpt lat="39.437830" lon="-5.717230">
        <ele>805.281616</ele>
        <time>2010-05-21T07:58:35Z</time>
      </trkpt>
      <trkpt lat="39.437820" lon="-5.717150">
        <ele>804.671997</ele>
        <time>2010-05-21T07:58:36Z</time>
      </trkpt>
      <trkpt lat="39.437770" lon="-5.716840">
        <ele>806.195984</ele>
        <time>2010-05-21T07:58:37Z</time>
      </trkpt>
      <trkpt lat="39.437800" lon="-5.716090">
        <ele>806.805603</ele>
        <time>2010-05-21T07:58:38Z</time>
      </trkpt>
      <trkpt lat="39.437870" lon="-5.715430">
        <ele>807.719971</ele>
        <time>2010-05-21T07:58:39Z</time>
      </trkpt>
      <trkpt lat="39.438000" lon="-5.714910">
        <ele>808.634399</ele>
        <time>2010-05-21T07:58:40Z</time>
      </trkpt>
      <trkpt lat="39.438140" lon="-5.714540">
        <ele>808.634399</ele>
        <time>2010-05-21T07:58:41Z</time>
      </trkpt>
      <trkpt lat="39.438190" lon="-5.714400">
        <ele>808.634399</ele>
        <time>2010-05-21T07:58:42Z</time>
      </trkpt>
      <trkpt lat="39.438240" lon="-5.713890">
        <ele>807.110413</ele>
        <time>2010-05-21T07:58:43Z</time>
      </trkpt>
      <trkpt lat="39.438270" lon="-5.713720">
        <ele>804.671997</ele>
        <time>2010-05-21T07:58:44Z</time>
      </trkpt>
      <trkpt lat="39.438230" lon="-5.713400">
        <ele>802.843201</ele>
        <time>2010-05-21T07:58:45Z</time>
      </trkpt>
      <trkpt lat="39.438100" lon="-5.713000">
        <ele>797.661621</ele>
        <time>2010-05-21T07:58:46Z</time>
      </trkpt>
      <trkpt lat="39.438230" lon="-5.712530">
        <ele>796.442383</ele>
        <time>2010-05-21T07:58:47Z</time>
      </trkpt>
      <trkpt lat="39.438530" lon="-5.712060">
        <ele>790.955994</ele>
        <time>2010-05-21T07:58:48Z</time>
      </trkpt>
      <trkpt lat="39.438990" lon="-5.711380">
        <ele>788.822388</ele>
        <time>2010-05-21T07:58:49Z</time>
      </trkpt>
      <trkpt lat="39.439080" lon="-5.711250">
        <ele>785.469604</ele>
        <time>2010-05-21T07:58:50Z</time>
      </trkpt>
      <trkpt lat="39.439470" lon="-5.710910">
        <ele>783.640808</ele>
        <time>2010-05-21T07:58:51Z</time>
      </trkpt>
      <trkpt lat="39.439570" lon="-5.710800">
        <ele>780.592773</ele>
        <time>2010-05-21T07:58:52Z</time>
      </trkpt>
      <trkpt lat="39.439820" lon="-5.710390">
        <ele>778.763977</ele>
        <time>2010-05-21T07:58:53Z</time>
      </trkpt>
      <trkpt lat="39.439960" lon="-5.710180">
        <ele>777.849609</ele>
        <time>2010-05-21T07:58:54Z</time>
      </trkpt>
      <trkpt lat="39.440260" lon="-5.709640">
        <ele>779.678406</ele>
        <time>2010-05-21T07:58:55Z</time>
      </trkpt>
      <trkpt lat="39.440440" lon="-5.709070">
        <ele>781.812012</ele>
        <time>2010-05-21T07:58:56Z</time>
      </trkpt>
      <trkpt lat="39.440530" lon="-5.707950">
        <ele>780.592773</ele>
        <time>2010-05-21T07:58:57Z</time>
      </trkpt>
      <trkpt lat="39.440510" lon="-5.707750">
        <ele>781.202393</ele>
        <time>2010-05-21T07:58:58Z</time>
      </trkpt>
      <trkpt lat="39.440390" lon="-5.706850">
        <ele>780.288025</ele>
        <time>2010-05-21T07:58:59Z</time>
      </trkpt>
      <trkpt lat="39.440410" lon="-5.706360">
        <ele>780.592773</ele>
        <time>2010-05-21T07:59:00Z</time>
      </trkpt>
      <trkpt lat="39.440460" lon="-5.706210">
        <ele>779.678406</ele>
        <time>2010-05-21T07:59:01Z</time>
      </trkpt>
      <trkpt lat="39.440540" lon="-5.705760">
        <ele>779.373596</ele>
        <time>2010-05-21T07:59:02Z</time>
      </trkpt>
      <trkpt lat="39.440530" lon="-5.705490">
        <ele>778.459229</ele>
        <time>2010-05-21T07:59:03Z</time>
      </trkpt>
      <trkpt lat="39.440420" lon="-5.705160">
        <ele>776.020813</ele>
        <time>2010-05-21T07:59:04Z</time>
      </trkpt>
      <trkpt lat="39.440300" lon="-5.705040">
        <ele>775.106384</ele>
        <time>2010-05-21T07:59:05Z</time>
      </trkpt>
      <trkpt lat="39.440010" lon="-5.704900">
        <ele>772.668030</ele>
        <time>2010-05-21T07:59:06Z</time>
      </trkpt>
      <trkpt lat="39.440060" lon="-5.704540">
        <ele>770.534424</ele>
        <time>2010-05-21T07:59:07Z</time>
      </trkpt>
      <trkpt lat="39.440160" lon="-5.704420">
        <ele>768.705627</ele>
        <time>2010-05-21T07:59:08Z</time>
      </trkpt>
      <trkpt lat="39.440360" lon="-5.704070">
        <ele>767.791199</ele>
        <time>2010-05-21T07:59:09Z</time>
      </trkpt>
      <trkpt lat="39.440390" lon="-5.703930">
        <ele>769.315186</ele>
        <time>2010-05-21T07:59:10Z</time>
      </trkpt>
      <trkpt lat="39.440410" lon="-5.703710">
        <ele>770.534424</ele>
        <time>2010-05-21T07:59:11Z</time>
      </trkpt>
      <trkpt lat="39.440500" lon="-5.703420">
        <ele>772.058411</ele>
        <time>2010-05-21T07:59:12Z</time>
      </trkpt>
      <trkpt lat="39.440680" lon="-5.702410">
        <ele>773.887207</ele>
        <time>2010-05-21T07:59:13Z</time>
      </trkpt>
      <trkpt lat="39.440740" lon="-5.702230">
        <ele>777.239990</ele>
        <time>2010-05-21T07:59:14Z</time>
      </trkpt>
      <trkpt lat="39.440840" lon="-5.701610">
        <ele>778.763977</ele>
        <time>2010-05-21T07:59:15Z</time>
      </trkpt>
      <trkpt lat="39.440980" lon="-5.701260">
        <ele>782.116821</ele>
        <time>2010-05-21T07:59:16Z</time>
      </trkpt>
      <trkpt lat="39.441130" lon="-5.700590">
        <ele>784.555176</ele>
        <time>2010-05-21T07:59:17Z</time>
      </trkpt>
      <trkpt lat="39.441070" lon="-5.700120">
        <ele>787.603210</ele>
        <time>2010-05-21T07:59:18Z</time>
      </trkpt>
      <trkpt lat="39.440970" lon="-5.699870">
        <ele>788.822388</ele>
        <time>2010-05-21T07:59:19Z</time>
      </trkpt>
      <trkpt lat="39.440800" lon="-5.699660">
        <ele>792.175171</ele>
        <time>2010-05-21T07:59:20Z</time>
      </trkpt>
      <trkpt lat="39.440650" lon="-5.699470">
        <ele>794.613586</ele>
        <time>2010-05-21T07:59:21Z</time>
      </trkpt>
      <trkpt lat="39.440520" lon="-5.699230">
        <ele>794.613586</ele>
        <time>2010-05-21T07:59:22Z</time>
      </trkpt>
      <trkpt lat="39.440490" lon="-5.699050">
        <ele>796.137573</ele>
        <time>2010-05-21T07:59:23Z</time>
      </trkpt>
      <trkpt lat="39.440630" lon="-5.698680">
        <ele>799.490417</ele>
        <time>2010-05-21T07:59:24Z</time>
      </trkpt>
      <trkpt lat="39.440740" lon="-5.698340">
        <ele>801.014404</ele>
        <time>2010-05-21T07:59:25Z</time>
      </trkpt>
      <trkpt lat="39.440710" lon="-5.697950">
        <ele>802.233582</ele>
        <time>2010-05-21T07:59:26Z</time>
      </trkpt>
      <trkpt lat="39.440690" lon="-5.697170">
        <ele>801.014404</ele>
        <time>2010-05-21T07:59:27Z</time>
      </trkpt>
      <trkpt lat="39.440650" lon="-5.696900">
        <ele>802.843201</ele>
        <time>2010-05-21T07:59:28Z</time>
      </trkpt>
      <trkpt lat="39.440600" lon="-5.696330">
        <ele>811.377625</ele>
        <time>2010-05-21T07:59:29Z</time>
      </trkpt>
      <trkpt lat="39.440600" lon="-5.696380">
        <ele>812.596802</ele>
        <time>2010-05-21T07:59:30Z</time>
      </trkpt>
      <trkpt lat="39.440600" lon="-5.696080">
        <ele>815.949585</ele>
        <time>2010-05-21T07:59:31Z</time>
      </trkpt>
      <trkpt lat="39.440650" lon="-5.694990">
        <ele>817.168823</ele>
        <time>2010-05-21T07:59:32Z</time>
      </trkpt>
      <trkpt lat="39.440770" lon="-5.694670">
        <ele>816.864014</ele>
        <time>2010-05-21T07:59:33Z</time>
      </trkpt>
      <trkpt lat="39.441130" lon="-5.693990">
        <ele>808.024780</ele>
        <time>2010-05-21T07:59:34Z</time>
      </trkpt>
      <trkpt lat="39.441450" lon="-5.692710">
        <ele>794.308777</ele>
        <time>2010-05-21T07:59:35Z</time>
      </trkpt>
      <trkpt lat="39.441470" lon="-5.692460">
        <ele>788.517578</ele>
        <time>2010-05-21T07:59:36Z</time>
      </trkpt>
      <trkpt lat="39.441410" lon="-5.692020">
        <ele>787.603210</ele>
        <time>2010-05-21T07:59:37Z</time>
      </trkpt>
      <trkpt lat="39.441430" lon="-5.691460">
        <ele>788.822388</ele>
        <time>2010-05-21T07:59:38Z</time>
      </trkpt>
      <trkpt lat="39.441520" lon="-5.690680">
        <ele>788.517578</ele>
        <time>2010-05-21T07:59:39Z</time>
      </trkpt>
      <trkpt lat="39.441530" lon="-5.690470">
        <ele>789.432007</ele>
        <time>2010-05-21T07:59:40Z</time>
      </trkpt>
      <trkpt lat="39.441490" lon="-5.690310">
        <ele>787.908020</ele>
        <time>2010-05-21T07:59:41Z</time>
      </trkpt>
      <trkpt lat="39.441500" lon="-5.690290">
        <ele>786.383972</ele>
        <time>2010-05-21T07:59:42Z</time>
      </trkpt>
      <trkpt lat="39.441420" lon="-5.690180">
        <ele>783.031189</ele>
        <time>2010-05-21T07:59:43Z</time>
      </trkpt>
      <trkpt lat="39.441420" lon="-5.690180">
        <ele>780.288025</ele>
        <time>2010-05-21T07:59:44Z</time>
      </trkpt>
      <trkpt lat="39.441260" lon="-5.689850">
        <ele>772.668030</ele>
        <time>2010-05-21T07:59:45Z</time>
      </trkpt>
      <trkpt lat="39.440850" lon="-5.689440">
        <ele>768.096008</ele>
        <time>2010-05-21T07:59:46Z</time>
      </trkpt>
      <trkpt lat="39.440580" lon="-5.689100">
        <ele>761.085571</ele>
        <time>2010-05-21T07:59:47Z</time>
      </trkpt>
      <trkpt lat="39.440320" lon="-5.688750">
        <ele>762.000000</ele>
        <time>2010-05-21T07:59:48Z</time>
      </trkpt>
      <trkpt lat="39.440220" lon="-5.688630">
        <ele>764.438416</ele>
        <time>2010-05-21T07:59:49Z</time>
      </trkpt>
      <trkpt lat="39.439990" lon="-5.688370">
        <ele>764.743225</ele>
        <time>2010-05-21T07:59:50Z</time>
      </trkpt>
      <trkpt lat="39.439880" lon="-5.688180">
        <ele>763.828796</ele>
        <time>2010-05-21T07:59:51Z</time>
      </trkpt>
      <trkpt lat="39.439770" lon="-5.688030">
        <ele>761.085571</ele>
        <time>2010-05-21T07:59:52Z</time>
      </trkpt>
      <trkpt lat="39.439600" lon="-5.687880">
        <ele>758.647217</ele>
        <time>2010-05-21T07:59:53Z</time>
      </trkpt>
      <trkpt lat="39.439400" lon="-5.687740">
        <ele>755.294373</ele>
        <time>2010-05-21T07:59:54Z</time>
      </trkpt>
      <trkpt lat="39.439200" lon="-5.687540">
        <ele>752.856018</ele>
        <time>2010-05-21T07:59:55Z</time>
      </trkpt>
      <trkpt lat="39.439010" lon="-5.687350">
        <ele>750.112793</ele>
        <time>2010-05-21T07:59:56Z</time>
      </trkpt>
      <trkpt lat="39.438960" lon="-5.687310">
        <ele>747.979187</ele>
        <time>2010-05-21T07:59:57Z</time>
      </trkpt>
      <trkpt lat="39.438830" lon="-5.687150">
        <ele>746.150391</ele>
        <time>2010-05-21T07:59:58Z</time>
      </trkpt>
      <trkpt lat="39.438700" lon="-5.687030">
        <ele>741.883179</ele>
        <time>2010-05-21T07:59:59Z</time>
      </trkpt>
      <trkpt lat="39.438620" lon="-5.686940">
        <ele>742.797607</ele>
        <time>2010-05-21T08:00:00Z</time>
      </trkpt>
      <trkpt lat="39.438400" lon="-5.686740">
        <ele>743.102417</ele>
        <time>2010-05-21T08:00:01Z</time>
      </trkpt>
      <trkpt lat="39.438120" lon="-5.686640">
        <ele>742.187988</ele>
        <time>2010-05-21T08:00:02Z</time>
      </trkpt>
      <trkpt lat="39.437790" lon="-5.686530">
        <ele>739.749573</ele>
        <time>2010-05-21T08:00:03Z</time>
      </trkpt>
      <trkpt lat="39.437380" lon="-5.686330">
        <ele>738.530396</ele>
        <time>2010-05-21T08:00:04Z</time>
      </trkpt>
      <trkpt lat="39.437030" lon="-5.686040">
        <ele>738.835205</ele>
        <time>2010-05-21T08:00:05Z</time>
      </trkpt>
      <trkpt lat="39.436930" lon="-5.685950">
        <ele>741.883179</ele>
        <time>2010-05-21T08:00:06Z</time>
      </trkpt>
      <trkpt lat="39.436870" lon="-5.685940">
        <ele>741.273621</ele>
        <time>2010-05-21T08:00:07Z</time>
      </trkpt>
      <trkpt lat="39.436700" lon="-5.685700">
        <ele>739.749573</ele>
        <time>2010-05-21T08:00:08Z</time>
      </trkpt>
      <trkpt lat="39.436570" lon="-5.685600">
        <ele>738.530396</ele>
        <time>2010-05-21T08:00:09Z</time>
      </trkpt>
      <trkpt lat="39.436410" lon="-5.685500">
        <ele>730.605591</ele>
        <time>2010-05-21T08:00:10Z</time>
      </trkpt>
      <trkpt lat="39.436290" lon="-5.685400">
        <ele>723.595215</ele>
        <time>2010-05-21T08:00:11Z</time>
      </trkpt>
      <trkpt lat="39.436060" lon="-5.685320">
        <ele>720.547180</ele>
        <time>2010-05-21T08:00:12Z</time>
      </trkpt>
      <trkpt lat="39.435730" lon="-5.685210">
        <ele>717.194397</ele>
        <time>2010-05-21T08:00:13Z</time>
      </trkpt>
      <trkpt lat="39.435330" lon="-5.684960">
        <ele>714.451172</ele>
        <time>2010-05-21T08:00:14Z</time>
      </trkpt>
      <trkpt lat="39.435080" lon="-5.684790">
        <ele>712.012817</ele>
        <time>2010-05-21T08:00:15Z</time>
      </trkpt>
      <trkpt lat="39.434820" lon="-5.684530">
        <ele>712.927185</ele>
        <time>2010-05-21T08:00:16Z</time>
      </trkpt>
      <trkpt lat="39.434510" lon="-5.684420">
        <ele>711.098389</ele>
        <time>2010-05-21T08:00:17Z</time>
      </trkpt>
      <trkpt lat="39.434340" lon="-5.684230">
        <ele>704.392822</ele>
        <time>2010-05-21T08:00:18Z</time>
      </trkpt>
      <trkpt lat="39.434110" lon="-5.684040">
        <ele>701.039978</ele>
        <time>2010-05-21T08:00:19Z</time>
      </trkpt>
      <trkpt lat="39.433950" lon="-5.683880">
        <ele>693.724792</ele>
        <time>2010-05-21T08:00:20Z</time>
      </trkpt>
      <trkpt lat="39.433570" lon="-5.683620">
        <ele>691.286377</ele>
        <time>2010-05-21T08:00:21Z</time>
      </trkpt>
      <trkpt lat="39.433270" lon="-5.683490">
        <ele>691.286377</ele>
        <time>2010-05-21T08:00:22Z</time>
      </trkpt>
      <trkpt lat="39.432850" lon="-5.683300">
        <ele>690.981628</ele>
        <time>2010-05-21T08:00:23Z</time>
      </trkpt>
      <trkpt lat="39.432530" lon="-5.683290">
        <ele>690.372009</ele>
        <time>2010-05-21T08:00:24Z</time>
      </trkpt>
      <trkpt lat="39.432520" lon="-5.683290">
        <ele>686.409607</ele>
        <time>2010-05-21T08:00:25Z</time>
      </trkpt>
      <trkpt lat="39.432320" lon="-5.683240">
        <ele>685.495178</ele>
        <time>2010-05-21T08:00:26Z</time>
      </trkpt>
      <trkpt lat="39.432200" lon="-5.683210">
        <ele>680.618408</ele>
        <time>2010-05-21T08:00:27Z</time>
      </trkpt>
      <trkpt lat="39.431800" lon="-5.683170">
        <ele>674.522400</ele>
        <time>2010-05-21T08:00:28Z</time>
      </trkpt>
      <trkpt lat="39.431720" lon="-5.683150">
        <ele>672.083984</ele>
        <time>2010-05-21T08:00:29Z</time>
      </trkpt>
      <trkpt lat="39.431270" lon="-5.682960">
        <ele>671.474426</ele>
        <time>2010-05-21T08:00:30Z</time>
      </trkpt>
      <trkpt lat="39.430790" lon="-5.682720">
        <ele>669.645630</ele>
        <time>2010-05-21T08:00:31Z</time>
      </trkpt>
      <trkpt lat="39.430620" lon="-5.682490">
        <ele>672.998413</ele>
        <time>2010-05-21T08:00:32Z</time>
      </trkpt>
      <trkpt lat="39.430550" lon="-5.682410">
        <ele>677.875183</ele>
        <time>2010-05-21T08:00:33Z</time>
      </trkpt>
      <trkpt lat="39.430220" lon="-5.682260">
        <ele>680.313599</ele>
        <time>2010-05-21T08:00:34Z</time>
      </trkpt>
      <trkpt lat="39.429810" lon="-5.682270">
        <ele>679.399170</ele>
        <time>2010-05-21T08:00:35Z</time>
      </trkpt>
      <trkpt lat="39.429440" lon="-5.682070">
        <ele>678.789612</ele>
        <time>2010-05-21T08:00:36Z</time>
      </trkpt>
      <trkpt lat="39.429050" lon="-5.681860">
        <ele>677.265625</ele>
        <time>2010-05-21T08:00:37Z</time>
      </trkpt>
      <trkpt lat="39.428670" lon="-5.681700">
        <ele>676.351196</ele>
        <time>2010-05-21T08:00:38Z</time>
      </trkpt>
      <trkpt lat="39.428270" lon="-5.681640">
        <ele>675.436829</ele>
        <time>2010-05-21T08:00:39Z</time>
      </trkpt>
      <trkpt lat="39.428290" lon="-5.681660">
        <ele>673.607971</ele>
        <time>2010-05-21T08:00:40Z</time>
      </trkpt>
      <trkpt lat="39.428120" lon="-5.681610">
        <ele>666.902405</ele>
        <time>2010-05-21T08:00:41Z</time>
      </trkpt>
      <trkpt lat="39.427960" lon="-5.681650">
        <ele>663.854370</ele>
        <time>2010-05-21T08:00:42Z</time>
      </trkpt>
      <trkpt lat="39.427860" lon="-5.681650">
        <ele>662.025574</ele>
        <time>2010-05-21T08:00:43Z</time>
      </trkpt>
      <trkpt lat="39.427210" lon="-5.681860">
        <ele>661.111206</ele>
        <time>2010-05-21T08:00:44Z</time>
      </trkpt>
      <trkpt lat="39.426570" lon="-5.682120">
        <ele>660.501587</ele>
        <time>2010-05-21T08:00:45Z</time>
      </trkpt>
      <trkpt lat="39.426330" lon="-5.682080">
        <ele>660.501587</ele>
        <time>2010-05-21T08:00:46Z</time>
      </trkpt>
      <trkpt lat="39.425760" lon="-5.681830">
        <ele>660.196777</ele>
        <time>2010-05-21T08:00:47Z</time>
      </trkpt>
      <trkpt lat="39.425500" lon="-5.681910">
        <ele>658.672791</ele>
        <time>2010-05-21T08:00:48Z</time>
      </trkpt>
      <trkpt lat="39.425410" lon="-5.681920">
        <ele>657.758423</ele>
        <time>2010-05-21T08:00:49Z</time>
      </trkpt>
      <trkpt lat="39.425250" lon="-5.681960">
        <ele>652.271973</ele>
        <time>2010-05-21T08:00:50Z</time>
      </trkpt>
      <trkpt lat="39.425040" lon="-5.681900">
        <ele>643.127991</ele>
        <time>2010-05-21T08:00:51Z</time>
      </trkpt>
      <trkpt lat="39.424960" lon="-5.681840">
        <ele>645.566406</ele>
        <time>2010-05-21T08:00:52Z</time>
      </trkpt>
      <trkpt lat="39.424670" lon="-5.681530">
        <ele>648.004822</ele>
        <time>2010-05-21T08:00:53Z</time>
      </trkpt>
      <trkpt lat="39.424540" lon="-5.681330">
        <ele>650.443176</ele>
        <time>2010-05-21T08:00:54Z</time>
      </trkpt>
      <trkpt lat="39.424320" lon="-5.680410">
        <ele>651.052795</ele>
        <time>2010-05-21T08:00:55Z</time>
      </trkpt>
      <trkpt lat="39.423950" lon="-5.679780">
        <ele>651.357605</ele>
        <time>2010-05-21T08:00:56Z</time>
      </trkpt>
      <trkpt lat="39.423910" lon="-5.679060">
        <ele>650.443176</ele>
        <time>2010-05-21T08:00:57Z</time>
      </trkpt>
      <trkpt lat="39.424070" lon="-5.678860">
        <ele>648.004822</ele>
        <time>2010-05-21T08:00:58Z</time>
      </trkpt>
      <trkpt lat="39.424870" lon="-5.678270">
        <ele>646.176025</ele>
        <time>2010-05-21T08:00:59Z</time>
      </trkpt>
      <trkpt lat="39.425620" lon="-5.677090">
        <ele>647.090393</ele>
        <time>2010-05-21T08:01:00Z</time>
      </trkpt>
      <trkpt lat="39.426660" lon="-5.675420">
        <ele>648.614380</ele>
        <time>2010-05-21T08:01:01Z</time>
      </trkpt>
      <trkpt lat="39.426800" lon="-5.674370">
        <ele>651.357605</ele>
        <time>2010-05-21T08:01:02Z</time>
      </trkpt>
      <trkpt lat="39.426350" lon="-5.673530">
        <ele>643.737610</ele>
        <time>2010-05-21T08:01:03Z</time>
      </trkpt>
      <trkpt lat="39.426160" lon="-5.673330">
        <ele>639.470398</ele>
        <time>2010-05-21T08:01:04Z</time>
      </trkpt>
      <trkpt lat="39.425970" lon="-5.672640">
        <ele>631.240784</ele>
        <time>2010-05-21T08:01:05Z</time>
      </trkpt>
      <trkpt lat="39.425970" lon="-5.672640">
        <ele>625.449585</ele>
        <time>2010-05-21T08:01:06Z</time>
      </trkpt>
      <trkpt lat="39.426275" lon="-5.671064">
        <ele>620.268005</ele>
        <time>2010-05-21T08:01:07Z</time>
      </trkpt>
      <trkpt lat="39.426130" lon="-5.669752">
        <ele>619.353577</ele>
        <time>2010-05-21T08:01:08Z</time>
      </trkpt>
      <trkpt lat="39.426160" lon="-5.668820">
        <ele>616.305603</ele>
        <time>2010-05-21T08:01:09Z</time>
      </trkpt>
      <trkpt lat="39.426280" lon="-5.667480">
        <ele>607.161621</ele>
        <time>2010-05-21T08:01:10Z</time>
      </trkpt>
      <trkpt lat="39.426290" lon="-5.667200">
        <ele>602.894409</ele>
        <time>2010-05-21T08:01:11Z</time>
      </trkpt>
      <trkpt lat="39.426180" lon="-5.666640">
        <ele>601.979980</ele>
        <time>2010-05-21T08:01:12Z</time>
      </trkpt>
      <trkpt lat="39.425510" lon="-5.664910">
        <ele>599.541626</ele>
        <time>2010-05-21T08:01:13Z</time>
      </trkpt>
      <trkpt lat="39.424690" lon="-5.663510">
        <ele>600.151184</ele>
        <time>2010-05-21T08:01:14Z</time>
      </trkpt>
      <trkpt lat="39.424420" lon="-5.663010">
        <ele>599.541626</ele>
        <time>2010-05-21T08:01:15Z</time>
      </trkpt>
      <trkpt lat="39.424420" lon="-5.662990">
        <ele>596.493591</ele>
        <time>2010-05-21T08:01:16Z</time>
      </trkpt>
      <trkpt lat="39.424420" lon="-5.663000">
        <ele>594.664795</ele>
        <time>2010-05-21T08:01:17Z</time>
      </trkpt>
      <trkpt lat="39.424210" lon="-5.662710">
        <ele>592.226379</ele>
        <time>2010-05-21T08:01:18Z</time>
      </trkpt>
      <trkpt lat="39.423640" lon="-5.661710">
        <ele>592.226379</ele>
        <time>2010-05-21T08:01:19Z</time>
      </trkpt>
      <trkpt lat="39.423440" lon="-5.661160">
        <ele>591.007202</ele>
        <time>2010-05-21T08:01:20Z</time>
      </trkpt>
      <trkpt lat="39.423250" lon="-5.659290">
        <ele>591.921570</ele>
        <time>2010-05-21T08:01:21Z</time>
      </trkpt>
      <trkpt lat="39.423200" lon="-5.658920">
        <ele>593.750427</ele>
        <time>2010-05-21T08:01:22Z</time>
      </trkpt>
      <trkpt lat="39.423140" lon="-5.658740">
        <ele>594.664795</ele>
        <time>2010-05-21T08:01:23Z</time>
      </trkpt>
      <trkpt lat="39.423150" lon="-5.658490">
        <ele>591.921570</ele>
        <time>2010-05-21T08:01:24Z</time>
      </trkpt>
      <trkpt lat="39.423100" lon="-5.657610">
        <ele>589.788025</ele>
        <time>2010-05-21T08:01:25Z</time>
      </trkpt>
      <trkpt lat="39.422980" lon="-5.655550">
        <ele>591.007202</ele>
        <time>2010-05-21T08:01:26Z</time>
      </trkpt>
      <trkpt lat="39.423160" lon="-5.653060">
        <ele>592.226379</ele>
        <time>2010-05-21T08:01:27Z</time>
      </trkpt>
      <trkpt lat="39.423560" lon="-5.651090">
        <ele>592.835999</ele>
        <time>2010-05-21T08:01:28Z</time>
      </trkpt>
      <trkpt lat="39.423930" lon="-5.649400">
        <ele>593.140808</ele>
        <time>2010-05-21T08:01:29Z</time>
      </trkpt>
      <trkpt lat="39.424090" lon="-5.648680">
        <ele>592.835999</ele>
        <time>2010-05-21T08:01:30Z</time>
      </trkpt>
      <trkpt lat="39.424120" lon="-5.648560">
        <ele>592.226379</ele>
        <time>2010-05-21T08:01:31Z</time>
      </trkpt>
      <trkpt lat="39.424130" lon="-5.648590">
        <ele>591.921570</ele>
        <time>2010-05-21T08:01:32Z</time>
      </trkpt>
      <trkpt lat="39.424120" lon="-5.648590">
        <ele>592.226379</ele>
        <time>2010-05-21T08:01:33Z</time>
      </trkpt>
      <trkpt lat="39.424230" lon="-5.648410">
        <ele>593.140808</ele>
        <time>2010-05-21T08:01:34Z</time>
      </trkpt>
      <trkpt lat="39.424790" lon="-5.647640">
        <ele>597.103210</ele>
        <time>2010-05-21T08:01:35Z</time>
      </trkpt>
      <trkpt lat="39.424960" lon="-5.647350">
        <ele>597.712830</ele>
        <time>2010-05-21T08:01:36Z</time>
      </trkpt>
      <trkpt lat="39.425180" lon="-5.646720">
        <ele>597.103210</ele>
        <time>2010-05-21T08:01:37Z</time>
      </trkpt>
      <trkpt lat="39.425310" lon="-5.645440">
        <ele>597.712830</ele>
        <time>2010-05-21T08:01:38Z</time>
      </trkpt>
      <trkpt lat="39.425260" lon="-5.644920">
        <ele>598.932007</ele>
        <time>2010-05-21T08:01:39Z</time>
      </trkpt>
      <trkpt lat="39.425260" lon="-5.644940">
        <ele>601.065613</ele>
        <time>2010-05-21T08:01:40Z</time>
      </trkpt>
      <trkpt lat="39.425120" lon="-5.644880">
        <ele>609.599976</ele>
        <time>2010-05-21T08:01:41Z</time>
      </trkpt>
      <trkpt lat="39.424680" lon="-5.644910">
        <ele>614.476807</ele>
        <time>2010-05-21T08:01:42Z</time>
      </trkpt>
      <trkpt lat="39.424370" lon="-5.644980">
        <ele>612.648010</ele>
        <time>2010-05-21T08:01:43Z</time>
      </trkpt>
      <trkpt lat="39.423110" lon="-5.645100">
        <ele>609.599976</ele>
        <time>2010-05-21T08:01:44Z</time>
      </trkpt>
      <trkpt lat="39.421970" lon="-5.645180">
        <ele>608.685608</ele>
        <time>2010-05-21T08:01:45Z</time>
      </trkpt>
      <trkpt lat="39.421510" lon="-5.645190">
        <ele>608.685608</ele>
        <time>2010-05-21T08:01:46Z</time>
      </trkpt>
      <trkpt lat="39.420950" lon="-5.644950">
        <ele>611.124023</ele>
        <time>2010-05-21T08:01:47Z</time>
      </trkpt>
      <trkpt lat="39.420760" lon="-5.644750">
        <ele>611.428772</ele>
        <time>2010-05-21T08:01:48Z</time>
      </trkpt>
      <trkpt lat="39.420520" lon="-5.644400">
        <ele>611.428772</ele>
        <time>2010-05-21T08:01:49Z</time>
      </trkpt>
      <trkpt lat="39.420330" lon="-5.643800">
        <ele>619.353577</ele>
        <time>2010-05-21T08:01:50Z</time>
      </trkpt>
      <trkpt lat="39.420230" lon="-5.641880">
        <ele>619.658386</ele>
        <time>2010-05-21T08:01:51Z</time>
      </trkpt>
      <trkpt lat="39.420120" lon="-5.640480">
        <ele>621.487183</ele>
        <time>2010-05-21T08:01:52Z</time>
      </trkpt>
      <trkpt lat="39.419710" lon="-5.638800">
        <ele>622.706421</ele>
        <time>2010-05-21T08:01:53Z</time>
      </trkpt>
      <trkpt lat="39.419660" lon="-5.638600">
        <ele>623.620789</ele>
        <time>2010-05-21T08:01:54Z</time>
      </trkpt>
      <trkpt lat="39.419590" lon="-5.638430">
        <ele>625.449585</ele>
        <time>2010-05-21T08:01:55Z</time>
      </trkpt>
      <trkpt lat="39.419590" lon="-5.638470">
        <ele>635.507996</ele>
        <time>2010-05-21T08:01:56Z</time>
      </trkpt>
      <trkpt lat="39.419510" lon="-5.638070">
        <ele>648.614380</ele>
        <time>2010-05-21T08:01:57Z</time>
      </trkpt>
      <trkpt lat="39.419220" lon="-5.636870">
        <ele>651.967224</ele>
        <time>2010-05-21T08:01:58Z</time>
      </trkpt>
      <trkpt lat="39.418890" lon="-5.635420">
        <ele>652.271973</ele>
        <time>2010-05-21T08:01:59Z</time>
      </trkpt>
      <trkpt lat="39.418410" lon="-5.633440">
        <ele>647.700012</ele>
        <time>2010-05-21T08:02:00Z</time>
      </trkpt>
      <trkpt lat="39.417930" lon="-5.632700">
        <ele>643.737610</ele>
        <time>2010-05-21T08:02:01Z</time>
      </trkpt>
      <trkpt lat="39.417720" lon="-5.632380">
        <ele>633.679199</ele>
        <time>2010-05-21T08:02:02Z</time>
      </trkpt>
      <trkpt lat="39.416970" lon="-5.630660">
        <ele>632.764771</ele>
        <time>2010-05-21T08:02:03Z</time>
      </trkpt>
      <trkpt lat="39.416480" lon="-5.629580">
        <ele>631.850403</ele>
        <time>2010-05-21T08:02:04Z</time>
      </trkpt>
      <trkpt lat="39.416180" lon="-5.629270">
        <ele>630.631226</ele>
        <time>2010-05-21T08:02:05Z</time>
      </trkpt>
      <trkpt lat="39.416160" lon="-5.629280">
        <ele>631.240784</ele>
        <time>2010-05-21T08:02:06Z</time>
      </trkpt>
      <trkpt lat="39.416080" lon="-5.629260">
        <ele>632.764771</ele>
        <time>2010-05-21T08:02:07Z</time>
      </trkpt>
      <trkpt lat="39.415580" lon="-5.629210">
        <ele>632.764771</ele>
        <time>2010-05-21T08:02:08Z</time>
      </trkpt>
      <trkpt lat="39.415420" lon="-5.629070">
        <ele>633.984009</ele>
        <time>2010-05-21T08:02:09Z</time>
      </trkpt>
      <trkpt lat="39.415450" lon="-5.629040">
        <ele>635.507996</ele>
        <time>2010-05-21T08:02:10Z</time>
      </trkpt>
      <trkpt lat="39.415450" lon="-5.629040">
        <ele>637.641602</ele>
        <time>2010-05-21T08:02:11Z</time>
      </trkpt>
      <trkpt lat="39.415440" lon="-5.629100">
        <ele>640.384827</ele>
        <time>2010-05-21T08:02:12Z</time>
      </trkpt>
      <trkpt lat="39.415140" lon="-5.629300">
        <ele>641.299194</ele>
        <time>2010-05-21T08:02:13Z</time>
      </trkpt>
      <trkpt lat="39.414920" lon="-5.629570">
        <ele>642.213623</ele>
        <time>2010-05-21T08:02:14Z</time>
      </trkpt>
      <trkpt lat="39.414380" lon="-5.630480">
        <ele>641.299194</ele>
        <time>2010-05-21T08:02:15Z</time>
      </trkpt>
      <trkpt lat="39.414340" lon="-5.630540">
        <ele>638.556030</ele>
        <time>2010-05-21T08:02:16Z</time>
      </trkpt>
      <trkpt lat="39.414200" lon="-5.630680">
        <ele>638.860779</ele>
        <time>2010-05-21T08:02:17Z</time>
      </trkpt>
      <trkpt lat="39.413970" lon="-5.630720">
        <ele>638.556030</ele>
        <time>2010-05-21T08:02:18Z</time>
      </trkpt>
      <trkpt lat="39.413360" lon="-5.630570">
        <ele>638.556030</ele>
        <time>2010-05-21T08:02:19Z</time>
      </trkpt>
      <trkpt lat="39.413186" lon="-5.630549">
        <ele>638.860779</ele>
        <time>2010-05-21T08:02:20Z</time>
      </trkpt>
      <trkpt lat="39.413147" lon="-5.630478">
        <ele>639.470398</ele>
        <time>2010-05-21T08:02:21Z</time>
      </trkpt>
      <trkpt lat="39.413149" lon="-5.630379">
        <ele>639.775208</ele>
        <time>2010-05-21T08:02:22Z</time>
      </trkpt>
      <trkpt lat="39.413170" lon="-5.630290">
        <ele>641.299194</ele>
        <time>2010-05-21T08:02:23Z</time>
      </trkpt>
      <trkpt lat="39.413170" lon="-5.630230">
        <ele>643.127991</ele>
        <time>2010-05-21T08:02:24Z</time>
      </trkpt>
      <trkpt lat="39.413210" lon="-5.629950">
        <ele>652.881592</ele>
        <time>2010-05-21T08:02:25Z</time>
      </trkpt>
      <trkpt lat="39.413330" lon="-5.628910">
        <time>2010-05-21T08:02:26Z</time>
      </trkpt>
      <trkpt lat="39.413440" lon="-5.628340">
        <time>2010-05-21T08:02:27Z</time>
      </trkpt>
      <trkpt lat="39.413570" lon="-5.627720">
        <time>2010-05-21T08:02:28Z</time>
      </trkpt>
      <trkpt lat="39.437164" lon="-5.460755">
        <ele>652.881592</ele>
        <time>2011-04-27T17:20:03Z</time>
      </trkpt>
      <trkpt lat="39.440583" lon="-5.443913">
        <ele>653.796021</ele>
        <time>2011-04-27T17:20:25Z</time>
      </trkpt>
      <trkpt lat="39.413460" lon="-5.628121">
        <ele>657.148804</ele>
        <time>2011-04-27T17:18:38Z</time>
      </trkpt>
      <trkpt lat="39.435568" lon="-5.482831">
        <ele>662.025574</ele>
        <time>2011-04-27T17:19:43Z</time>
      </trkpt>
      <trkpt lat="39.413570" lon="-5.627720">
        <ele>666.902405</ele>
        <time>2010-05-21T08:02:28Z</time>
      </trkpt>
      <trkpt lat="39.413570" lon="-5.627680">
        <ele>666.902405</ele>
        <time>2010-05-21T08:02:29Z</time>
      </trkpt>
      <trkpt lat="39.413520" lon="-5.627560">
        <ele>664.463989</ele>
        <time>2010-05-21T08:02:30Z</time>
      </trkpt>
      <trkpt lat="39.413296" lon="-5.627505">
        <ele>660.196777</ele>
        <time>2010-05-21T08:02:31Z</time>
      </trkpt>
      <trkpt lat="39.413370" lon="-5.627060">
        <ele>651.052795</ele>
        <time>2010-05-21T08:02:32Z</time>
      </trkpt>
      <trkpt lat="39.413450" lon="-5.626640">
        <ele>644.347229</ele>
        <time>2010-05-21T08:02:33Z</time>
      </trkpt>
      <trkpt lat="39.413660" lon="-5.625990">
        <ele>638.860779</ele>
        <time>2010-05-21T08:02:34Z</time>
      </trkpt>
      <trkpt lat="39.413840" lon="-5.625460">
        <ele>636.422424</ele>
        <time>2010-05-21T08:02:35Z</time>
      </trkpt>
      <trkpt lat="39.414130" lon="-5.625190">
        <ele>636.117615</ele>
        <time>2010-05-21T08:02:36Z</time>
      </trkpt>
      <trkpt lat="39.414250" lon="-5.624900">
        <ele>635.507996</ele>
        <time>2010-05-21T08:02:37Z</time>
      </trkpt>
      <trkpt lat="39.414360" lon="-5.624360">
        <ele>635.203186</ele>
        <time>2010-05-21T08:02:38Z</time>
      </trkpt>
      <trkpt lat="39.414780" lon="-5.623930">
        <ele>635.203186</ele>
        <time>2010-05-21T08:02:39Z</time>
      </trkpt>
      <trkpt lat="39.414950" lon="-5.623670">
        <ele>637.031982</ele>
        <time>2010-05-21T08:02:40Z</time>
      </trkpt>
      <trkpt lat="39.415110" lon="-5.623450">
        <ele>637.031982</ele>
        <time>2010-05-21T08:02:41Z</time>
      </trkpt>
      <trkpt lat="39.415220" lon="-5.623060">
        <ele>638.860779</ele>
        <time>2010-05-21T08:02:42Z</time>
      </trkpt>
      <trkpt lat="39.415240" lon="-5.622960">
        <ele>641.299194</ele>
        <time>2010-05-21T08:02:43Z</time>
      </trkpt>
      <trkpt lat="39.415320" lon="-5.622630">
        <ele>643.737610</ele>
        <time>2010-05-21T08:02:44Z</time>
      </trkpt>
      <trkpt lat="39.415370" lon="-5.622520">
        <ele>646.176025</ele>
        <time>2010-05-21T08:02:45Z</time>
      </trkpt>
      <trkpt lat="39.415340" lon="-5.622220">
        <ele>650.443176</ele>
        <time>2010-05-21T08:02:46Z</time>
      </trkpt>
      <trkpt lat="39.415350" lon="-5.622040">
        <ele>650.443176</ele>
        <time>2010-05-21T08:02:47Z</time>
      </trkpt>
      <trkpt lat="39.415350" lon="-5.621890">
        <ele>644.651978</ele>
        <time>2010-05-21T08:02:48Z</time>
      </trkpt>
      <trkpt lat="39.415400" lon="-5.621700">
        <ele>640.384827</ele>
        <time>2010-05-21T08:02:49Z</time>
      </trkpt>
      <trkpt lat="39.415600" lon="-5.620970">
        <ele>640.384827</ele>
        <time>2010-05-21T08:02:50Z</time>
      </trkpt>
      <trkpt lat="39.415640" lon="-5.620860">
        <ele>639.775208</ele>
        <time>2010-05-21T08:02:51Z</time>
      </trkpt>
      <trkpt lat="39.415870" lon="-5.620300">
        <ele>640.384827</ele>
        <time>2010-05-21T08:02:52Z</time>
      </trkpt>
      <trkpt lat="39.415920" lon="-5.620150">
        <ele>640.384827</ele>
        <time>2010-05-21T08:02:53Z</time>
      </trkpt>
      <trkpt lat="39.416080" lon="-5.619930">
        <ele>641.299194</ele>
        <time>2010-05-21T08:02:54Z</time>
      </trkpt>
      <trkpt lat="39.416150" lon="-5.619800">
        <ele>641.299194</ele>
        <time>2010-05-21T08:02:55Z</time>
      </trkpt>
      <trkpt lat="39.416250" lon="-5.619560">
        <ele>643.127991</ele>
        <time>2010-05-21T08:02:56Z</time>
      </trkpt>
      <trkpt lat="39.416390" lon="-5.619320">
        <ele>642.823181</ele>
        <time>2010-05-21T08:02:57Z</time>
      </trkpt>
      <trkpt lat="39.416880" lon="-5.618710">
        <ele>644.651978</ele>
        <time>2010-05-21T08:02:58Z</time>
      </trkpt>
      <trkpt lat="39.417010" lon="-5.618640">
        <ele>647.090393</ele>
        <time>2010-05-21T08:02:59Z</time>
      </trkpt>
      <trkpt lat="39.417490" lon="-5.618020">
        <ele>651.357605</ele>
        <time>2010-05-21T08:03:00Z</time>
      </trkpt>
      <trkpt lat="39.417540" lon="-5.617920">
        <ele>654.405579</ele>
        <time>2010-05-21T08:03:01Z</time>
      </trkpt>
      <trkpt lat="39.417620" lon="-5.617730">
        <ele>654.405579</ele>
        <time>2010-05-21T08:03:02Z</time>
      </trkpt>
      <trkpt lat="39.417980" lon="-5.617120">
        <ele>654.710388</ele>
        <time>2010-05-21T08:03:03Z</time>
      </trkpt>
      <trkpt lat="39.418130" lon="-5.616840">
        <ele>655.320007</ele>
        <time>2010-05-21T08:03:04Z</time>
      </trkpt>
      <trkpt lat="39.418230" lon="-5.616700">
        <ele>656.843994</ele>
        <time>2010-05-21T08:03:05Z</time>
      </trkpt>
      <trkpt lat="39.418330" lon="-5.616490">
        <ele>659.587219</ele>
        <time>2010-05-21T08:03:06Z</time>
      </trkpt>
      <trkpt lat="39.418340" lon="-5.616470">
        <ele>662.025574</ele>
        <time>2010-05-21T08:03:07Z</time>
      </trkpt>
      <trkpt lat="39.418670" lon="-5.616260">
        <ele>661.111206</ele>
        <time>2010-05-21T08:03:08Z</time>
      </trkpt>
      <trkpt lat="39.418780" lon="-5.616180">
        <ele>662.025574</ele>
        <time>2010-05-21T08:03:09Z</time>
      </trkpt>
      <trkpt lat="39.419250" lon="-5.615910">
        <ele>664.463989</ele>
        <time>2010-05-21T08:03:10Z</time>
      </trkpt>
      <trkpt lat="39.419430" lon="-5.615770">
        <ele>666.902405</ele>
        <time>2010-05-21T08:03:11Z</time>
      </trkpt>
      <trkpt lat="39.419460" lon="-5.615730">
        <ele>669.340820</ele>
        <time>2010-05-21T08:03:12Z</time>
      </trkpt>
      <trkpt lat="39.419620" lon="-5.615450">
        <ele>671.474426</ele>
        <time>2010-05-21T08:03:13Z</time>
      </trkpt>
      <trkpt lat="39.419840" lon="-5.615000">
        <ele>675.132019</ele>
        <time>2010-05-21T08:03:14Z</time>
      </trkpt>
      <trkpt lat="39.419990" lon="-5.614730">
        <ele>683.056824</ele>
        <time>2010-05-21T08:03:15Z</time>
      </trkpt>
      <trkpt lat="39.420100" lon="-5.614570">
        <ele>688.543213</ele>
        <time>2010-05-21T08:03:16Z</time>
      </trkpt>
      <trkpt lat="39.420210" lon="-5.614460">
        <ele>689.762390</ele>
        <time>2010-05-21T08:03:17Z</time>
      </trkpt>
      <trkpt lat="39.420360" lon="-5.614300">
        <ele>693.724792</ele>
        <time>2010-05-21T08:03:18Z</time>
      </trkpt>
      <trkpt lat="39.420800" lon="-5.613470">
        <ele>696.468018</ele>
        <time>2010-05-21T08:03:19Z</time>
      </trkpt>
      <trkpt lat="39.420910" lon="-5.612830">
        <ele>701.039978</ele>
        <time>2010-05-21T08:03:20Z</time>
      </trkpt>
      <trkpt lat="39.420890" lon="-5.612690">
        <ele>705.307190</ele>
        <time>2010-05-21T08:03:21Z</time>
      </trkpt>
      <trkpt lat="39.420790" lon="-5.612380">
        <ele>705.612000</ele>
        <time>2010-05-21T08:03:22Z</time>
      </trkpt>
      <trkpt lat="39.420750" lon="-5.612090">
        <ele>714.451172</ele>
        <time>2010-05-21T08:03:23Z</time>
      </trkpt>
      <trkpt lat="39.420640" lon="-5.611640">
        <ele>712.927185</ele>
        <time>2010-05-21T08:03:24Z</time>
      </trkpt>
      <trkpt lat="39.420650" lon="-5.611430">
        <ele>712.927185</ele>
        <time>2010-05-21T08:03:25Z</time>
      </trkpt>
      <trkpt lat="39.420760" lon="-5.611430">
        <ele>712.622375</ele>
        <time>2010-05-21T08:03:26Z</time>
      </trkpt>
      <trkpt lat="39.421110" lon="-5.611350">
        <ele>711.098389</ele>
        <time>2010-05-21T08:03:27Z</time>
      </trkpt>
      <trkpt lat="39.421280" lon="-5.611320">
        <ele>711.403198</ele>
        <time>2010-05-21T08:03:28Z</time>
      </trkpt>
      <trkpt lat="39.421370" lon="-5.611290">
        <ele>712.012817</ele>
        <time>2010-05-21T08:03:29Z</time>
      </trkpt>
      <trkpt lat="39.421460" lon="-5.611240">
        <ele>712.927185</ele>
        <time>2010-05-21T08:03:30Z</time>
      </trkpt>
      <trkpt lat="39.421880" lon="-5.610920">
        <ele>712.927185</ele>
        <time>2010-05-21T08:03:31Z</time>
      </trkpt>
      <trkpt lat="39.422020" lon="-5.610730">
        <ele>714.755981</ele>
        <time>2010-05-21T08:03:32Z</time>
      </trkpt>
      <trkpt lat="39.422090" lon="-5.610660">
        <ele>715.365601</ele>
        <time>2010-05-21T08:03:33Z</time>
      </trkpt>
      <trkpt lat="39.422220" lon="-5.610490">
        <ele>720.242371</ele>
        <time>2010-05-21T08:03:34Z</time>
      </trkpt>
      <trkpt lat="39.422280" lon="-5.610400">
        <ele>726.033630</ele>
        <time>2010-05-21T08:03:35Z</time>
      </trkpt>
      <trkpt lat="39.422380" lon="-5.610260">
        <ele>730.300781</ele>
        <time>2010-05-21T08:03:36Z</time>
      </trkpt>
      <trkpt lat="39.422430" lon="-5.610130">
        <ele>733.653625</ele>
        <time>2010-05-21T08:03:37Z</time>
      </trkpt>
      <trkpt lat="39.422790" lon="-5.609680">
        <ele>737.616028</ele>
        <time>2010-05-21T08:03:38Z</time>
      </trkpt>
      <trkpt lat="39.423050" lon="-5.609060">
        <ele>748.588806</ele>
        <time>2010-05-21T08:03:39Z</time>
      </trkpt>
      <trkpt lat="39.423110" lon="-5.608670">
        <ele>750.417603</ele>
        <time>2010-05-21T08:03:40Z</time>
      </trkpt>
      <trkpt lat="39.423250" lon="-5.608500">
        <ele>758.952026</ele>
        <time>2010-05-21T08:03:41Z</time>
      </trkpt>
      <trkpt lat="39.423450" lon="-5.608390">
        <ele>763.523987</ele>
        <time>2010-05-21T08:03:42Z</time>
      </trkpt>
      <trkpt lat="39.423910" lon="-5.608000">
        <ele>766.876770</ele>
        <time>2010-05-21T08:03:43Z</time>
      </trkpt>
      <trkpt lat="39.424150" lon="-5.607820">
        <ele>764.743225</ele>
        <time>2010-05-21T08:03:44Z</time>
      </trkpt>
      <trkpt lat="39.424780" lon="-5.607240">
        <ele>766.267212</ele>
        <time>2010-05-21T08:03:45Z</time>
      </trkpt>
      <trkpt lat="39.425260" lon="-5.606730">
        <ele>768.705627</ele>
        <time>2010-05-21T08:03:46Z</time>
      </trkpt>
      <trkpt lat="39.425630" lon="-5.605880">
        <ele>769.315186</ele>
        <time>2010-05-21T08:03:47Z</time>
      </trkpt>
      <trkpt lat="39.425700" lon="-5.605670">
        <ele>772.058411</ele>
        <time>2010-05-21T08:03:48Z</time>
      </trkpt>
      <trkpt lat="39.425690" lon="-5.605620">
        <ele>776.935181</ele>
        <time>2010-05-21T08:03:49Z</time>
      </trkpt>
      <trkpt lat="39.425640" lon="-5.605570">
        <ele>779.678406</ele>
        <time>2010-05-21T08:03:50Z</time>
      </trkpt>
      <trkpt lat="39.425570" lon="-5.605500">
        <ele>781.812012</ele>
        <time>2010-05-21T08:03:51Z</time>
      </trkpt>
      <trkpt lat="39.425130" lon="-5.604880">
        <ele>783.640808</ele>
        <time>2010-05-21T08:03:52Z</time>
      </trkpt>
      <trkpt lat="39.424980" lon="-5.604540">
        <ele>787.908020</ele>
        <time>2010-05-21T08:03:53Z</time>
      </trkpt>
      <trkpt lat="39.424920" lon="-5.604330">
        <ele>798.575989</ele>
        <time>2010-05-21T08:03:54Z</time>
      </trkpt>
      <trkpt lat="39.424750" lon="-5.604080">
        <ele>800.099976</ele>
        <time>2010-05-21T08:03:55Z</time>
      </trkpt>
      <trkpt lat="39.424680" lon="-5.604050">
        <ele>810.463196</ele>
        <time>2010-05-21T08:03:56Z</time>
      </trkpt>
      <trkpt lat="39.424430" lon="-5.603780">
        <ele>817.168823</ele>
        <time>2010-05-21T08:03:57Z</time>
      </trkpt>
      <trkpt lat="39.423890" lon="-5.603210">
        <ele>832.713623</ele>
        <time>2010-05-21T08:03:58Z</time>
      </trkpt>
      <trkpt lat="39.423680" lon="-5.603010">
        <ele>838.809570</ele>
        <time>2010-05-21T08:03:59Z</time>
      </trkpt>
      <trkpt lat="39.422790" lon="-5.602630">
        <ele>843.686401</ele>
        <time>2010-05-21T08:04:00Z</time>
      </trkpt>
      <trkpt lat="39.422110" lon="-5.602240">
        <ele>847.648804</ele>
        <time>2010-05-21T08:04:01Z</time>
      </trkpt>
      <trkpt lat="39.421140" lon="-5.601650">
        <ele>852.220825</ele>
        <time>2010-05-21T08:04:02Z</time>
      </trkpt>
      <trkpt lat="39.420580" lon="-5.601210">
        <ele>854.354370</ele>
        <time>2010-05-21T08:04:03Z</time>
      </trkpt>
      <trkpt lat="39.420300" lon="-5.600920">
        <ele>854.354370</ele>
        <time>2010-05-21T08:04:04Z</time>
      </trkpt>
      <trkpt lat="39.420160" lon="-5.600720">
        <ele>852.830383</ele>
        <time>2010-05-21T08:04:05Z</time>
      </trkpt>
      <trkpt lat="39.419930" lon="-5.600570">
        <ele>855.268799</ele>
        <time>2010-05-21T08:04:06Z</time>
      </trkpt>
      <trkpt lat="39.419870" lon="-5.600440">
        <ele>853.440002</ele>
        <time>2010-05-21T08:04:07Z</time>
      </trkpt>
      <trkpt lat="39.419840" lon="-5.600140">
        <ele>856.792786</ele>
        <time>2010-05-21T08:04:08Z</time>
      </trkpt>
      <trkpt lat="39.419960" lon="-5.599740">
        <ele>867.156006</ele>
        <time>2010-05-21T08:04:09Z</time>
      </trkpt>
      <trkpt lat="39.420070" lon="-5.599370">
        <ele>869.289612</ele>
        <time>2010-05-21T08:04:10Z</time>
      </trkpt>
      <trkpt lat="39.419850" lon="-5.599000">
        <ele>861.974426</ele>
        <time>2010-05-21T08:04:11Z</time>
      </trkpt>
      <trkpt lat="39.419550" lon="-5.598880">
        <ele>860.145630</ele>
        <time>2010-05-21T08:04:12Z</time>
      </trkpt>
      <trkpt lat="39.419120" lon="-5.598280">
        <ele>861.059998</ele>
        <time>2010-05-21T08:04:13Z</time>
      </trkpt>
      <trkpt lat="39.418900" lon="-5.597610">
        <ele>863.498413</ele>
        <time>2010-05-21T08:04:14Z</time>
      </trkpt>
      <trkpt lat="39.418650" lon="-5.597500">
        <ele>863.803223</ele>
        <time>2010-05-21T08:04:15Z</time>
      </trkpt>
      <trkpt lat="39.418250" lon="-5.597650">
        <ele>875.385620</ele>
        <time>2010-05-21T08:04:16Z</time>
      </trkpt>
      <trkpt lat="39.417740" lon="-5.597860">
        <ele>874.471191</ele>
        <time>2010-05-21T08:04:17Z</time>
      </trkpt>
      <trkpt lat="39.417540" lon="-5.597910">
        <ele>875.080811</ele>
        <time>2010-05-21T08:04:18Z</time>
      </trkpt>
      <trkpt lat="39.417590" lon="-5.597890">
        <ele>875.080811</ele>
        <time>2010-05-21T08:04:19Z</time>
      </trkpt>
      <trkpt lat="39.417158" lon="-5.598155">
        <ele>875.080811</ele>
        <time>2010-05-21T08:04:20Z</time>
      </trkpt>
      <trkpt lat="39.416927" lon="-5.598216">
        <ele>875.080811</ele>
        <time>2010-05-21T08:04:21Z</time>
      </trkpt>
      <trkpt lat="39.416668" lon="-5.598293">
        <ele>874.471191</ele>
        <time>2010-05-21T08:04:22Z</time>
      </trkpt>
      <trkpt lat="39.416520" lon="-5.598270">
        <ele>872.947205</ele>
        <time>2010-05-21T08:04:23Z</time>
      </trkpt>
      <trkpt lat="39.416232" lon="-5.598469">
        <ele>872.642395</ele>
        <time>2010-05-21T08:04:24Z</time>
      </trkpt>
      <trkpt lat="39.415660" lon="-5.598657">
        <ele>871.423218</ele>
        <time>2010-05-21T08:04:25Z</time>
      </trkpt>
      <trkpt lat="39.414997" lon="-5.598719">
        <ele>871.118408</ele>
        <time>2010-05-21T08:04:26Z</time>
      </trkpt>
      <trkpt lat="39.414436" lon="-5.598419">
        <ele>871.118408</ele>
        <time>2010-05-21T08:04:27Z</time>
      </trkpt>
      <trkpt lat="39.413915" lon="-5.598121">
        <ele>871.423218</ele>
        <time>2010-05-21T08:04:28Z</time>
      </trkpt>
      <trkpt lat="39.413391" lon="-5.598015">
        <ele>873.861572</ele>
        <time>2010-05-21T08:04:29Z</time>
      </trkpt>
      <trkpt lat="39.412920" lon="-5.597928">
        <ele>873.861572</ele>
        <time>2010-05-21T08:04:30Z</time>
      </trkpt>
      <trkpt lat="39.412313" lon="-5.597853">
        <ele>874.471191</ele>
        <time>2010-05-21T08:04:31Z</time>
      </trkpt>
      <trkpt lat="39.412178" lon="-5.597865">
        <ele>871.118408</ele>
        <time>2010-05-21T08:04:32Z</time>
      </trkpt>
      <trkpt lat="39.411623" lon="-5.597914">
        <ele>861.059998</ele>
        <time>2010-05-21T08:04:33Z</time>
      </trkpt>
      <trkpt lat="39.411202" lon="-5.598021">
        <ele>864.717590</ele>
        <time>2010-05-21T08:04:34Z</time>
      </trkpt>
      <trkpt lat="39.410280" lon="-5.598143">
        <ele>865.936829</ele>
        <time>2010-05-21T08:04:35Z</time>
      </trkpt>
      <trkpt lat="39.409793" lon="-5.598177">
        <ele>856.792786</ele>
        <time>2010-05-21T08:04:36Z</time>
      </trkpt>
      <trkpt lat="39.408986" lon="-5.597991">
        <ele>865.327209</ele>
        <time>2010-05-21T08:04:37Z</time>
      </trkpt>
      <trkpt lat="39.408383" lon="-5.597742">
        <ele>868.679993</ele>
        <time>2010-05-21T08:04:38Z</time>
      </trkpt>
      <trkpt lat="39.407485" lon="-5.597412">
        <ele>880.262390</ele>
        <time>2010-05-21T08:04:39Z</time>
      </trkpt>
      <trkpt lat="39.407485" lon="-5.597412">
        <ele>881.176819</ele>
        <time>2010-05-21T08:04:40Z</time>
      </trkpt>
      <trkpt lat="39.407044" lon="-5.597222">
        <ele>882.700806</ele>
        <time>2010-05-21T08:04:41Z</time>
      </trkpt>
      <trkpt lat="39.406523" lon="-5.596941">
        <ele>886.358398</ele>
        <time>2010-05-21T08:04:42Z</time>
      </trkpt>
      <trkpt lat="39.405944" lon="-5.596223">
        <ele>889.711182</ele>
        <time>2010-05-21T08:04:43Z</time>
      </trkpt>
      <trkpt lat="39.405674" lon="-5.595603">
        <ele>888.492004</ele>
        <time>2010-05-21T08:04:44Z</time>
      </trkpt>
      <trkpt lat="39.405322" lon="-5.595033">
        <ele>886.968018</ele>
        <time>2010-05-21T08:04:45Z</time>
      </trkpt>
      <trkpt lat="39.405152" lon="-5.594208">
        <ele>887.577576</ele>
        <time>2010-05-21T08:04:46Z</time>
      </trkpt>
      <trkpt lat="39.405072" lon="-5.593560">
        <ele>891.844788</ele>
        <time>2010-05-21T08:04:47Z</time>
      </trkpt>
      <trkpt lat="39.405133" lon="-5.593214">
        <ele>894.588013</ele>
        <time>2010-05-21T08:04:48Z</time>
      </trkpt>
      <trkpt lat="39.405163" lon="-5.592913">
        <ele>900.379211</ele>
        <time>2010-05-21T08:04:49Z</time>
      </trkpt>
      <trkpt lat="39.405267" lon="-5.592278">
        <ele>898.855225</ele>
        <time>2010-05-21T08:04:50Z</time>
      </trkpt>
      <trkpt lat="39.405292" lon="-5.591130">
        <ele>897.940796</ele>
        <time>2010-05-21T08:04:51Z</time>
      </trkpt>
      <trkpt lat="39.405145" lon="-5.590486">
        <ele>897.940796</ele>
        <time>2010-05-21T08:04:52Z</time>
      </trkpt>
      <trkpt lat="39.404893" lon="-5.589861">
        <ele>897.635986</ele>
        <time>2010-05-21T08:04:53Z</time>
      </trkpt>
      <trkpt lat="39.404802" lon="-5.589677">
        <ele>897.635986</ele>
        <time>2010-05-21T08:04:54Z</time>
      </trkpt>
      <trkpt lat="39.404738" lon="-5.589536">
        <ele>896.112000</ele>
        <time>2010-05-21T08:04:55Z</time>
      </trkpt>
      <trkpt lat="39.404720" lon="-5.589518">
        <ele>895.197571</ele>
        <time>2010-05-21T08:04:56Z</time>
      </trkpt>
      <trkpt lat="39.404690" lon="-5.589464">
        <ele>895.502380</ele>
        <time>2010-05-21T08:04:57Z</time>
      </trkpt>
      <trkpt lat="39.404647" lon="-5.589387">
        <ele>890.320801</ele>
        <time>2010-05-21T08:04:58Z</time>
      </trkpt>
      <trkpt lat="39.404630" lon="-5.589300">
        <ele>900.379211</ele>
        <time>2010-05-21T08:04:59Z</time>
      </trkpt>
      <trkpt lat="39.404570" lon="-5.589164">
        <ele>903.427185</ele>
        <time>2010-05-21T08:05:00Z</time>
      </trkpt>
      <trkpt lat="39.404483" lon="-5.589039">
        <ele>904.341614</ele>
        <time>2010-05-21T08:05:01Z</time>
      </trkpt>
      <trkpt lat="39.403940" lon="-5.588020">
        <ele>910.132813</ele>
        <time>2010-05-21T08:05:02Z</time>
      </trkpt>
      <trkpt lat="39.403620" lon="-5.587030">
        <ele>913.790405</ele>
        <time>2010-05-21T08:05:03Z</time>
      </trkpt>
      <trkpt lat="39.403430" lon="-5.586620">
        <ele>926.287170</ele>
        <time>2010-05-21T08:05:04Z</time>
      </trkpt>
      <trkpt lat="39.403220" lon="-5.586350">
        <ele>937.869629</ele>
        <time>2010-05-21T08:05:05Z</time>
      </trkpt>
      <trkpt lat="39.402810" lon="-5.585990">
        <ele>950.061584</ele>
        <time>2010-05-21T08:05:06Z</time>
      </trkpt>
      <trkpt lat="39.402320" lon="-5.585790">
        <ele>955.243225</ele>
        <time>2010-05-21T08:05:07Z</time>
      </trkpt>
      <trkpt lat="39.401300" lon="-5.585450">
        <ele>955.547974</ele>
        <time>2010-05-21T08:05:08Z</time>
      </trkpt>
      <trkpt lat="39.400410" lon="-5.585280">
        <ele>962.863220</ele>
        <time>2010-05-21T08:05:09Z</time>
      </trkpt>
      <trkpt lat="39.399320" lon="-5.584930">
        <ele>962.558411</ele>
        <time>2010-05-21T08:05:10Z</time>
      </trkpt>
      <trkpt lat="39.397600" lon="-5.584850">
        <ele>962.558411</ele>
        <time>2010-05-21T08:05:11Z</time>
      </trkpt>
      <trkpt lat="39.397390" lon="-5.584850">
        <ele>967.130371</ele>
        <time>2010-05-21T08:05:12Z</time>
      </trkpt>
      <trkpt lat="39.396820" lon="-5.584950">
        <ele>966.825623</ele>
        <time>2010-05-21T08:05:13Z</time>
      </trkpt>
      <trkpt lat="39.396530" lon="-5.584800">
        <ele>965.301575</ele>
        <time>2010-05-21T08:05:14Z</time>
      </trkpt>
      <trkpt lat="39.395500" lon="-5.584200">
        <ele>967.739990</ele>
        <time>2010-05-21T08:05:15Z</time>
      </trkpt>
      <trkpt lat="39.395040" lon="-5.583790">
        <ele>964.692017</ele>
        <time>2010-05-21T08:05:16Z</time>
      </trkpt>
      <trkpt lat="39.395020" lon="-5.583760">
        <ele>961.948792</ele>
        <time>2010-05-21T08:05:17Z</time>
      </trkpt>
      <trkpt lat="39.394950" lon="-5.583730">
        <ele>956.767212</ele>
        <time>2010-05-21T08:05:18Z</time>
      </trkpt>
      <trkpt lat="39.394890" lon="-5.582760">
        <ele>953.719177</ele>
        <time>2010-05-21T08:05:19Z</time>
      </trkpt>
      <trkpt lat="39.394770" lon="-5.582240">
        <ele>948.537598</ele>
        <time>2010-05-21T08:05:20Z</time>
      </trkpt>
      <trkpt lat="39.394820" lon="-5.581760">
        <ele>944.575195</ele>
        <time>2010-05-21T08:05:21Z</time>
      </trkpt>
      <trkpt lat="39.395100" lon="-5.580680">
        <ele>944.270386</ele>
        <time>2010-05-21T08:05:22Z</time>
      </trkpt>
      <trkpt lat="39.395100" lon="-5.580350">
        <ele>944.270386</ele>
        <time>2010-05-21T08:05:23Z</time>
      </trkpt>
      <trkpt lat="39.395150" lon="-5.579670">
        <ele>943.660828</ele>
        <time>2010-05-21T08:05:24Z</time>
      </trkpt>
      <trkpt lat="39.395560" lon="-5.578920">
        <ele>942.746399</ele>
        <time>2010-05-21T08:05:25Z</time>
      </trkpt>
      <trkpt lat="39.395650" lon="-5.578700">
        <ele>941.831970</ele>
        <time>2010-05-21T08:05:26Z</time>
      </trkpt>
      <trkpt lat="39.395760" lon="-5.578410">
        <ele>942.136780</ele>
        <time>2010-05-21T08:05:27Z</time>
      </trkpt>
      <trkpt lat="39.395790" lon="-5.578060">
        <ele>942.136780</ele>
        <time>2010-05-21T08:05:28Z</time>
      </trkpt>
      <trkpt lat="39.395720" lon="-5.577830">
        <ele>940.307983</ele>
        <time>2010-05-21T08:05:29Z</time>
      </trkpt>
      <trkpt lat="39.395770" lon="-5.577500">
        <ele>938.783997</ele>
        <time>2010-05-21T08:05:30Z</time>
      </trkpt>
      <trkpt lat="39.395850" lon="-5.577210">
        <ele>936.955200</ele>
        <time>2010-05-21T08:05:31Z</time>
      </trkpt>
      <trkpt lat="39.395950" lon="-5.577040">
        <ele>935.126404</ele>
        <time>2010-05-21T08:05:32Z</time>
      </trkpt>
      <trkpt lat="39.396190" lon="-5.576660">
        <ele>932.687988</ele>
        <time>2010-05-21T08:05:33Z</time>
      </trkpt>
      <trkpt lat="39.396410" lon="-5.576030">
        <ele>932.687988</ele>
        <time>2010-05-21T08:05:34Z</time>
      </trkpt>
      <trkpt lat="39.396480" lon="-5.575540">
        <ele>935.431213</ele>
        <time>2010-05-21T08:05:35Z</time>
      </trkpt>
      <trkpt lat="39.396390" lon="-5.575170">
        <ele>936.345581</ele>
        <time>2010-05-21T08:05:36Z</time>
      </trkpt>
      <trkpt lat="39.396540" lon="-5.574420">
        <ele>940.917603</ele>
        <time>2010-05-21T08:05:37Z</time>
      </trkpt>
      <trkpt lat="39.396940" lon="-5.573860">
        <ele>940.307983</ele>
        <time>2010-05-21T08:05:38Z</time>
      </trkpt>
      <trkpt lat="39.397180" lon="-5.573600">
        <ele>939.698425</ele>
        <time>2010-05-21T08:05:39Z</time>
      </trkpt>
      <trkpt lat="39.397630" lon="-5.572970">
        <ele>947.927979</ele>
        <time>2010-05-21T08:05:40Z</time>
      </trkpt>
      <trkpt lat="39.398140" lon="-5.572520">
        <ele>945.489624</ele>
        <time>2010-05-21T08:05:41Z</time>
      </trkpt>
      <trkpt lat="39.398410" lon="-5.572390">
        <ele>945.184814</ele>
        <time>2010-05-21T08:05:42Z</time>
      </trkpt>
      <trkpt lat="39.398510" lon="-5.572350">
        <ele>947.623230</ele>
        <time>2010-05-21T08:05:43Z</time>
      </trkpt>
      <trkpt lat="39.398520" lon="-5.572370">
        <ele>942.136780</ele>
        <time>2010-05-21T08:05:44Z</time>
      </trkpt>
      <trkpt lat="39.398580" lon="-5.572310">
        <ele>941.222412</ele>
        <time>2010-05-21T08:05:45Z</time>
      </trkpt>
      <trkpt lat="39.398590" lon="-5.572270">
        <ele>937.564819</ele>
        <time>2010-05-21T08:05:46Z</time>
      </trkpt>
      <trkpt lat="39.398790" lon="-5.572060">
        <ele>928.420776</ele>
        <time>2010-05-21T08:05:47Z</time>
      </trkpt>
      <trkpt lat="39.398890" lon="-5.571640">
        <ele>925.067993</ele>
        <time>2010-05-21T08:05:48Z</time>
      </trkpt>
      <trkpt lat="39.398880" lon="-5.571580">
        <ele>921.410400</ele>
        <time>2010-05-21T08:05:49Z</time>
      </trkpt>
      <trkpt lat="39.398680" lon="-5.571120">
        <ele>922.629578</ele>
        <time>2010-05-21T08:05:50Z</time>
      </trkpt>
      <trkpt lat="39.397830" lon="-5.570620">
        <ele>923.848816</ele>
        <time>2010-05-21T08:05:51Z</time>
      </trkpt>
      <trkpt lat="39.397570" lon="-5.570340">
        <ele>919.581604</ele>
        <time>2010-05-21T08:05:52Z</time>
      </trkpt>
      <trkpt lat="39.397430" lon="-5.569890">
        <ele>919.581604</ele>
        <time>2010-05-21T08:05:53Z</time>
      </trkpt>
      <trkpt lat="39.397640" lon="-5.569300">
        <ele>919.276794</ele>
        <time>2010-05-21T08:05:54Z</time>
      </trkpt>
      <trkpt lat="39.397870" lon="-5.568600">
        <ele>919.276794</ele>
        <time>2010-05-21T08:05:55Z</time>
      </trkpt>
      <trkpt lat="39.397900" lon="-5.567930">
        <ele>917.143188</ele>
        <time>2010-05-21T08:05:56Z</time>
      </trkpt>
      <trkpt lat="39.398040" lon="-5.567280">
        <ele>915.924011</ele>
        <time>2010-05-21T08:05:57Z</time>
      </trkpt>
      <trkpt lat="39.398130" lon="-5.567030">
        <ele>914.704773</ele>
        <time>2010-05-21T08:05:58Z</time>
      </trkpt>
      <trkpt lat="39.398210" lon="-5.566590">
        <ele>912.875977</ele>
        <time>2010-05-21T08:05:59Z</time>
      </trkpt>
      <trkpt lat="39.398190" lon="-5.566370">
        <ele>913.485596</ele>
        <time>2010-05-21T08:06:00Z</time>
      </trkpt>
      <trkpt lat="39.398170" lon="-5.566270">
        <ele>911.047180</ele>
        <time>2010-05-21T08:06:01Z</time>
      </trkpt>
      <trkpt lat="39.398130" lon="-5.566190">
        <ele>911.351990</ele>
        <time>2010-05-21T08:06:02Z</time>
      </trkpt>
      <trkpt lat="39.397980" lon="-5.566030">
        <ele>911.961609</ele>
        <time>2010-05-21T08:06:03Z</time>
      </trkpt>
      <trkpt lat="39.397880" lon="-5.565890">
        <ele>912.571228</ele>
        <time>2010-05-21T08:06:04Z</time>
      </trkpt>
      <trkpt lat="39.397890" lon="-5.565890">
        <ele>907.694397</ele>
        <time>2010-05-21T08:06:05Z</time>
      </trkpt>
      <trkpt lat="39.397890" lon="-5.565890">
        <ele>901.293579</ele>
        <time>2010-05-21T08:06:06Z</time>
      </trkpt>
      <trkpt lat="39.397880" lon="-5.565900">
        <ele>893.064026</ele>
        <time>2010-05-21T08:06:07Z</time>
      </trkpt>
      <trkpt lat="39.397480" lon="-5.565690">
        <ele>890.930420</ele>
        <time>2010-05-21T08:06:08Z</time>
      </trkpt>
      <trkpt lat="39.396690" lon="-5.565710">
        <ele>886.968018</ele>
        <time>2010-05-21T08:06:09Z</time>
      </trkpt>
      <trkpt lat="39.396310" lon="-5.565640">
        <ele>882.700806</ele>
        <time>2010-05-21T08:06:10Z</time>
      </trkpt>
      <trkpt lat="39.395900" lon="-5.565650">
        <ele>881.786377</ele>
        <time>2010-05-21T08:06:11Z</time>
      </trkpt>
      <trkpt lat="39.395610" lon="-5.565840">
        <ele>882.700806</ele>
        <time>2010-05-21T08:06:12Z</time>
      </trkpt>
      <trkpt lat="39.395390" lon="-5.565950">
        <ele>882.091187</ele>
        <time>2010-05-21T08:06:13Z</time>
      </trkpt>
      <trkpt lat="39.395340" lon="-5.565770">
        <ele>881.176819</ele>
        <time>2010-05-21T08:06:14Z</time>
      </trkpt>
      <trkpt lat="39.395430" lon="-5.565680">
        <ele>879.348022</ele>
        <time>2010-05-21T08:06:15Z</time>
      </trkpt>
      <trkpt lat="39.395510" lon="-5.565560">
        <ele>877.214417</ele>
        <time>2010-05-21T08:06:16Z</time>
      </trkpt>
      <trkpt lat="39.395650" lon="-5.565240">
        <ele>875.995178</ele>
        <time>2010-05-21T08:06:17Z</time>
      </trkpt>
      <trkpt lat="39.395660" lon="-5.565240">
        <ele>869.289612</ele>
        <time>2010-05-21T08:06:18Z</time>
      </trkpt>
      <trkpt lat="39.395900" lon="-5.564860">
        <ele>862.583984</ele>
        <time>2010-05-21T08:06:19Z</time>
      </trkpt>
      <trkpt lat="39.396060" lon="-5.564390">
        <ele>855.573608</ele>
        <time>2010-05-21T08:06:20Z</time>
      </trkpt>
      <trkpt lat="39.396280" lon="-5.564160">
        <ele>854.354370</ele>
        <time>2010-05-21T08:06:21Z</time>
      </trkpt>
      <trkpt lat="39.396580" lon="-5.563960">
        <ele>851.001587</ele>
        <time>2010-05-21T08:06:22Z</time>
      </trkpt>
      <trkpt lat="39.396710" lon="-5.563130">
        <ele>846.429626</ele>
        <time>2010-05-21T08:06:23Z</time>
      </trkpt>
      <trkpt lat="39.396920" lon="-5.562640">
        <ele>846.124817</ele>
        <time>2010-05-21T08:06:24Z</time>
      </trkpt>
      <trkpt lat="39.397110" lon="-5.562500">
        <ele>843.686401</ele>
        <time>2010-05-21T08:06:25Z</time>
      </trkpt>
      <trkpt lat="39.397250" lon="-5.562430">
        <ele>845.210388</ele>
        <time>2010-05-21T08:06:26Z</time>
      </trkpt>
      <trkpt lat="39.397720" lon="-5.562330">
        <ele>840.943176</ele>
        <time>2010-05-21T08:06:27Z</time>
      </trkpt>
      <trkpt lat="39.397980" lon="-5.562310">
        <ele>837.590393</ele>
        <time>2010-05-21T08:06:28Z</time>
      </trkpt>
      <trkpt lat="39.398150" lon="-5.562350">
        <ele>835.456787</ele>
        <time>2010-05-21T08:06:29Z</time>
      </trkpt>
      <trkpt lat="39.398480" lon="-5.562510">
        <ele>830.275208</ele>
        <time>2010-05-21T08:06:30Z</time>
      </trkpt>
      <trkpt lat="39.398590" lon="-5.562690">
        <ele>823.874390</ele>
        <time>2010-05-21T08:06:31Z</time>
      </trkpt>
      <trkpt lat="39.398720" lon="-5.562860">
        <ele>821.131226</ele>
        <time>2010-05-21T08:06:32Z</time>
      </trkpt>
      <trkpt lat="39.398800" lon="-5.562920">
        <ele>816.864014</ele>
        <time>2010-05-21T08:06:33Z</time>
      </trkpt>
      <trkpt lat="39.399060" lon="-5.562900">
        <ele>814.425598</ele>
        <time>2010-05-21T08:06:34Z</time>
      </trkpt>
      <trkpt lat="39.399450" lon="-5.562560">
        <ele>813.815979</ele>
        <time>2010-05-21T08:06:35Z</time>
      </trkpt>
      <trkpt lat="39.399680" lon="-5.562260">
        <ele>805.586426</ele>
        <time>2010-05-21T08:06:36Z</time>
      </trkpt>
      <trkpt lat="39.399870" lon="-5.562080">
        <ele>802.843201</ele>
        <time>2010-05-21T08:06:37Z</time>
      </trkpt>
      <trkpt lat="39.400110" lon="-5.561920">
        <ele>798.575989</ele>
        <time>2010-05-21T08:06:38Z</time>
      </trkpt>
      <trkpt lat="39.400190" lon="-5.561870">
        <ele>793.089600</ele>
        <time>2010-05-21T08:06:39Z</time>
      </trkpt>
      <trkpt lat="39.400760" lon="-5.561530">
        <ele>792.784790</ele>
        <time>2010-05-21T08:06:40Z</time>
      </trkpt>
      <trkpt lat="39.401050" lon="-5.560970">
        <ele>792.175171</ele>
        <time>2010-05-21T08:06:41Z</time>
      </trkpt>
      <trkpt lat="39.401630" lon="-5.560310">
        <ele>790.346375</ele>
        <time>2010-05-21T08:06:42Z</time>
      </trkpt>
      <trkpt lat="39.402280" lon="-5.559530">
        <ele>786.993591</ele>
        <time>2010-05-21T08:06:43Z</time>
      </trkpt>
      <trkpt lat="39.402520" lon="-5.559360">
        <ele>782.726379</ele>
        <time>2010-05-21T08:06:44Z</time>
      </trkpt>
      <trkpt lat="39.402560" lon="-5.559350">
        <ele>776.935181</ele>
        <time>2010-05-21T08:06:45Z</time>
      </trkpt>
      <trkpt lat="39.402730" lon="-5.559430">
        <ele>772.058411</ele>
        <time>2010-05-21T08:06:46Z</time>
      </trkpt>
      <trkpt lat="39.402730" lon="-5.559450">
        <ele>771.143982</ele>
        <time>2010-05-21T08:06:47Z</time>
      </trkpt>
      <trkpt lat="39.403090" lon="-5.559300">
        <ele>767.791199</ele>
        <time>2010-05-21T08:06:48Z</time>
      </trkpt>
      <trkpt lat="39.403540" lon="-5.558740">
        <ele>765.962402</ele>
        <time>2010-05-21T08:06:49Z</time>
      </trkpt>
      <trkpt lat="39.404230" lon="-5.558060">
        <ele>764.743225</ele>
        <time>2010-05-21T08:06:50Z</time>
      </trkpt>
      <trkpt lat="39.404320" lon="-5.557970">
        <ele>763.523987</ele>
        <time>2010-05-21T08:06:51Z</time>
      </trkpt>
      <trkpt lat="39.404430" lon="-5.557860">
        <ele>762.914429</ele>
        <time>2010-05-21T08:06:52Z</time>
      </trkpt>
      <trkpt lat="39.404680" lon="-5.557140">
        <ele>763.828796</ele>
        <time>2010-05-21T08:06:53Z</time>
      </trkpt>
      <trkpt lat="39.404750" lon="-5.556930">
        <ele>763.828796</ele>
        <time>2010-05-21T08:06:54Z</time>
      </trkpt>
      <trkpt lat="39.405140" lon="-5.556650">
        <ele>762.609619</ele>
        <time>2010-05-21T08:06:55Z</time>
      </trkpt>
      <trkpt lat="39.405540" lon="-5.556570">
        <ele>760.476013</ele>
        <time>2010-05-21T08:06:56Z</time>
      </trkpt>
      <trkpt lat="39.405700" lon="-5.556230">
        <ele>756.818420</ele>
        <time>2010-05-21T08:06:57Z</time>
      </trkpt>
      <trkpt lat="39.405790" lon="-5.556090">
        <ele>754.684814</ele>
        <time>2010-05-21T08:06:58Z</time>
      </trkpt>
      <trkpt lat="39.406140" lon="-5.555610">
        <ele>751.331970</ele>
        <time>2010-05-21T08:06:59Z</time>
      </trkpt>
      <trkpt lat="39.406510" lon="-5.555200">
        <ele>748.893616</ele>
        <time>2010-05-21T08:07:00Z</time>
      </trkpt>
      <trkpt lat="39.406820" lon="-5.555100">
        <ele>745.540771</ele>
        <time>2010-05-21T08:07:01Z</time>
      </trkpt>
      <trkpt lat="39.407060" lon="-5.555190">
        <ele>742.187988</ele>
        <time>2010-05-21T08:07:02Z</time>
      </trkpt>
      <trkpt lat="39.407390" lon="-5.555190">
        <ele>737.006409</ele>
        <time>2010-05-21T08:07:03Z</time>
      </trkpt>
      <trkpt lat="39.407600" lon="-5.555050">
        <ele>735.482422</ele>
        <time>2010-05-21T08:07:04Z</time>
      </trkpt>
      <trkpt lat="39.407760" lon="-5.554630">
        <ele>733.044006</ele>
        <time>2010-05-21T08:07:05Z</time>
      </trkpt>
      <trkpt lat="39.407590" lon="-5.553820">
        <ele>727.862427</ele>
        <time>2010-05-21T08:07:06Z</time>
      </trkpt>
      <trkpt lat="39.407790" lon="-5.553180">
        <ele>721.156799</ele>
        <time>2010-05-21T08:07:07Z</time>
      </trkpt>
      <trkpt lat="39.408110" lon="-5.552970">
        <ele>717.804016</ele>
        <time>2010-05-21T08:07:08Z</time>
      </trkpt>
      <trkpt lat="39.408410" lon="-5.553080">
        <ele>715.365601</ele>
        <time>2010-05-21T08:07:09Z</time>
      </trkpt>
      <trkpt lat="39.408670" lon="-5.552760">
        <ele>713.841614</ele>
        <time>2010-05-21T08:07:10Z</time>
      </trkpt>
      <trkpt lat="39.408950" lon="-5.552210">
        <ele>711.098389</ele>
        <time>2010-05-21T08:07:11Z</time>
      </trkpt>
      <trkpt lat="39.409150" lon="-5.551730">
        <ele>704.392822</ele>
        <time>2010-05-21T08:07:12Z</time>
      </trkpt>
      <trkpt lat="39.409450" lon="-5.551240">
        <ele>702.868774</ele>
        <time>2010-05-21T08:07:13Z</time>
      </trkpt>
      <trkpt lat="39.409540" lon="-5.551200">
        <ele>693.724792</ele>
        <time>2010-05-21T08:07:14Z</time>
      </trkpt>
      <trkpt lat="39.409740" lon="-5.551200">
        <ele>689.762390</ele>
        <time>2010-05-21T08:07:15Z</time>
      </trkpt>
      <trkpt lat="39.410170" lon="-5.550830">
        <ele>688.848022</ele>
        <time>2010-05-21T08:07:16Z</time>
      </trkpt>
      <trkpt lat="39.410240" lon="-5.550620">
        <ele>687.628784</ele>
        <time>2010-05-21T08:07:17Z</time>
      </trkpt>
      <trkpt lat="39.410590" lon="-5.549420">
        <ele>683.971191</ele>
        <time>2010-05-21T08:07:18Z</time>
      </trkpt>
      <trkpt lat="39.410990" lon="-5.548870">
        <ele>680.618408</ele>
        <time>2010-05-21T08:07:19Z</time>
      </trkpt>
      <trkpt lat="39.411120" lon="-5.548760">
        <ele>682.752014</ele>
        <time>2010-05-21T08:07:20Z</time>
      </trkpt>
      <trkpt lat="39.411420" lon="-5.548650">
        <ele>683.056824</ele>
        <time>2010-05-21T08:07:21Z</time>
      </trkpt>
      <trkpt lat="39.411580" lon="-5.548660">
        <ele>682.142395</ele>
        <time>2010-05-21T08:07:22Z</time>
      </trkpt>
      <trkpt lat="39.411770" lon="-5.548700">
        <ele>677.265625</ele>
        <time>2010-05-21T08:07:23Z</time>
      </trkpt>
      <trkpt lat="39.412190" lon="-5.548580">
        <ele>671.169617</ele>
        <time>2010-05-21T08:07:24Z</time>
      </trkpt>
      <trkpt lat="39.412400" lon="-5.548350">
        <ele>664.768799</ele>
        <time>2010-05-21T08:07:25Z</time>
      </trkpt>
      <trkpt lat="39.413020" lon="-5.547770">
        <ele>662.025574</ele>
        <time>2010-05-21T08:07:26Z</time>
      </trkpt>
      <trkpt lat="39.413230" lon="-5.547800">
        <ele>661.416016</ele>
        <time>2010-05-21T08:07:27Z</time>
      </trkpt>
      <trkpt lat="39.413860" lon="-5.547910">
        <ele>661.416016</ele>
        <time>2010-05-21T08:07:28Z</time>
      </trkpt>
      <trkpt lat="39.414680" lon="-5.548140">
        <ele>662.025574</ele>
        <time>2010-05-21T08:07:29Z</time>
      </trkpt>
      <trkpt lat="39.415200" lon="-5.548110">
        <ele>663.854370</ele>
        <time>2010-05-21T08:07:30Z</time>
      </trkpt>
      <trkpt lat="39.415480" lon="-5.547970">
        <ele>665.378418</ele>
        <time>2010-05-21T08:07:31Z</time>
      </trkpt>
      <trkpt lat="39.415730" lon="-5.547520">
        <ele>665.378418</ele>
        <time>2010-05-21T08:07:32Z</time>
      </trkpt>
      <trkpt lat="39.415970" lon="-5.547370">
        <ele>665.378418</ele>
        <time>2010-05-21T08:07:33Z</time>
      </trkpt>
      <trkpt lat="39.416190" lon="-5.547390">
        <ele>662.025574</ele>
        <time>2010-05-21T08:07:34Z</time>
      </trkpt>
      <trkpt lat="39.416170" lon="-5.547400">
        <ele>660.196777</ele>
        <time>2010-05-21T08:07:35Z</time>
      </trkpt>
      <trkpt lat="39.416560" lon="-5.547710">
        <ele>657.148804</ele>
        <time>2010-05-21T08:07:36Z</time>
      </trkpt>
      <trkpt lat="39.417070" lon="-5.547720">
        <ele>654.710388</ele>
        <time>2010-05-21T08:07:37Z</time>
      </trkpt>
      <trkpt lat="39.417280" lon="-5.547600">
        <ele>653.796021</ele>
        <time>2010-05-21T08:07:38Z</time>
      </trkpt>
      <trkpt lat="39.417570" lon="-5.547500">
        <ele>651.967224</ele>
        <time>2010-05-21T08:07:39Z</time>
      </trkpt>
      <trkpt lat="39.418340" lon="-5.547740">
        <ele>650.138428</ele>
        <time>2010-05-21T08:07:40Z</time>
      </trkpt>
      <trkpt lat="39.418820" lon="-5.547720">
        <ele>643.127991</ele>
        <time>2010-05-21T08:07:41Z</time>
      </trkpt>
      <trkpt lat="39.419230" lon="-5.547470">
        <ele>638.860779</ele>
        <time>2010-05-21T08:07:42Z</time>
      </trkpt>
      <trkpt lat="39.419590" lon="-5.547290">
        <ele>633.984009</ele>
        <time>2010-05-21T08:07:43Z</time>
      </trkpt>
      <trkpt lat="39.419930" lon="-5.547250">
        <ele>633.984009</ele>
        <time>2010-05-21T08:07:44Z</time>
      </trkpt>
      <trkpt lat="39.420490" lon="-5.547360">
        <ele>641.299194</ele>
        <time>2010-05-21T08:07:45Z</time>
      </trkpt>
      <trkpt lat="39.421090" lon="-5.547260">
        <ele>641.908813</ele>
        <time>2010-05-21T08:07:46Z</time>
      </trkpt>
      <trkpt lat="39.421770" lon="-5.547300">
        <ele>642.213623</ele>
        <time>2010-05-21T08:07:47Z</time>
      </trkpt>
      <trkpt lat="39.421880" lon="-5.547320">
        <ele>644.347229</ele>
        <time>2010-05-21T08:07:48Z</time>
      </trkpt>
      <trkpt lat="39.422570" lon="-5.547370">
        <ele>644.651978</ele>
        <time>2010-05-21T08:07:49Z</time>
      </trkpt>
      <trkpt lat="39.422660" lon="-5.547320">
        <ele>644.651978</ele>
        <time>2010-05-21T08:07:50Z</time>
      </trkpt>
      <trkpt lat="39.423160" lon="-5.547220">
        <ele>648.614380</ele>
        <time>2010-05-21T08:07:51Z</time>
      </trkpt>
      <trkpt lat="39.424050" lon="-5.547010">
        <ele>648.919189</ele>
        <time>2010-05-21T08:07:52Z</time>
      </trkpt>
      <trkpt lat="39.424850" lon="-5.547020">
        <ele>649.528809</ele>
        <time>2010-05-21T08:07:53Z</time>
      </trkpt>
      <trkpt lat="39.425860" lon="-5.547610">
        <ele>655.624817</ele>
        <time>2010-05-21T08:07:54Z</time>
      </trkpt>
      <trkpt lat="39.426130" lon="-5.548270">
        <ele>656.843994</ele>
        <time>2010-05-21T08:07:55Z</time>
      </trkpt>
      <trkpt lat="39.426300" lon="-5.548700">
        <ele>653.491211</ele>
        <time>2010-05-21T08:07:56Z</time>
      </trkpt>
      <trkpt lat="39.426500" lon="-5.548880">
        <ele>645.566406</ele>
        <time>2010-05-21T08:07:57Z</time>
      </trkpt>
      <trkpt lat="39.426740" lon="-5.549380">
        <ele>639.470398</ele>
        <time>2010-05-21T08:07:58Z</time>
      </trkpt>
      <trkpt lat="39.426740" lon="-5.549800">
        <ele>640.994385</ele>
        <time>2010-05-21T08:07:59Z</time>
      </trkpt>
      <trkpt lat="39.426850" lon="-5.550110">
        <ele>639.470398</ele>
        <time>2010-05-21T08:08:00Z</time>
      </trkpt>
      <trkpt lat="39.427360" lon="-5.550860">
        <ele>638.860779</ele>
        <time>2010-05-21T08:08:01Z</time>
      </trkpt>
      <trkpt lat="39.427710" lon="-5.551890">
        <ele>639.775208</ele>
        <time>2010-05-21T08:08:02Z</time>
      </trkpt>
      <trkpt lat="39.427810" lon="-5.552060">
        <ele>635.203186</ele>
        <time>2010-05-21T08:08:03Z</time>
      </trkpt>
      <trkpt lat="39.428150" lon="-5.552280">
        <ele>633.679199</ele>
        <time>2010-05-21T08:08:04Z</time>
      </trkpt>
      <trkpt lat="39.428280" lon="-5.552280">
        <ele>633.984009</ele>
        <time>2010-05-21T08:08:05Z</time>
      </trkpt>
      <trkpt lat="39.428410" lon="-5.552310">
        <ele>639.470398</ele>
        <time>2010-05-21T08:08:06Z</time>
      </trkpt>
      <trkpt lat="39.428950" lon="-5.552730">
        <ele>642.823181</ele>
        <time>2010-05-21T08:08:07Z</time>
      </trkpt>
      <trkpt lat="39.429260" lon="-5.553100">
        <ele>639.470398</ele>
        <time>2010-05-21T08:08:08Z</time>
      </trkpt>
      <trkpt lat="39.429590" lon="-5.553510">
        <ele>636.117615</ele>
        <time>2010-05-21T08:08:09Z</time>
      </trkpt>
      <trkpt lat="39.430360" lon="-5.554360">
        <ele>633.679199</ele>
        <time>2010-05-21T08:08:10Z</time>
      </trkpt>
      <trkpt lat="39.430600" lon="-5.554640">
        <ele>631.850403</ele>
        <time>2010-05-21T08:08:11Z</time>
      </trkpt>
      <trkpt lat="39.430800" lon="-5.555020">
        <ele>630.631226</ele>
        <time>2010-05-21T08:08:12Z</time>
      </trkpt>
      <trkpt lat="39.431520" lon="-5.555450">
        <ele>630.326416</ele>
        <time>2010-05-21T08:08:13Z</time>
      </trkpt>
      <trkpt lat="39.432410" lon="-5.556070">
        <ele>626.059204</ele>
        <time>2010-05-21T08:08:14Z</time>
      </trkpt>
      <trkpt lat="39.433190" lon="-5.556830">
        <ele>622.706421</ele>
        <time>2010-05-21T08:08:15Z</time>
      </trkpt>
      <trkpt lat="39.433440" lon="-5.556970">
        <ele>620.572815</ele>
        <time>2010-05-21T08:08:16Z</time>
      </trkpt>
      <trkpt lat="39.433740" lon="-5.557150">
        <ele>619.658386</ele>
        <time>2010-05-21T08:08:17Z</time>
      </trkpt>
      <trkpt lat="39.434020" lon="-5.557380">
        <ele>617.829590</ele>
        <time>2010-05-21T08:08:18Z</time>
      </trkpt>
      <trkpt lat="39.434170" lon="-5.557610">
        <ele>610.514404</ele>
        <time>2010-05-21T08:08:19Z</time>
      </trkpt>
      <trkpt lat="39.434340" lon="-5.557850">
        <ele>603.808777</ele>
        <time>2010-05-21T08:08:20Z</time>
      </trkpt>
      <trkpt lat="39.434500" lon="-5.557960">
        <ele>601.065613</ele>
        <time>2010-05-21T08:08:21Z</time>
      </trkpt>
      <trkpt lat="39.434740" lon="-5.558040">
        <ele>606.856812</ele>
        <time>2010-05-21T08:08:22Z</time>
      </trkpt>
      <trkpt lat="39.434820" lon="-5.558020">
        <ele>603.504028</ele>
        <time>2010-05-21T08:08:23Z</time>
      </trkpt>
      <trkpt lat="39.435450" lon="-5.557900">
        <ele>604.418396</ele>
        <time>2010-05-21T08:08:24Z</time>
      </trkpt>
      <trkpt lat="39.436660" lon="-5.558100">
        <ele>611.124023</ele>
        <time>2010-05-21T08:08:25Z</time>
      </trkpt>
      <trkpt lat="39.437650" lon="-5.557930">
        <ele>610.209595</ele>
        <time>2010-05-21T08:08:26Z</time>
      </trkpt>
      <trkpt lat="39.438220" lon="-5.557860">
        <ele>612.952820</ele>
        <time>2010-05-21T08:08:27Z</time>
      </trkpt>
      <trkpt lat="39.438830" lon="-5.557590">
        <ele>623.011230</ele>
        <time>2010-05-21T08:08:28Z</time>
      </trkpt>
      <trkpt lat="39.439620" lon="-5.557010">
        <ele>631.240784</ele>
        <time>2010-05-21T08:08:29Z</time>
      </trkpt>
      <trkpt lat="39.440120" lon="-5.556750">
        <ele>640.384827</ele>
        <time>2010-05-21T08:08:30Z</time>
      </trkpt>
      <trkpt lat="39.441150" lon="-5.556230">
        <ele>638.860779</ele>
        <time>2010-05-21T08:08:31Z</time>
      </trkpt>
      <trkpt lat="39.442380" lon="-5.555400">
        <ele>637.641602</ele>
        <time>2010-05-21T08:08:32Z</time>
      </trkpt>
      <trkpt lat="39.443410" lon="-5.554620">
        <ele>628.802429</ele>
        <time>2010-05-21T08:08:33Z</time>
      </trkpt>
      <trkpt lat="39.444040" lon="-5.554230">
        <ele>628.497620</ele>
        <time>2010-05-21T08:08:34Z</time>
      </trkpt>
      <trkpt lat="39.444180" lon="-5.554060">
        <ele>628.497620</ele>
        <time>2010-05-21T08:08:35Z</time>
      </trkpt>
      <trkpt lat="39.444230" lon="-5.553930">
        <ele>626.059204</ele>
        <time>2010-05-21T08:08:36Z</time>
      </trkpt>
      <trkpt lat="39.444720" lon="-5.553220">
        <ele>626.364014</ele>
        <time>2010-05-21T08:08:37Z</time>
      </trkpt>
      <trkpt lat="39.445080" lon="-5.552940">
        <ele>629.411987</ele>
        <time>2010-05-21T08:08:38Z</time>
      </trkpt>
      <trkpt lat="39.445330" lon="-5.552690">
        <ele>626.364014</ele>
        <time>2010-05-21T08:08:39Z</time>
      </trkpt>
      <trkpt lat="39.445740" lon="-5.552380">
        <ele>623.925598</ele>
        <time>2010-05-21T08:08:40Z</time>
      </trkpt>
      <trkpt lat="39.446610" lon="-5.551480">
        <ele>622.096802</ele>
        <time>2010-05-21T08:08:41Z</time>
      </trkpt>
      <trkpt lat="39.446870" lon="-5.551100">
        <ele>623.011230</ele>
        <time>2010-05-21T08:08:42Z</time>
      </trkpt>
      <trkpt lat="39.447230" lon="-5.550230">
        <ele>626.973572</ele>
        <time>2010-05-21T08:08:43Z</time>
      </trkpt>
      <trkpt lat="39.447530" lon="-5.549700">
        <ele>636.422424</ele>
        <time>2010-05-21T08:08:44Z</time>
      </trkpt>
      <trkpt lat="39.447900" lon="-5.549420">
        <ele>650.443176</ele>
        <time>2010-05-21T08:08:45Z</time>
      </trkpt>
      <trkpt lat="39.448360" lon="-5.549060">
        <ele>653.796021</ele>
        <time>2010-05-21T08:08:46Z</time>
      </trkpt>
      <trkpt lat="39.448870" lon="-5.548180">
        <ele>660.196777</ele>
        <time>2010-05-21T08:08:47Z</time>
      </trkpt>
      <trkpt lat="39.449360" lon="-5.547620">
        <ele>661.111206</ele>
        <time>2010-05-21T08:08:48Z</time>
      </trkpt>
      <trkpt lat="39.450090" lon="-5.546780">
        <ele>662.025574</ele>
        <time>2010-05-21T08:08:49Z</time>
      </trkpt>
      <trkpt lat="39.450600" lon="-5.545780">
        <ele>665.378418</ele>
        <time>2010-05-21T08:08:50Z</time>
      </trkpt>
      <trkpt lat="39.451160" lon="-5.544990">
        <ele>666.902405</ele>
        <time>2010-05-21T08:08:51Z</time>
      </trkpt>
      <trkpt lat="39.451260" lon="-5.544880">
        <ele>667.207214</ele>
        <time>2010-05-21T08:08:52Z</time>
      </trkpt>
      <trkpt lat="39.451280" lon="-5.544870">
        <ele>666.292786</ele>
        <time>2010-05-21T08:08:53Z</time>
      </trkpt>
      <trkpt lat="39.451550" lon="-5.544920">
        <ele>665.378418</ele>
        <time>2010-05-21T08:08:54Z</time>
      </trkpt>
      <trkpt lat="39.451740" lon="-5.545040">
        <ele>666.292786</ele>
        <time>2010-05-21T08:08:55Z</time>
      </trkpt>
      <trkpt lat="39.451820" lon="-5.545080">
        <ele>665.378418</ele>
        <time>2010-05-21T08:08:56Z</time>
      </trkpt>
      <trkpt lat="39.452040" lon="-5.545270">
        <ele>658.063171</ele>
        <time>2010-05-21T08:08:57Z</time>
      </trkpt>
      <trkpt lat="39.452070" lon="-5.545290">
        <ele>659.587219</ele>
        <time>2010-05-21T08:08:58Z</time>
      </trkpt>
      <trkpt lat="39.452120" lon="-5.545330">
        <ele>661.416016</ele>
        <time>2010-05-21T08:08:59Z</time>
      </trkpt>
      <trkpt lat="39.452270" lon="-5.545180">
        <ele>662.025574</ele>
        <time>2010-05-21T08:09:00Z</time>
      </trkpt>
      <trkpt lat="39.453280" lon="-5.543970">
        <ele>662.940002</ele>
        <time>2010-05-21T08:09:01Z</time>
      </trkpt>
      <trkpt lat="39.454240" lon="-5.542140">
        <ele>672.693604</ele>
        <time>2010-05-21T08:09:02Z</time>
      </trkpt>
      <trkpt lat="39.455240" lon="-5.540210">
        <ele>668.731201</ele>
        <time>2010-05-21T08:09:03Z</time>
      </trkpt>
      <trkpt lat="39.455740" lon="-5.539730">
        <ele>661.111206</ele>
        <time>2010-05-21T08:09:04Z</time>
      </trkpt>
      <trkpt lat="39.455880" lon="-5.539700">
        <ele>651.052795</ele>
        <time>2010-05-21T08:09:05Z</time>
      </trkpt>
      <trkpt lat="39.457090" lon="-5.539480">
        <ele>661.111206</ele>
        <time>2010-05-21T08:09:06Z</time>
      </trkpt>
      <trkpt lat="39.458130" lon="-5.538780">
        <ele>651.052795</ele>
        <time>2010-05-21T08:09:07Z</time>
      </trkpt>
      <trkpt lat="39.458770" lon="-5.537920">
        <ele>646.480774</ele>
        <time>2010-05-21T08:09:08Z</time>
      </trkpt>
      <trkpt lat="39.458980" lon="-5.537150">
        <ele>639.470398</ele>
        <time>2010-05-21T08:09:09Z</time>
      </trkpt>
      <trkpt lat="39.458770" lon="-5.537920">
        <ele>633.984009</ele>
        <time>2010-05-21T08:09:10Z</time>
      </trkpt>
      <trkpt lat="39.458980" lon="-5.537150">
        <ele>621.487183</ele>
        <time>2010-05-21T08:09:11Z</time>
      </trkpt>
      <trkpt lat="39.459140" lon="-5.536830">
        <ele>619.353577</ele>
        <time>2010-05-21T08:09:12Z</time>
      </trkpt>
      <trkpt lat="39.459560" lon="-5.536320">
        <ele>617.829590</ele>
        <time>2010-05-21T08:09:13Z</time>
      </trkpt>
      <trkpt lat="39.460330" lon="-5.535760">
        <ele>608.075989</ele>
        <time>2010-05-21T08:09:14Z</time>
      </trkpt>
      <trkpt lat="39.462160" lon="-5.534420">
        <ele>602.284790</ele>
        <time>2010-05-21T08:09:15Z</time>
      </trkpt>
      <trkpt lat="39.462610" lon="-5.533840">
        <ele>598.627197</ele>
        <time>2010-05-21T08:09:16Z</time>
      </trkpt>
      <trkpt lat="39.462720" lon="-5.533520">
        <ele>596.493591</ele>
        <time>2010-05-21T08:09:17Z</time>
      </trkpt>
      <trkpt lat="39.463330" lon="-5.532000">
        <ele>593.750427</ele>
        <time>2010-05-21T08:09:18Z</time>
      </trkpt>
      <trkpt lat="39.463130" lon="-5.531340">
        <ele>591.921570</ele>
        <time>2010-05-21T08:09:19Z</time>
      </trkpt>
      <trkpt lat="39.462780" lon="-5.531140">
        <ele>591.921570</ele>
        <time>2010-05-21T08:09:20Z</time>
      </trkpt>
      <trkpt lat="39.462470" lon="-5.530860">
        <ele>591.921570</ele>
        <time>2010-05-21T08:09:21Z</time>
      </trkpt>
      <trkpt lat="39.462470" lon="-5.530030">
        <ele>591.007202</ele>
        <time>2010-05-21T08:09:22Z</time>
      </trkpt>
      <trkpt lat="39.462920" lon="-5.529690">
        <ele>589.788025</ele>
        <time>2010-05-21T08:09:23Z</time>
      </trkpt>
      <trkpt lat="39.463290" lon="-5.529730">
        <ele>587.654419</ele>
        <time>2010-05-21T08:09:24Z</time>
      </trkpt>
      <trkpt lat="39.463510" lon="-5.529710">
        <ele>586.130371</ele>
        <time>2010-05-21T08:09:25Z</time>
      </trkpt>
      <trkpt lat="39.463560" lon="-5.529080">
        <ele>585.216003</ele>
        <time>2010-05-21T08:09:26Z</time>
      </trkpt>
      <trkpt lat="39.463230" lon="-5.528570">
        <ele>584.606384</ele>
        <time>2010-05-21T08:09:27Z</time>
      </trkpt>
      <trkpt lat="39.462690" lon="-5.527330">
        <ele>581.253601</ele>
        <time>2010-05-21T08:09:28Z</time>
      </trkpt>
      <trkpt lat="39.462540" lon="-5.527100">
        <ele>577.900818</ele>
        <time>2010-05-21T08:09:29Z</time>
      </trkpt>
      <trkpt lat="39.462530" lon="-5.526460">
        <ele>579.424805</ele>
        <time>2010-05-21T08:09:30Z</time>
      </trkpt>
      <trkpt lat="39.462620" lon="-5.526190">
        <ele>579.729614</ele>
        <time>2010-05-21T08:09:31Z</time>
      </trkpt>
      <trkpt lat="39.462330" lon="-5.525740">
        <ele>587.044800</ele>
        <time>2010-05-21T08:09:32Z</time>
      </trkpt>
      <trkpt lat="39.461770" lon="-5.525580">
        <ele>593.750427</ele>
        <time>2010-05-21T08:09:33Z</time>
      </trkpt>
      <trkpt lat="39.461620" lon="-5.525340">
        <ele>600.151184</ele>
        <time>2010-05-21T08:09:34Z</time>
      </trkpt>
      <trkpt lat="39.461650" lon="-5.525110">
        <ele>616.915222</ele>
        <time>2010-05-21T08:09:35Z</time>
      </trkpt>
      <trkpt lat="39.461530" lon="-5.524550">
        <ele>617.829590</ele>
        <time>2010-05-21T08:09:36Z</time>
      </trkpt>
      <trkpt lat="39.461790" lon="-5.523680">
        <ele>615.391174</ele>
        <time>2010-05-21T08:09:37Z</time>
      </trkpt>
      <trkpt lat="39.462610" lon="-5.522730">
        <ele>603.504028</ele>
        <time>2010-05-21T08:09:38Z</time>
      </trkpt>
      <trkpt lat="39.463800" lon="-5.520820">
        <ele>601.979980</ele>
        <time>2010-05-21T08:09:39Z</time>
      </trkpt>
      <trkpt lat="39.464230" lon="-5.520390">
        <ele>606.856812</ele>
        <time>2010-05-21T08:09:40Z</time>
      </trkpt>
      <trkpt lat="39.465240" lon="-5.520150">
        <ele>610.209595</ele>
        <time>2010-05-21T08:09:41Z</time>
      </trkpt>
      <trkpt lat="39.466760" lon="-5.519860">
        <ele>614.781616</ele>
        <time>2010-05-21T08:09:42Z</time>
      </trkpt>
      <trkpt lat="39.467010" lon="-5.519750">
        <ele>619.658386</ele>
        <time>2010-05-21T08:09:43Z</time>
      </trkpt>
      <trkpt lat="39.467160" lon="-5.518920">
        <ele>621.182373</ele>
        <time>2010-05-21T08:09:44Z</time>
      </trkpt>
      <trkpt lat="39.466980" lon="-5.518430">
        <ele>624.535217</ele>
        <time>2010-05-21T08:09:45Z</time>
      </trkpt>
      <trkpt lat="39.466570" lon="-5.517020">
        <ele>636.422424</ele>
        <time>2010-05-21T08:09:46Z</time>
      </trkpt>
      <trkpt lat="39.466220" lon="-5.516270">
        <ele>637.031982</ele>
        <time>2010-05-21T08:09:47Z</time>
      </trkpt>
      <trkpt lat="39.466020" lon="-5.515570">
        <ele>642.823181</ele>
        <time>2010-05-21T08:09:48Z</time>
      </trkpt>
      <trkpt lat="39.465900" lon="-5.515010">
        <ele>646.176025</ele>
        <time>2010-05-21T08:09:49Z</time>
      </trkpt>
      <trkpt lat="39.465010" lon="-5.513200">
        <ele>646.480774</ele>
        <time>2010-05-21T08:09:50Z</time>
      </trkpt>
      <trkpt lat="39.464940" lon="-5.513030">
        <ele>648.614380</ele>
        <time>2010-05-21T08:09:51Z</time>
      </trkpt>
      <trkpt lat="39.464120" lon="-5.512400">
        <ele>648.004822</ele>
        <time>2010-05-21T08:09:52Z</time>
      </trkpt>
      <trkpt lat="39.463260" lon="-5.512250">
        <ele>649.528809</ele>
        <time>2010-05-21T08:09:53Z</time>
      </trkpt>
      <trkpt lat="39.462600" lon="-5.511960">
        <ele>654.710388</ele>
        <time>2010-05-21T08:09:54Z</time>
      </trkpt>
      <trkpt lat="39.462530" lon="-5.511360">
        <ele>656.843994</ele>
        <time>2010-05-21T08:09:55Z</time>
      </trkpt>
      <trkpt lat="39.462850" lon="-5.510580">
        <ele>662.940002</ele>
        <time>2010-05-21T08:09:56Z</time>
      </trkpt>
      <trkpt lat="39.462940" lon="-5.510260">
        <ele>667.816772</ele>
        <time>2010-05-21T08:09:57Z</time>
      </trkpt>
      <trkpt lat="39.462640" lon="-5.509490">
        <ele>669.645630</ele>
        <time>2010-05-21T08:09:58Z</time>
      </trkpt>
      <trkpt lat="39.462240" lon="-5.509170">
        <ele>672.998413</ele>
        <time>2010-05-21T08:09:59Z</time>
      </trkpt>
      <trkpt lat="39.461290" lon="-5.508280">
        <ele>678.484802</ele>
        <time>2010-05-21T08:10:00Z</time>
      </trkpt>
      <trkpt lat="39.460680" lon="-5.507170">
        <ele>681.837585</ele>
        <time>2010-05-21T08:10:01Z</time>
      </trkpt>
      <trkpt lat="39.460340" lon="-5.506840">
        <ele>682.142395</ele>
        <time>2010-05-21T08:10:02Z</time>
      </trkpt>
      <trkpt lat="39.459870" lon="-5.506640">
        <ele>678.789612</ele>
        <time>2010-05-21T08:10:03Z</time>
      </trkpt>
      <trkpt lat="39.459280" lon="-5.506690">
        <ele>678.484802</ele>
        <time>2010-05-21T08:10:04Z</time>
      </trkpt>
      <trkpt lat="39.458840" lon="-5.506480">
        <ele>681.837585</ele>
        <time>2010-05-21T08:10:05Z</time>
      </trkpt>
      <trkpt lat="39.458320" lon="-5.505760">
        <ele>685.190430</ele>
        <time>2010-05-21T08:10:06Z</time>
      </trkpt>
      <trkpt lat="39.457410" lon="-5.505060">
        <ele>683.971191</ele>
        <time>2010-05-21T08:10:07Z</time>
      </trkpt>
      <trkpt lat="39.457010" lon="-5.504690">
        <ele>683.666382</ele>
        <time>2010-05-21T08:10:08Z</time>
      </trkpt>
      <trkpt lat="39.455800" lon="-5.503540">
        <ele>683.666382</ele>
        <time>2010-05-21T08:10:09Z</time>
      </trkpt>
      <trkpt lat="39.454810" lon="-5.502650">
        <ele>680.313599</ele>
        <time>2010-05-21T08:10:10Z</time>
      </trkpt>
      <trkpt lat="39.453870" lon="-5.502130">
        <ele>682.660522</ele>
        <time>2010-05-21T08:10:11Z</time>
      </trkpt>
      <trkpt lat="39.453750" lon="-5.502020">
        <ele>683.148254</ele>
        <time>2010-05-21T08:10:12Z</time>
      </trkpt>
      <trkpt lat="39.453570" lon="-5.501920">
        <ele>686.043884</ele>
        <time>2010-05-21T08:10:13Z</time>
      </trkpt>
      <trkpt lat="39.453510" lon="-5.501890">
        <ele>686.988708</ele>
        <time>2010-05-21T08:10:14Z</time>
      </trkpt>
      <trkpt lat="39.452900" lon="-5.501890">
        <ele>687.476379</ele>
        <time>2010-05-21T08:10:15Z</time>
      </trkpt>
      <trkpt lat="39.452900" lon="-5.501880">
        <ele>688.908936</ele>
        <time>2010-05-21T08:10:16Z</time>
      </trkpt>
      <trkpt lat="39.452740" lon="-5.501810">
        <ele>690.372009</ele>
        <time>2010-05-21T08:10:17Z</time>
      </trkpt>
      <trkpt lat="39.452630" lon="-5.501750">
        <ele>696.620422</ele>
        <time>2010-05-21T08:10:18Z</time>
      </trkpt>
      <trkpt lat="39.452510" lon="-5.501700">
        <ele>698.540649</ele>
        <time>2010-05-21T08:10:19Z</time>
      </trkpt>
      <trkpt lat="39.452170" lon="-5.501620">
        <ele>699.485474</ele>
        <time>2010-05-21T08:10:20Z</time>
      </trkpt>
      <trkpt lat="39.451930" lon="-5.501480">
        <ele>699.028320</ele>
        <time>2010-05-21T08:10:21Z</time>
      </trkpt>
      <trkpt lat="39.451290" lon="-5.500820">
        <ele>703.813721</ele>
        <time>2010-05-21T08:10:22Z</time>
      </trkpt>
      <trkpt lat="39.451170" lon="-5.500690">
        <ele>707.654175</ele>
        <time>2010-05-21T08:10:23Z</time>
      </trkpt>
      <trkpt lat="39.451100" lon="-5.500630">
        <ele>702.868774</ele>
        <time>2010-05-21T08:10:24Z</time>
      </trkpt>
      <trkpt lat="39.450270" lon="-5.500340">
        <ele>701.405762</ele>
        <time>2010-05-21T08:10:25Z</time>
      </trkpt>
      <trkpt lat="39.449600" lon="-5.500040">
        <ele>698.052917</ele>
        <time>2010-05-21T08:10:26Z</time>
      </trkpt>
      <trkpt lat="39.448950" lon="-5.499710">
        <ele>693.724792</ele>
        <time>2010-05-21T08:10:27Z</time>
      </trkpt>
      <trkpt lat="39.448680" lon="-5.499640">
        <ele>693.724792</ele>
        <time>2010-05-21T08:10:28Z</time>
      </trkpt>
      <trkpt lat="39.448510" lon="-5.499580">
        <ele>692.292236</ele>
        <time>2010-05-21T08:10:29Z</time>
      </trkpt>
      <trkpt lat="39.448280" lon="-5.499390">
        <ele>693.237061</ele>
        <time>2010-05-21T08:10:30Z</time>
      </trkpt>
      <trkpt lat="39.447960" lon="-5.499500">
        <ele>694.212524</ele>
        <time>2010-05-21T08:10:31Z</time>
      </trkpt>
      <trkpt lat="39.447930" lon="-5.499550">
        <ele>696.132690</ele>
        <time>2010-05-21T08:10:32Z</time>
      </trkpt>
      <trkpt lat="39.447450" lon="-5.500330">
        <ele>695.645081</ele>
        <time>2010-05-21T08:10:33Z</time>
      </trkpt>
      <trkpt lat="39.447040" lon="-5.500840">
        <ele>699.028320</ele>
        <time>2010-05-21T08:10:34Z</time>
      </trkpt>
      <trkpt lat="39.446840" lon="-5.501130">
        <ele>703.813721</ele>
        <time>2010-05-21T08:10:35Z</time>
      </trkpt>
      <trkpt lat="39.446590" lon="-5.501400">
        <ele>707.196960</ele>
        <time>2010-05-21T08:10:36Z</time>
      </trkpt>
      <trkpt lat="39.446380" lon="-5.501460">
        <ele>708.141846</ele>
        <time>2010-05-21T08:10:37Z</time>
      </trkpt>
      <trkpt lat="39.445610" lon="-5.501450">
        <ele>707.196960</ele>
        <time>2010-05-21T08:10:38Z</time>
      </trkpt>
      <trkpt lat="39.445460" lon="-5.501290">
        <ele>706.709290</ele>
        <time>2010-05-21T08:10:39Z</time>
      </trkpt>
      <trkpt lat="39.445440" lon="-5.501190">
        <ele>706.221619</ele>
        <time>2010-05-21T08:10:40Z</time>
      </trkpt>
      <trkpt lat="39.445540" lon="-5.500860">
        <ele>705.733887</ele>
        <time>2010-05-21T08:10:41Z</time>
      </trkpt>
      <trkpt lat="39.445630" lon="-5.500620">
        <ele>704.789063</ele>
        <time>2010-05-21T08:10:42Z</time>
      </trkpt>
      <trkpt lat="39.445490" lon="-5.500070">
        <ele>704.301331</ele>
        <time>2010-05-21T08:10:43Z</time>
      </trkpt>
      <trkpt lat="39.445240" lon="-5.499930">
        <ele>704.301331</ele>
        <time>2010-05-21T08:10:44Z</time>
      </trkpt>
      <trkpt lat="39.444960" lon="-5.499780">
        <ele>702.868774</ele>
        <time>2010-05-21T08:10:45Z</time>
      </trkpt>
      <trkpt lat="39.444640" lon="-5.499240">
        <ele>698.540649</ele>
        <time>2010-05-21T08:10:46Z</time>
      </trkpt>
      <trkpt lat="39.444320" lon="-5.497540">
        <ele>696.620422</ele>
        <time>2010-05-21T08:10:47Z</time>
      </trkpt>
      <trkpt lat="39.444210" lon="-5.496950">
        <ele>692.292236</ele>
        <time>2010-05-21T08:10:48Z</time>
      </trkpt>
      <trkpt lat="39.443880" lon="-5.496620">
        <ele>691.804565</ele>
        <time>2010-05-21T08:10:49Z</time>
      </trkpt>
      <trkpt lat="39.442990" lon="-5.496180">
        <ele>689.396667</ele>
        <time>2010-05-21T08:10:50Z</time>
      </trkpt>
      <trkpt lat="39.442500" lon="-5.495800">
        <ele>683.148254</ele>
        <time>2010-05-21T08:10:51Z</time>
      </trkpt>
      <trkpt lat="39.442040" lon="-5.495950">
        <ele>677.875183</ele>
        <time>2010-05-21T08:10:52Z</time>
      </trkpt>
      <trkpt lat="39.441990" lon="-5.496040">
        <ele>675.467285</ele>
        <time>2010-05-21T08:10:53Z</time>
      </trkpt>
      <trkpt lat="39.441470" lon="-5.496690">
        <ele>674.979614</ele>
        <time>2010-05-21T08:10:54Z</time>
      </trkpt>
      <trkpt lat="39.440780" lon="-5.497000">
        <ele>667.786316</ele>
        <time>2010-05-21T08:10:55Z</time>
      </trkpt>
      <trkpt lat="39.439720" lon="-5.496530">
        <ele>674.491882</ele>
        <time>2010-05-21T08:10:56Z</time>
      </trkpt>
      <trkpt lat="39.438770" lon="-5.495780">
        <ele>676.412170</ele>
        <time>2010-05-21T08:10:57Z</time>
      </trkpt>
      <trkpt lat="39.437680" lon="-5.494930">
        <ele>663.915344</ele>
        <time>2010-05-21T08:10:58Z</time>
      </trkpt>
      <trkpt lat="39.436750" lon="-5.494530">
        <ele>658.642273</ele>
        <time>2010-05-21T08:10:59Z</time>
      </trkpt>
      <trkpt lat="39.436400" lon="-5.493990">
        <ele>645.170166</ele>
        <time>2010-05-21T08:11:00Z</time>
      </trkpt>
      <trkpt lat="39.436590" lon="-5.493390">
        <ele>641.329712</ele>
        <time>2010-05-21T08:11:01Z</time>
      </trkpt>
      <trkpt lat="39.437480" lon="-5.492090">
        <ele>627.400269</ele>
        <time>2010-05-21T08:11:02Z</time>
      </trkpt>
      <trkpt lat="39.437640" lon="-5.491570">
        <ele>626.424927</ele>
        <time>2010-05-21T08:11:03Z</time>
      </trkpt>
      <trkpt lat="39.437490" lon="-5.490220">
        <ele>618.256348</ele>
        <time>2010-05-21T08:11:04Z</time>
      </trkpt>
      <trkpt lat="39.437380" lon="-5.489790">
        <ele>618.256348</ele>
        <time>2010-05-21T08:11:05Z</time>
      </trkpt>
      <trkpt lat="39.436810" lon="-5.488330">
        <ele>618.744019</ele>
        <time>2010-05-21T08:11:06Z</time>
      </trkpt>
      <trkpt lat="39.436740" lon="-5.487530">
        <ele>619.719360</ele>
        <time>2010-05-21T08:11:07Z</time>
      </trkpt>
      <trkpt lat="39.436470" lon="-5.486600">
        <ele>620.664246</ele>
        <time>2010-05-21T08:11:08Z</time>
      </trkpt>
      <trkpt lat="39.436460" lon="-5.486570">
        <ele>623.559875</ele>
        <time>2010-05-21T08:11:09Z</time>
      </trkpt>
      <trkpt lat="39.436410" lon="-5.486330">
        <ele>625.967773</ele>
        <time>2010-05-21T08:11:10Z</time>
      </trkpt>
      <trkpt lat="39.436410" lon="-5.486320">
        <ele>630.295898</ele>
        <time>2010-05-21T08:11:11Z</time>
      </trkpt>
      <trkpt lat="39.436450" lon="-5.486120">
        <ele>631.728516</ele>
        <time>2010-05-21T08:11:12Z</time>
      </trkpt>
      <trkpt lat="39.436590" lon="-5.485800">
        <ele>634.593628</ele>
        <time>2010-05-21T08:11:13Z</time>
      </trkpt>
      <trkpt lat="39.436650" lon="-5.485550">
        <ele>635.081299</ele>
        <time>2010-05-21T08:11:14Z</time>
      </trkpt>
      <trkpt lat="39.436680" lon="-5.485540">
        <ele>630.753113</ele>
        <time>2010-05-21T08:11:15Z</time>
      </trkpt>
      <trkpt lat="39.436710" lon="-5.485520">
        <ele>628.345215</ele>
        <time>2010-05-21T08:11:16Z</time>
      </trkpt>
      <trkpt lat="39.436770" lon="-5.485290">
        <ele>624.504700</ele>
        <time>2010-05-21T08:11:17Z</time>
      </trkpt>
      <trkpt lat="39.436750" lon="-5.485050">
        <ele>621.151917</ele>
        <time>2010-05-21T08:11:18Z</time>
      </trkpt>
      <trkpt lat="39.436580" lon="-5.484240">
        <ele>622.096802</ele>
        <time>2010-05-21T08:11:19Z</time>
      </trkpt>
      <trkpt lat="39.436380" lon="-5.483860">
        <ele>623.559875</ele>
        <time>2010-05-21T08:11:20Z</time>
      </trkpt>
      <trkpt lat="39.435810" lon="-5.483040">
        <ele>625.967773</ele>
        <time>2010-05-21T08:11:21Z</time>
      </trkpt>
      <trkpt lat="39.435510" lon="-5.482280">
        <ele>627.400269</ele>
        <time>2010-05-21T08:11:22Z</time>
      </trkpt>
      <trkpt lat="39.435570" lon="-5.481600">
        <ele>630.753113</ele>
        <time>2010-05-21T08:11:23Z</time>
      </trkpt>
      <trkpt lat="39.435900" lon="-5.481100">
        <ele>636.056641</ele>
        <time>2010-05-21T08:11:24Z</time>
      </trkpt>
      <trkpt lat="39.436080" lon="-5.480620">
        <ele>639.897095</ele>
        <time>2010-05-21T08:11:25Z</time>
      </trkpt>
      <trkpt lat="39.436130" lon="-5.480350">
        <ele>646.633179</ele>
        <time>2010-05-21T08:11:26Z</time>
      </trkpt>
      <trkpt lat="39.436100" lon="-5.479530">
        <ele>654.314148</ele>
        <time>2010-05-21T08:11:27Z</time>
      </trkpt>
      <trkpt lat="39.435970" lon="-5.478950">
        <ele>657.666931</ele>
        <time>2010-05-21T08:11:28Z</time>
      </trkpt>
      <trkpt lat="39.436100" lon="-5.478310">
        <ele>660.562561</ele>
        <time>2010-05-21T08:11:29Z</time>
      </trkpt>
      <trkpt lat="39.436420" lon="-5.477570">
        <ele>674.979614</ele>
        <time>2010-05-21T08:11:30Z</time>
      </trkpt>
      <trkpt lat="39.437160" lon="-5.476930">
        <ele>676.412170</ele>
        <time>2010-05-21T08:11:31Z</time>
      </trkpt>
      <trkpt lat="39.437360" lon="-5.476490">
        <ele>676.899841</ele>
        <time>2010-05-21T08:11:32Z</time>
      </trkpt>
      <trkpt lat="39.437420" lon="-5.476220">
        <ele>677.875183</ele>
        <time>2010-05-21T08:11:33Z</time>
      </trkpt>
      <trkpt lat="39.437640" lon="-5.474790">
        <ele>679.307739</ele>
        <time>2010-05-21T08:11:34Z</time>
      </trkpt>
      <trkpt lat="39.437650" lon="-5.474700">
        <ele>679.307739</ele>
        <time>2010-05-21T08:11:35Z</time>
      </trkpt>
      <trkpt lat="39.437620" lon="-5.474820">
        <ele>680.283081</ele>
        <time>2010-05-21T08:11:36Z</time>
      </trkpt>
      <trkpt lat="39.437760" lon="-5.474530">
        <ele>681.228027</ele>
        <time>2010-05-21T08:11:37Z</time>
      </trkpt>
      <trkpt lat="39.438490" lon="-5.473660">
        <ele>681.228027</ele>
        <time>2010-05-21T08:11:38Z</time>
      </trkpt>
      <trkpt lat="39.438540" lon="-5.473270">
        <ele>681.228027</ele>
        <time>2010-05-21T08:11:39Z</time>
      </trkpt>
      <trkpt lat="39.438130" lon="-5.472750">
        <ele>682.203369</ele>
        <time>2010-05-21T08:11:40Z</time>
      </trkpt>
      <trkpt lat="39.438020" lon="-5.472120">
        <ele>683.148254</ele>
        <time>2010-05-21T08:11:41Z</time>
      </trkpt>
      <trkpt lat="39.438360" lon="-5.471340">
        <ele>687.476379</ele>
        <time>2010-05-21T08:11:42Z</time>
      </trkpt>
      <trkpt lat="39.438380" lon="-5.470850">
        <ele>689.884277</ele>
        <time>2010-05-21T08:11:43Z</time>
      </trkpt>
      <trkpt lat="39.438350" lon="-5.470280">
        <ele>693.237061</ele>
        <time>2010-05-21T08:11:44Z</time>
      </trkpt>
      <trkpt lat="39.438210" lon="-5.469840">
        <ele>694.212524</ele>
        <time>2010-05-21T08:11:45Z</time>
      </trkpt>
      <trkpt lat="39.437820" lon="-5.469180">
        <ele>692.779907</ele>
        <time>2010-05-21T08:11:46Z</time>
      </trkpt>
      <trkpt lat="39.437550" lon="-5.467880">
        <ele>691.804565</ele>
        <time>2010-05-21T08:11:47Z</time>
      </trkpt>
      <trkpt lat="39.437050" lon="-5.466870">
        <ele>688.908936</ele>
        <time>2010-05-21T08:11:48Z</time>
      </trkpt>
      <trkpt lat="39.437000" lon="-5.466700">
        <ele>686.531494</ele>
        <time>2010-05-21T08:11:49Z</time>
      </trkpt>
      <trkpt lat="39.437000" lon="-5.466360">
        <ele>685.556152</ele>
        <time>2010-05-21T08:11:50Z</time>
      </trkpt>
      <trkpt lat="39.437090" lon="-5.466090">
        <ele>684.123596</ele>
        <time>2010-05-21T08:11:51Z</time>
      </trkpt>
      <trkpt lat="39.437400" lon="-5.465400">
        <ele>683.148254</ele>
        <time>2010-05-21T08:11:52Z</time>
      </trkpt>
      <trkpt lat="39.437350" lon="-5.465120">
        <ele>680.740295</ele>
        <time>2010-05-21T08:11:53Z</time>
      </trkpt>
      <trkpt lat="39.436740" lon="-5.464330">
        <ele>683.635864</ele>
        <time>2010-05-21T08:11:54Z</time>
      </trkpt>
      <trkpt lat="39.436670" lon="-5.464180">
        <ele>684.123596</ele>
        <time>2010-05-21T08:11:55Z</time>
      </trkpt>
      <trkpt lat="39.436660" lon="-5.464180">
        <ele>686.988708</ele>
        <time>2010-05-21T08:11:56Z</time>
      </trkpt>
      <trkpt lat="39.436700" lon="-5.464300">
        <ele>687.964111</ele>
        <time>2010-05-21T08:11:57Z</time>
      </trkpt>
      <trkpt lat="39.436670" lon="-5.464180">
        <ele>692.292236</ele>
        <time>2010-05-21T08:11:58Z</time>
      </trkpt>
      <trkpt lat="39.436660" lon="-5.464150">
        <ele>692.779907</ele>
        <time>2010-05-21T08:11:59Z</time>
      </trkpt>
      <trkpt lat="39.436330" lon="-5.463410">
        <ele>693.724792</ele>
        <time>2010-05-21T08:12:00Z</time>
      </trkpt>
      <trkpt lat="39.436090" lon="-5.463010">
        <ele>693.724792</ele>
        <time>2010-05-21T08:12:01Z</time>
      </trkpt>
      <trkpt lat="39.435950" lon="-5.462540">
        <ele>695.645081</ele>
        <time>2010-05-21T08:12:02Z</time>
      </trkpt>
      <trkpt lat="39.435960" lon="-5.462510">
        <ele>696.620422</ele>
        <time>2010-05-21T08:12:03Z</time>
      </trkpt>
      <trkpt lat="39.436070" lon="-5.462520">
        <ele>699.028320</ele>
        <time>2010-05-21T08:12:04Z</time>
      </trkpt>
      <trkpt lat="39.436140" lon="-5.462570">
        <ele>699.485474</ele>
        <time>2010-05-21T08:12:05Z</time>
      </trkpt>
      <trkpt lat="39.436340" lon="-5.462360">
        <ele>705.276672</ele>
        <time>2010-05-21T08:12:06Z</time>
      </trkpt>
      <trkpt lat="39.436340" lon="-5.462220">
        <time>2010-05-21T08:12:07Z</time>
      </trkpt>
      <trkpt lat="39.436370" lon="-5.461290">
        <time>2010-05-21T08:12:08Z</time>
      </trkpt>
      <trkpt lat="39.436450" lon="-5.460920">
        <time>2010-05-21T08:12:09Z</time>
      </trkpt>
      <trkpt lat="39.436860" lon="-5.460260">
        <time>2010-05-21T08:12:10Z</time>
      </trkpt>
      <trkpt lat="39.437164" lon="-5.460755">
        <ele>705.276672</ele>
        <time>2011-04-27T17:20:03Z</time>
      </trkpt>
      <trkpt lat="39.426921" lon="-5.359506">
        <ele>705.733887</ele>
        <time>2011-04-27T17:22:47Z</time>
      </trkpt>
      <trkpt lat="39.440583" lon="-5.443913">
        <ele>705.733887</ele>
        <time>2011-04-27T17:20:25Z</time>
      </trkpt>
      <trkpt lat="39.414092" lon="-5.394351">
        <ele>705.733887</ele>
        <time>2011-04-27T17:21:41Z</time>
      </trkpt>
      <trkpt lat="39.438042" lon="-5.340767">
        <ele>705.276672</ele>
        <time>2011-04-27T17:23:22Z</time>
      </trkpt>
      <trkpt lat="39.452900" lon="-5.327668">
        <ele>704.789063</ele>
        <time>2011-04-27T17:23:34Z</time>
      </trkpt>
      <trkpt lat="39.416001" lon="-5.419592">
        <ele>707.196960</ele>
        <time>2011-04-27T17:20:48Z</time>
      </trkpt>
      <trkpt lat="39.444996" lon="-5.328741">
        <ele>706.221619</ele>
        <time>2011-04-27T17:23:43Z</time>
      </trkpt>
      <trkpt lat="39.421398" lon="-5.396083">
        <ele>705.733887</ele>
        <time>2011-04-27T17:22:17Z</time>
      </trkpt>
      <trkpt lat="39.436860" lon="-5.460260">
        <ele>705.276672</ele>
        <time>2010-05-21T08:12:10Z</time>
      </trkpt>
      <trkpt lat="39.436910" lon="-5.460240">
        <ele>704.789063</ele>
        <time>2010-05-21T08:12:11Z</time>
      </trkpt>
      <trkpt lat="39.436920" lon="-5.460180">
        <ele>703.813721</ele>
        <time>2010-05-21T08:12:12Z</time>
      </trkpt>
      <trkpt lat="39.436590" lon="-5.460050">
        <ele>728.350098</ele>
        <time>2010-05-21T08:12:13Z</time>
      </trkpt>
      <trkpt lat="39.436070" lon="-5.459770">
        <ele>728.350098</ele>
        <time>2010-05-21T08:12:14Z</time>
      </trkpt>
      <trkpt lat="39.435910" lon="-5.459580">
        <ele>726.887085</ele>
        <time>2010-05-21T08:12:15Z</time>
      </trkpt>
      <trkpt lat="39.435670" lon="-5.459490">
        <ele>722.101685</ele>
        <time>2010-05-21T08:12:16Z</time>
      </trkpt>
      <trkpt lat="39.435400" lon="-5.459490">
        <ele>721.126282</ele>
        <time>2010-05-21T08:12:17Z</time>
      </trkpt>
      <trkpt lat="39.435260" lon="-5.459420">
        <ele>717.285828</ele>
        <time>2010-05-21T08:12:18Z</time>
      </trkpt>
      <trkpt lat="39.435190" lon="-5.459370">
        <ele>717.773499</ele>
        <time>2010-05-21T08:12:19Z</time>
      </trkpt>
      <trkpt lat="39.435000" lon="-5.459080">
        <ele>717.773499</ele>
        <time>2010-05-21T08:12:20Z</time>
      </trkpt>
      <trkpt lat="39.434910" lon="-5.458730">
        <ele>718.718384</ele>
        <time>2010-05-21T08:12:21Z</time>
      </trkpt>
      <trkpt lat="39.434810" lon="-5.458380">
        <ele>719.206116</ele>
        <time>2010-05-21T08:12:22Z</time>
      </trkpt>
      <trkpt lat="39.434710" lon="-5.458090">
        <ele>718.230713</ele>
        <time>2010-05-21T08:12:23Z</time>
      </trkpt>
      <trkpt lat="39.434660" lon="-5.457790">
        <ele>721.614014</ele>
        <time>2010-05-21T08:12:24Z</time>
      </trkpt>
      <trkpt lat="39.434520" lon="-5.457470">
        <ele>720.638672</ele>
        <time>2010-05-21T08:12:25Z</time>
      </trkpt>
      <trkpt lat="39.434330" lon="-5.457280">
        <ele>718.718384</ele>
        <time>2010-05-21T08:12:26Z</time>
      </trkpt>
      <trkpt lat="39.433830" lon="-5.456750">
        <ele>717.773499</ele>
        <time>2010-05-21T08:12:27Z</time>
      </trkpt>
      <trkpt lat="39.433520" lon="-5.455980">
        <ele>715.853333</ele>
        <time>2010-05-21T08:12:28Z</time>
      </trkpt>
      <trkpt lat="39.433480" lon="-5.455820">
        <ele>717.285828</ele>
        <time>2010-05-21T08:12:29Z</time>
      </trkpt>
      <trkpt lat="39.433500" lon="-5.455650">
        <ele>716.798157</ele>
        <time>2010-05-21T08:12:30Z</time>
      </trkpt>
      <trkpt lat="39.433530" lon="-5.455460">
        <ele>716.310486</ele>
        <time>2010-05-21T08:12:31Z</time>
      </trkpt>
      <trkpt lat="39.433480" lon="-5.455120">
        <ele>711.982300</ele>
        <time>2010-05-21T08:12:32Z</time>
      </trkpt>
      <trkpt lat="39.433450" lon="-5.455050">
        <ele>706.709290</ele>
        <time>2010-05-21T08:12:33Z</time>
      </trkpt>
      <trkpt lat="39.433430" lon="-5.455050">
        <ele>708.141846</ele>
        <time>2010-05-21T08:12:34Z</time>
      </trkpt>
      <trkpt lat="39.433440" lon="-5.455130">
        <ele>708.141846</ele>
        <time>2010-05-21T08:12:35Z</time>
      </trkpt>
      <trkpt lat="39.433440" lon="-5.455140">
        <ele>710.549744</ele>
        <time>2010-05-21T08:12:36Z</time>
      </trkpt>
      <trkpt lat="39.433250" lon="-5.455120">
        <ele>714.877869</ele>
        <time>2010-05-21T08:12:37Z</time>
      </trkpt>
      <trkpt lat="39.432710" lon="-5.454940">
        <ele>722.101685</ele>
        <time>2010-05-21T08:12:38Z</time>
      </trkpt>
      <trkpt lat="39.432510" lon="-5.454740">
        <ele>729.782654</ele>
        <time>2010-05-21T08:12:39Z</time>
      </trkpt>
      <trkpt lat="39.432430" lon="-5.454710">
        <ele>738.438965</ele>
        <time>2010-05-21T08:12:40Z</time>
      </trkpt>
      <trkpt lat="39.432070" lon="-5.454450">
        <ele>743.224304</ele>
        <time>2010-05-21T08:12:41Z</time>
      </trkpt>
      <trkpt lat="39.431650" lon="-5.453650">
        <ele>744.687317</ele>
        <time>2010-05-21T08:12:42Z</time>
      </trkpt>
      <trkpt lat="39.431650" lon="-5.453080">
        <ele>748.040161</ele>
        <time>2010-05-21T08:12:43Z</time>
      </trkpt>
      <trkpt lat="39.431650" lon="-5.453040">
        <ele>750.448120</ele>
        <time>2010-05-21T08:12:44Z</time>
      </trkpt>
      <trkpt lat="39.431340" lon="-5.452630">
        <ele>751.392944</ele>
        <time>2010-05-21T08:12:45Z</time>
      </trkpt>
      <trkpt lat="39.431020" lon="-5.452280">
        <ele>754.288574</ele>
        <time>2010-05-21T08:12:46Z</time>
      </trkpt>
      <trkpt lat="39.430740" lon="-5.451720">
        <ele>755.263916</ele>
        <time>2010-05-21T08:12:47Z</time>
      </trkpt>
      <trkpt lat="39.430670" lon="-5.451320">
        <ele>756.208801</ele>
        <time>2010-05-21T08:12:48Z</time>
      </trkpt>
      <trkpt lat="39.430460" lon="-5.450810">
        <ele>756.208801</ele>
        <time>2010-05-21T08:12:49Z</time>
      </trkpt>
      <trkpt lat="39.430220" lon="-5.450330">
        <ele>759.104370</ele>
        <time>2010-05-21T08:12:50Z</time>
      </trkpt>
      <trkpt lat="39.430120" lon="-5.449530">
        <ele>761.969482</ele>
        <time>2010-05-21T08:12:51Z</time>
      </trkpt>
      <trkpt lat="39.430140" lon="-5.449020">
        <ele>764.377441</ele>
        <time>2010-05-21T08:12:52Z</time>
      </trkpt>
      <trkpt lat="39.430090" lon="-5.448800">
        <ele>765.840515</ele>
        <time>2010-05-21T08:12:53Z</time>
      </trkpt>
      <trkpt lat="39.430040" lon="-5.448690">
        <ele>768.217896</ele>
        <time>2010-05-21T08:12:54Z</time>
      </trkpt>
      <trkpt lat="39.429760" lon="-5.448400">
        <ele>771.601196</ele>
        <time>2010-05-21T08:12:55Z</time>
      </trkpt>
      <trkpt lat="39.429760" lon="-5.448370">
        <ele>771.601196</ele>
        <time>2010-05-21T08:12:56Z</time>
      </trkpt>
      <trkpt lat="39.429670" lon="-5.448160">
        <ele>770.138123</ele>
        <time>2010-05-21T08:12:57Z</time>
      </trkpt>
      <trkpt lat="39.429650" lon="-5.448120">
        <ele>770.138123</ele>
        <time>2010-05-21T08:12:58Z</time>
      </trkpt>
      <trkpt lat="39.429460" lon="-5.447430">
        <ele>769.680969</ele>
        <time>2010-05-21T08:12:59Z</time>
      </trkpt>
      <trkpt lat="39.429330" lon="-5.446910">
        <ele>770.625854</ele>
        <time>2010-05-21T08:13:00Z</time>
      </trkpt>
      <trkpt lat="39.429060" lon="-5.446540">
        <ele>772.088928</ele>
        <time>2010-05-21T08:13:01Z</time>
      </trkpt>
      <trkpt lat="39.428820" lon="-5.446380">
        <ele>768.705627</ele>
        <time>2010-05-21T08:13:02Z</time>
      </trkpt>
      <trkpt lat="39.428250" lon="-5.446330">
        <ele>760.536926</ele>
        <time>2010-05-21T08:13:03Z</time>
      </trkpt>
      <trkpt lat="39.427800" lon="-5.446030">
        <ele>755.263916</ele>
        <time>2010-05-21T08:13:04Z</time>
      </trkpt>
      <trkpt lat="39.427680" lon="-5.445850">
        <ele>749.472717</ele>
        <time>2010-05-21T08:13:05Z</time>
      </trkpt>
      <trkpt lat="39.427660" lon="-5.445810">
        <ele>746.607605</ele>
        <time>2010-05-21T08:13:06Z</time>
      </trkpt>
      <trkpt lat="39.427660" lon="-5.445810">
        <ele>735.055725</ele>
        <time>2010-05-21T08:13:07Z</time>
      </trkpt>
      <trkpt lat="39.427440" lon="-5.445690">
        <ele>733.135437</ele>
        <time>2010-05-21T08:13:08Z</time>
      </trkpt>
      <trkpt lat="39.427330" lon="-5.445640">
        <ele>734.598511</ele>
        <time>2010-05-21T08:13:09Z</time>
      </trkpt>
      <trkpt lat="39.427310" lon="-5.445600">
        <ele>739.871460</ele>
        <time>2010-05-21T08:13:10Z</time>
      </trkpt>
      <trkpt lat="39.427320" lon="-5.445620">
        <ele>749.015503</ele>
        <time>2010-05-21T08:13:11Z</time>
      </trkpt>
      <trkpt lat="39.426800" lon="-5.445500">
        <ele>754.776245</ele>
        <time>2010-05-21T08:13:12Z</time>
      </trkpt>
      <trkpt lat="39.426520" lon="-5.444980">
        <ele>757.184143</ele>
        <time>2010-05-21T08:13:13Z</time>
      </trkpt>
      <trkpt lat="39.426240" lon="-5.444380">
        <ele>763.432556</ele>
        <time>2010-05-21T08:13:14Z</time>
      </trkpt>
      <trkpt lat="39.426050" lon="-5.444130">
        <ele>767.273071</ele>
        <time>2010-05-21T08:13:15Z</time>
      </trkpt>
      <trkpt lat="39.425480" lon="-5.443640">
        <ele>769.193298</ele>
        <time>2010-05-21T08:13:16Z</time>
      </trkpt>
      <trkpt lat="39.425140" lon="-5.443630">
        <ele>774.009094</ele>
        <time>2010-05-21T08:13:17Z</time>
      </trkpt>
      <trkpt lat="39.424740" lon="-5.443730">
        <ele>773.033752</ele>
        <time>2010-05-21T08:13:18Z</time>
      </trkpt>
      <trkpt lat="39.424280" lon="-5.443580">
        <ele>779.769836</ele>
        <time>2010-05-21T08:13:19Z</time>
      </trkpt>
      <trkpt lat="39.423560" lon="-5.443090">
        <ele>776.417053</ele>
        <time>2010-05-21T08:13:20Z</time>
      </trkpt>
      <trkpt lat="39.423220" lon="-5.442640">
        <ele>772.546082</ele>
        <time>2010-05-21T08:13:21Z</time>
      </trkpt>
      <trkpt lat="39.423130" lon="-5.442410">
        <ele>771.113464</ele>
        <time>2010-05-21T08:13:22Z</time>
      </trkpt>
      <trkpt lat="39.422860" lon="-5.441550">
        <ele>763.889771</ele>
        <time>2010-05-21T08:13:23Z</time>
      </trkpt>
      <trkpt lat="39.422210" lon="-5.441060">
        <ele>761.024658</ele>
        <time>2010-05-21T08:13:24Z</time>
      </trkpt>
      <trkpt lat="39.422040" lon="-5.441180">
        <ele>753.800903</ele>
        <time>2010-05-21T08:13:25Z</time>
      </trkpt>
      <trkpt lat="39.421760" lon="-5.441490">
        <ele>753.800903</ele>
        <time>2010-05-21T08:13:26Z</time>
      </trkpt>
      <trkpt lat="39.421760" lon="-5.441400">
        <ele>751.880676</ele>
        <time>2010-05-21T08:13:27Z</time>
      </trkpt>
      <trkpt lat="39.421890" lon="-5.440690">
        <ele>750.448120</ele>
        <time>2010-05-21T08:13:28Z</time>
      </trkpt>
      <trkpt lat="39.421750" lon="-5.440400">
        <ele>750.935730</ele>
        <time>2010-05-21T08:13:29Z</time>
      </trkpt>
      <trkpt lat="39.421440" lon="-5.440230">
        <ele>752.856018</ele>
        <time>2010-05-21T08:13:30Z</time>
      </trkpt>
      <trkpt lat="39.421290" lon="-5.440140">
        <ele>756.696533</ele>
        <time>2010-05-21T08:13:31Z</time>
      </trkpt>
      <trkpt lat="39.420980" lon="-5.439950">
        <ele>772.088928</ele>
        <time>2010-05-21T08:13:32Z</time>
      </trkpt>
      <trkpt lat="39.420780" lon="-5.439760">
        <ele>775.441711</ele>
        <time>2010-05-21T08:13:33Z</time>
      </trkpt>
      <trkpt lat="39.420580" lon="-5.439500">
        <ele>773.033752</ele>
        <time>2010-05-21T08:13:34Z</time>
      </trkpt>
      <trkpt lat="39.420560" lon="-5.439500">
        <ele>772.546082</ele>
        <time>2010-05-21T08:13:35Z</time>
      </trkpt>
      <trkpt lat="39.420250" lon="-5.439570">
        <ele>773.033752</ele>
        <time>2010-05-21T08:13:36Z</time>
      </trkpt>
      <trkpt lat="39.419680" lon="-5.439730">
        <ele>773.521484</ele>
        <time>2010-05-21T08:13:37Z</time>
      </trkpt>
      <trkpt lat="39.419360" lon="-5.439950">
        <ele>773.033752</ele>
        <time>2010-05-21T08:13:38Z</time>
      </trkpt>
      <trkpt lat="39.419150" lon="-5.440160">
        <ele>772.546082</ele>
        <time>2010-05-21T08:13:39Z</time>
      </trkpt>
      <trkpt lat="39.418870" lon="-5.440240">
        <ele>772.088928</ele>
        <time>2010-05-21T08:13:40Z</time>
      </trkpt>
      <trkpt lat="39.418200" lon="-5.440170">
        <ele>768.217896</ele>
        <time>2010-05-21T08:13:41Z</time>
      </trkpt>
      <trkpt lat="39.418210" lon="-5.440160">
        <ele>765.352783</ele>
        <time>2010-05-21T08:13:42Z</time>
      </trkpt>
      <trkpt lat="39.418230" lon="-5.440180">
        <ele>772.088928</ele>
        <time>2010-05-21T08:13:43Z</time>
      </trkpt>
      <trkpt lat="39.418130" lon="-5.440130">
        <ele>772.546082</ele>
        <time>2010-05-21T08:13:44Z</time>
      </trkpt>
      <trkpt lat="39.418170" lon="-5.440110">
        <ele>774.009094</ele>
        <time>2010-05-21T08:13:45Z</time>
      </trkpt>
      <trkpt lat="39.418170" lon="-5.440100">
        <ele>774.466309</ele>
        <time>2010-05-21T08:13:46Z</time>
      </trkpt>
      <trkpt lat="39.418220" lon="-5.439960">
        <ele>772.088928</ele>
        <time>2010-05-21T08:13:47Z</time>
      </trkpt>
      <trkpt lat="39.418570" lon="-5.439430">
        <ele>769.680969</ele>
        <time>2010-05-21T08:13:48Z</time>
      </trkpt>
      <trkpt lat="39.418780" lon="-5.439220">
        <ele>768.705627</ele>
        <time>2010-05-21T08:13:49Z</time>
      </trkpt>
      <trkpt lat="39.419010" lon="-5.438910">
        <ele>768.217896</ele>
        <time>2010-05-21T08:13:50Z</time>
      </trkpt>
      <trkpt lat="39.419320" lon="-5.438810">
        <ele>768.705627</ele>
        <time>2010-05-21T08:13:51Z</time>
      </trkpt>
      <trkpt lat="39.419650" lon="-5.438580">
        <ele>768.705627</ele>
        <time>2010-05-21T08:13:52Z</time>
      </trkpt>
      <trkpt lat="39.419640" lon="-5.438600">
        <ele>768.705627</ele>
        <time>2010-05-21T08:13:53Z</time>
      </trkpt>
      <trkpt lat="39.419740" lon="-5.438490">
        <ele>765.840515</ele>
        <time>2010-05-21T08:13:54Z</time>
      </trkpt>
      <trkpt lat="39.419820" lon="-5.438190">
        <ele>764.377441</ele>
        <time>2010-05-21T08:13:55Z</time>
      </trkpt>
      <trkpt lat="39.419790" lon="-5.437610">
        <ele>763.432556</ele>
        <time>2010-05-21T08:13:56Z</time>
      </trkpt>
      <trkpt lat="39.419690" lon="-5.437270">
        <ele>763.432556</ele>
        <time>2010-05-21T08:13:57Z</time>
      </trkpt>
      <trkpt lat="39.419590" lon="-5.437020">
        <ele>763.432556</ele>
        <time>2010-05-21T08:13:58Z</time>
      </trkpt>
      <trkpt lat="39.419400" lon="-5.436670">
        <ele>763.889771</ele>
        <time>2010-05-21T08:13:59Z</time>
      </trkpt>
      <trkpt lat="39.419400" lon="-5.436410">
        <ele>761.969482</ele>
        <time>2010-05-21T08:14:00Z</time>
      </trkpt>
      <trkpt lat="39.419520" lon="-5.436330">
        <ele>761.024658</ele>
        <time>2010-05-21T08:14:01Z</time>
      </trkpt>
      <trkpt lat="39.419670" lon="-5.436350">
        <ele>761.969482</ele>
        <time>2010-05-21T08:14:02Z</time>
      </trkpt>
      <trkpt lat="39.419990" lon="-5.436270">
        <ele>762.944885</ele>
        <time>2010-05-21T08:14:03Z</time>
      </trkpt>
      <trkpt lat="39.420230" lon="-5.436000">
        <ele>767.760681</ele>
        <time>2010-05-21T08:14:04Z</time>
      </trkpt>
      <trkpt lat="39.420280" lon="-5.435280">
        <ele>769.680969</ele>
        <time>2010-05-21T08:14:05Z</time>
      </trkpt>
      <trkpt lat="39.420290" lon="-5.435010">
        <ele>771.601196</ele>
        <time>2010-05-21T08:14:06Z</time>
      </trkpt>
      <trkpt lat="39.420290" lon="-5.434870">
        <ele>774.009094</ele>
        <time>2010-05-21T08:14:07Z</time>
      </trkpt>
      <trkpt lat="39.420190" lon="-5.434200">
        <ele>775.441711</ele>
        <time>2010-05-21T08:14:08Z</time>
      </trkpt>
      <trkpt lat="39.420110" lon="-5.433160">
        <ele>776.417053</ele>
        <time>2010-05-21T08:14:09Z</time>
      </trkpt>
      <trkpt lat="39.419950" lon="-5.432480">
        <ele>782.665466</ele>
        <time>2010-05-21T08:14:10Z</time>
      </trkpt>
      <trkpt lat="39.419820" lon="-5.432100">
        <ele>786.018250</ele>
        <time>2010-05-21T08:14:11Z</time>
      </trkpt>
      <trkpt lat="39.419690" lon="-5.431800">
        <ele>791.778931</ele>
        <time>2010-05-21T08:14:12Z</time>
      </trkpt>
      <trkpt lat="39.419720" lon="-5.431500">
        <ele>794.186890</ele>
        <time>2010-05-21T08:14:13Z</time>
      </trkpt>
      <trkpt lat="39.419760" lon="-5.431180">
        <ele>795.619446</ele>
        <time>2010-05-21T08:14:14Z</time>
      </trkpt>
      <trkpt lat="39.419720" lon="-5.430740">
        <ele>796.107117</ele>
        <time>2010-05-21T08:14:15Z</time>
      </trkpt>
      <trkpt lat="39.419700" lon="-5.430260">
        <ele>797.539734</ele>
        <time>2010-05-21T08:14:16Z</time>
      </trkpt>
      <trkpt lat="39.419740" lon="-5.430010">
        <ele>797.082520</ele>
        <time>2010-05-21T08:14:17Z</time>
      </trkpt>
      <trkpt lat="39.419700" lon="-5.429730">
        <ele>797.082520</ele>
        <time>2010-05-21T08:14:18Z</time>
      </trkpt>
      <trkpt lat="39.419790" lon="-5.429040">
        <ele>796.594788</ele>
        <time>2010-05-21T08:14:19Z</time>
      </trkpt>
      <trkpt lat="39.419790" lon="-5.428400">
        <ele>800.922974</ele>
        <time>2010-05-21T08:14:20Z</time>
      </trkpt>
      <trkpt lat="39.419830" lon="-5.427800">
        <ele>799.947571</ele>
        <time>2010-05-21T08:14:21Z</time>
      </trkpt>
      <trkpt lat="39.420050" lon="-5.427470">
        <ele>802.843201</ele>
        <time>2010-05-21T08:14:22Z</time>
      </trkpt>
      <trkpt lat="39.420350" lon="-5.427190">
        <ele>806.195984</ele>
        <time>2010-05-21T08:14:23Z</time>
      </trkpt>
      <trkpt lat="39.420370" lon="-5.427160">
        <ele>806.683716</ele>
        <time>2010-05-21T08:14:24Z</time>
      </trkpt>
      <trkpt lat="39.420810" lon="-5.426840">
        <ele>819.180481</ele>
        <time>2010-05-21T08:14:25Z</time>
      </trkpt>
      <trkpt lat="39.421050" lon="-5.426790">
        <ele>819.668152</ele>
        <time>2010-05-21T08:14:26Z</time>
      </trkpt>
      <trkpt lat="39.421410" lon="-5.426480">
        <ele>821.588379</ele>
        <time>2010-05-21T08:14:27Z</time>
      </trkpt>
      <trkpt lat="39.421460" lon="-5.426400">
        <ele>821.588379</ele>
        <time>2010-05-21T08:14:28Z</time>
      </trkpt>
      <trkpt lat="39.421260" lon="-5.426120">
        <ele>823.508667</ele>
        <time>2010-05-21T08:14:29Z</time>
      </trkpt>
      <trkpt lat="39.420990" lon="-5.425720">
        <ele>822.533325</ele>
        <time>2010-05-21T08:14:30Z</time>
      </trkpt>
      <trkpt lat="39.420580" lon="-5.425280">
        <ele>822.533325</ele>
        <time>2010-05-21T08:14:31Z</time>
      </trkpt>
      <trkpt lat="39.420450" lon="-5.425130">
        <ele>821.588379</ele>
        <time>2010-05-21T08:14:32Z</time>
      </trkpt>
      <trkpt lat="39.420350" lon="-5.425040">
        <ele>821.100708</ele>
        <time>2010-05-21T08:14:33Z</time>
      </trkpt>
      <trkpt lat="39.420070" lon="-5.424520">
        <ele>824.453491</ele>
        <time>2010-05-21T08:14:34Z</time>
      </trkpt>
      <trkpt lat="39.419790" lon="-5.424030">
        <ele>826.404236</ele>
        <time>2010-05-21T08:14:35Z</time>
      </trkpt>
      <trkpt lat="39.419660" lon="-5.423760">
        <ele>831.677307</ele>
        <time>2010-05-21T08:14:36Z</time>
      </trkpt>
      <trkpt lat="39.419630" lon="-5.423740">
        <ele>837.437988</ele>
        <time>2010-05-21T08:14:37Z</time>
      </trkpt>
      <trkpt lat="39.419440" lon="-5.423750">
        <ele>839.358276</ele>
        <time>2010-05-21T08:14:38Z</time>
      </trkpt>
      <trkpt lat="39.419050" lon="-5.423840">
        <ele>841.278503</ele>
        <time>2010-05-21T08:14:39Z</time>
      </trkpt>
      <trkpt lat="39.418800" lon="-5.423510">
        <ele>851.397827</ele>
        <time>2010-05-21T08:14:40Z</time>
      </trkpt>
      <trkpt lat="39.418410" lon="-5.422850">
        <ele>859.078796</ele>
        <time>2010-05-21T08:14:41Z</time>
      </trkpt>
      <trkpt lat="39.418010" lon="-5.422140">
        <ele>863.406921</ele>
        <time>2010-05-21T08:14:42Z</time>
      </trkpt>
      <trkpt lat="39.417680" lon="-5.421550">
        <ele>872.063293</ele>
        <time>2010-05-21T08:14:43Z</time>
      </trkpt>
      <trkpt lat="39.417660" lon="-5.421360">
        <ele>900.897339</ele>
        <time>2010-05-21T08:14:44Z</time>
      </trkpt>
      <trkpt lat="39.417620" lon="-5.421240">
        <ele>899.464783</ele>
        <time>2010-05-21T08:14:45Z</time>
      </trkpt>
      <trkpt lat="39.417480" lon="-5.420900">
        <ele>900.409729</ele>
        <time>2010-05-21T08:14:46Z</time>
      </trkpt>
      <trkpt lat="39.417000" lon="-5.420290">
        <ele>902.329895</ele>
        <time>2010-05-21T08:14:47Z</time>
      </trkpt>
      <trkpt lat="39.416231" lon="-5.419816">
        <ele>906.658081</ele>
        <time>2010-05-21T08:14:48Z</time>
      </trkpt>
      <trkpt lat="39.415941" lon="-5.419492">
        <ele>910.010925</ele>
        <time>2010-05-21T08:14:49Z</time>
      </trkpt>
      <trkpt lat="39.416006" lon="-5.419378">
        <ele>918.210022</ele>
        <time>2010-05-21T08:14:50Z</time>
      </trkpt>
      <trkpt lat="39.416079" lon="-5.419346">
        <ele>921.562805</ele>
        <time>2010-05-21T08:14:51Z</time>
      </trkpt>
      <trkpt lat="39.416222" lon="-5.419374">
        <ele>928.756104</ele>
        <time>2010-05-21T08:14:52Z</time>
      </trkpt>
      <trkpt lat="39.416390" lon="-5.419370">
        <ele>933.571899</ele>
        <time>2010-05-21T08:14:53Z</time>
      </trkpt>
      <trkpt lat="39.416500" lon="-5.419270">
        <ele>934.059570</ele>
        <time>2010-05-21T08:14:54Z</time>
      </trkpt>
      <trkpt lat="39.416510" lon="-5.419250">
        <ele>934.059570</ele>
        <time>2010-05-21T08:14:55Z</time>
      </trkpt>
      <trkpt lat="39.416570" lon="-5.419060">
        <ele>932.627075</ele>
        <time>2010-05-21T08:14:56Z</time>
      </trkpt>
      <trkpt lat="39.416810" lon="-5.418520">
        <ele>932.139343</ele>
        <time>2010-05-21T08:14:57Z</time>
      </trkpt>
      <trkpt lat="39.416760" lon="-5.418080">
        <ele>931.651733</ele>
        <time>2010-05-21T08:14:58Z</time>
      </trkpt>
      <trkpt lat="39.416630" lon="-5.417570">
        <ele>927.811218</ele>
        <time>2010-05-21T08:14:59Z</time>
      </trkpt>
      <trkpt lat="39.416420" lon="-5.417270">
        <ele>922.507690</ele>
        <time>2010-05-21T08:15:00Z</time>
      </trkpt>
      <trkpt lat="39.416290" lon="-5.416610">
        <ele>922.050537</ele>
        <time>2010-05-21T08:15:01Z</time>
      </trkpt>
      <trkpt lat="39.416040" lon="-5.415880">
        <ele>919.642517</ele>
        <time>2010-05-21T08:15:02Z</time>
      </trkpt>
      <trkpt lat="39.415820" lon="-5.415270">
        <ele>923.483032</ele>
        <time>2010-05-21T08:15:03Z</time>
      </trkpt>
      <trkpt lat="39.415750" lon="-5.414970">
        <ele>924.915588</ele>
        <time>2010-05-21T08:15:04Z</time>
      </trkpt>
      <trkpt lat="39.415530" lon="-5.413880">
        <ele>924.458374</ele>
        <time>2010-05-21T08:15:05Z</time>
      </trkpt>
      <trkpt lat="39.415520" lon="-5.413820">
        <ele>923.483032</ele>
        <time>2010-05-21T08:15:06Z</time>
      </trkpt>
      <trkpt lat="39.415430" lon="-5.413660">
        <ele>921.075073</ele>
        <time>2010-05-21T08:15:07Z</time>
      </trkpt>
      <trkpt lat="39.414870" lon="-5.412960">
        <ele>910.986267</ele>
        <time>2010-05-21T08:15:08Z</time>
      </trkpt>
      <trkpt lat="39.414120" lon="-5.412380">
        <ele>908.578308</ele>
        <time>2010-05-21T08:15:09Z</time>
      </trkpt>
      <trkpt lat="39.413910" lon="-5.412090">
        <ele>910.010925</ele>
        <time>2010-05-21T08:15:10Z</time>
      </trkpt>
      <trkpt lat="39.413960" lon="-5.412110">
        <ele>910.010925</ele>
        <time>2010-05-21T08:15:11Z</time>
      </trkpt>
      <trkpt lat="39.413830" lon="-5.412090">
        <ele>910.010925</ele>
        <time>2010-05-21T08:15:12Z</time>
      </trkpt>
      <trkpt lat="39.413630" lon="-5.411790">
        <ele>911.961609</ele>
        <time>2010-05-21T08:15:13Z</time>
      </trkpt>
      <trkpt lat="39.413570" lon="-5.411710">
        <ele>914.826660</ele>
        <time>2010-05-21T08:15:14Z</time>
      </trkpt>
      <trkpt lat="39.413480" lon="-5.411500">
        <ele>914.339050</ele>
        <time>2010-05-21T08:15:15Z</time>
      </trkpt>
      <trkpt lat="39.413190" lon="-5.410820">
        <ele>914.826660</ele>
        <time>2010-05-21T08:15:16Z</time>
      </trkpt>
      <trkpt lat="39.413000" lon="-5.410080">
        <ele>918.210022</ele>
        <time>2010-05-21T08:15:17Z</time>
      </trkpt>
      <trkpt lat="39.412840" lon="-5.409660">
        <ele>919.642517</ele>
        <time>2010-05-21T08:15:18Z</time>
      </trkpt>
      <trkpt lat="39.412830" lon="-5.409630">
        <ele>916.746948</ele>
        <time>2010-05-21T08:15:19Z</time>
      </trkpt>
      <trkpt lat="39.412690" lon="-5.409570">
        <ele>916.746948</ele>
        <time>2010-05-21T08:15:20Z</time>
      </trkpt>
      <trkpt lat="39.412610" lon="-5.409560">
        <ele>917.234680</ele>
        <time>2010-05-21T08:15:21Z</time>
      </trkpt>
      <trkpt lat="39.412350" lon="-5.409450">
        <ele>916.259338</ele>
        <time>2010-05-21T08:15:22Z</time>
      </trkpt>
      <trkpt lat="39.412070" lon="-5.409060">
        <ele>916.259338</ele>
        <time>2010-05-21T08:15:23Z</time>
      </trkpt>
      <trkpt lat="39.411990" lon="-5.408900">
        <ele>904.737854</ele>
        <time>2010-05-21T08:15:24Z</time>
      </trkpt>
      <trkpt lat="39.411860" lon="-5.408710">
        <ele>895.593872</ele>
        <time>2010-05-21T08:15:25Z</time>
      </trkpt>
      <trkpt lat="39.411590" lon="-5.408250">
        <ele>895.136658</ele>
        <time>2010-05-21T08:15:26Z</time>
      </trkpt>
      <trkpt lat="39.411310" lon="-5.408000">
        <ele>889.833069</ele>
        <time>2010-05-21T08:15:27Z</time>
      </trkpt>
      <trkpt lat="39.411080" lon="-5.407790">
        <ele>887.912903</ele>
        <time>2010-05-21T08:15:28Z</time>
      </trkpt>
      <trkpt lat="39.411050" lon="-5.407760">
        <ele>883.584717</ele>
        <time>2010-05-21T08:15:29Z</time>
      </trkpt>
      <trkpt lat="39.410780" lon="-5.407620">
        <ele>880.719604</ele>
        <time>2010-05-21T08:15:30Z</time>
      </trkpt>
      <trkpt lat="39.410610" lon="-5.407380">
        <ele>876.391479</ele>
        <time>2010-05-21T08:15:31Z</time>
      </trkpt>
      <trkpt lat="39.410290" lon="-5.407090">
        <ele>870.600281</ele>
        <time>2010-05-21T08:15:32Z</time>
      </trkpt>
      <trkpt lat="39.410060" lon="-5.406870">
        <ele>868.679993</ele>
        <time>2010-05-21T08:15:33Z</time>
      </trkpt>
      <trkpt lat="39.410450" lon="-5.406810">
        <ele>868.679993</ele>
        <time>2010-05-21T08:15:34Z</time>
      </trkpt>
      <trkpt lat="39.410640" lon="-5.406850">
        <ele>869.167725</ele>
        <time>2010-05-21T08:15:35Z</time>
      </trkpt>
      <trkpt lat="39.410700" lon="-5.406700">
        <ele>868.679993</ele>
        <time>2010-05-21T08:15:36Z</time>
      </trkpt>
      <trkpt lat="39.410530" lon="-5.406400">
        <ele>866.759766</ele>
        <time>2010-05-21T08:15:37Z</time>
      </trkpt>
      <trkpt lat="39.410450" lon="-5.405980">
        <ele>865.327209</ele>
        <time>2010-05-21T08:15:38Z</time>
      </trkpt>
      <trkpt lat="39.410410" lon="-5.405550">
        <ele>864.351868</ele>
        <time>2010-05-21T08:15:39Z</time>
      </trkpt>
      <trkpt lat="39.410280" lon="-5.405080">
        <ele>863.894653</ele>
        <time>2010-05-21T08:15:40Z</time>
      </trkpt>
      <trkpt lat="39.410280" lon="-5.404950">
        <ele>859.566528</ele>
        <time>2010-05-21T08:15:41Z</time>
      </trkpt>
      <trkpt lat="39.410300" lon="-5.404970">
        <ele>855.695496</ele>
        <time>2010-05-21T08:15:42Z</time>
      </trkpt>
      <trkpt lat="39.410310" lon="-5.404990">
        <ele>853.775330</ele>
        <time>2010-05-21T08:15:43Z</time>
      </trkpt>
      <trkpt lat="39.410570" lon="-5.405290">
        <ele>850.910156</ele>
        <time>2010-05-21T08:15:44Z</time>
      </trkpt>
      <trkpt lat="39.410790" lon="-5.405660">
        <ele>850.910156</ele>
        <time>2010-05-21T08:15:45Z</time>
      </trkpt>
      <trkpt lat="39.410990" lon="-5.405920">
        <ele>847.526917</ele>
        <time>2010-05-21T08:15:46Z</time>
      </trkpt>
      <trkpt lat="39.411330" lon="-5.406170">
        <ele>834.572937</ele>
        <time>2010-05-21T08:15:47Z</time>
      </trkpt>
      <trkpt lat="39.411720" lon="-5.406570">
        <ele>832.164917</ele>
        <time>2010-05-21T08:15:48Z</time>
      </trkpt>
      <trkpt lat="39.412130" lon="-5.406710">
        <ele>831.189575</ele>
        <time>2010-05-21T08:15:49Z</time>
      </trkpt>
      <trkpt lat="39.412510" lon="-5.406850">
        <ele>828.781738</ele>
        <time>2010-05-21T08:15:50Z</time>
      </trkpt>
      <trkpt lat="39.412820" lon="-5.407150">
        <ele>823.996277</ele>
        <time>2010-05-21T08:15:51Z</time>
      </trkpt>
      <trkpt lat="39.413070" lon="-5.407140">
        <ele>823.020935</ele>
        <time>2010-05-21T08:15:52Z</time>
      </trkpt>
      <trkpt lat="39.413530" lon="-5.407160">
        <ele>819.668152</ele>
        <time>2010-05-21T08:15:53Z</time>
      </trkpt>
      <trkpt lat="39.413770" lon="-5.407170">
        <ele>819.180481</ele>
        <time>2010-05-21T08:15:54Z</time>
      </trkpt>
      <trkpt lat="39.413990" lon="-5.406750">
        <ele>819.668152</ele>
        <time>2010-05-21T08:15:55Z</time>
      </trkpt>
      <trkpt lat="39.414140" lon="-5.406440">
        <ele>819.180481</ele>
        <time>2010-05-21T08:15:56Z</time>
      </trkpt>
      <trkpt lat="39.414480" lon="-5.406230">
        <ele>819.668152</ele>
        <time>2010-05-21T08:15:57Z</time>
      </trkpt>
      <trkpt lat="39.414750" lon="-5.406060">
        <ele>819.180481</ele>
        <time>2010-05-21T08:15:58Z</time>
      </trkpt>
      <trkpt lat="39.414940" lon="-5.406000">
        <ele>818.692810</ele>
        <time>2010-05-21T08:15:59Z</time>
      </trkpt>
      <trkpt lat="39.415230" lon="-5.406100">
        <ele>818.205078</ele>
        <time>2010-05-21T08:16:00Z</time>
      </trkpt>
      <trkpt lat="39.415280" lon="-5.406120">
        <ele>817.747864</ele>
        <time>2010-05-21T08:16:01Z</time>
      </trkpt>
      <trkpt lat="39.415660" lon="-5.406340">
        <ele>811.011841</ele>
        <time>2010-05-21T08:16:02Z</time>
      </trkpt>
      <trkpt lat="39.416180" lon="-5.406660">
        <ele>798.027344</ele>
        <time>2010-05-21T08:16:03Z</time>
      </trkpt>
      <trkpt lat="39.416580" lon="-5.406790">
        <ele>793.699219</ele>
        <time>2010-05-21T08:16:04Z</time>
      </trkpt>
      <trkpt lat="39.416700" lon="-5.406670">
        <ele>787.450806</ele>
        <time>2010-05-21T08:16:05Z</time>
      </trkpt>
      <trkpt lat="39.416750" lon="-5.406420">
        <ele>788.426147</ele>
        <time>2010-05-21T08:16:06Z</time>
      </trkpt>
      <trkpt lat="39.416940" lon="-5.405700">
        <ele>786.963074</ele>
        <time>2010-05-21T08:16:07Z</time>
      </trkpt>
      <trkpt lat="39.417000" lon="-5.405620">
        <ele>785.530518</ele>
        <time>2010-05-21T08:16:08Z</time>
      </trkpt>
      <trkpt lat="39.417150" lon="-5.405450">
        <ele>783.122681</ele>
        <time>2010-05-21T08:16:09Z</time>
      </trkpt>
      <trkpt lat="39.417360" lon="-5.405260">
        <ele>779.769836</ele>
        <time>2010-05-21T08:16:10Z</time>
      </trkpt>
      <trkpt lat="39.418050" lon="-5.405320">
        <ele>777.361877</ele>
        <time>2010-05-21T08:16:11Z</time>
      </trkpt>
      <trkpt lat="39.418460" lon="-5.405410">
        <ele>773.033752</ele>
        <time>2010-05-21T08:16:12Z</time>
      </trkpt>
      <trkpt lat="39.418590" lon="-5.405470">
        <ele>772.546082</ele>
        <time>2010-05-21T08:16:13Z</time>
      </trkpt>
      <trkpt lat="39.418660" lon="-5.405510">
        <ele>770.625854</ele>
        <time>2010-05-21T08:16:14Z</time>
      </trkpt>
      <trkpt lat="39.418840" lon="-5.405540">
        <ele>768.217896</ele>
        <time>2010-05-21T08:16:15Z</time>
      </trkpt>
      <trkpt lat="39.419230" lon="-5.405700">
        <ele>761.969482</ele>
        <time>2010-05-21T08:16:16Z</time>
      </trkpt>
      <trkpt lat="39.419370" lon="-5.405860">
        <ele>759.592102</ele>
        <time>2010-05-21T08:16:17Z</time>
      </trkpt>
      <trkpt lat="39.419540" lon="-5.405760">
        <ele>752.368286</ele>
        <time>2010-05-21T08:16:18Z</time>
      </trkpt>
      <trkpt lat="39.419620" lon="-5.405200">
        <ele>751.880676</ele>
        <time>2010-05-21T08:16:19Z</time>
      </trkpt>
      <trkpt lat="39.419580" lon="-5.404790">
        <ele>749.472717</ele>
        <time>2010-05-21T08:16:20Z</time>
      </trkpt>
      <trkpt lat="39.419580" lon="-5.404610">
        <ele>747.095337</ele>
        <time>2010-05-21T08:16:21Z</time>
      </trkpt>
      <trkpt lat="39.419580" lon="-5.404590">
        <ele>744.687317</ele>
        <time>2010-05-21T08:16:22Z</time>
      </trkpt>
      <trkpt lat="39.419560" lon="-5.404200">
        <ele>743.224304</ele>
        <time>2010-05-21T08:16:23Z</time>
      </trkpt>
      <trkpt lat="39.419450" lon="-5.403910">
        <ele>741.791748</ele>
        <time>2010-05-21T08:16:24Z</time>
      </trkpt>
      <trkpt lat="39.419000" lon="-5.403140">
        <ele>739.871460</ele>
        <time>2010-05-21T08:16:25Z</time>
      </trkpt>
      <trkpt lat="39.418930" lon="-5.402870">
        <ele>739.871460</ele>
        <time>2010-05-21T08:16:26Z</time>
      </trkpt>
      <trkpt lat="39.418530" lon="-5.402160">
        <ele>738.896118</ele>
        <time>2010-05-21T08:16:27Z</time>
      </trkpt>
      <trkpt lat="39.418500" lon="-5.402110">
        <ele>737.951294</ele>
        <time>2010-05-21T08:16:28Z</time>
      </trkpt>
      <trkpt lat="39.418420" lon="-5.401800">
        <ele>734.598511</ele>
        <time>2010-05-21T08:16:29Z</time>
      </trkpt>
      <trkpt lat="39.418280" lon="-5.401430">
        <ele>733.623108</ele>
        <time>2010-05-21T08:16:30Z</time>
      </trkpt>
      <trkpt lat="39.418080" lon="-5.401230">
        <ele>732.190552</ele>
        <time>2010-05-21T08:16:31Z</time>
      </trkpt>
      <trkpt lat="39.417930" lon="-5.401060">
        <ele>733.135437</ele>
        <time>2010-05-21T08:16:32Z</time>
      </trkpt>
      <trkpt lat="39.417840" lon="-5.400950">
        <ele>727.374695</ele>
        <time>2010-05-21T08:16:33Z</time>
      </trkpt>
      <trkpt lat="39.417610" lon="-5.401010">
        <ele>724.479065</ele>
        <time>2010-05-21T08:16:34Z</time>
      </trkpt>
      <trkpt lat="39.417620" lon="-5.401060">
        <ele>712.957703</ele>
        <time>2010-05-21T08:16:35Z</time>
      </trkpt>
      <trkpt lat="39.417670" lon="-5.401210">
        <ele>707.196960</ele>
        <time>2010-05-21T08:16:36Z</time>
      </trkpt>
      <trkpt lat="39.417750" lon="-5.401370">
        <ele>706.221619</ele>
        <time>2010-05-21T08:16:37Z</time>
      </trkpt>
      <trkpt lat="39.417990" lon="-5.401800">
        <ele>706.221619</ele>
        <time>2010-05-21T08:16:38Z</time>
      </trkpt>
      <trkpt lat="39.418020" lon="-5.402010">
        <ele>704.789063</ele>
        <time>2010-05-21T08:16:39Z</time>
      </trkpt>
      <trkpt lat="39.418050" lon="-5.402360">
        <ele>701.893433</ele>
        <time>2010-05-21T08:16:40Z</time>
      </trkpt>
      <trkpt lat="39.417870" lon="-5.402440">
        <ele>697.565308</ele>
        <time>2010-05-21T08:16:41Z</time>
      </trkpt>
      <trkpt lat="39.417370" lon="-5.402110">
        <ele>695.645081</ele>
        <time>2010-05-21T08:16:42Z</time>
      </trkpt>
      <trkpt lat="39.417250" lon="-5.402020">
        <ele>687.964111</ele>
        <time>2010-05-21T08:16:43Z</time>
      </trkpt>
      <trkpt lat="39.416860" lon="-5.401680">
        <ele>686.988708</ele>
        <time>2010-05-21T08:16:44Z</time>
      </trkpt>
      <trkpt lat="39.416760" lon="-5.401580">
        <ele>685.556152</ele>
        <time>2010-05-21T08:16:45Z</time>
      </trkpt>
      <trkpt lat="39.416740" lon="-5.401560">
        <ele>686.988708</ele>
        <time>2010-05-21T08:16:46Z</time>
      </trkpt>
      <trkpt lat="39.416570" lon="-5.401470">
        <ele>689.884277</ele>
        <time>2010-05-21T08:16:47Z</time>
      </trkpt>
      <trkpt lat="39.416220" lon="-5.401280">
        <ele>688.451721</ele>
        <time>2010-05-21T08:16:48Z</time>
      </trkpt>
      <trkpt lat="39.415930" lon="-5.401030">
        <ele>685.068481</ele>
        <time>2010-05-21T08:16:49Z</time>
      </trkpt>
      <trkpt lat="39.415450" lon="-5.400700">
        <ele>681.228027</ele>
        <time>2010-05-21T08:16:50Z</time>
      </trkpt>
      <trkpt lat="39.415250" lon="-5.400600">
        <ele>678.332397</ele>
        <time>2010-05-21T08:16:51Z</time>
      </trkpt>
      <trkpt lat="39.414640" lon="-5.400070">
        <ele>674.979614</ele>
        <time>2010-05-21T08:16:52Z</time>
      </trkpt>
      <trkpt lat="39.414560" lon="-5.400000">
        <ele>674.034668</ele>
        <time>2010-05-21T08:16:53Z</time>
      </trkpt>
      <trkpt lat="39.414380" lon="-5.399650">
        <ele>671.139099</ele>
        <time>2010-05-21T08:16:54Z</time>
      </trkpt>
      <trkpt lat="39.414000" lon="-5.399240">
        <ele>670.651428</ele>
        <time>2010-05-21T08:16:55Z</time>
      </trkpt>
      <trkpt lat="39.413980" lon="-5.399200">
        <ele>669.706543</ele>
        <time>2010-05-21T08:16:56Z</time>
      </trkpt>
      <trkpt lat="39.414050" lon="-5.399240">
        <ele>669.706543</ele>
        <time>2010-05-21T08:16:57Z</time>
      </trkpt>
      <trkpt lat="39.413800" lon="-5.398820">
        <ele>670.163757</ele>
        <time>2010-05-21T08:16:58Z</time>
      </trkpt>
      <trkpt lat="39.413590" lon="-5.398440">
        <ele>669.218933</ele>
        <time>2010-05-21T08:16:59Z</time>
      </trkpt>
      <trkpt lat="39.413500" lon="-5.398050">
        <ele>667.298645</ele>
        <time>2010-05-21T08:17:00Z</time>
      </trkpt>
      <trkpt lat="39.413580" lon="-5.397760">
        <ele>660.562561</ele>
        <time>2010-05-21T08:17:01Z</time>
      </trkpt>
      <trkpt lat="39.413650" lon="-5.397600">
        <ele>661.537903</ele>
        <time>2010-05-21T08:17:02Z</time>
      </trkpt>
      <trkpt lat="39.414040" lon="-5.396990">
        <ele>661.537903</ele>
        <time>2010-05-21T08:17:03Z</time>
      </trkpt>
      <trkpt lat="39.414070" lon="-5.396930">
        <ele>659.130005</ele>
        <time>2010-05-21T08:17:04Z</time>
      </trkpt>
      <trkpt lat="39.414560" lon="-5.396700">
        <ele>658.642273</ele>
        <time>2010-05-21T08:17:05Z</time>
      </trkpt>
      <trkpt lat="39.414700" lon="-5.396830">
        <ele>657.666931</ele>
        <time>2010-05-21T08:17:06Z</time>
      </trkpt>
      <trkpt lat="39.414840" lon="-5.397000">
        <ele>656.722107</ele>
        <time>2010-05-21T08:17:07Z</time>
      </trkpt>
      <trkpt lat="39.415240" lon="-5.397190">
        <ele>653.826538</ele>
        <time>2010-05-21T08:17:08Z</time>
      </trkpt>
      <trkpt lat="39.415540" lon="-5.397540">
        <ele>654.314148</ele>
        <time>2010-05-21T08:17:09Z</time>
      </trkpt>
      <trkpt lat="39.416230" lon="-5.397740">
        <ele>657.209717</ele>
        <time>2010-05-21T08:17:10Z</time>
      </trkpt>
      <trkpt lat="39.416570" lon="-5.397650">
        <ele>657.666931</ele>
        <time>2010-05-21T08:17:11Z</time>
      </trkpt>
      <trkpt lat="39.416640" lon="-5.397660">
        <ele>654.801880</ele>
        <time>2010-05-21T08:17:12Z</time>
      </trkpt>
      <trkpt lat="39.416850" lon="-5.397780">
        <ele>653.826538</ele>
        <time>2010-05-21T08:17:13Z</time>
      </trkpt>
      <trkpt lat="39.416960" lon="-5.397840">
        <ele>651.906250</ele>
        <time>2010-05-21T08:17:14Z</time>
      </trkpt>
      <trkpt lat="39.417110" lon="-5.397930">
        <ele>651.906250</ele>
        <time>2010-05-21T08:17:15Z</time>
      </trkpt>
      <trkpt lat="39.417580" lon="-5.397970">
        <ele>647.578125</ele>
        <time>2010-05-21T08:17:16Z</time>
      </trkpt>
      <trkpt lat="39.417890" lon="-5.398150">
        <ele>635.081299</ele>
        <time>2010-05-21T08:17:17Z</time>
      </trkpt>
      <trkpt lat="39.418200" lon="-5.398300">
        <ele>633.648682</ele>
        <time>2010-05-21T08:17:18Z</time>
      </trkpt>
      <trkpt lat="39.418750" lon="-5.398420">
        <ele>633.161072</ele>
        <time>2010-05-21T08:17:19Z</time>
      </trkpt>
      <trkpt lat="39.418930" lon="-5.398030">
        <ele>633.161072</ele>
        <time>2010-05-21T08:17:20Z</time>
      </trkpt>
      <trkpt lat="39.418960" lon="-5.397520">
        <ele>632.216125</ele>
        <time>2010-05-21T08:17:21Z</time>
      </trkpt>
      <trkpt lat="39.418990" lon="-5.397400">
        <ele>631.240784</ele>
        <time>2010-05-21T08:17:22Z</time>
      </trkpt>
      <trkpt lat="39.419170" lon="-5.397360">
        <ele>631.240784</ele>
        <time>2010-05-21T08:17:23Z</time>
      </trkpt>
      <trkpt lat="39.419220" lon="-5.397170">
        <ele>630.295898</ele>
        <time>2010-05-21T08:17:24Z</time>
      </trkpt>
      <trkpt lat="39.419160" lon="-5.396770">
        <ele>632.216125</ele>
        <time>2010-05-21T08:17:25Z</time>
      </trkpt>
      <trkpt lat="39.419290" lon="-5.396280">
        <ele>634.136414</ele>
        <time>2010-05-21T08:17:26Z</time>
      </trkpt>
      <trkpt lat="39.419330" lon="-5.396190">
        <ele>636.544312</ele>
        <time>2010-05-21T08:17:27Z</time>
      </trkpt>
      <trkpt lat="39.419330" lon="-5.396190">
        <ele>642.305054</ele>
        <time>2010-05-21T08:17:28Z</time>
      </trkpt>
      <trkpt lat="39.419390" lon="-5.396100">
        <ele>642.305054</ele>
        <time>2010-05-21T08:17:29Z</time>
      </trkpt>
      <trkpt lat="39.420000" lon="-5.395850">
        <ele>642.305054</ele>
        <time>2010-05-21T08:17:30Z</time>
      </trkpt>
      <trkpt lat="39.420240" lon="-5.395790">
        <ele>642.792664</ele>
        <time>2010-05-21T08:17:31Z</time>
      </trkpt>
      <trkpt lat="39.420450" lon="-5.395790">
        <ele>644.712952</ele>
        <time>2010-05-21T08:17:32Z</time>
      </trkpt>
      <trkpt lat="39.420660" lon="-5.395810">
        <ele>645.170166</ele>
        <time>2010-05-21T08:17:33Z</time>
      </trkpt>
      <trkpt lat="39.421050" lon="-5.395980">
        <ele>645.657837</ele>
        <time>2010-05-21T08:17:34Z</time>
      </trkpt>
      <trkpt lat="39.421480" lon="-5.396070">
        <ele>646.145508</ele>
        <time>2010-05-21T08:17:35Z</time>
      </trkpt>
      <trkpt lat="39.421410" lon="-5.395860">
        <ele>645.657837</ele>
        <time>2010-05-21T08:17:36Z</time>
      </trkpt>
      <trkpt lat="39.420860" lon="-5.395160">
        <ele>645.170166</ele>
        <time>2010-05-21T08:17:37Z</time>
      </trkpt>
      <trkpt lat="39.420780" lon="-5.394990">
        <ele>644.712952</ele>
        <time>2010-05-21T08:17:38Z</time>
      </trkpt>
      <trkpt lat="39.420680" lon="-5.394800">
        <ele>642.792664</ele>
        <time>2010-05-21T08:17:39Z</time>
      </trkpt>
      <trkpt lat="39.420650" lon="-5.394750">
        <ele>642.305054</ele>
        <time>2010-05-21T08:17:40Z</time>
      </trkpt>
      <trkpt lat="39.420090" lon="-5.393790">
        <ele>639.897095</ele>
        <time>2010-05-21T08:17:41Z</time>
      </trkpt>
      <trkpt lat="39.419720" lon="-5.393130">
        <ele>639.897095</ele>
        <time>2010-05-21T08:17:42Z</time>
      </trkpt>
      <trkpt lat="39.419380" lon="-5.392980">
        <ele>639.897095</ele>
        <time>2010-05-21T08:17:43Z</time>
      </trkpt>
      <trkpt lat="39.418850" lon="-5.392620">
        <ele>639.409485</ele>
        <time>2010-05-21T08:17:44Z</time>
      </trkpt>
      <trkpt lat="39.418640" lon="-5.392140">
        <ele>639.409485</ele>
        <time>2010-05-21T08:17:45Z</time>
      </trkpt>
      <trkpt lat="39.418510" lon="-5.391770">
        <ele>643.249878</ele>
        <time>2010-05-21T08:17:46Z</time>
      </trkpt>
      <trkpt lat="39.418370" lon="-5.391550">
        <ele>645.657837</ele>
        <time>2010-05-21T08:17:47Z</time>
      </trkpt>
      <trkpt lat="39.418430" lon="-5.391100">
        <ele>647.578125</ele>
        <time>2010-05-21T08:17:48Z</time>
      </trkpt>
      <trkpt lat="39.418490" lon="-5.391010">
        <ele>656.234375</ele>
        <time>2010-05-21T08:17:49Z</time>
      </trkpt>
      <trkpt lat="39.418450" lon="-5.390800">
        <ele>657.666931</ele>
        <time>2010-05-21T08:17:50Z</time>
      </trkpt>
      <trkpt lat="39.418410" lon="-5.390820">
        <ele>656.722107</ele>
        <time>2010-05-21T08:17:51Z</time>
      </trkpt>
      <trkpt lat="39.418410" lon="-5.390820">
        <ele>657.209717</ele>
        <time>2010-05-21T08:17:52Z</time>
      </trkpt>
      <trkpt lat="39.418210" lon="-5.390850">
        <ele>656.234375</ele>
        <time>2010-05-21T08:17:53Z</time>
      </trkpt>
      <trkpt lat="39.418050" lon="-5.390860">
        <ele>652.393860</ele>
        <time>2010-05-21T08:17:54Z</time>
      </trkpt>
      <trkpt lat="39.417910" lon="-5.390820">
        <ele>650.961365</ele>
        <time>2010-05-21T08:17:55Z</time>
      </trkpt>
      <trkpt lat="39.417760" lon="-5.390610">
        <ele>649.986023</ele>
        <time>2010-05-21T08:17:56Z</time>
      </trkpt>
      <trkpt lat="39.417670" lon="-5.390460">
        <ele>651.906250</ele>
        <time>2010-05-21T08:17:57Z</time>
      </trkpt>
      <trkpt lat="39.417580" lon="-5.389660">
        <ele>654.314148</ele>
        <time>2010-05-21T08:17:58Z</time>
      </trkpt>
      <trkpt lat="39.417590" lon="-5.389650">
        <ele>655.289490</ele>
        <time>2010-05-21T08:17:59Z</time>
      </trkpt>
      <trkpt lat="39.417590" lon="-5.389490">
        <ele>654.314148</ele>
        <time>2010-05-21T08:18:00Z</time>
      </trkpt>
      <trkpt lat="39.417390" lon="-5.388550">
        <ele>663.915344</ele>
        <time>2010-05-21T08:18:01Z</time>
      </trkpt>
      <trkpt lat="39.417140" lon="-5.387920">
        <ele>664.890686</ele>
        <time>2010-05-21T08:18:02Z</time>
      </trkpt>
      <trkpt lat="39.417230" lon="-5.387530">
        <ele>668.243469</ele>
        <time>2010-05-21T08:18:03Z</time>
      </trkpt>
      <trkpt lat="39.417330" lon="-5.387430">
        <ele>672.083984</ele>
        <time>2010-05-21T08:18:04Z</time>
      </trkpt>
      <trkpt lat="39.417330" lon="-5.387170">
        <ele>674.034668</ele>
        <time>2010-05-21T08:18:05Z</time>
      </trkpt>
      <trkpt lat="39.417170" lon="-5.387170">
        <ele>675.467285</ele>
        <time>2010-05-21T08:18:06Z</time>
      </trkpt>
      <trkpt lat="39.416950" lon="-5.387260">
        <ele>676.412170</ele>
        <time>2010-05-21T08:18:07Z</time>
      </trkpt>
      <trkpt lat="39.416750" lon="-5.387240">
        <ele>675.467285</ele>
        <time>2010-05-21T08:18:08Z</time>
      </trkpt>
      <trkpt lat="39.416710" lon="-5.387230">
        <ele>675.467285</ele>
        <time>2010-05-21T08:18:09Z</time>
      </trkpt>
      <trkpt lat="39.416620" lon="-5.387150">
        <ele>677.387512</ele>
        <time>2010-05-21T08:18:16Z</time>
      </trkpt>
      <trkpt lat="39.416470" lon="-5.387100">
        <ele>676.412170</ele>
        <time>2010-05-21T08:18:17Z</time>
      </trkpt>
      <trkpt lat="39.416200" lon="-5.386910">
        <ele>676.412170</ele>
        <time>2010-05-21T08:18:18Z</time>
      </trkpt>
      <trkpt lat="39.416020" lon="-5.386360">
        <ele>675.954956</ele>
        <time>2010-05-21T08:18:19Z</time>
      </trkpt>
      <trkpt lat="39.416030" lon="-5.386120">
        <ele>674.979614</ele>
        <time>2010-05-21T08:18:20Z</time>
      </trkpt>
      <trkpt lat="39.415920" lon="-5.385760">
        <ele>673.059326</ele>
        <time>2010-05-21T08:18:21Z</time>
      </trkpt>
      <trkpt lat="39.415660" lon="-5.385490">
        <ele>673.059326</ele>
        <time>2010-05-21T08:18:22Z</time>
      </trkpt>
      <trkpt lat="39.415190" lon="-5.385150">
        <ele>672.083984</ele>
        <time>2010-05-21T08:18:23Z</time>
      </trkpt>
      <trkpt lat="39.415140" lon="-5.385030">
        <ele>672.571716</ele>
        <time>2010-05-21T08:18:24Z</time>
      </trkpt>
      <trkpt lat="39.414710" lon="-5.384770">
        <ele>673.059326</ele>
        <time>2010-05-21T08:18:25Z</time>
      </trkpt>
      <trkpt lat="39.414580" lon="-5.384590">
        <ele>673.059326</ele>
        <time>2010-05-21T08:18:26Z</time>
      </trkpt>
      <trkpt lat="39.414470" lon="-5.384350">
        <ele>672.083984</ele>
        <time>2010-05-21T08:18:27Z</time>
      </trkpt>
      <trkpt lat="39.414060" lon="-5.384120">
        <ele>668.731201</ele>
        <time>2010-05-21T08:18:28Z</time>
      </trkpt>
      <trkpt lat="39.413710" lon="-5.384100">
        <ele>669.218933</ele>
        <time>2010-05-21T08:18:29Z</time>
      </trkpt>
      <trkpt lat="39.413480" lon="-5.383790">
        <ele>669.706543</ele>
        <time>2010-05-21T08:18:30Z</time>
      </trkpt>
      <trkpt lat="39.413290" lon="-5.383910">
        <ele>669.706543</ele>
        <time>2010-05-21T08:18:31Z</time>
      </trkpt>
      <trkpt lat="39.413070" lon="-5.383830">
        <ele>666.810974</ele>
        <time>2010-05-21T08:18:32Z</time>
      </trkpt>
      <trkpt lat="39.412980" lon="-5.383730">
        <ele>665.835571</ele>
        <time>2010-05-21T08:18:33Z</time>
      </trkpt>
      <trkpt lat="39.412900" lon="-5.383610">
        <ele>666.323303</ele>
        <time>2010-05-21T08:18:34Z</time>
      </trkpt>
      <trkpt lat="39.412820" lon="-5.383480">
        <ele>650.961365</ele>
        <time>2010-05-21T08:18:35Z</time>
      </trkpt>
      <trkpt lat="39.412690" lon="-5.383070">
        <ele>649.986023</ele>
        <time>2010-05-21T08:18:36Z</time>
      </trkpt>
      <trkpt lat="39.412620" lon="-5.382160">
        <ele>649.041077</ele>
        <time>2010-05-21T08:18:37Z</time>
      </trkpt>
      <trkpt lat="39.412320" lon="-5.381600">
        <ele>645.657837</ele>
        <time>2010-05-21T08:18:38Z</time>
      </trkpt>
      <trkpt lat="39.412320" lon="-5.381600">
        <ele>643.737610</ele>
        <time>2010-05-21T08:18:39Z</time>
      </trkpt>
      <trkpt lat="39.412300" lon="-5.381590">
        <ele>643.249878</ele>
        <time>2010-05-21T08:18:40Z</time>
      </trkpt>
      <trkpt lat="39.412110" lon="-5.381250">
        <ele>641.817322</ele>
        <time>2010-05-21T08:18:41Z</time>
      </trkpt>
      <trkpt lat="39.412060" lon="-5.380730">
        <ele>641.329712</ele>
        <time>2010-05-21T08:18:42Z</time>
      </trkpt>
      <trkpt lat="39.412120" lon="-5.380400">
        <ele>650.961365</ele>
        <time>2010-05-21T08:18:43Z</time>
      </trkpt>
      <trkpt lat="39.411970" lon="-5.379760">
        <ele>652.881592</ele>
        <time>2010-05-21T08:18:44Z</time>
      </trkpt>
      <trkpt lat="39.411880" lon="-5.379730">
        <ele>656.234375</ele>
        <time>2010-05-21T08:18:45Z</time>
      </trkpt>
      <trkpt lat="39.411760" lon="-5.379640">
        <ele>656.722107</ele>
        <time>2010-05-21T08:18:46Z</time>
      </trkpt>
      <trkpt lat="39.411380" lon="-5.379500">
        <ele>657.209717</ele>
        <time>2010-05-21T08:18:47Z</time>
      </trkpt>
      <trkpt lat="39.411170" lon="-5.379140">
        <ele>658.154663</ele>
        <time>2010-05-21T08:18:48Z</time>
      </trkpt>
      <trkpt lat="39.411180" lon="-5.379070">
        <ele>658.642273</ele>
        <time>2010-05-21T08:18:49Z</time>
      </trkpt>
      <trkpt lat="39.411270" lon="-5.378580">
        <ele>658.154663</ele>
        <time>2010-05-21T08:18:50Z</time>
      </trkpt>
      <trkpt lat="39.411410" lon="-5.378250">
        <ele>657.209717</ele>
        <time>2010-05-21T08:18:51Z</time>
      </trkpt>
      <trkpt lat="39.411510" lon="-5.378020">
        <ele>657.666931</ele>
        <time>2010-05-21T08:18:52Z</time>
      </trkpt>
      <trkpt lat="39.411450" lon="-5.377940">
        <ele>658.154663</ele>
        <time>2010-05-21T08:18:53Z</time>
      </trkpt>
      <trkpt lat="39.411420" lon="-5.377970">
        <ele>658.154663</ele>
        <time>2010-05-21T08:18:54Z</time>
      </trkpt>
      <trkpt lat="39.411430" lon="-5.377970">
        <ele>656.234375</ele>
        <time>2010-05-21T08:18:55Z</time>
      </trkpt>
      <trkpt lat="39.411350" lon="-5.378080">
        <ele>656.234375</ele>
        <time>2010-05-21T08:18:56Z</time>
      </trkpt>
      <trkpt lat="39.411060" lon="-5.378360">
        <ele>655.746704</ele>
        <time>2010-05-21T08:18:57Z</time>
      </trkpt>
      <trkpt lat="39.410770" lon="-5.378410">
        <ele>655.746704</ele>
        <time>2010-05-21T08:18:58Z</time>
      </trkpt>
      <trkpt lat="39.410630" lon="-5.378390">
        <ele>657.209717</ele>
        <time>2010-05-21T08:18:59Z</time>
      </trkpt>
      <trkpt lat="39.410650" lon="-5.378350">
        <ele>658.642273</ele>
        <time>2010-05-21T08:19:00Z</time>
      </trkpt>
      <trkpt lat="39.410610" lon="-5.378400">
        <ele>658.642273</ele>
        <time>2010-05-21T08:19:01Z</time>
      </trkpt>
      <trkpt lat="39.410360" lon="-5.378820">
        <ele>659.130005</ele>
        <time>2010-05-21T08:19:02Z</time>
      </trkpt>
      <trkpt lat="39.410310" lon="-5.378800">
        <ele>658.154663</ele>
        <time>2010-05-21T08:19:03Z</time>
      </trkpt>
      <trkpt lat="39.409620" lon="-5.378420">
        <ele>684.123596</ele>
        <time>2010-05-21T08:19:04Z</time>
      </trkpt>
      <trkpt lat="39.409480" lon="-5.378360">
        <ele>694.212524</ele>
        <time>2010-05-21T08:19:05Z</time>
      </trkpt>
      <trkpt lat="39.409250" lon="-5.378260">
        <ele>708.629517</ele>
        <time>2010-05-21T08:19:06Z</time>
      </trkpt>
      <trkpt lat="39.409000" lon="-5.378270">
        <ele>750.935730</ele>
        <time>2010-05-21T08:19:07Z</time>
      </trkpt>
      <trkpt lat="39.408570" lon="-5.378150">
        <ele>769.680969</ele>
        <time>2010-05-21T08:19:08Z</time>
      </trkpt>
      <trkpt lat="39.408190" lon="-5.377990">
        <ele>793.211487</ele>
        <time>2010-05-21T08:19:09Z</time>
      </trkpt>
      <trkpt lat="39.407900" lon="-5.377890">
        <ele>797.539734</ele>
        <time>2010-05-21T08:19:10Z</time>
      </trkpt>
      <trkpt lat="39.407750" lon="-5.377870">
        <ele>812.932129</ele>
        <time>2010-05-21T08:19:11Z</time>
      </trkpt>
      <trkpt lat="39.407342" lon="-5.377795">
        <ele>831.677307</ele>
        <time>2010-05-21T08:19:12Z</time>
      </trkpt>
      <trkpt lat="39.407320" lon="-5.377850">
        <ele>843.686401</ele>
        <time>2010-05-19T19:09:05Z</time>
      </trkpt>
      <trkpt lat="39.408280" lon="-5.376130">
        <ele>860.511353</ele>
        <time>2010-05-19T19:09:05Z</time>
      </trkpt>
      <trkpt lat="39.408400" lon="-5.375520">
        <ele>863.894653</ele>
        <time>2010-05-19T19:09:05Z</time>
      </trkpt>
      <trkpt lat="39.410030" lon="-5.373310">
        <ele>885.504944</ele>
        <time>2010-05-19T19:09:05Z</time>
      </trkpt>
      <trkpt lat="39.411370" lon="-5.372540">
        <ele>900.409729</ele>
        <time>2010-05-19T19:09:05Z</time>
      </trkpt>
      <trkpt lat="39.412750" lon="-5.370210">
        <ele>921.075073</ele>
        <time>2010-05-19T19:09:05Z</time>
      </trkpt>
      <trkpt lat="39.413800" lon="-5.369390">
        <ele>934.547302</ele>
        <time>2010-05-19T19:09:05Z</time>
      </trkpt>
      <trkpt lat="39.414590" lon="-5.367420">
        <ele>940.307983</ele>
        <time>2010-05-19T19:09:04Z</time>
      </trkpt>
      <trkpt lat="39.415610" lon="-5.366330">
        <ele>950.396912</ele>
        <time>2010-05-19T19:09:04Z</time>
      </trkpt>
      <trkpt lat="39.415950" lon="-5.365640">
        <ele>964.813904</ele>
        <time>2010-05-19T19:09:04Z</time>
      </trkpt>
      <trkpt lat="39.416910" lon="-5.365160">
        <ele>967.221863</ele>
        <time>2010-05-19T19:09:04Z</time>
      </trkpt>
      <trkpt lat="39.417280" lon="-5.364560">
        <ele>969.142090</ele>
        <time>2010-05-19T19:09:04Z</time>
      </trkpt>
      <trkpt lat="39.419970" lon="-5.362050">
        <ele>972.525330</ele>
        <time>2010-05-19T19:09:04Z</time>
      </trkpt>
      <trkpt lat="39.422130" lon="-5.361850">
        <ele>968.654419</ele>
        <time>2010-05-19T19:09:04Z</time>
      </trkpt>
      <trkpt lat="39.423590" lon="-5.360650">
        <ele>954.237366</ele>
        <time>2010-05-19T19:09:04Z</time>
      </trkpt>
      <trkpt lat="39.424220" lon="-5.359670">
        <ele>948.476685</ele>
        <time>2010-05-19T19:09:04Z</time>
      </trkpt>
      <trkpt lat="39.424630" lon="-5.359420">
        <ele>947.044128</ele>
        <time>2010-05-19T19:09:04Z</time>
      </trkpt>
      <trkpt lat="39.425700" lon="-5.359750">
        <ele>936.955200</ele>
        <time>2010-05-19T19:09:04Z</time>
      </trkpt>
      <trkpt lat="39.426910" lon="-5.359640">
        <ele>916.259338</ele>
        <time>2010-05-19T19:09:04Z</time>
      </trkpt>
      <trkpt lat="39.426280" lon="-5.357200">
        <ele>909.065979</ele>
        <time>2010-05-19T19:09:04Z</time>
      </trkpt>
      <trkpt lat="39.426490" lon="-5.356320">
        <ele>887.425171</ele>
        <time>2010-05-19T19:09:04Z</time>
      </trkpt>
      <trkpt lat="39.427450" lon="-5.356110">
        <ele>877.823975</ele>
        <time>2010-05-19T19:09:04Z</time>
      </trkpt>
      <trkpt lat="39.428320" lon="-5.355430">
        <ele>825.916565</ele>
        <time>2010-05-19T19:09:04Z</time>
      </trkpt>
      <trkpt lat="39.428340" lon="-5.353700">
        <ele>805.708313</ele>
        <time>2010-05-19T19:09:04Z</time>
      </trkpt>
      <trkpt lat="39.429200" lon="-5.353080">
        <ele>776.417053</ele>
        <time>2010-05-19T19:09:04Z</time>
      </trkpt>
      <trkpt lat="39.429900" lon="-5.351880">
        <ele>757.641357</ele>
        <time>2010-05-19T19:09:04Z</time>
      </trkpt>
      <trkpt lat="39.431280" lon="-5.351220">
        <ele>754.288574</ele>
        <time>2010-05-19T19:09:04Z</time>
      </trkpt>
      <trkpt lat="39.432290" lon="-5.351030">
        <ele>748.040161</ele>
        <time>2010-05-19T19:09:04Z</time>
      </trkpt>
      <trkpt lat="39.432630" lon="-5.350620">
        <ele>745.144531</ele>
        <time>2010-05-19T19:09:04Z</time>
      </trkpt>
      <trkpt lat="39.432550" lon="-5.349050">
        <ele>736.031067</ele>
        <time>2010-05-19T19:09:04Z</time>
      </trkpt>
      <trkpt lat="39.433040" lon="-5.348720">
        <ele>726.887085</ele>
        <time>2010-05-19T19:09:04Z</time>
      </trkpt>
      <trkpt lat="39.434520" lon="-5.345310">
        <ele>718.718384</ele>
        <time>2010-05-19T19:09:04Z</time>
      </trkpt>
      <trkpt lat="39.435340" lon="-5.344020">
        <ele>713.445374</ele>
        <time>2010-05-19T19:09:04Z</time>
      </trkpt>
      <trkpt lat="39.436000" lon="-5.342220">
        <ele>703.356506</ele>
        <time>2010-05-19T19:09:04Z</time>
      </trkpt>
      <trkpt lat="39.437460" lon="-5.341740">
        <ele>692.779907</ele>
        <time>2010-05-19T19:09:04Z</time>
      </trkpt>
      <trkpt lat="39.438070" lon="-5.340610">
        <ele>673.547058</ele>
        <time>2010-05-19T19:09:04Z</time>
      </trkpt>
      <trkpt lat="39.438630" lon="-5.340200">
        <ele>647.090393</ele>
        <time>2010-05-19T19:09:04Z</time>
      </trkpt>
      <trkpt lat="39.438950" lon="-5.340030">
        <ele>633.648682</ele>
        <time>2010-05-19T19:09:04Z</time>
      </trkpt>
      <trkpt lat="39.439510" lon="-5.340240">
        <ele>627.888000</ele>
        <time>2010-05-19T19:09:04Z</time>
      </trkpt>
      <trkpt lat="39.439620" lon="-5.339480">
        <ele>618.256348</ele>
        <time>2010-05-19T19:09:04Z</time>
      </trkpt>
      <trkpt lat="39.440570" lon="-5.338600">
        <ele>605.302307</ele>
        <time>2010-05-19T19:09:04Z</time>
      </trkpt>
      <trkpt lat="39.441220" lon="-5.338420">
        <ele>573.572632</ele>
        <time>2010-05-19T19:09:04Z</time>
      </trkpt>
      <trkpt lat="39.441970" lon="-5.338740">
        <ele>568.269104</ele>
        <time>2010-05-19T19:09:04Z</time>
      </trkpt>
      <trkpt lat="39.441790" lon="-5.337730">
        <ele>562.508423</ele>
        <time>2010-05-19T19:09:04Z</time>
      </trkpt>
      <trkpt lat="39.440570" lon="-5.336310">
        <ele>557.235352</ele>
        <time>2010-05-19T19:09:04Z</time>
      </trkpt>
      <trkpt lat="39.440450" lon="-5.332170">
        <ele>552.419556</ele>
        <time>2010-05-19T19:09:04Z</time>
      </trkpt>
      <trkpt lat="39.439570" lon="-5.331470">
        <ele>559.155579</ele>
        <time>2010-05-19T19:09:04Z</time>
      </trkpt>
      <trkpt lat="39.439450" lon="-5.331050">
        <ele>556.260010</ele>
        <time>2010-05-19T19:09:04Z</time>
      </trkpt>
      <trkpt lat="39.439440" lon="-5.330270">
        <ele>574.029846</ele>
        <time>2010-05-19T19:09:04Z</time>
      </trkpt>
      <trkpt lat="39.439870" lon="-5.329480">
        <ele>583.661499</ele>
        <time>2010-05-19T19:09:04Z</time>
      </trkpt>
      <trkpt lat="39.442270" lon="-5.328640">
        <ele>593.262756</ele>
        <time>2010-05-19T19:09:04Z</time>
      </trkpt>
      <trkpt lat="39.442680" lon="-5.328730">
        <ele>599.023438</ele>
        <time>2010-05-19T19:09:04Z</time>
      </trkpt>
      <trkpt lat="39.443200" lon="-5.329820">
        <ele>610.087646</ele>
        <time>2010-05-19T19:09:04Z</time>
      </trkpt>
      <trkpt lat="39.443720" lon="-5.330370">
        <ele>620.176575</ele>
        <time>2010-05-19T19:09:04Z</time>
      </trkpt>
      <trkpt lat="39.444460" lon="-5.330700">
        <ele>621.639587</ele>
        <time>2010-05-19T19:09:04Z</time>
      </trkpt>
      <trkpt lat="39.444960" lon="-5.329850">
        <ele>630.295898</ele>
        <time>2010-05-19T19:09:04Z</time>
      </trkpt>
      <trkpt lat="39.445090" lon="-5.328850">
        <ele>634.593628</ele>
        <time>2010-05-19T19:09:04Z</time>
      </trkpt>
      <trkpt lat="39.446390" lon="-5.329010">
        <ele>637.001465</ele>
        <time>2010-05-19T19:09:04Z</time>
      </trkpt>
      <trkpt lat="39.447260" lon="-5.329530">
        <time>2010-05-19T19:09:04Z</time>
      </trkpt>
      <trkpt lat="39.448030" lon="-5.329030">
        <time>2010-05-19T19:09:04Z</time>
      </trkpt>
      <trkpt lat="39.448630" lon="-5.329160">
        <time>2010-05-19T19:09:04Z</time>
      </trkpt>
      <trkpt lat="39.449930" lon="-5.330110">
        <time>2010-05-19T19:09:04Z</time>
      </trkpt>
      <trkpt lat="39.451120" lon="-5.329460">
        <time>2010-05-19T19:09:04Z</time>
      </trkpt>
      <trkpt lat="39.450180" lon="-5.328380">
        <time>2010-05-19T19:09:04Z</time>
      </trkpt>
      <trkpt lat="39.450510" lon="-5.327700">
        <time>2010-05-19T19:09:04Z</time>
      </trkpt>
      <trkpt lat="39.451370" lon="-5.327960">
        <time>2010-05-19T19:09:04Z</time>
      </trkpt>
      <trkpt lat="39.452100" lon="-5.327400">
        <time>2010-05-19T19:09:04Z</time>
      </trkpt>
    </trkseg>
  </trk>
</gpx>
